<?xml version="1.0" encoding="UTF-8" standalone="no" ?>
<gpx xmlns="http://www.topografix.com/GPX/1/1" xmlns:xsi="http://www.w3.org/2001/XMLSchema-instance" xsi:schemaLocation="http://www.topografix.com/GPX/1/1 http://www.topografix.com/GPX/1/1/gpx.xsd" version="1.1" creator="VisuGPX - https://www.visugpx.com">
  <metadata>
    <name>Rando course sur le Laveron</name>
    <desc><![CDATA[Rando course sur le Laveron par la Croix de la Bèche]]></desc>
  </metadata>
  <trk>
    <name><![CDATA[Course à pied matinale]]></name>
    <trkseg>
      <trkpt lat="46.86544" lon="6.24395">
        <ele>835.9</ele>
        <time>2016-12-12T09:59:01Z</time>
      </trkpt>
      <trkpt lat="46.86545" lon="6.244">
        <ele>835.9</ele>
        <time>2016-12-12T09:59:10Z</time>
      </trkpt>
      <trkpt lat="46.86546" lon="6.24403">
        <ele>835.8</ele>
        <time>2016-12-12T09:59:15Z</time>
      </trkpt>
      <trkpt lat="46.86542" lon="6.2441">
        <ele>836</ele>
        <time>2016-12-12T09:59:17Z</time>
      </trkpt>
      <trkpt lat="46.86539" lon="6.24414">
        <ele>836.1</ele>
        <time>2016-12-12T09:59:18Z</time>
      </trkpt>
      <trkpt lat="46.86536" lon="6.24418">
        <ele>836.3</ele>
        <time>2016-12-12T09:59:20Z</time>
      </trkpt>
      <trkpt lat="46.86535" lon="6.24422">
        <ele>836.3</ele>
        <time>2016-12-12T09:59:21Z</time>
      </trkpt>
      <trkpt lat="46.86532" lon="6.24425">
        <ele>836.5</ele>
        <time>2016-12-12T09:59:23Z</time>
      </trkpt>
      <trkpt lat="46.86528" lon="6.2443">
        <ele>836.6</ele>
        <time>2016-12-12T09:59:25Z</time>
      </trkpt>
      <trkpt lat="46.86525" lon="6.24434">
        <ele>836.8</ele>
        <time>2016-12-12T09:59:27Z</time>
      </trkpt>
      <trkpt lat="46.8652" lon="6.24439">
        <ele>837</ele>
        <time>2016-12-12T09:59:29Z</time>
      </trkpt>
      <trkpt lat="46.86517" lon="6.24445">
        <ele>837.2</ele>
        <time>2016-12-12T09:59:31Z</time>
      </trkpt>
      <trkpt lat="46.86516" lon="6.2445">
        <ele>837.3</ele>
        <time>2016-12-12T09:59:32Z</time>
      </trkpt>
      <trkpt lat="46.86514" lon="6.24453">
        <ele>837.4</ele>
        <time>2016-12-12T09:59:33Z</time>
      </trkpt>
      <trkpt lat="46.86511" lon="6.24457">
        <ele>837.5</ele>
        <time>2016-12-12T09:59:34Z</time>
      </trkpt>
      <trkpt lat="46.86509" lon="6.24459">
        <ele>837.5</ele>
        <time>2016-12-12T09:59:35Z</time>
      </trkpt>
      <trkpt lat="46.86507" lon="6.24463">
        <ele>837.5</ele>
        <time>2016-12-12T09:59:36Z</time>
      </trkpt>
      <trkpt lat="46.86505" lon="6.24467">
        <ele>837.5</ele>
        <time>2016-12-12T09:59:37Z</time>
      </trkpt>
      <trkpt lat="46.86502" lon="6.24472">
        <ele>837.5</ele>
        <time>2016-12-12T09:59:39Z</time>
      </trkpt>
      <trkpt lat="46.86499" lon="6.24479">
        <ele>837.4</ele>
        <time>2016-12-12T09:59:41Z</time>
      </trkpt>
      <trkpt lat="46.86496" lon="6.24483">
        <ele>837.5</ele>
        <time>2016-12-12T09:59:43Z</time>
      </trkpt>
      <trkpt lat="46.86493" lon="6.24487">
        <ele>837.5</ele>
        <time>2016-12-12T09:59:45Z</time>
      </trkpt>
      <trkpt lat="46.86488" lon="6.24489">
        <ele>837.6</ele>
        <time>2016-12-12T09:59:47Z</time>
      </trkpt>
      <trkpt lat="46.86486" lon="6.24491">
        <ele>837.6</ele>
        <time>2016-12-12T09:59:48Z</time>
      </trkpt>
      <trkpt lat="46.86482" lon="6.24496">
        <ele>837.7</ele>
        <time>2016-12-12T09:59:50Z</time>
      </trkpt>
      <trkpt lat="46.86479" lon="6.24498">
        <ele>837.7</ele>
        <time>2016-12-12T09:59:51Z</time>
      </trkpt>
      <trkpt lat="46.86476" lon="6.24501">
        <ele>837.8</ele>
        <time>2016-12-12T09:59:53Z</time>
      </trkpt>
      <trkpt lat="46.86471" lon="6.24503">
        <ele>837.8</ele>
        <time>2016-12-12T09:59:55Z</time>
      </trkpt>
      <trkpt lat="46.86468" lon="6.24505">
        <ele>837.9</ele>
        <time>2016-12-12T09:59:57Z</time>
      </trkpt>
      <trkpt lat="46.86463" lon="6.24507">
        <ele>838.1</ele>
        <time>2016-12-12T09:59:59Z</time>
      </trkpt>
      <trkpt lat="46.8646" lon="6.24509">
        <ele>838.1</ele>
        <time>2016-12-12T10:00:00Z</time>
      </trkpt>
      <trkpt lat="46.86458" lon="6.24511">
        <ele>838.1</ele>
        <time>2016-12-12T10:00:01Z</time>
      </trkpt>
      <trkpt lat="46.86454" lon="6.24514">
        <ele>838.2</ele>
        <time>2016-12-12T10:00:03Z</time>
      </trkpt>
      <trkpt lat="46.8645" lon="6.24517">
        <ele>838.2</ele>
        <time>2016-12-12T10:00:05Z</time>
      </trkpt>
      <trkpt lat="46.86447" lon="6.2452">
        <ele>838.3</ele>
        <time>2016-12-12T10:00:07Z</time>
      </trkpt>
      <trkpt lat="46.86442" lon="6.24524">
        <ele>838.4</ele>
        <time>2016-12-12T10:00:09Z</time>
      </trkpt>
      <trkpt lat="46.86439" lon="6.24528">
        <ele>838.4</ele>
        <time>2016-12-12T10:00:11Z</time>
      </trkpt>
      <trkpt lat="46.86437" lon="6.24531">
        <ele>838.4</ele>
        <time>2016-12-12T10:00:12Z</time>
      </trkpt>
      <trkpt lat="46.86433" lon="6.24534">
        <ele>838.5</ele>
        <time>2016-12-12T10:00:14Z</time>
      </trkpt>
      <trkpt lat="46.86429" lon="6.24538">
        <ele>838.5</ele>
        <time>2016-12-12T10:00:16Z</time>
      </trkpt>
      <trkpt lat="46.86427" lon="6.24541">
        <ele>838.6</ele>
        <time>2016-12-12T10:00:17Z</time>
      </trkpt>
      <trkpt lat="46.86424" lon="6.24543">
        <ele>838.6</ele>
        <time>2016-12-12T10:00:18Z</time>
      </trkpt>
      <trkpt lat="46.86421" lon="6.24545">
        <ele>838.7</ele>
        <time>2016-12-12T10:00:19Z</time>
      </trkpt>
      <trkpt lat="46.86417" lon="6.24548">
        <ele>838.9</ele>
        <time>2016-12-12T10:00:21Z</time>
      </trkpt>
      <trkpt lat="46.86415" lon="6.24552">
        <ele>839</ele>
        <time>2016-12-12T10:00:23Z</time>
      </trkpt>
      <trkpt lat="46.86412" lon="6.24554">
        <ele>839.1</ele>
        <time>2016-12-12T10:00:24Z</time>
      </trkpt>
      <trkpt lat="46.8641" lon="6.24557">
        <ele>839.1</ele>
        <time>2016-12-12T10:00:25Z</time>
      </trkpt>
      <trkpt lat="46.86408" lon="6.24559">
        <ele>839.2</ele>
        <time>2016-12-12T10:00:26Z</time>
      </trkpt>
      <trkpt lat="46.86407" lon="6.24564">
        <ele>839.1</ele>
        <time>2016-12-12T10:00:28Z</time>
      </trkpt>
      <trkpt lat="46.86404" lon="6.2457">
        <ele>839.2</ele>
        <time>2016-12-12T10:00:30Z</time>
      </trkpt>
      <trkpt lat="46.86401" lon="6.24575">
        <ele>839.2</ele>
        <time>2016-12-12T10:00:33Z</time>
      </trkpt>
      <trkpt lat="46.86398" lon="6.24577">
        <ele>839.3</ele>
        <time>2016-12-12T10:00:35Z</time>
      </trkpt>
      <trkpt lat="46.86395" lon="6.24581">
        <ele>839.3</ele>
        <time>2016-12-12T10:00:38Z</time>
      </trkpt>
      <trkpt lat="46.86393" lon="6.24584">
        <ele>839.3</ele>
        <time>2016-12-12T10:00:40Z</time>
      </trkpt>
      <trkpt lat="46.86391" lon="6.24587">
        <ele>839.4</ele>
        <time>2016-12-12T10:00:42Z</time>
      </trkpt>
      <trkpt lat="46.86389" lon="6.24591">
        <ele>839.4</ele>
        <time>2016-12-12T10:00:44Z</time>
      </trkpt>
      <trkpt lat="46.86387" lon="6.24595">
        <ele>839.3</ele>
        <time>2016-12-12T10:00:46Z</time>
      </trkpt>
      <trkpt lat="46.86385" lon="6.24599">
        <ele>839.3</ele>
        <time>2016-12-12T10:00:48Z</time>
      </trkpt>
      <trkpt lat="46.86381" lon="6.24602">
        <ele>839.4</ele>
        <time>2016-12-12T10:00:51Z</time>
      </trkpt>
      <trkpt lat="46.86377" lon="6.24606">
        <ele>839.4</ele>
        <time>2016-12-12T10:00:55Z</time>
      </trkpt>
      <trkpt lat="46.86376" lon="6.2461">
        <ele>839.3</ele>
        <time>2016-12-12T10:00:58Z</time>
      </trkpt>
      <trkpt lat="46.86374" lon="6.24614">
        <ele>839.3</ele>
        <time>2016-12-12T10:01:00Z</time>
      </trkpt>
      <trkpt lat="46.86371" lon="6.24618">
        <ele>839.3</ele>
        <time>2016-12-12T10:01:02Z</time>
      </trkpt>
      <trkpt lat="46.8637" lon="6.24623">
        <ele>839.3</ele>
        <time>2016-12-12T10:01:04Z</time>
      </trkpt>
      <trkpt lat="46.86369" lon="6.24627">
        <ele>839.3</ele>
        <time>2016-12-12T10:01:06Z</time>
      </trkpt>
      <trkpt lat="46.86367" lon="6.24632">
        <ele>839.4</ele>
        <time>2016-12-12T10:01:09Z</time>
      </trkpt>
      <trkpt lat="46.86366" lon="6.24636">
        <ele>839.5</ele>
        <time>2016-12-12T10:01:11Z</time>
      </trkpt>
      <trkpt lat="46.86365" lon="6.2464">
        <ele>839.6</ele>
        <time>2016-12-12T10:01:13Z</time>
      </trkpt>
      <trkpt lat="46.86362" lon="6.24644">
        <ele>839.7</ele>
        <time>2016-12-12T10:01:16Z</time>
      </trkpt>
      <trkpt lat="46.8636" lon="6.24647">
        <ele>839.9</ele>
        <time>2016-12-12T10:01:19Z</time>
      </trkpt>
      <trkpt lat="46.86357" lon="6.2465">
        <ele>840</ele>
        <time>2016-12-12T10:01:21Z</time>
      </trkpt>
      <trkpt lat="46.86352" lon="6.24655">
        <ele>840.4</ele>
        <time>2016-12-12T10:01:23Z</time>
      </trkpt>
      <trkpt lat="46.8635" lon="6.24657">
        <ele>840.6</ele>
        <time>2016-12-12T10:01:24Z</time>
      </trkpt>
      <trkpt lat="46.86346" lon="6.24661">
        <ele>840.8</ele>
        <time>2016-12-12T10:01:26Z</time>
      </trkpt>
      <trkpt lat="46.86344" lon="6.24664">
        <ele>841</ele>
        <time>2016-12-12T10:01:27Z</time>
      </trkpt>
      <trkpt lat="46.86343" lon="6.24668">
        <ele>841.2</ele>
        <time>2016-12-12T10:01:28Z</time>
      </trkpt>
      <trkpt lat="46.86341" lon="6.24673">
        <ele>841.3</ele>
        <time>2016-12-12T10:01:30Z</time>
      </trkpt>
      <trkpt lat="46.8634" lon="6.24677">
        <ele>841.5</ele>
        <time>2016-12-12T10:01:32Z</time>
      </trkpt>
      <trkpt lat="46.86337" lon="6.24682">
        <ele>841.7</ele>
        <time>2016-12-12T10:01:35Z</time>
      </trkpt>
      <trkpt lat="46.86335" lon="6.24685">
        <ele>842</ele>
        <time>2016-12-12T10:01:37Z</time>
      </trkpt>
      <trkpt lat="46.86333" lon="6.24689">
        <ele>842.2</ele>
        <time>2016-12-12T10:01:39Z</time>
      </trkpt>
      <trkpt lat="46.8633" lon="6.24692">
        <ele>842.5</ele>
        <time>2016-12-12T10:01:42Z</time>
      </trkpt>
      <trkpt lat="46.86327" lon="6.24695">
        <ele>842.7</ele>
        <time>2016-12-12T10:01:44Z</time>
      </trkpt>
      <trkpt lat="46.86326" lon="6.24698">
        <ele>842.9</ele>
        <time>2016-12-12T10:01:47Z</time>
      </trkpt>
      <trkpt lat="46.86324" lon="6.24702">
        <ele>843.2</ele>
        <time>2016-12-12T10:01:50Z</time>
      </trkpt>
      <trkpt lat="46.86321" lon="6.24707">
        <ele>843.5</ele>
        <time>2016-12-12T10:01:52Z</time>
      </trkpt>
      <trkpt lat="46.8632" lon="6.24711">
        <ele>843.6</ele>
        <time>2016-12-12T10:01:54Z</time>
      </trkpt>
      <trkpt lat="46.86317" lon="6.24715">
        <ele>843.8</ele>
        <time>2016-12-12T10:01:56Z</time>
      </trkpt>
      <trkpt lat="46.86315" lon="6.24719">
        <ele>844</ele>
        <time>2016-12-12T10:01:58Z</time>
      </trkpt>
      <trkpt lat="46.86311" lon="6.24723">
        <ele>844.3</ele>
        <time>2016-12-12T10:02:00Z</time>
      </trkpt>
      <trkpt lat="46.86308" lon="6.24727">
        <ele>844.5</ele>
        <time>2016-12-12T10:02:02Z</time>
      </trkpt>
      <trkpt lat="46.86305" lon="6.2473">
        <ele>844.7</ele>
        <time>2016-12-12T10:02:05Z</time>
      </trkpt>
      <trkpt lat="46.86302" lon="6.24735">
        <ele>844.9</ele>
        <time>2016-12-12T10:02:07Z</time>
      </trkpt>
      <trkpt lat="46.86299" lon="6.24739">
        <ele>845.1</ele>
        <time>2016-12-12T10:02:09Z</time>
      </trkpt>
      <trkpt lat="46.86295" lon="6.24745">
        <ele>845.3</ele>
        <time>2016-12-12T10:02:11Z</time>
      </trkpt>
      <trkpt lat="46.86292" lon="6.24751">
        <ele>845.5</ele>
        <time>2016-12-12T10:02:13Z</time>
      </trkpt>
      <trkpt lat="46.86288" lon="6.24755">
        <ele>846</ele>
        <time>2016-12-12T10:02:15Z</time>
      </trkpt>
      <trkpt lat="46.86286" lon="6.2476">
        <ele>846.4</ele>
        <time>2016-12-12T10:02:17Z</time>
      </trkpt>
      <trkpt lat="46.86282" lon="6.24765">
        <ele>846.9</ele>
        <time>2016-12-12T10:02:19Z</time>
      </trkpt>
      <trkpt lat="46.86279" lon="6.24771">
        <ele>847.3</ele>
        <time>2016-12-12T10:02:21Z</time>
      </trkpt>
      <trkpt lat="46.86278" lon="6.24774">
        <ele>847.5</ele>
        <time>2016-12-12T10:02:22Z</time>
      </trkpt>
      <trkpt lat="46.86275" lon="6.2478">
        <ele>848</ele>
        <time>2016-12-12T10:02:24Z</time>
      </trkpt>
      <trkpt lat="46.86272" lon="6.24784">
        <ele>848.4</ele>
        <time>2016-12-12T10:02:26Z</time>
      </trkpt>
      <trkpt lat="46.86269" lon="6.24787">
        <ele>848.8</ele>
        <time>2016-12-12T10:02:28Z</time>
      </trkpt>
      <trkpt lat="46.86267" lon="6.2479">
        <ele>849.1</ele>
        <time>2016-12-12T10:02:30Z</time>
      </trkpt>
      <trkpt lat="46.86265" lon="6.24793">
        <ele>849.5</ele>
        <time>2016-12-12T10:02:32Z</time>
      </trkpt>
      <trkpt lat="46.86263" lon="6.24797">
        <ele>849.7</ele>
        <time>2016-12-12T10:02:33Z</time>
      </trkpt>
      <trkpt lat="46.86261" lon="6.24802">
        <ele>849.9</ele>
        <time>2016-12-12T10:02:35Z</time>
      </trkpt>
      <trkpt lat="46.86259" lon="6.24805">
        <ele>850.1</ele>
        <time>2016-12-12T10:02:36Z</time>
      </trkpt>
      <trkpt lat="46.86255" lon="6.2481">
        <ele>850.7</ele>
        <time>2016-12-12T10:02:38Z</time>
      </trkpt>
      <trkpt lat="46.86253" lon="6.24812">
        <ele>851</ele>
        <time>2016-12-12T10:02:39Z</time>
      </trkpt>
      <trkpt lat="46.86249" lon="6.24815">
        <ele>851.4</ele>
        <time>2016-12-12T10:02:41Z</time>
      </trkpt>
      <trkpt lat="46.86245" lon="6.24817">
        <ele>851.9</ele>
        <time>2016-12-12T10:02:43Z</time>
      </trkpt>
      <trkpt lat="46.86242" lon="6.24819">
        <ele>852.3</ele>
        <time>2016-12-12T10:02:45Z</time>
      </trkpt>
      <trkpt lat="46.86239" lon="6.24821">
        <ele>852.6</ele>
        <time>2016-12-12T10:02:47Z</time>
      </trkpt>
      <trkpt lat="46.86236" lon="6.24823">
        <ele>852.9</ele>
        <time>2016-12-12T10:02:49Z</time>
      </trkpt>
      <trkpt lat="46.86232" lon="6.24825">
        <ele>853.4</ele>
        <time>2016-12-12T10:02:51Z</time>
      </trkpt>
      <trkpt lat="46.86228" lon="6.24826">
        <ele>853.9</ele>
        <time>2016-12-12T10:02:53Z</time>
      </trkpt>
      <trkpt lat="46.86224" lon="6.24828">
        <ele>854.4</ele>
        <time>2016-12-12T10:02:55Z</time>
      </trkpt>
      <trkpt lat="46.86221" lon="6.2483">
        <ele>854.6</ele>
        <time>2016-12-12T10:02:56Z</time>
      </trkpt>
      <trkpt lat="46.86218" lon="6.24835">
        <ele>854.7</ele>
        <time>2016-12-12T10:02:58Z</time>
      </trkpt>
      <trkpt lat="46.86216" lon="6.24839">
        <ele>854.7</ele>
        <time>2016-12-12T10:03:00Z</time>
      </trkpt>
      <trkpt lat="46.86213" lon="6.24843">
        <ele>854.7</ele>
        <time>2016-12-12T10:03:03Z</time>
      </trkpt>
      <trkpt lat="46.86211" lon="6.24845">
        <ele>854.9</ele>
        <time>2016-12-12T10:03:04Z</time>
      </trkpt>
      <trkpt lat="46.86206" lon="6.24847">
        <ele>855.1</ele>
        <time>2016-12-12T10:03:06Z</time>
      </trkpt>
      <trkpt lat="46.86202" lon="6.2485">
        <ele>855</ele>
        <time>2016-12-12T10:03:08Z</time>
      </trkpt>
      <trkpt lat="46.862" lon="6.24854">
        <ele>854.8</ele>
        <time>2016-12-12T10:03:10Z</time>
      </trkpt>
      <trkpt lat="46.86197" lon="6.24857">
        <ele>854.6</ele>
        <time>2016-12-12T10:03:13Z</time>
      </trkpt>
      <trkpt lat="46.86193" lon="6.24859">
        <ele>854.6</ele>
        <time>2016-12-12T10:03:16Z</time>
      </trkpt>
      <trkpt lat="46.8619" lon="6.24861">
        <ele>854.6</ele>
        <time>2016-12-12T10:03:18Z</time>
      </trkpt>
      <trkpt lat="46.86187" lon="6.24863">
        <ele>854.5</ele>
        <time>2016-12-12T10:03:20Z</time>
      </trkpt>
      <trkpt lat="46.86184" lon="6.24864">
        <ele>854.5</ele>
        <time>2016-12-12T10:03:23Z</time>
      </trkpt>
      <trkpt lat="46.8618" lon="6.24867">
        <ele>854.4</ele>
        <time>2016-12-12T10:03:26Z</time>
      </trkpt>
      <trkpt lat="46.86177" lon="6.24869">
        <ele>854.3</ele>
        <time>2016-12-12T10:03:28Z</time>
      </trkpt>
      <trkpt lat="46.86174" lon="6.24871">
        <ele>854.2</ele>
        <time>2016-12-12T10:03:30Z</time>
      </trkpt>
      <trkpt lat="46.86171" lon="6.24872">
        <ele>854.2</ele>
        <time>2016-12-12T10:03:32Z</time>
      </trkpt>
      <trkpt lat="46.86168" lon="6.24873">
        <ele>854.1</ele>
        <time>2016-12-12T10:03:34Z</time>
      </trkpt>
      <trkpt lat="46.86163" lon="6.24874">
        <ele>854.2</ele>
        <time>2016-12-12T10:03:36Z</time>
      </trkpt>
      <trkpt lat="46.86159" lon="6.24873">
        <ele>854.3</ele>
        <time>2016-12-12T10:03:38Z</time>
      </trkpt>
      <trkpt lat="46.86156" lon="6.24876">
        <ele>854.2</ele>
        <time>2016-12-12T10:03:40Z</time>
      </trkpt>
      <trkpt lat="46.86153" lon="6.24878">
        <ele>854.2</ele>
        <time>2016-12-12T10:03:42Z</time>
      </trkpt>
      <trkpt lat="46.8615" lon="6.24881">
        <ele>854.2</ele>
        <time>2016-12-12T10:03:44Z</time>
      </trkpt>
      <trkpt lat="46.86148" lon="6.24883">
        <ele>854.2</ele>
        <time>2016-12-12T10:03:46Z</time>
      </trkpt>
      <trkpt lat="46.86146" lon="6.24886">
        <ele>854.1</ele>
        <time>2016-12-12T10:03:48Z</time>
      </trkpt>
      <trkpt lat="46.86143" lon="6.24889">
        <ele>854.1</ele>
        <time>2016-12-12T10:03:51Z</time>
      </trkpt>
      <trkpt lat="46.8614" lon="6.2489">
        <ele>854.1</ele>
        <time>2016-12-12T10:03:53Z</time>
      </trkpt>
      <trkpt lat="46.86138" lon="6.24893">
        <ele>854</ele>
        <time>2016-12-12T10:03:55Z</time>
      </trkpt>
      <trkpt lat="46.86134" lon="6.24896">
        <ele>853.9</ele>
        <time>2016-12-12T10:03:57Z</time>
      </trkpt>
      <trkpt lat="46.86132" lon="6.24898">
        <ele>853.8</ele>
        <time>2016-12-12T10:03:59Z</time>
      </trkpt>
      <trkpt lat="46.86129" lon="6.249">
        <ele>853.8</ele>
        <time>2016-12-12T10:04:01Z</time>
      </trkpt>
      <trkpt lat="46.86126" lon="6.24902">
        <ele>853.7</ele>
        <time>2016-12-12T10:04:04Z</time>
      </trkpt>
      <trkpt lat="46.86123" lon="6.24903">
        <ele>853.6</ele>
        <time>2016-12-12T10:04:06Z</time>
      </trkpt>
      <trkpt lat="46.86118" lon="6.24906">
        <ele>853.5</ele>
        <time>2016-12-12T10:04:08Z</time>
      </trkpt>
      <trkpt lat="46.86115" lon="6.24907">
        <ele>853.5</ele>
        <time>2016-12-12T10:04:09Z</time>
      </trkpt>
      <trkpt lat="46.86112" lon="6.24908">
        <ele>853.4</ele>
        <time>2016-12-12T10:04:10Z</time>
      </trkpt>
      <trkpt lat="46.86107" lon="6.24912">
        <ele>853.3</ele>
        <time>2016-12-12T10:04:12Z</time>
      </trkpt>
      <trkpt lat="46.86104" lon="6.24914">
        <ele>853.2</ele>
        <time>2016-12-12T10:04:13Z</time>
      </trkpt>
      <trkpt lat="46.86102" lon="6.24916">
        <ele>853.2</ele>
        <time>2016-12-12T10:04:14Z</time>
      </trkpt>
      <trkpt lat="46.86099" lon="6.24917">
        <ele>853.1</ele>
        <time>2016-12-12T10:04:15Z</time>
      </trkpt>
      <trkpt lat="46.86096" lon="6.24921">
        <ele>853</ele>
        <time>2016-12-12T10:04:17Z</time>
      </trkpt>
      <trkpt lat="46.86093" lon="6.24925">
        <ele>852.9</ele>
        <time>2016-12-12T10:04:20Z</time>
      </trkpt>
      <trkpt lat="46.8609" lon="6.24928">
        <ele>852.8</ele>
        <time>2016-12-12T10:04:22Z</time>
      </trkpt>
      <trkpt lat="46.86087" lon="6.24934">
        <ele>852.7</ele>
        <time>2016-12-12T10:04:24Z</time>
      </trkpt>
      <trkpt lat="46.86084" lon="6.2494">
        <ele>852.5</ele>
        <time>2016-12-12T10:04:26Z</time>
      </trkpt>
      <trkpt lat="46.86081" lon="6.24946">
        <ele>852.4</ele>
        <time>2016-12-12T10:04:28Z</time>
      </trkpt>
      <trkpt lat="46.8608" lon="6.24949">
        <ele>852.4</ele>
        <time>2016-12-12T10:04:29Z</time>
      </trkpt>
      <trkpt lat="46.86078" lon="6.24953">
        <ele>852.3</ele>
        <time>2016-12-12T10:04:30Z</time>
      </trkpt>
      <trkpt lat="46.86075" lon="6.24958">
        <ele>852.2</ele>
        <time>2016-12-12T10:04:32Z</time>
      </trkpt>
      <trkpt lat="46.86072" lon="6.24964">
        <ele>852.2</ele>
        <time>2016-12-12T10:04:34Z</time>
      </trkpt>
      <trkpt lat="46.86069" lon="6.24969">
        <ele>852.2</ele>
        <time>2016-12-12T10:04:36Z</time>
      </trkpt>
      <trkpt lat="46.86066" lon="6.24973">
        <ele>852.3</ele>
        <time>2016-12-12T10:04:38Z</time>
      </trkpt>
      <trkpt lat="46.86063" lon="6.24975">
        <ele>852.3</ele>
        <time>2016-12-12T10:04:40Z</time>
      </trkpt>
      <trkpt lat="46.8606" lon="6.24979">
        <ele>852.4</ele>
        <time>2016-12-12T10:04:42Z</time>
      </trkpt>
      <trkpt lat="46.86056" lon="6.24982">
        <ele>852.5</ele>
        <time>2016-12-12T10:04:44Z</time>
      </trkpt>
      <trkpt lat="46.86052" lon="6.24985">
        <ele>852.7</ele>
        <time>2016-12-12T10:04:46Z</time>
      </trkpt>
      <trkpt lat="46.86048" lon="6.24989">
        <ele>852.8</ele>
        <time>2016-12-12T10:04:48Z</time>
      </trkpt>
      <trkpt lat="46.86045" lon="6.24992">
        <ele>852.9</ele>
        <time>2016-12-12T10:04:50Z</time>
      </trkpt>
      <trkpt lat="46.86041" lon="6.24996">
        <ele>853</ele>
        <time>2016-12-12T10:04:52Z</time>
      </trkpt>
      <trkpt lat="46.86037" lon="6.25001">
        <ele>853.1</ele>
        <time>2016-12-12T10:04:54Z</time>
      </trkpt>
      <trkpt lat="46.86033" lon="6.25004">
        <ele>853.3</ele>
        <time>2016-12-12T10:04:56Z</time>
      </trkpt>
      <trkpt lat="46.8603" lon="6.2501">
        <ele>853.4</ele>
        <time>2016-12-12T10:04:58Z</time>
      </trkpt>
      <trkpt lat="46.86025" lon="6.25014">
        <ele>853.6</ele>
        <time>2016-12-12T10:05:00Z</time>
      </trkpt>
      <trkpt lat="46.86023" lon="6.25017">
        <ele>853.7</ele>
        <time>2016-12-12T10:05:01Z</time>
      </trkpt>
      <trkpt lat="46.86021" lon="6.2502">
        <ele>853.8</ele>
        <time>2016-12-12T10:05:02Z</time>
      </trkpt>
      <trkpt lat="46.86017" lon="6.25025">
        <ele>854</ele>
        <time>2016-12-12T10:05:04Z</time>
      </trkpt>
      <trkpt lat="46.86014" lon="6.25029">
        <ele>854.2</ele>
        <time>2016-12-12T10:05:06Z</time>
      </trkpt>
      <trkpt lat="46.86011" lon="6.25031">
        <ele>854.3</ele>
        <time>2016-12-12T10:05:08Z</time>
      </trkpt>
      <trkpt lat="46.86007" lon="6.25034">
        <ele>854.5</ele>
        <time>2016-12-12T10:05:10Z</time>
      </trkpt>
      <trkpt lat="46.86003" lon="6.25038">
        <ele>854.8</ele>
        <time>2016-12-12T10:05:12Z</time>
      </trkpt>
      <trkpt lat="46.86001" lon="6.25041">
        <ele>854.9</ele>
        <time>2016-12-12T10:05:13Z</time>
      </trkpt>
      <trkpt lat="46.85998" lon="6.25044">
        <ele>855.1</ele>
        <time>2016-12-12T10:05:15Z</time>
      </trkpt>
      <trkpt lat="46.85995" lon="6.25049">
        <ele>855.3</ele>
        <time>2016-12-12T10:05:17Z</time>
      </trkpt>
      <trkpt lat="46.85993" lon="6.25053">
        <ele>855.4</ele>
        <time>2016-12-12T10:05:18Z</time>
      </trkpt>
      <trkpt lat="46.8599" lon="6.25057">
        <ele>855.6</ele>
        <time>2016-12-12T10:05:20Z</time>
      </trkpt>
      <trkpt lat="46.85986" lon="6.25062">
        <ele>855.8</ele>
        <time>2016-12-12T10:05:22Z</time>
      </trkpt>
      <trkpt lat="46.85982" lon="6.25066">
        <ele>856</ele>
        <time>2016-12-12T10:05:24Z</time>
      </trkpt>
      <trkpt lat="46.85978" lon="6.25068">
        <ele>856.1</ele>
        <time>2016-12-12T10:05:27Z</time>
      </trkpt>
      <trkpt lat="46.85975" lon="6.25071">
        <ele>856.3</ele>
        <time>2016-12-12T10:05:30Z</time>
      </trkpt>
      <trkpt lat="46.85973" lon="6.25073">
        <ele>856.4</ele>
        <time>2016-12-12T10:05:32Z</time>
      </trkpt>
      <trkpt lat="46.8597" lon="6.25076">
        <ele>856.5</ele>
        <time>2016-12-12T10:05:34Z</time>
      </trkpt>
      <trkpt lat="46.85965" lon="6.25078">
        <ele>856.7</ele>
        <time>2016-12-12T10:05:37Z</time>
      </trkpt>
      <trkpt lat="46.85962" lon="6.25081">
        <ele>856.9</ele>
        <time>2016-12-12T10:05:40Z</time>
      </trkpt>
      <trkpt lat="46.85958" lon="6.25084">
        <ele>857</ele>
        <time>2016-12-12T10:05:42Z</time>
      </trkpt>
      <trkpt lat="46.85955" lon="6.25088">
        <ele>857</ele>
        <time>2016-12-12T10:05:44Z</time>
      </trkpt>
      <trkpt lat="46.85953" lon="6.25091">
        <ele>857.1</ele>
        <time>2016-12-12T10:05:45Z</time>
      </trkpt>
      <trkpt lat="46.8595" lon="6.25095">
        <ele>857.1</ele>
        <time>2016-12-12T10:05:47Z</time>
      </trkpt>
      <trkpt lat="46.85945" lon="6.25097">
        <ele>857.2</ele>
        <time>2016-12-12T10:05:49Z</time>
      </trkpt>
      <trkpt lat="46.85942" lon="6.25099">
        <ele>857.3</ele>
        <time>2016-12-12T10:05:50Z</time>
      </trkpt>
      <trkpt lat="46.85938" lon="6.25102">
        <ele>857.4</ele>
        <time>2016-12-12T10:05:52Z</time>
      </trkpt>
      <trkpt lat="46.85933" lon="6.25104">
        <ele>857.4</ele>
        <time>2016-12-12T10:05:54Z</time>
      </trkpt>
      <trkpt lat="46.8593" lon="6.25105">
        <ele>857.5</ele>
        <time>2016-12-12T10:05:56Z</time>
      </trkpt>
      <trkpt lat="46.85927" lon="6.25106">
        <ele>857.6</ele>
        <time>2016-12-12T10:05:59Z</time>
      </trkpt>
      <trkpt lat="46.85921" lon="6.25105">
        <ele>857.7</ele>
        <time>2016-12-12T10:06:01Z</time>
      </trkpt>
      <trkpt lat="46.85919" lon="6.25104">
        <ele>857.7</ele>
        <time>2016-12-12T10:06:02Z</time>
      </trkpt>
      <trkpt lat="46.85914" lon="6.25103">
        <ele>857.8</ele>
        <time>2016-12-12T10:06:04Z</time>
      </trkpt>
      <trkpt lat="46.8591" lon="6.25103">
        <ele>857.9</ele>
        <time>2016-12-12T10:06:06Z</time>
      </trkpt>
      <trkpt lat="46.85905" lon="6.25104">
        <ele>858</ele>
        <time>2016-12-12T10:06:08Z</time>
      </trkpt>
      <trkpt lat="46.85902" lon="6.25104">
        <ele>858</ele>
        <time>2016-12-12T10:06:09Z</time>
      </trkpt>
      <trkpt lat="46.85897" lon="6.25101">
        <ele>858</ele>
        <time>2016-12-12T10:06:11Z</time>
      </trkpt>
      <trkpt lat="46.85895" lon="6.251">
        <ele>858.1</ele>
        <time>2016-12-12T10:06:12Z</time>
      </trkpt>
      <trkpt lat="46.8589" lon="6.251">
        <ele>858.2</ele>
        <time>2016-12-12T10:06:14Z</time>
      </trkpt>
      <trkpt lat="46.85886" lon="6.25101">
        <ele>858.2</ele>
        <time>2016-12-12T10:06:16Z</time>
      </trkpt>
      <trkpt lat="46.85882" lon="6.25101">
        <ele>858.3</ele>
        <time>2016-12-12T10:06:18Z</time>
      </trkpt>
      <trkpt lat="46.85878" lon="6.25102">
        <ele>858.4</ele>
        <time>2016-12-12T10:06:20Z</time>
      </trkpt>
      <trkpt lat="46.85874" lon="6.251">
        <ele>858.3</ele>
        <time>2016-12-12T10:06:22Z</time>
      </trkpt>
      <trkpt lat="46.85871" lon="6.25097">
        <ele>858.1</ele>
        <time>2016-12-12T10:06:24Z</time>
      </trkpt>
      <trkpt lat="46.85868" lon="6.25096">
        <ele>857.9</ele>
        <time>2016-12-12T10:06:26Z</time>
      </trkpt>
      <trkpt lat="46.85863" lon="6.25093">
        <ele>857.5</ele>
        <time>2016-12-12T10:06:28Z</time>
      </trkpt>
      <trkpt lat="46.85859" lon="6.2509">
        <ele>857.1</ele>
        <time>2016-12-12T10:06:30Z</time>
      </trkpt>
      <trkpt lat="46.85854" lon="6.25088">
        <ele>856.7</ele>
        <time>2016-12-12T10:06:32Z</time>
      </trkpt>
      <trkpt lat="46.85851" lon="6.25085">
        <ele>856.3</ele>
        <time>2016-12-12T10:06:34Z</time>
      </trkpt>
      <trkpt lat="46.85848" lon="6.25084">
        <ele>856.1</ele>
        <time>2016-12-12T10:06:36Z</time>
      </trkpt>
      <trkpt lat="46.85844" lon="6.25081">
        <ele>855.6</ele>
        <time>2016-12-12T10:06:38Z</time>
      </trkpt>
      <trkpt lat="46.8584" lon="6.25079">
        <ele>855.2</ele>
        <time>2016-12-12T10:06:40Z</time>
      </trkpt>
      <trkpt lat="46.85835" lon="6.25079">
        <ele>854.8</ele>
        <time>2016-12-12T10:06:42Z</time>
      </trkpt>
      <trkpt lat="46.85831" lon="6.25079">
        <ele>854.5</ele>
        <time>2016-12-12T10:06:44Z</time>
      </trkpt>
      <trkpt lat="46.85827" lon="6.25076">
        <ele>854</ele>
        <time>2016-12-12T10:06:46Z</time>
      </trkpt>
      <trkpt lat="46.85823" lon="6.25073">
        <ele>853.4</ele>
        <time>2016-12-12T10:06:48Z</time>
      </trkpt>
      <trkpt lat="46.85819" lon="6.25071">
        <ele>852.9</ele>
        <time>2016-12-12T10:06:50Z</time>
      </trkpt>
      <trkpt lat="46.85815" lon="6.2507">
        <ele>852.5</ele>
        <time>2016-12-12T10:06:52Z</time>
      </trkpt>
      <trkpt lat="46.85812" lon="6.25069">
        <ele>852.1</ele>
        <time>2016-12-12T10:06:54Z</time>
      </trkpt>
      <trkpt lat="46.85809" lon="6.25067">
        <ele>851.6</ele>
        <time>2016-12-12T10:06:56Z</time>
      </trkpt>
      <trkpt lat="46.85805" lon="6.25068">
        <ele>851.4</ele>
        <time>2016-12-12T10:06:58Z</time>
      </trkpt>
      <trkpt lat="46.85802" lon="6.25067">
        <ele>851</ele>
        <time>2016-12-12T10:07:00Z</time>
      </trkpt>
      <trkpt lat="46.85797" lon="6.25065">
        <ele>850.3</ele>
        <time>2016-12-12T10:07:02Z</time>
      </trkpt>
      <trkpt lat="46.85794" lon="6.25064">
        <ele>849.9</ele>
        <time>2016-12-12T10:07:03Z</time>
      </trkpt>
      <trkpt lat="46.8579" lon="6.25064">
        <ele>849.9</ele>
        <time>2016-12-12T10:07:04Z</time>
      </trkpt>
      <trkpt lat="46.85787" lon="6.25064">
        <ele>850.2</ele>
        <time>2016-12-12T10:07:05Z</time>
      </trkpt>
      <trkpt lat="46.85782" lon="6.25063">
        <ele>850.5</ele>
        <time>2016-12-12T10:07:07Z</time>
      </trkpt>
      <trkpt lat="46.85778" lon="6.25062">
        <ele>850.8</ele>
        <time>2016-12-12T10:07:09Z</time>
      </trkpt>
      <trkpt lat="46.85774" lon="6.25061">
        <ele>851.1</ele>
        <time>2016-12-12T10:07:11Z</time>
      </trkpt>
      <trkpt lat="46.85771" lon="6.2506">
        <ele>851.1</ele>
        <time>2016-12-12T10:07:13Z</time>
      </trkpt>
      <trkpt lat="46.85768" lon="6.25058">
        <ele>851.1</ele>
        <time>2016-12-12T10:07:15Z</time>
      </trkpt>
      <trkpt lat="46.85764" lon="6.25057">
        <ele>851.4</ele>
        <time>2016-12-12T10:07:17Z</time>
      </trkpt>
      <trkpt lat="46.8576" lon="6.25056">
        <ele>851.5</ele>
        <time>2016-12-12T10:07:19Z</time>
      </trkpt>
      <trkpt lat="46.85757" lon="6.25055">
        <ele>851.6</ele>
        <time>2016-12-12T10:07:20Z</time>
      </trkpt>
      <trkpt lat="46.85754" lon="6.25053">
        <ele>851.6</ele>
        <time>2016-12-12T10:07:21Z</time>
      </trkpt>
      <trkpt lat="46.8575" lon="6.25052">
        <ele>851.8</ele>
        <time>2016-12-12T10:07:22Z</time>
      </trkpt>
      <trkpt lat="46.85746" lon="6.25052">
        <ele>852.1</ele>
        <time>2016-12-12T10:07:24Z</time>
      </trkpt>
      <trkpt lat="46.85741" lon="6.25051">
        <ele>852.4</ele>
        <time>2016-12-12T10:07:26Z</time>
      </trkpt>
      <trkpt lat="46.85737" lon="6.25051">
        <ele>852.6</ele>
        <time>2016-12-12T10:07:28Z</time>
      </trkpt>
      <trkpt lat="46.85734" lon="6.2505">
        <ele>852.8</ele>
        <time>2016-12-12T10:07:30Z</time>
      </trkpt>
      <trkpt lat="46.8573" lon="6.25049">
        <ele>852.9</ele>
        <time>2016-12-12T10:07:32Z</time>
      </trkpt>
      <trkpt lat="46.85727" lon="6.25049">
        <ele>853.2</ele>
        <time>2016-12-12T10:07:34Z</time>
      </trkpt>
      <trkpt lat="46.85724" lon="6.2505">
        <ele>853.7</ele>
        <time>2016-12-12T10:07:36Z</time>
      </trkpt>
      <trkpt lat="46.8572" lon="6.25052">
        <ele>854.4</ele>
        <time>2016-12-12T10:07:38Z</time>
      </trkpt>
      <trkpt lat="46.85718" lon="6.25055">
        <ele>855.1</ele>
        <time>2016-12-12T10:07:40Z</time>
      </trkpt>
      <trkpt lat="46.85715" lon="6.25056">
        <ele>855.7</ele>
        <time>2016-12-12T10:07:42Z</time>
      </trkpt>
      <trkpt lat="46.85711" lon="6.25057">
        <ele>856.2</ele>
        <time>2016-12-12T10:07:44Z</time>
      </trkpt>
      <trkpt lat="46.85708" lon="6.25057">
        <ele>856.6</ele>
        <time>2016-12-12T10:07:47Z</time>
      </trkpt>
      <trkpt lat="46.85703" lon="6.25058">
        <ele>858.3</ele>
        <time>2016-12-12T10:07:50Z</time>
      </trkpt>
      <trkpt lat="46.85701" lon="6.25059">
        <ele>859.5</ele>
        <time>2016-12-12T10:07:52Z</time>
      </trkpt>
      <trkpt lat="46.85697" lon="6.2506">
        <ele>860.9</ele>
        <time>2016-12-12T10:07:54Z</time>
      </trkpt>
      <trkpt lat="46.85694" lon="6.25061">
        <ele>862.4</ele>
        <time>2016-12-12T10:07:56Z</time>
      </trkpt>
      <trkpt lat="46.85691" lon="6.25061">
        <ele>863.3</ele>
        <time>2016-12-12T10:07:58Z</time>
      </trkpt>
      <trkpt lat="46.85687" lon="6.25062">
        <ele>865</ele>
        <time>2016-12-12T10:08:00Z</time>
      </trkpt>
      <trkpt lat="46.85683" lon="6.25062">
        <ele>866.4</ele>
        <time>2016-12-12T10:08:02Z</time>
      </trkpt>
      <trkpt lat="46.85678" lon="6.25062">
        <ele>867.7</ele>
        <time>2016-12-12T10:08:04Z</time>
      </trkpt>
      <trkpt lat="46.85675" lon="6.2506">
        <ele>868.5</ele>
        <time>2016-12-12T10:08:06Z</time>
      </trkpt>
      <trkpt lat="46.85673" lon="6.2506">
        <ele>869.3</ele>
        <time>2016-12-12T10:08:07Z</time>
      </trkpt>
      <trkpt lat="46.8567" lon="6.25057">
        <ele>869.3</ele>
        <time>2016-12-12T10:08:09Z</time>
      </trkpt>
      <trkpt lat="46.85667" lon="6.25054">
        <ele>869.8</ele>
        <time>2016-12-12T10:08:11Z</time>
      </trkpt>
      <trkpt lat="46.85664" lon="6.25053">
        <ele>870.5</ele>
        <time>2016-12-12T10:08:13Z</time>
      </trkpt>
      <trkpt lat="46.85661" lon="6.25053">
        <ele>871.3</ele>
        <time>2016-12-12T10:08:16Z</time>
      </trkpt>
      <trkpt lat="46.85657" lon="6.2505">
        <ele>872</ele>
        <time>2016-12-12T10:08:19Z</time>
      </trkpt>
      <trkpt lat="46.85654" lon="6.25049">
        <ele>872.5</ele>
        <time>2016-12-12T10:08:21Z</time>
      </trkpt>
      <trkpt lat="46.85651" lon="6.25047">
        <ele>873.2</ele>
        <time>2016-12-12T10:08:23Z</time>
      </trkpt>
      <trkpt lat="46.85648" lon="6.25046">
        <ele>873.7</ele>
        <time>2016-12-12T10:08:25Z</time>
      </trkpt>
      <trkpt lat="46.85645" lon="6.25044">
        <ele>874.2</ele>
        <time>2016-12-12T10:08:27Z</time>
      </trkpt>
      <trkpt lat="46.85641" lon="6.25041">
        <ele>874.8</ele>
        <time>2016-12-12T10:08:29Z</time>
      </trkpt>
      <trkpt lat="46.85637" lon="6.25038">
        <ele>875.7</ele>
        <time>2016-12-12T10:08:31Z</time>
      </trkpt>
      <trkpt lat="46.85635" lon="6.25035">
        <ele>876.3</ele>
        <time>2016-12-12T10:08:33Z</time>
      </trkpt>
      <trkpt lat="46.85631" lon="6.25032">
        <ele>877.4</ele>
        <time>2016-12-12T10:08:35Z</time>
      </trkpt>
      <trkpt lat="46.85627" lon="6.2503">
        <ele>878.3</ele>
        <time>2016-12-12T10:08:37Z</time>
      </trkpt>
      <trkpt lat="46.85623" lon="6.25025">
        <ele>879.3</ele>
        <time>2016-12-12T10:08:39Z</time>
      </trkpt>
      <trkpt lat="46.8562" lon="6.2502">
        <ele>880.5</ele>
        <time>2016-12-12T10:08:41Z</time>
      </trkpt>
      <trkpt lat="46.85617" lon="6.25017">
        <ele>881.4</ele>
        <time>2016-12-12T10:08:43Z</time>
      </trkpt>
      <trkpt lat="46.85615" lon="6.25014">
        <ele>882.1</ele>
        <time>2016-12-12T10:08:45Z</time>
      </trkpt>
      <trkpt lat="46.85612" lon="6.2501">
        <ele>883</ele>
        <time>2016-12-12T10:08:47Z</time>
      </trkpt>
      <trkpt lat="46.8561" lon="6.25006">
        <ele>883.5</ele>
        <time>2016-12-12T10:08:49Z</time>
      </trkpt>
      <trkpt lat="46.85607" lon="6.25001">
        <ele>884.1</ele>
        <time>2016-12-12T10:08:51Z</time>
      </trkpt>
      <trkpt lat="46.85606" lon="6.24997">
        <ele>884.2</ele>
        <time>2016-12-12T10:08:52Z</time>
      </trkpt>
      <trkpt lat="46.85604" lon="6.24992">
        <ele>884.5</ele>
        <time>2016-12-12T10:08:54Z</time>
      </trkpt>
      <trkpt lat="46.85602" lon="6.24988">
        <ele>884.9</ele>
        <time>2016-12-12T10:08:55Z</time>
      </trkpt>
      <trkpt lat="46.85601" lon="6.24984">
        <ele>885</ele>
        <time>2016-12-12T10:08:56Z</time>
      </trkpt>
      <trkpt lat="46.85599" lon="6.24979">
        <ele>885.2</ele>
        <time>2016-12-12T10:08:58Z</time>
      </trkpt>
      <trkpt lat="46.85597" lon="6.24974">
        <ele>885.5</ele>
        <time>2016-12-12T10:09:00Z</time>
      </trkpt>
      <trkpt lat="46.85596" lon="6.2497">
        <ele>885.3</ele>
        <time>2016-12-12T10:09:02Z</time>
      </trkpt>
      <trkpt lat="46.85595" lon="6.24966">
        <ele>885</ele>
        <time>2016-12-12T10:09:05Z</time>
      </trkpt>
      <trkpt lat="46.85594" lon="6.24961">
        <ele>884.8</ele>
        <time>2016-12-12T10:09:07Z</time>
      </trkpt>
      <trkpt lat="46.85593" lon="6.24956">
        <ele>884.9</ele>
        <time>2016-12-12T10:09:09Z</time>
      </trkpt>
      <trkpt lat="46.85591" lon="6.24951">
        <ele>885.1</ele>
        <time>2016-12-12T10:09:11Z</time>
      </trkpt>
      <trkpt lat="46.8559" lon="6.24947">
        <ele>885.2</ele>
        <time>2016-12-12T10:09:13Z</time>
      </trkpt>
      <trkpt lat="46.85588" lon="6.24943">
        <ele>885.4</ele>
        <time>2016-12-12T10:09:16Z</time>
      </trkpt>
      <trkpt lat="46.85587" lon="6.24938">
        <ele>885.4</ele>
        <time>2016-12-12T10:09:19Z</time>
      </trkpt>
      <trkpt lat="46.85585" lon="6.24934">
        <ele>885.4</ele>
        <time>2016-12-12T10:09:21Z</time>
      </trkpt>
      <trkpt lat="46.85585" lon="6.24929">
        <ele>885.1</ele>
        <time>2016-12-12T10:09:23Z</time>
      </trkpt>
      <trkpt lat="46.85583" lon="6.24924">
        <ele>885.2</ele>
        <time>2016-12-12T10:09:25Z</time>
      </trkpt>
      <trkpt lat="46.85581" lon="6.2492">
        <ele>885.4</ele>
        <time>2016-12-12T10:09:27Z</time>
      </trkpt>
      <trkpt lat="46.85578" lon="6.24915">
        <ele>885.5</ele>
        <time>2016-12-12T10:09:31Z</time>
      </trkpt>
      <trkpt lat="46.85576" lon="6.24911">
        <ele>885.6</ele>
        <time>2016-12-12T10:09:33Z</time>
      </trkpt>
      <trkpt lat="46.85574" lon="6.24908">
        <ele>885.8</ele>
        <time>2016-12-12T10:09:35Z</time>
      </trkpt>
      <trkpt lat="46.85572" lon="6.24904">
        <ele>886</ele>
        <time>2016-12-12T10:09:38Z</time>
      </trkpt>
      <trkpt lat="46.85569" lon="6.24901">
        <ele>886.2</ele>
        <time>2016-12-12T10:09:40Z</time>
      </trkpt>
      <trkpt lat="46.85567" lon="6.24897">
        <ele>886.2</ele>
        <time>2016-12-12T10:09:42Z</time>
      </trkpt>
      <trkpt lat="46.85565" lon="6.24894">
        <ele>886.2</ele>
        <time>2016-12-12T10:09:44Z</time>
      </trkpt>
      <trkpt lat="46.85563" lon="6.2489">
        <ele>886.1</ele>
        <time>2016-12-12T10:09:48Z</time>
      </trkpt>
      <trkpt lat="46.85561" lon="6.24885">
        <ele>885.8</ele>
        <time>2016-12-12T10:09:51Z</time>
      </trkpt>
      <trkpt lat="46.8556" lon="6.24881">
        <ele>885.3</ele>
        <time>2016-12-12T10:09:53Z</time>
      </trkpt>
      <trkpt lat="46.85558" lon="6.24876">
        <ele>885</ele>
        <time>2016-12-12T10:09:55Z</time>
      </trkpt>
      <trkpt lat="46.85555" lon="6.24871">
        <ele>885</ele>
        <time>2016-12-12T10:09:57Z</time>
      </trkpt>
      <trkpt lat="46.85551" lon="6.24863">
        <ele>885</ele>
        <time>2016-12-12T10:09:59Z</time>
      </trkpt>
      <trkpt lat="46.85549" lon="6.2486">
        <ele>884.9</ele>
        <time>2016-12-12T10:10:01Z</time>
      </trkpt>
      <trkpt lat="46.85548" lon="6.24855">
        <ele>884.6</ele>
        <time>2016-12-12T10:10:05Z</time>
      </trkpt>
      <trkpt lat="46.85547" lon="6.2485">
        <ele>884.1</ele>
        <time>2016-12-12T10:10:08Z</time>
      </trkpt>
      <trkpt lat="46.85546" lon="6.24843">
        <ele>883.6</ele>
        <time>2016-12-12T10:10:10Z</time>
      </trkpt>
      <trkpt lat="46.85544" lon="6.2484">
        <ele>883.4</ele>
        <time>2016-12-12T10:10:11Z</time>
      </trkpt>
      <trkpt lat="46.85543" lon="6.24834">
        <ele>882.9</ele>
        <time>2016-12-12T10:10:13Z</time>
      </trkpt>
      <trkpt lat="46.85542" lon="6.24828">
        <ele>882.4</ele>
        <time>2016-12-12T10:10:15Z</time>
      </trkpt>
      <trkpt lat="46.85541" lon="6.24822">
        <ele>881.8</ele>
        <time>2016-12-12T10:10:17Z</time>
      </trkpt>
      <trkpt lat="46.85541" lon="6.24815">
        <ele>881</ele>
        <time>2016-12-12T10:10:19Z</time>
      </trkpt>
      <trkpt lat="46.85541" lon="6.24811">
        <ele>880.5</ele>
        <time>2016-12-12T10:10:20Z</time>
      </trkpt>
      <trkpt lat="46.85541" lon="6.24803">
        <ele>879.8</ele>
        <time>2016-12-12T10:10:22Z</time>
      </trkpt>
      <trkpt lat="46.8554" lon="6.24798">
        <ele>879.3</ele>
        <time>2016-12-12T10:10:24Z</time>
      </trkpt>
      <trkpt lat="46.8554" lon="6.24793">
        <ele>878.9</ele>
        <time>2016-12-12T10:10:26Z</time>
      </trkpt>
      <trkpt lat="46.85539" lon="6.24786">
        <ele>878.6</ele>
        <time>2016-12-12T10:10:28Z</time>
      </trkpt>
      <trkpt lat="46.85538" lon="6.24779">
        <ele>878.6</ele>
        <time>2016-12-12T10:10:30Z</time>
      </trkpt>
      <trkpt lat="46.85537" lon="6.24772">
        <ele>878.5</ele>
        <time>2016-12-12T10:10:32Z</time>
      </trkpt>
      <trkpt lat="46.85536" lon="6.24764">
        <ele>878.4</ele>
        <time>2016-12-12T10:10:34Z</time>
      </trkpt>
      <trkpt lat="46.85535" lon="6.2476">
        <ele>878.4</ele>
        <time>2016-12-12T10:10:35Z</time>
      </trkpt>
      <trkpt lat="46.85534" lon="6.24755">
        <ele>878.4</ele>
        <time>2016-12-12T10:10:36Z</time>
      </trkpt>
      <trkpt lat="46.85531" lon="6.2475">
        <ele>878.7</ele>
        <time>2016-12-12T10:10:38Z</time>
      </trkpt>
      <trkpt lat="46.85529" lon="6.24743">
        <ele>878.7</ele>
        <time>2016-12-12T10:10:40Z</time>
      </trkpt>
      <trkpt lat="46.85527" lon="6.24739">
        <ele>878.9</ele>
        <time>2016-12-12T10:10:42Z</time>
      </trkpt>
      <trkpt lat="46.85525" lon="6.24735">
        <ele>878.9</ele>
        <time>2016-12-12T10:10:44Z</time>
      </trkpt>
      <trkpt lat="46.85523" lon="6.24729">
        <ele>878.9</ele>
        <time>2016-12-12T10:10:47Z</time>
      </trkpt>
      <trkpt lat="46.85522" lon="6.24725">
        <ele>878.6</ele>
        <time>2016-12-12T10:10:49Z</time>
      </trkpt>
      <trkpt lat="46.85519" lon="6.24718">
        <ele>878.5</ele>
        <time>2016-12-12T10:10:51Z</time>
      </trkpt>
      <trkpt lat="46.85517" lon="6.24713">
        <ele>878.3</ele>
        <time>2016-12-12T10:10:53Z</time>
      </trkpt>
      <trkpt lat="46.85516" lon="6.24708">
        <ele>878.1</ele>
        <time>2016-12-12T10:10:55Z</time>
      </trkpt>
      <trkpt lat="46.85514" lon="6.24704">
        <ele>878.2</ele>
        <time>2016-12-12T10:10:58Z</time>
      </trkpt>
      <trkpt lat="46.85513" lon="6.24701">
        <ele>878.3</ele>
        <time>2016-12-12T10:11:00Z</time>
      </trkpt>
      <trkpt lat="46.85511" lon="6.24697">
        <ele>878.3</ele>
        <time>2016-12-12T10:11:02Z</time>
      </trkpt>
      <trkpt lat="46.8551" lon="6.24694">
        <ele>878.4</ele>
        <time>2016-12-12T10:11:04Z</time>
      </trkpt>
      <trkpt lat="46.85507" lon="6.2469">
        <ele>878.5</ele>
        <time>2016-12-12T10:11:06Z</time>
      </trkpt>
      <trkpt lat="46.85506" lon="6.24687">
        <ele>878.6</ele>
        <time>2016-12-12T10:11:09Z</time>
      </trkpt>
      <trkpt lat="46.85504" lon="6.24682">
        <ele>878.5</ele>
        <time>2016-12-12T10:11:11Z</time>
      </trkpt>
      <trkpt lat="46.85503" lon="6.24677">
        <ele>878.3</ele>
        <time>2016-12-12T10:11:12Z</time>
      </trkpt>
      <trkpt lat="46.85503" lon="6.24672">
        <ele>878.1</ele>
        <time>2016-12-12T10:11:14Z</time>
      </trkpt>
      <trkpt lat="46.85503" lon="6.24668">
        <ele>877.9</ele>
        <time>2016-12-12T10:11:16Z</time>
      </trkpt>
      <trkpt lat="46.85503" lon="6.24662">
        <ele>877.5</ele>
        <time>2016-12-12T10:11:19Z</time>
      </trkpt>
      <trkpt lat="46.85504" lon="6.24658">
        <ele>877.3</ele>
        <time>2016-12-12T10:11:21Z</time>
      </trkpt>
      <trkpt lat="46.85502" lon="6.24653">
        <ele>877.1</ele>
        <time>2016-12-12T10:11:24Z</time>
      </trkpt>
      <trkpt lat="46.85501" lon="6.24649">
        <ele>876.9</ele>
        <time>2016-12-12T10:11:26Z</time>
      </trkpt>
      <trkpt lat="46.85501" lon="6.24645">
        <ele>876.6</ele>
        <time>2016-12-12T10:11:28Z</time>
      </trkpt>
      <trkpt lat="46.855" lon="6.24639">
        <ele>876.4</ele>
        <time>2016-12-12T10:11:31Z</time>
      </trkpt>
      <trkpt lat="46.85499" lon="6.24636">
        <ele>876.1</ele>
        <time>2016-12-12T10:11:33Z</time>
      </trkpt>
      <trkpt lat="46.855" lon="6.24631">
        <ele>875.8</ele>
        <time>2016-12-12T10:11:36Z</time>
      </trkpt>
      <trkpt lat="46.85498" lon="6.24625">
        <ele>875.5</ele>
        <time>2016-12-12T10:11:39Z</time>
      </trkpt>
      <trkpt lat="46.85496" lon="6.2462">
        <ele>875.7</ele>
        <time>2016-12-12T10:11:42Z</time>
      </trkpt>
      <trkpt lat="46.85495" lon="6.24616">
        <ele>875.9</ele>
        <time>2016-12-12T10:11:44Z</time>
      </trkpt>
      <trkpt lat="46.85493" lon="6.24613">
        <ele>876</ele>
        <time>2016-12-12T10:11:46Z</time>
      </trkpt>
      <trkpt lat="46.85491" lon="6.24608">
        <ele>876.2</ele>
        <time>2016-12-12T10:11:49Z</time>
      </trkpt>
      <trkpt lat="46.85489" lon="6.24606">
        <ele>876.3</ele>
        <time>2016-12-12T10:11:51Z</time>
      </trkpt>
      <trkpt lat="46.85486" lon="6.24603">
        <ele>876.3</ele>
        <time>2016-12-12T10:11:53Z</time>
      </trkpt>
      <trkpt lat="46.85482" lon="6.24602">
        <ele>876.2</ele>
        <time>2016-12-12T10:11:55Z</time>
      </trkpt>
      <trkpt lat="46.85477" lon="6.24601">
        <ele>876.1</ele>
        <time>2016-12-12T10:11:57Z</time>
      </trkpt>
      <trkpt lat="46.85472" lon="6.24597">
        <ele>876.1</ele>
        <time>2016-12-12T10:11:59Z</time>
      </trkpt>
      <trkpt lat="46.85467" lon="6.24594">
        <ele>876</ele>
        <time>2016-12-12T10:12:01Z</time>
      </trkpt>
      <trkpt lat="46.85462" lon="6.24592">
        <ele>876</ele>
        <time>2016-12-12T10:12:03Z</time>
      </trkpt>
      <trkpt lat="46.85459" lon="6.24589">
        <ele>875.9</ele>
        <time>2016-12-12T10:12:05Z</time>
      </trkpt>
      <trkpt lat="46.85455" lon="6.24586">
        <ele>876.7</ele>
        <time>2016-12-12T10:12:07Z</time>
      </trkpt>
      <trkpt lat="46.85452" lon="6.24582">
        <ele>877.4</ele>
        <time>2016-12-12T10:12:09Z</time>
      </trkpt>
      <trkpt lat="46.85448" lon="6.24577">
        <ele>878.3</ele>
        <time>2016-12-12T10:12:11Z</time>
      </trkpt>
      <trkpt lat="46.85445" lon="6.24574">
        <ele>879</ele>
        <time>2016-12-12T10:12:13Z</time>
      </trkpt>
      <trkpt lat="46.85441" lon="6.24569">
        <ele>879.7</ele>
        <time>2016-12-12T10:12:15Z</time>
      </trkpt>
      <trkpt lat="46.85438" lon="6.24564">
        <ele>880.2</ele>
        <time>2016-12-12T10:12:17Z</time>
      </trkpt>
      <trkpt lat="46.85436" lon="6.2456">
        <ele>880.5</ele>
        <time>2016-12-12T10:12:19Z</time>
      </trkpt>
      <trkpt lat="46.85433" lon="6.24555">
        <ele>881</ele>
        <time>2016-12-12T10:12:21Z</time>
      </trkpt>
      <trkpt lat="46.85431" lon="6.24552">
        <ele>881.3</ele>
        <time>2016-12-12T10:12:23Z</time>
      </trkpt>
      <trkpt lat="46.85428" lon="6.2455">
        <ele>881.7</ele>
        <time>2016-12-12T10:12:26Z</time>
      </trkpt>
      <trkpt lat="46.85424" lon="6.24545">
        <ele>882.1</ele>
        <time>2016-12-12T10:12:29Z</time>
      </trkpt>
      <trkpt lat="46.8542" lon="6.2454">
        <ele>882.5</ele>
        <time>2016-12-12T10:12:31Z</time>
      </trkpt>
      <trkpt lat="46.85419" lon="6.24537">
        <ele>882.8</ele>
        <time>2016-12-12T10:12:32Z</time>
      </trkpt>
      <trkpt lat="46.85417" lon="6.24532">
        <ele>883.2</ele>
        <time>2016-12-12T10:12:34Z</time>
      </trkpt>
      <trkpt lat="46.85414" lon="6.24528">
        <ele>883.5</ele>
        <time>2016-12-12T10:12:36Z</time>
      </trkpt>
      <trkpt lat="46.85413" lon="6.24522">
        <ele>883.8</ele>
        <time>2016-12-12T10:12:38Z</time>
      </trkpt>
      <trkpt lat="46.8541" lon="6.24516">
        <ele>884.1</ele>
        <time>2016-12-12T10:12:40Z</time>
      </trkpt>
      <trkpt lat="46.85407" lon="6.24512">
        <ele>884.5</ele>
        <time>2016-12-12T10:12:42Z</time>
      </trkpt>
      <trkpt lat="46.85405" lon="6.24508">
        <ele>884.6</ele>
        <time>2016-12-12T10:12:43Z</time>
      </trkpt>
      <trkpt lat="46.85404" lon="6.24503">
        <ele>884.7</ele>
        <time>2016-12-12T10:12:44Z</time>
      </trkpt>
      <trkpt lat="46.85403" lon="6.24499">
        <ele>884.8</ele>
        <time>2016-12-12T10:12:45Z</time>
      </trkpt>
      <trkpt lat="46.85401" lon="6.24495">
        <ele>884.9</ele>
        <time>2016-12-12T10:12:47Z</time>
      </trkpt>
      <trkpt lat="46.854" lon="6.24491">
        <ele>885</ele>
        <time>2016-12-12T10:12:50Z</time>
      </trkpt>
      <trkpt lat="46.85397" lon="6.24487">
        <ele>885.1</ele>
        <time>2016-12-12T10:12:55Z</time>
      </trkpt>
      <trkpt lat="46.85394" lon="6.24483">
        <ele>885.2</ele>
        <time>2016-12-12T10:12:57Z</time>
      </trkpt>
      <trkpt lat="46.85392" lon="6.2448">
        <ele>885.2</ele>
        <time>2016-12-12T10:12:59Z</time>
      </trkpt>
      <trkpt lat="46.85389" lon="6.24474">
        <ele>885.3</ele>
        <time>2016-12-12T10:13:01Z</time>
      </trkpt>
      <trkpt lat="46.85388" lon="6.2447">
        <ele>885.2</ele>
        <time>2016-12-12T10:13:03Z</time>
      </trkpt>
      <trkpt lat="46.85387" lon="6.24465">
        <ele>885.1</ele>
        <time>2016-12-12T10:13:05Z</time>
      </trkpt>
      <trkpt lat="46.85385" lon="6.24459">
        <ele>884.9</ele>
        <time>2016-12-12T10:13:07Z</time>
      </trkpt>
      <trkpt lat="46.85383" lon="6.24455">
        <ele>884.9</ele>
        <time>2016-12-12T10:13:09Z</time>
      </trkpt>
      <trkpt lat="46.85381" lon="6.24452">
        <ele>884.8</ele>
        <time>2016-12-12T10:13:11Z</time>
      </trkpt>
      <trkpt lat="46.85379" lon="6.24448">
        <ele>884.7</ele>
        <time>2016-12-12T10:13:14Z</time>
      </trkpt>
      <trkpt lat="46.85377" lon="6.24443">
        <ele>884.6</ele>
        <time>2016-12-12T10:13:20Z</time>
      </trkpt>
      <trkpt lat="46.85374" lon="6.2444">
        <ele>884.8</ele>
        <time>2016-12-12T10:13:22Z</time>
      </trkpt>
      <trkpt lat="46.85372" lon="6.24437">
        <ele>885.4</ele>
        <time>2016-12-12T10:13:24Z</time>
      </trkpt>
      <trkpt lat="46.85369" lon="6.24434">
        <ele>885.9</ele>
        <time>2016-12-12T10:13:26Z</time>
      </trkpt>
      <trkpt lat="46.85367" lon="6.24431">
        <ele>886.4</ele>
        <time>2016-12-12T10:13:28Z</time>
      </trkpt>
      <trkpt lat="46.85365" lon="6.24426">
        <ele>886.7</ele>
        <time>2016-12-12T10:13:31Z</time>
      </trkpt>
      <trkpt lat="46.85363" lon="6.24422">
        <ele>887.1</ele>
        <time>2016-12-12T10:13:34Z</time>
      </trkpt>
      <trkpt lat="46.85362" lon="6.24417">
        <ele>887.3</ele>
        <time>2016-12-12T10:13:37Z</time>
      </trkpt>
      <trkpt lat="46.85361" lon="6.24412">
        <ele>887.3</ele>
        <time>2016-12-12T10:13:39Z</time>
      </trkpt>
      <trkpt lat="46.8536" lon="6.24408">
        <ele>887.4</ele>
        <time>2016-12-12T10:13:41Z</time>
      </trkpt>
      <trkpt lat="46.85357" lon="6.24403">
        <ele>887.8</ele>
        <time>2016-12-12T10:13:42Z</time>
      </trkpt>
      <trkpt lat="46.85356" lon="6.24399">
        <ele>887.8</ele>
        <time>2016-12-12T10:13:43Z</time>
      </trkpt>
      <trkpt lat="46.85355" lon="6.24392">
        <ele>887.7</ele>
        <time>2016-12-12T10:13:45Z</time>
      </trkpt>
      <trkpt lat="46.85354" lon="6.24387">
        <ele>887.8</ele>
        <time>2016-12-12T10:13:47Z</time>
      </trkpt>
      <trkpt lat="46.85352" lon="6.24382">
        <ele>888.1</ele>
        <time>2016-12-12T10:13:49Z</time>
      </trkpt>
      <trkpt lat="46.85349" lon="6.24379">
        <ele>888.5</ele>
        <time>2016-12-12T10:13:51Z</time>
      </trkpt>
      <trkpt lat="46.85347" lon="6.24376">
        <ele>888.8</ele>
        <time>2016-12-12T10:13:52Z</time>
      </trkpt>
      <trkpt lat="46.85345" lon="6.24374">
        <ele>889.3</ele>
        <time>2016-12-12T10:13:53Z</time>
      </trkpt>
      <trkpt lat="46.85342" lon="6.24368">
        <ele>890.4</ele>
        <time>2016-12-12T10:13:55Z</time>
      </trkpt>
      <trkpt lat="46.8534" lon="6.24363">
        <ele>891.4</ele>
        <time>2016-12-12T10:13:57Z</time>
      </trkpt>
      <trkpt lat="46.85339" lon="6.24359">
        <ele>892</ele>
        <time>2016-12-12T10:13:58Z</time>
      </trkpt>
      <trkpt lat="46.85338" lon="6.24355">
        <ele>892.7</ele>
        <time>2016-12-12T10:13:59Z</time>
      </trkpt>
      <trkpt lat="46.85338" lon="6.24347">
        <ele>893.6</ele>
        <time>2016-12-12T10:14:01Z</time>
      </trkpt>
      <trkpt lat="46.85339" lon="6.24342">
        <ele>894</ele>
        <time>2016-12-12T10:14:02Z</time>
      </trkpt>
      <trkpt lat="46.8534" lon="6.24337">
        <ele>894.3</ele>
        <time>2016-12-12T10:14:03Z</time>
      </trkpt>
      <trkpt lat="46.85341" lon="6.24333">
        <ele>894.6</ele>
        <time>2016-12-12T10:14:04Z</time>
      </trkpt>
      <trkpt lat="46.85343" lon="6.24327">
        <ele>894.9</ele>
        <time>2016-12-12T10:14:06Z</time>
      </trkpt>
      <trkpt lat="46.85347" lon="6.24326">
        <ele>894.4</ele>
        <time>2016-12-12T10:14:08Z</time>
      </trkpt>
      <trkpt lat="46.85351" lon="6.24326">
        <ele>893.9</ele>
        <time>2016-12-12T10:14:09Z</time>
      </trkpt>
      <trkpt lat="46.85355" lon="6.24324">
        <ele>893.3</ele>
        <time>2016-12-12T10:14:11Z</time>
      </trkpt>
      <trkpt lat="46.8536" lon="6.24324">
        <ele>892.7</ele>
        <time>2016-12-12T10:14:13Z</time>
      </trkpt>
      <trkpt lat="46.85364" lon="6.24323">
        <ele>892.2</ele>
        <time>2016-12-12T10:14:15Z</time>
      </trkpt>
      <trkpt lat="46.85369" lon="6.24322">
        <ele>891.6</ele>
        <time>2016-12-12T10:14:17Z</time>
      </trkpt>
      <trkpt lat="46.85372" lon="6.2432">
        <ele>891.3</ele>
        <time>2016-12-12T10:14:19Z</time>
      </trkpt>
      <trkpt lat="46.85375" lon="6.24319">
        <ele>891</ele>
        <time>2016-12-12T10:14:21Z</time>
      </trkpt>
      <trkpt lat="46.85378" lon="6.24318">
        <ele>891.1</ele>
        <time>2016-12-12T10:14:23Z</time>
      </trkpt>
      <trkpt lat="46.85383" lon="6.24319">
        <ele>890.9</ele>
        <time>2016-12-12T10:14:26Z</time>
      </trkpt>
      <trkpt lat="46.85387" lon="6.24321">
        <ele>890.7</ele>
        <time>2016-12-12T10:14:28Z</time>
      </trkpt>
      <trkpt lat="46.85391" lon="6.24322">
        <ele>890.5</ele>
        <time>2016-12-12T10:14:30Z</time>
      </trkpt>
      <trkpt lat="46.85394" lon="6.24321">
        <ele>890.6</ele>
        <time>2016-12-12T10:14:33Z</time>
      </trkpt>
      <trkpt lat="46.85397" lon="6.24321">
        <ele>890.5</ele>
        <time>2016-12-12T10:14:35Z</time>
      </trkpt>
      <trkpt lat="46.854" lon="6.24323">
        <ele>890.3</ele>
        <time>2016-12-12T10:14:36Z</time>
      </trkpt>
      <trkpt lat="46.85404" lon="6.24325">
        <ele>890.1</ele>
        <time>2016-12-12T10:14:37Z</time>
      </trkpt>
      <trkpt lat="46.85407" lon="6.24326">
        <ele>890</ele>
        <time>2016-12-12T10:14:40Z</time>
      </trkpt>
      <trkpt lat="46.85413" lon="6.24328">
        <ele>889.7</ele>
        <time>2016-12-12T10:14:43Z</time>
      </trkpt>
      <trkpt lat="46.85416" lon="6.24329">
        <ele>889.6</ele>
        <time>2016-12-12T10:14:44Z</time>
      </trkpt>
      <trkpt lat="46.85423" lon="6.24334">
        <ele>889.2</ele>
        <time>2016-12-12T10:14:46Z</time>
      </trkpt>
      <trkpt lat="46.85427" lon="6.24337">
        <ele>889</ele>
        <time>2016-12-12T10:14:47Z</time>
      </trkpt>
      <trkpt lat="46.8543" lon="6.2434">
        <ele>888.9</ele>
        <time>2016-12-12T10:14:49Z</time>
      </trkpt>
      <trkpt lat="46.85434" lon="6.24342">
        <ele>888.7</ele>
        <time>2016-12-12T10:14:52Z</time>
      </trkpt>
      <trkpt lat="46.85441" lon="6.24347">
        <ele>888.6</ele>
        <time>2016-12-12T10:14:54Z</time>
      </trkpt>
      <trkpt lat="46.85443" lon="6.24349">
        <ele>888.5</ele>
        <time>2016-12-12T10:14:55Z</time>
      </trkpt>
      <trkpt lat="46.85446" lon="6.24351">
        <ele>888.5</ele>
        <time>2016-12-12T10:14:56Z</time>
      </trkpt>
      <trkpt lat="46.85449" lon="6.24352">
        <ele>888.6</ele>
        <time>2016-12-12T10:15:01Z</time>
      </trkpt>
      <trkpt lat="46.85452" lon="6.24352">
        <ele>888.6</ele>
        <time>2016-12-12T10:15:03Z</time>
      </trkpt>
      <trkpt lat="46.85455" lon="6.24353">
        <ele>888.7</ele>
        <time>2016-12-12T10:15:05Z</time>
      </trkpt>
      <trkpt lat="46.85458" lon="6.24355">
        <ele>888.7</ele>
        <time>2016-12-12T10:15:07Z</time>
      </trkpt>
      <trkpt lat="46.85461" lon="6.24355">
        <ele>888.7</ele>
        <time>2016-12-12T10:15:10Z</time>
      </trkpt>
      <trkpt lat="46.85464" lon="6.24356">
        <ele>888.7</ele>
        <time>2016-12-12T10:15:12Z</time>
      </trkpt>
      <trkpt lat="46.85468" lon="6.24356">
        <ele>888.7</ele>
        <time>2016-12-12T10:15:15Z</time>
      </trkpt>
      <trkpt lat="46.85471" lon="6.24356">
        <ele>888.7</ele>
        <time>2016-12-12T10:15:18Z</time>
      </trkpt>
      <trkpt lat="46.85475" lon="6.24356">
        <ele>888.7</ele>
        <time>2016-12-12T10:15:21Z</time>
      </trkpt>
      <trkpt lat="46.85479" lon="6.24355">
        <ele>888.7</ele>
        <time>2016-12-12T10:15:23Z</time>
      </trkpt>
      <trkpt lat="46.85483" lon="6.24354">
        <ele>888.7</ele>
        <time>2016-12-12T10:15:25Z</time>
      </trkpt>
      <trkpt lat="46.85486" lon="6.24354">
        <ele>888.8</ele>
        <time>2016-12-12T10:15:27Z</time>
      </trkpt>
      <trkpt lat="46.85488" lon="6.24353">
        <ele>888.8</ele>
        <time>2016-12-12T10:15:30Z</time>
      </trkpt>
      <trkpt lat="46.85492" lon="6.24351">
        <ele>888.9</ele>
        <time>2016-12-12T10:15:32Z</time>
      </trkpt>
      <trkpt lat="46.85495" lon="6.24349">
        <ele>889</ele>
        <time>2016-12-12T10:15:34Z</time>
      </trkpt>
      <trkpt lat="46.85497" lon="6.24346">
        <ele>889</ele>
        <time>2016-12-12T10:15:36Z</time>
      </trkpt>
      <trkpt lat="46.85501" lon="6.24342">
        <ele>889.2</ele>
        <time>2016-12-12T10:15:39Z</time>
      </trkpt>
      <trkpt lat="46.85503" lon="6.24339">
        <ele>889.3</ele>
        <time>2016-12-12T10:15:41Z</time>
      </trkpt>
      <trkpt lat="46.85506" lon="6.24336">
        <ele>889.4</ele>
        <time>2016-12-12T10:15:44Z</time>
      </trkpt>
      <trkpt lat="46.85509" lon="6.24332">
        <ele>889.6</ele>
        <time>2016-12-12T10:15:47Z</time>
      </trkpt>
      <trkpt lat="46.85512" lon="6.24328">
        <ele>889.7</ele>
        <time>2016-12-12T10:15:49Z</time>
      </trkpt>
      <trkpt lat="46.85514" lon="6.24321">
        <ele>889.9</ele>
        <time>2016-12-12T10:15:51Z</time>
      </trkpt>
      <trkpt lat="46.85515" lon="6.24317">
        <ele>890.1</ele>
        <time>2016-12-12T10:15:52Z</time>
      </trkpt>
      <trkpt lat="46.85517" lon="6.24313">
        <ele>890.2</ele>
        <time>2016-12-12T10:15:53Z</time>
      </trkpt>
      <trkpt lat="46.85518" lon="6.2431">
        <ele>890.4</ele>
        <time>2016-12-12T10:15:55Z</time>
      </trkpt>
      <trkpt lat="46.85521" lon="6.24305">
        <ele>890.5</ele>
        <time>2016-12-12T10:15:57Z</time>
      </trkpt>
      <trkpt lat="46.85523" lon="6.243">
        <ele>890.7</ele>
        <time>2016-12-12T10:16:00Z</time>
      </trkpt>
      <trkpt lat="46.85525" lon="6.24294">
        <ele>890.9</ele>
        <time>2016-12-12T10:16:02Z</time>
      </trkpt>
      <trkpt lat="46.85527" lon="6.24288">
        <ele>891.2</ele>
        <time>2016-12-12T10:16:04Z</time>
      </trkpt>
      <trkpt lat="46.85529" lon="6.24283">
        <ele>891.5</ele>
        <time>2016-12-12T10:16:06Z</time>
      </trkpt>
      <trkpt lat="46.8553" lon="6.24278">
        <ele>891.7</ele>
        <time>2016-12-12T10:16:08Z</time>
      </trkpt>
      <trkpt lat="46.85532" lon="6.24273">
        <ele>892</ele>
        <time>2016-12-12T10:16:10Z</time>
      </trkpt>
      <trkpt lat="46.85533" lon="6.24269">
        <ele>892.2</ele>
        <time>2016-12-12T10:16:11Z</time>
      </trkpt>
      <trkpt lat="46.85535" lon="6.24263">
        <ele>892.4</ele>
        <time>2016-12-12T10:16:13Z</time>
      </trkpt>
      <trkpt lat="46.85535" lon="6.24258">
        <ele>892.7</ele>
        <time>2016-12-12T10:16:15Z</time>
      </trkpt>
      <trkpt lat="46.85535" lon="6.24252">
        <ele>893</ele>
        <time>2016-12-12T10:16:17Z</time>
      </trkpt>
      <trkpt lat="46.85537" lon="6.24246">
        <ele>893.3</ele>
        <time>2016-12-12T10:16:19Z</time>
      </trkpt>
      <trkpt lat="46.8554" lon="6.2424">
        <ele>893.5</ele>
        <time>2016-12-12T10:16:21Z</time>
      </trkpt>
      <trkpt lat="46.85542" lon="6.24236">
        <ele>893.7</ele>
        <time>2016-12-12T10:16:23Z</time>
      </trkpt>
      <trkpt lat="46.85544" lon="6.24232">
        <ele>893.7</ele>
        <time>2016-12-12T10:16:25Z</time>
      </trkpt>
      <trkpt lat="46.85546" lon="6.24228">
        <ele>893.8</ele>
        <time>2016-12-12T10:16:27Z</time>
      </trkpt>
      <trkpt lat="46.85548" lon="6.24222">
        <ele>894</ele>
        <time>2016-12-12T10:16:29Z</time>
      </trkpt>
      <trkpt lat="46.85549" lon="6.24217">
        <ele>894.2</ele>
        <time>2016-12-12T10:16:31Z</time>
      </trkpt>
      <trkpt lat="46.8555" lon="6.24211">
        <ele>894.4</ele>
        <time>2016-12-12T10:16:33Z</time>
      </trkpt>
      <trkpt lat="46.85553" lon="6.24207">
        <ele>894.3</ele>
        <time>2016-12-12T10:16:35Z</time>
      </trkpt>
      <trkpt lat="46.85557" lon="6.24204">
        <ele>894.1</ele>
        <time>2016-12-12T10:16:37Z</time>
      </trkpt>
      <trkpt lat="46.85559" lon="6.24202">
        <ele>893.9</ele>
        <time>2016-12-12T10:16:39Z</time>
      </trkpt>
      <trkpt lat="46.85562" lon="6.242">
        <ele>893.7</ele>
        <time>2016-12-12T10:16:41Z</time>
      </trkpt>
      <trkpt lat="46.85566" lon="6.24198">
        <ele>893.5</ele>
        <time>2016-12-12T10:16:43Z</time>
      </trkpt>
      <trkpt lat="46.8557" lon="6.24195">
        <ele>893.2</ele>
        <time>2016-12-12T10:16:45Z</time>
      </trkpt>
      <trkpt lat="46.85573" lon="6.24193">
        <ele>893</ele>
        <time>2016-12-12T10:16:47Z</time>
      </trkpt>
      <trkpt lat="46.85577" lon="6.24191">
        <ele>892.7</ele>
        <time>2016-12-12T10:16:49Z</time>
      </trkpt>
      <trkpt lat="46.85581" lon="6.24189">
        <ele>892.5</ele>
        <time>2016-12-12T10:16:51Z</time>
      </trkpt>
      <trkpt lat="46.85584" lon="6.24187">
        <ele>892.2</ele>
        <time>2016-12-12T10:16:53Z</time>
      </trkpt>
      <trkpt lat="46.85584" lon="6.24182">
        <ele>892.2</ele>
        <time>2016-12-12T10:16:56Z</time>
      </trkpt>
      <trkpt lat="46.85582" lon="6.24178">
        <ele>892.2</ele>
        <time>2016-12-12T10:17:07Z</time>
      </trkpt>
      <trkpt lat="46.8558" lon="6.24173">
        <ele>892.3</ele>
        <time>2016-12-12T10:17:08Z</time>
      </trkpt>
      <trkpt lat="46.85578" lon="6.24168">
        <ele>892.4</ele>
        <time>2016-12-12T10:17:12Z</time>
      </trkpt>
      <trkpt lat="46.85575" lon="6.24165">
        <ele>892.6</ele>
        <time>2016-12-12T10:17:14Z</time>
      </trkpt>
      <trkpt lat="46.85573" lon="6.24163">
        <ele>892.7</ele>
        <time>2016-12-12T10:17:18Z</time>
      </trkpt>
      <trkpt lat="46.8557" lon="6.24159">
        <ele>892.9</ele>
        <time>2016-12-12T10:17:24Z</time>
      </trkpt>
      <trkpt lat="46.85568" lon="6.24155">
        <ele>893</ele>
        <time>2016-12-12T10:17:26Z</time>
      </trkpt>
      <trkpt lat="46.85566" lon="6.24148">
        <ele>893.2</ele>
        <time>2016-12-12T10:17:28Z</time>
      </trkpt>
      <trkpt lat="46.85564" lon="6.24143">
        <ele>893.2</ele>
        <time>2016-12-12T10:17:29Z</time>
      </trkpt>
      <trkpt lat="46.85563" lon="6.24135">
        <ele>893.3</ele>
        <time>2016-12-12T10:17:31Z</time>
      </trkpt>
      <trkpt lat="46.8556" lon="6.24132">
        <ele>893.5</ele>
        <time>2016-12-12T10:17:33Z</time>
      </trkpt>
      <trkpt lat="46.85556" lon="6.24127">
        <ele>893.8</ele>
        <time>2016-12-12T10:17:35Z</time>
      </trkpt>
      <trkpt lat="46.85554" lon="6.24124">
        <ele>893.9</ele>
        <time>2016-12-12T10:17:36Z</time>
      </trkpt>
      <trkpt lat="46.85552" lon="6.24121">
        <ele>894</ele>
        <time>2016-12-12T10:17:37Z</time>
      </trkpt>
      <trkpt lat="46.85549" lon="6.24116">
        <ele>894.1</ele>
        <time>2016-12-12T10:17:39Z</time>
      </trkpt>
      <trkpt lat="46.85546" lon="6.24113">
        <ele>894.2</ele>
        <time>2016-12-12T10:17:41Z</time>
      </trkpt>
      <trkpt lat="46.85542" lon="6.24108">
        <ele>894.3</ele>
        <time>2016-12-12T10:17:43Z</time>
      </trkpt>
      <trkpt lat="46.8554" lon="6.24106">
        <ele>894.4</ele>
        <time>2016-12-12T10:17:45Z</time>
      </trkpt>
      <trkpt lat="46.85537" lon="6.24102">
        <ele>894.4</ele>
        <time>2016-12-12T10:17:47Z</time>
      </trkpt>
      <trkpt lat="46.85534" lon="6.241">
        <ele>894.5</ele>
        <time>2016-12-12T10:17:49Z</time>
      </trkpt>
      <trkpt lat="46.85532" lon="6.24097">
        <ele>894.5</ele>
        <time>2016-12-12T10:17:55Z</time>
      </trkpt>
      <trkpt lat="46.85527" lon="6.24098">
        <ele>894.8</ele>
        <time>2016-12-12T10:17:58Z</time>
      </trkpt>
      <trkpt lat="46.85523" lon="6.24096">
        <ele>895</ele>
        <time>2016-12-12T10:18:00Z</time>
      </trkpt>
      <trkpt lat="46.85519" lon="6.24095">
        <ele>895.1</ele>
        <time>2016-12-12T10:18:03Z</time>
      </trkpt>
      <trkpt lat="46.85516" lon="6.24094">
        <ele>895.2</ele>
        <time>2016-12-12T10:18:07Z</time>
      </trkpt>
      <trkpt lat="46.85513" lon="6.24092">
        <ele>895.3</ele>
        <time>2016-12-12T10:18:09Z</time>
      </trkpt>
      <trkpt lat="46.85511" lon="6.2409">
        <ele>895.4</ele>
        <time>2016-12-12T10:18:11Z</time>
      </trkpt>
      <trkpt lat="46.85508" lon="6.24089">
        <ele>895.5</ele>
        <time>2016-12-12T10:18:13Z</time>
      </trkpt>
      <trkpt lat="46.85504" lon="6.24088">
        <ele>895.7</ele>
        <time>2016-12-12T10:18:17Z</time>
      </trkpt>
      <trkpt lat="46.85501" lon="6.24089">
        <ele>895.9</ele>
        <time>2016-12-12T10:18:19Z</time>
      </trkpt>
      <trkpt lat="46.85498" lon="6.24089">
        <ele>896</ele>
        <time>2016-12-12T10:18:21Z</time>
      </trkpt>
      <trkpt lat="46.85494" lon="6.24091">
        <ele>896.3</ele>
        <time>2016-12-12T10:18:25Z</time>
      </trkpt>
      <trkpt lat="46.85491" lon="6.24092">
        <ele>896.5</ele>
        <time>2016-12-12T10:18:27Z</time>
      </trkpt>
      <trkpt lat="46.85487" lon="6.24094">
        <ele>896.7</ele>
        <time>2016-12-12T10:18:29Z</time>
      </trkpt>
      <trkpt lat="46.85485" lon="6.24095">
        <ele>896.9</ele>
        <time>2016-12-12T10:18:31Z</time>
      </trkpt>
      <trkpt lat="46.85481" lon="6.24094">
        <ele>897</ele>
        <time>2016-12-12T10:18:33Z</time>
      </trkpt>
      <trkpt lat="46.85478" lon="6.24093">
        <ele>897.2</ele>
        <time>2016-12-12T10:18:35Z</time>
      </trkpt>
      <trkpt lat="46.85475" lon="6.24093">
        <ele>897.4</ele>
        <time>2016-12-12T10:18:39Z</time>
      </trkpt>
      <trkpt lat="46.85471" lon="6.24093">
        <ele>897.5</ele>
        <time>2016-12-12T10:18:43Z</time>
      </trkpt>
      <trkpt lat="46.85468" lon="6.24094">
        <ele>897.7</ele>
        <time>2016-12-12T10:18:46Z</time>
      </trkpt>
      <trkpt lat="46.85464" lon="6.24095">
        <ele>898</ele>
        <time>2016-12-12T10:18:48Z</time>
      </trkpt>
      <trkpt lat="46.8546" lon="6.24094">
        <ele>898.2</ele>
        <time>2016-12-12T10:18:50Z</time>
      </trkpt>
      <trkpt lat="46.85457" lon="6.24093">
        <ele>898.4</ele>
        <time>2016-12-12T10:18:52Z</time>
      </trkpt>
      <trkpt lat="46.85453" lon="6.24092">
        <ele>898.7</ele>
        <time>2016-12-12T10:18:54Z</time>
      </trkpt>
      <trkpt lat="46.85449" lon="6.24091">
        <ele>899</ele>
        <time>2016-12-12T10:18:56Z</time>
      </trkpt>
      <trkpt lat="46.85446" lon="6.24089">
        <ele>899.1</ele>
        <time>2016-12-12T10:19:00Z</time>
      </trkpt>
      <trkpt lat="46.85443" lon="6.24086">
        <ele>899.4</ele>
        <time>2016-12-12T10:19:02Z</time>
      </trkpt>
      <trkpt lat="46.8544" lon="6.24083">
        <ele>899.6</ele>
        <time>2016-12-12T10:19:04Z</time>
      </trkpt>
      <trkpt lat="46.85437" lon="6.24081">
        <ele>899.7</ele>
        <time>2016-12-12T10:19:06Z</time>
      </trkpt>
      <trkpt lat="46.85433" lon="6.24078">
        <ele>900</ele>
        <time>2016-12-12T10:19:08Z</time>
      </trkpt>
      <trkpt lat="46.85431" lon="6.24076">
        <ele>900.1</ele>
        <time>2016-12-12T10:19:10Z</time>
      </trkpt>
      <trkpt lat="46.85428" lon="6.24074">
        <ele>900.2</ele>
        <time>2016-12-12T10:19:14Z</time>
      </trkpt>
      <trkpt lat="46.85424" lon="6.24072">
        <ele>900.5</ele>
        <time>2016-12-12T10:19:17Z</time>
      </trkpt>
      <trkpt lat="46.85421" lon="6.2407">
        <ele>900.7</ele>
        <time>2016-12-12T10:19:19Z</time>
      </trkpt>
      <trkpt lat="46.8542" lon="6.24074">
        <ele>900.9</ele>
        <time>2016-12-12T10:19:31Z</time>
      </trkpt>
      <trkpt lat="46.85417" lon="6.24072">
        <ele>901.1</ele>
        <time>2016-12-12T10:19:36Z</time>
      </trkpt>
      <trkpt lat="46.85414" lon="6.24069">
        <ele>901.2</ele>
        <time>2016-12-12T10:19:38Z</time>
      </trkpt>
      <trkpt lat="46.85411" lon="6.24067">
        <ele>901.4</ele>
        <time>2016-12-12T10:19:39Z</time>
      </trkpt>
      <trkpt lat="46.85409" lon="6.24065">
        <ele>901.5</ele>
        <time>2016-12-12T10:19:40Z</time>
      </trkpt>
      <trkpt lat="46.85404" lon="6.24063">
        <ele>901.7</ele>
        <time>2016-12-12T10:19:42Z</time>
      </trkpt>
      <trkpt lat="46.854" lon="6.24061">
        <ele>902</ele>
        <time>2016-12-12T10:19:44Z</time>
      </trkpt>
      <trkpt lat="46.85397" lon="6.24059">
        <ele>902.2</ele>
        <time>2016-12-12T10:19:46Z</time>
      </trkpt>
      <trkpt lat="46.85393" lon="6.24058">
        <ele>902.4</ele>
        <time>2016-12-12T10:19:49Z</time>
      </trkpt>
      <trkpt lat="46.8539" lon="6.24058">
        <ele>902.6</ele>
        <time>2016-12-12T10:19:51Z</time>
      </trkpt>
      <trkpt lat="46.85387" lon="6.24057">
        <ele>902.8</ele>
        <time>2016-12-12T10:19:54Z</time>
      </trkpt>
      <trkpt lat="46.85385" lon="6.24054">
        <ele>902.9</ele>
        <time>2016-12-12T10:19:56Z</time>
      </trkpt>
      <trkpt lat="46.85382" lon="6.24054">
        <ele>903.1</ele>
        <time>2016-12-12T10:20:00Z</time>
      </trkpt>
      <trkpt lat="46.85379" lon="6.24053">
        <ele>903.3</ele>
        <time>2016-12-12T10:20:03Z</time>
      </trkpt>
      <trkpt lat="46.85374" lon="6.24055">
        <ele>903.8</ele>
        <time>2016-12-12T10:20:07Z</time>
      </trkpt>
      <trkpt lat="46.85371" lon="6.24056">
        <ele>904.2</ele>
        <time>2016-12-12T10:20:08Z</time>
      </trkpt>
      <trkpt lat="46.85365" lon="6.24061">
        <ele>905.1</ele>
        <time>2016-12-12T10:20:10Z</time>
      </trkpt>
      <trkpt lat="46.85362" lon="6.24061">
        <ele>905.4</ele>
        <time>2016-12-12T10:20:13Z</time>
      </trkpt>
      <trkpt lat="46.85359" lon="6.24062">
        <ele>905.8</ele>
        <time>2016-12-12T10:20:15Z</time>
      </trkpt>
      <trkpt lat="46.85356" lon="6.24062">
        <ele>906.2</ele>
        <time>2016-12-12T10:20:17Z</time>
      </trkpt>
      <trkpt lat="46.85352" lon="6.24063">
        <ele>906.7</ele>
        <time>2016-12-12T10:20:19Z</time>
      </trkpt>
      <trkpt lat="46.85348" lon="6.24064">
        <ele>907.1</ele>
        <time>2016-12-12T10:20:23Z</time>
      </trkpt>
      <trkpt lat="46.85345" lon="6.24064">
        <ele>907.5</ele>
        <time>2016-12-12T10:20:27Z</time>
      </trkpt>
      <trkpt lat="46.85341" lon="6.24062">
        <ele>907.9</ele>
        <time>2016-12-12T10:20:28Z</time>
      </trkpt>
      <trkpt lat="46.85338" lon="6.24061">
        <ele>908.1</ele>
        <time>2016-12-12T10:20:30Z</time>
      </trkpt>
      <trkpt lat="46.85335" lon="6.24059">
        <ele>908.4</ele>
        <time>2016-12-12T10:20:34Z</time>
      </trkpt>
      <trkpt lat="46.85331" lon="6.24057">
        <ele>908.7</ele>
        <time>2016-12-12T10:20:39Z</time>
      </trkpt>
      <trkpt lat="46.85328" lon="6.24057">
        <ele>909.1</ele>
        <time>2016-12-12T10:20:41Z</time>
      </trkpt>
      <trkpt lat="46.85324" lon="6.24057">
        <ele>909.5</ele>
        <time>2016-12-12T10:20:43Z</time>
      </trkpt>
      <trkpt lat="46.8532" lon="6.24055">
        <ele>909.7</ele>
        <time>2016-12-12T10:20:48Z</time>
      </trkpt>
      <trkpt lat="46.85317" lon="6.24055">
        <ele>910.1</ele>
        <time>2016-12-12T10:20:50Z</time>
      </trkpt>
      <trkpt lat="46.85313" lon="6.24057">
        <ele>910.7</ele>
        <time>2016-12-12T10:20:52Z</time>
      </trkpt>
      <trkpt lat="46.8531" lon="6.2406">
        <ele>911.3</ele>
        <time>2016-12-12T10:20:54Z</time>
      </trkpt>
      <trkpt lat="46.85307" lon="6.24063">
        <ele>911.7</ele>
        <time>2016-12-12T10:20:58Z</time>
      </trkpt>
      <trkpt lat="46.85305" lon="6.24066">
        <ele>912.2</ele>
        <time>2016-12-12T10:21:00Z</time>
      </trkpt>
      <trkpt lat="46.85303" lon="6.24069">
        <ele>912.7</ele>
        <time>2016-12-12T10:21:02Z</time>
      </trkpt>
      <trkpt lat="46.85301" lon="6.24071">
        <ele>913.1</ele>
        <time>2016-12-12T10:21:04Z</time>
      </trkpt>
      <trkpt lat="46.85297" lon="6.24072">
        <ele>913.6</ele>
        <time>2016-12-12T10:21:07Z</time>
      </trkpt>
      <trkpt lat="46.85294" lon="6.24072">
        <ele>913.9</ele>
        <time>2016-12-12T10:21:09Z</time>
      </trkpt>
      <trkpt lat="46.85291" lon="6.24072">
        <ele>914.3</ele>
        <time>2016-12-12T10:21:11Z</time>
      </trkpt>
      <trkpt lat="46.85288" lon="6.24073">
        <ele>914.6</ele>
        <time>2016-12-12T10:21:14Z</time>
      </trkpt>
      <trkpt lat="46.85285" lon="6.24072">
        <ele>914.8</ele>
        <time>2016-12-12T10:21:17Z</time>
      </trkpt>
      <trkpt lat="46.85281" lon="6.2407">
        <ele>914.9</ele>
        <time>2016-12-12T10:21:20Z</time>
      </trkpt>
      <trkpt lat="46.85278" lon="6.24068">
        <ele>915.1</ele>
        <time>2016-12-12T10:21:23Z</time>
      </trkpt>
      <trkpt lat="46.85275" lon="6.24066">
        <ele>915.2</ele>
        <time>2016-12-12T10:21:28Z</time>
      </trkpt>
      <trkpt lat="46.85274" lon="6.24062">
        <ele>915.1</ele>
        <time>2016-12-12T10:21:31Z</time>
      </trkpt>
      <trkpt lat="46.85272" lon="6.24058">
        <ele>915.1</ele>
        <time>2016-12-12T10:21:35Z</time>
      </trkpt>
      <trkpt lat="46.85269" lon="6.24052">
        <ele>915</ele>
        <time>2016-12-12T10:21:37Z</time>
      </trkpt>
      <trkpt lat="46.85268" lon="6.24049">
        <ele>915</ele>
        <time>2016-12-12T10:21:38Z</time>
      </trkpt>
      <trkpt lat="46.85267" lon="6.24045">
        <ele>914.8</ele>
        <time>2016-12-12T10:21:40Z</time>
      </trkpt>
      <trkpt lat="46.85267" lon="6.2404">
        <ele>914.6</ele>
        <time>2016-12-12T10:21:42Z</time>
      </trkpt>
      <trkpt lat="46.85265" lon="6.24033">
        <ele>914.3</ele>
        <time>2016-12-12T10:21:47Z</time>
      </trkpt>
      <trkpt lat="46.85264" lon="6.24028">
        <ele>914.1</ele>
        <time>2016-12-12T10:21:49Z</time>
      </trkpt>
      <trkpt lat="46.85263" lon="6.24023">
        <ele>913.8</ele>
        <time>2016-12-12T10:21:51Z</time>
      </trkpt>
      <trkpt lat="46.85264" lon="6.24017">
        <ele>913.4</ele>
        <time>2016-12-12T10:21:53Z</time>
      </trkpt>
      <trkpt lat="46.85264" lon="6.24011">
        <ele>912.9</ele>
        <time>2016-12-12T10:21:55Z</time>
      </trkpt>
      <trkpt lat="46.85262" lon="6.24007">
        <ele>912.8</ele>
        <time>2016-12-12T10:22:00Z</time>
      </trkpt>
      <trkpt lat="46.85259" lon="6.24005">
        <ele>913</ele>
        <time>2016-12-12T10:22:02Z</time>
      </trkpt>
      <trkpt lat="46.85256" lon="6.24003">
        <ele>913.1</ele>
        <time>2016-12-12T10:22:04Z</time>
      </trkpt>
      <trkpt lat="46.85254" lon="6.24">
        <ele>913.1</ele>
        <time>2016-12-12T10:22:08Z</time>
      </trkpt>
      <trkpt lat="46.8525" lon="6.23998">
        <ele>913.3</ele>
        <time>2016-12-12T10:22:10Z</time>
      </trkpt>
      <trkpt lat="46.85246" lon="6.23994">
        <ele>913.5</ele>
        <time>2016-12-12T10:22:12Z</time>
      </trkpt>
      <trkpt lat="46.85243" lon="6.2399">
        <ele>913.4</ele>
        <time>2016-12-12T10:22:15Z</time>
      </trkpt>
      <trkpt lat="46.85242" lon="6.23987">
        <ele>913.3</ele>
        <time>2016-12-12T10:22:17Z</time>
      </trkpt>
      <trkpt lat="46.85239" lon="6.23984">
        <ele>913.3</ele>
        <time>2016-12-12T10:22:20Z</time>
      </trkpt>
      <trkpt lat="46.85237" lon="6.23982">
        <ele>913.4</ele>
        <time>2016-12-12T10:22:23Z</time>
      </trkpt>
      <trkpt lat="46.85233" lon="6.23979">
        <ele>913.5</ele>
        <time>2016-12-12T10:22:26Z</time>
      </trkpt>
      <trkpt lat="46.8523" lon="6.23978">
        <ele>913.7</ele>
        <time>2016-12-12T10:22:28Z</time>
      </trkpt>
      <trkpt lat="46.85228" lon="6.23976">
        <ele>913.7</ele>
        <time>2016-12-12T10:22:31Z</time>
      </trkpt>
      <trkpt lat="46.85225" lon="6.23974">
        <ele>913.8</ele>
        <time>2016-12-12T10:22:32Z</time>
      </trkpt>
      <trkpt lat="46.85221" lon="6.23972">
        <ele>914</ele>
        <time>2016-12-12T10:22:34Z</time>
      </trkpt>
      <trkpt lat="46.85218" lon="6.23972">
        <ele>914.3</ele>
        <time>2016-12-12T10:22:36Z</time>
      </trkpt>
      <trkpt lat="46.85215" lon="6.23971">
        <ele>914.5</ele>
        <time>2016-12-12T10:22:38Z</time>
      </trkpt>
      <trkpt lat="46.85211" lon="6.23971">
        <ele>914.8</ele>
        <time>2016-12-12T10:22:41Z</time>
      </trkpt>
      <trkpt lat="46.85209" lon="6.23968">
        <ele>914.7</ele>
        <time>2016-12-12T10:22:42Z</time>
      </trkpt>
      <trkpt lat="46.85207" lon="6.23968">
        <ele>915.2</ele>
        <time>2016-12-12T10:22:44Z</time>
      </trkpt>
      <trkpt lat="46.85204" lon="6.23968">
        <ele>915.8</ele>
        <time>2016-12-12T10:22:48Z</time>
      </trkpt>
      <trkpt lat="46.852" lon="6.2397">
        <ele>916.7</ele>
        <time>2016-12-12T10:22:50Z</time>
      </trkpt>
      <trkpt lat="46.85197" lon="6.23971">
        <ele>917.3</ele>
        <time>2016-12-12T10:22:51Z</time>
      </trkpt>
      <trkpt lat="46.85193" lon="6.23971">
        <ele>918.2</ele>
        <time>2016-12-12T10:22:53Z</time>
      </trkpt>
      <trkpt lat="46.8519" lon="6.23971">
        <ele>918.7</ele>
        <time>2016-12-12T10:22:55Z</time>
      </trkpt>
      <trkpt lat="46.85186" lon="6.23972">
        <ele>919.6</ele>
        <time>2016-12-12T10:22:58Z</time>
      </trkpt>
      <trkpt lat="46.85183" lon="6.23973">
        <ele>920.4</ele>
        <time>2016-12-12T10:23:00Z</time>
      </trkpt>
      <trkpt lat="46.8518" lon="6.23976">
        <ele>921.3</ele>
        <time>2016-12-12T10:23:05Z</time>
      </trkpt>
      <trkpt lat="46.85176" lon="6.23979">
        <ele>922.3</ele>
        <time>2016-12-12T10:23:08Z</time>
      </trkpt>
      <trkpt lat="46.85174" lon="6.23979">
        <ele>922.9</ele>
        <time>2016-12-12T10:23:10Z</time>
      </trkpt>
      <trkpt lat="46.8517" lon="6.23977">
        <ele>923.4</ele>
        <time>2016-12-12T10:23:13Z</time>
      </trkpt>
      <trkpt lat="46.85167" lon="6.23976">
        <ele>923.8</ele>
        <time>2016-12-12T10:23:14Z</time>
      </trkpt>
      <trkpt lat="46.85163" lon="6.23976">
        <ele>924.6</ele>
        <time>2016-12-12T10:23:17Z</time>
      </trkpt>
      <trkpt lat="46.85159" lon="6.23978">
        <ele>925.7</ele>
        <time>2016-12-12T10:23:20Z</time>
      </trkpt>
      <trkpt lat="46.85157" lon="6.23981">
        <ele>926.4</ele>
        <time>2016-12-12T10:23:22Z</time>
      </trkpt>
      <trkpt lat="46.85154" lon="6.23982">
        <ele>927.2</ele>
        <time>2016-12-12T10:23:24Z</time>
      </trkpt>
      <trkpt lat="46.85149" lon="6.23983">
        <ele>928.3</ele>
        <time>2016-12-12T10:23:28Z</time>
      </trkpt>
      <trkpt lat="46.85146" lon="6.23983">
        <ele>928.9</ele>
        <time>2016-12-12T10:23:29Z</time>
      </trkpt>
      <trkpt lat="46.85141" lon="6.23979">
        <ele>929.5</ele>
        <time>2016-12-12T10:23:32Z</time>
      </trkpt>
      <trkpt lat="46.85138" lon="6.23977">
        <ele>929.8</ele>
        <time>2016-12-12T10:23:35Z</time>
      </trkpt>
      <trkpt lat="46.85136" lon="6.23974">
        <ele>930</ele>
        <time>2016-12-12T10:23:38Z</time>
      </trkpt>
      <trkpt lat="46.85133" lon="6.23972">
        <ele>930.2</ele>
        <time>2016-12-12T10:23:42Z</time>
      </trkpt>
      <trkpt lat="46.8513" lon="6.23969">
        <ele>930.4</ele>
        <time>2016-12-12T10:23:45Z</time>
      </trkpt>
      <trkpt lat="46.85128" lon="6.23967">
        <ele>930.6</ele>
        <time>2016-12-12T10:23:48Z</time>
      </trkpt>
      <trkpt lat="46.85125" lon="6.23964">
        <ele>930.8</ele>
        <time>2016-12-12T10:23:53Z</time>
      </trkpt>
      <trkpt lat="46.85123" lon="6.23962">
        <ele>931.5</ele>
        <time>2016-12-12T10:23:57Z</time>
      </trkpt>
      <trkpt lat="46.8512" lon="6.23959">
        <ele>932.4</ele>
        <time>2016-12-12T10:23:59Z</time>
      </trkpt>
      <trkpt lat="46.85117" lon="6.23957">
        <ele>933.2</ele>
        <time>2016-12-12T10:24:00Z</time>
      </trkpt>
      <trkpt lat="46.85114" lon="6.23955">
        <ele>934.4</ele>
        <time>2016-12-12T10:24:02Z</time>
      </trkpt>
      <trkpt lat="46.85111" lon="6.23952">
        <ele>935.1</ele>
        <time>2016-12-12T10:24:05Z</time>
      </trkpt>
      <trkpt lat="46.85109" lon="6.2395">
        <ele>935.7</ele>
        <time>2016-12-12T10:24:08Z</time>
      </trkpt>
      <trkpt lat="46.85106" lon="6.23947">
        <ele>936.5</ele>
        <time>2016-12-12T10:24:14Z</time>
      </trkpt>
      <trkpt lat="46.85103" lon="6.23944">
        <ele>936.9</ele>
        <time>2016-12-12T10:24:19Z</time>
      </trkpt>
      <trkpt lat="46.85101" lon="6.23941">
        <ele>937.5</ele>
        <time>2016-12-12T10:24:21Z</time>
      </trkpt>
      <trkpt lat="46.85099" lon="6.23938">
        <ele>937.7</ele>
        <time>2016-12-12T10:24:25Z</time>
      </trkpt>
      <trkpt lat="46.85094" lon="6.23934">
        <ele>938.7</ele>
        <time>2016-12-12T10:24:27Z</time>
      </trkpt>
      <trkpt lat="46.85091" lon="6.23931">
        <ele>939.2</ele>
        <time>2016-12-12T10:24:29Z</time>
      </trkpt>
      <trkpt lat="46.85088" lon="6.23929">
        <ele>940.1</ele>
        <time>2016-12-12T10:24:32Z</time>
      </trkpt>
      <trkpt lat="46.85086" lon="6.23928">
        <ele>941</ele>
        <time>2016-12-12T10:24:38Z</time>
      </trkpt>
      <trkpt lat="46.85084" lon="6.23925">
        <ele>941</ele>
        <time>2016-12-12T10:24:42Z</time>
      </trkpt>
      <trkpt lat="46.85082" lon="6.23921">
        <ele>940.9</ele>
        <time>2016-12-12T10:24:43Z</time>
      </trkpt>
      <trkpt lat="46.8508" lon="6.23917">
        <ele>940.8</ele>
        <time>2016-12-12T10:24:46Z</time>
      </trkpt>
      <trkpt lat="46.85077" lon="6.23915">
        <ele>941.6</ele>
        <time>2016-12-12T10:24:48Z</time>
      </trkpt>
      <trkpt lat="46.85074" lon="6.23914">
        <ele>942.1</ele>
        <time>2016-12-12T10:24:50Z</time>
      </trkpt>
      <trkpt lat="46.8507" lon="6.23909">
        <ele>942.6</ele>
        <time>2016-12-12T10:24:53Z</time>
      </trkpt>
      <trkpt lat="46.85067" lon="6.23906">
        <ele>943</ele>
        <time>2016-12-12T10:24:55Z</time>
      </trkpt>
      <trkpt lat="46.85065" lon="6.23905">
        <ele>943.5</ele>
        <time>2016-12-12T10:24:58Z</time>
      </trkpt>
      <trkpt lat="46.85062" lon="6.23902">
        <ele>944</ele>
        <time>2016-12-12T10:25:01Z</time>
      </trkpt>
      <trkpt lat="46.8506" lon="6.239">
        <ele>944.3</ele>
        <time>2016-12-12T10:25:03Z</time>
      </trkpt>
      <trkpt lat="46.85056" lon="6.23896">
        <ele>944.7</ele>
        <time>2016-12-12T10:25:05Z</time>
      </trkpt>
      <trkpt lat="46.85053" lon="6.23895">
        <ele>945.3</ele>
        <time>2016-12-12T10:25:07Z</time>
      </trkpt>
      <trkpt lat="46.85051" lon="6.23891">
        <ele>945.2</ele>
        <time>2016-12-12T10:25:09Z</time>
      </trkpt>
      <trkpt lat="46.85049" lon="6.23888">
        <ele>945</ele>
        <time>2016-12-12T10:25:13Z</time>
      </trkpt>
      <trkpt lat="46.85047" lon="6.23884">
        <ele>944.8</ele>
        <time>2016-12-12T10:25:18Z</time>
      </trkpt>
      <trkpt lat="46.85043" lon="6.23884">
        <ele>946</ele>
        <time>2016-12-12T10:25:21Z</time>
      </trkpt>
      <trkpt lat="46.8504" lon="6.23881">
        <ele>946.6</ele>
        <time>2016-12-12T10:25:22Z</time>
      </trkpt>
      <trkpt lat="46.85037" lon="6.23881">
        <ele>948.5</ele>
        <time>2016-12-12T10:25:25Z</time>
      </trkpt>
      <trkpt lat="46.85033" lon="6.2388">
        <ele>950.6</ele>
        <time>2016-12-12T10:25:30Z</time>
      </trkpt>
      <trkpt lat="46.8503" lon="6.23879">
        <ele>952.4</ele>
        <time>2016-12-12T10:25:34Z</time>
      </trkpt>
      <trkpt lat="46.85027" lon="6.23877">
        <ele>953.8</ele>
        <time>2016-12-12T10:25:36Z</time>
      </trkpt>
      <trkpt lat="46.85026" lon="6.23872">
        <ele>953</ele>
        <time>2016-12-12T10:25:42Z</time>
      </trkpt>
      <trkpt lat="46.85024" lon="6.23869">
        <ele>953.8</ele>
        <time>2016-12-12T10:25:44Z</time>
      </trkpt>
      <trkpt lat="46.85021" lon="6.23867">
        <ele>955.2</ele>
        <time>2016-12-12T10:25:46Z</time>
      </trkpt>
      <trkpt lat="46.85018" lon="6.23864">
        <ele>956.1</ele>
        <time>2016-12-12T10:25:48Z</time>
      </trkpt>
      <trkpt lat="46.85016" lon="6.23862">
        <ele>957</ele>
        <time>2016-12-12T10:25:50Z</time>
      </trkpt>
      <trkpt lat="46.85013" lon="6.23859">
        <ele>958.4</ele>
        <time>2016-12-12T10:25:54Z</time>
      </trkpt>
      <trkpt lat="46.85009" lon="6.23852">
        <ele>959.1</ele>
        <time>2016-12-12T10:25:57Z</time>
      </trkpt>
      <trkpt lat="46.85007" lon="6.2385">
        <ele>960</ele>
        <time>2016-12-12T10:26:00Z</time>
      </trkpt>
      <trkpt lat="46.85004" lon="6.23847">
        <ele>961.1</ele>
        <time>2016-12-12T10:26:02Z</time>
      </trkpt>
      <trkpt lat="46.85001" lon="6.23844">
        <ele>962.2</ele>
        <time>2016-12-12T10:26:04Z</time>
      </trkpt>
      <trkpt lat="46.84998" lon="6.2384">
        <ele>962.9</ele>
        <time>2016-12-12T10:26:06Z</time>
      </trkpt>
      <trkpt lat="46.84996" lon="6.23836">
        <ele>963.6</ele>
        <time>2016-12-12T10:26:10Z</time>
      </trkpt>
      <trkpt lat="46.84992" lon="6.23834">
        <ele>965.2</ele>
        <time>2016-12-12T10:26:13Z</time>
      </trkpt>
      <trkpt lat="46.8499" lon="6.23831">
        <ele>966.2</ele>
        <time>2016-12-12T10:26:16Z</time>
      </trkpt>
      <trkpt lat="46.84987" lon="6.23829">
        <ele>967.2</ele>
        <time>2016-12-12T10:26:18Z</time>
      </trkpt>
      <trkpt lat="46.84983" lon="6.23828">
        <ele>969.8</ele>
        <time>2016-12-12T10:26:20Z</time>
      </trkpt>
      <trkpt lat="46.84979" lon="6.23825">
        <ele>971.3</ele>
        <time>2016-12-12T10:26:23Z</time>
      </trkpt>
      <trkpt lat="46.84982" lon="6.23828">
        <ele>970.5</ele>
        <time>2016-12-12T10:26:29Z</time>
      </trkpt>
      <trkpt lat="46.84983" lon="6.23832">
        <ele>970.2</ele>
        <time>2016-12-12T10:26:31Z</time>
      </trkpt>
      <trkpt lat="46.8498" lon="6.23831">
        <ele>971.9</ele>
        <time>2016-12-12T10:26:37Z</time>
      </trkpt>
      <trkpt lat="46.84979" lon="6.23824">
        <ele>971.2</ele>
        <time>2016-12-12T10:26:40Z</time>
      </trkpt>
      <trkpt lat="46.84977" lon="6.23821">
        <ele>971.6</ele>
        <time>2016-12-12T10:26:41Z</time>
      </trkpt>
      <trkpt lat="46.84971" lon="6.23819">
        <ele>974.7</ele>
        <time>2016-12-12T10:26:43Z</time>
      </trkpt>
      <trkpt lat="46.84967" lon="6.23819">
        <ele>977</ele>
        <time>2016-12-12T10:26:44Z</time>
      </trkpt>
      <trkpt lat="46.84964" lon="6.23816">
        <ele>978.1</ele>
        <time>2016-12-12T10:26:48Z</time>
      </trkpt>
      <trkpt lat="46.84963" lon="6.23812">
        <ele>978.3</ele>
        <time>2016-12-12T10:26:51Z</time>
      </trkpt>
      <trkpt lat="46.84963" lon="6.23808">
        <ele>977.3</ele>
        <time>2016-12-12T10:26:57Z</time>
      </trkpt>
      <trkpt lat="46.84961" lon="6.23806">
        <ele>977.7</ele>
        <time>2016-12-12T10:27:02Z</time>
      </trkpt>
      <trkpt lat="46.84958" lon="6.23804">
        <ele>979.1</ele>
        <time>2016-12-12T10:27:04Z</time>
      </trkpt>
      <trkpt lat="46.84956" lon="6.23801">
        <ele>979.4</ele>
        <time>2016-12-12T10:27:07Z</time>
      </trkpt>
      <trkpt lat="46.84953" lon="6.23798">
        <ele>979.8</ele>
        <time>2016-12-12T10:27:10Z</time>
      </trkpt>
      <trkpt lat="46.84949" lon="6.23794">
        <ele>980.8</ele>
        <time>2016-12-12T10:27:13Z</time>
      </trkpt>
      <trkpt lat="46.84945" lon="6.23792">
        <ele>982</ele>
        <time>2016-12-12T10:27:15Z</time>
      </trkpt>
      <trkpt lat="46.84943" lon="6.2379">
        <ele>982.5</ele>
        <time>2016-12-12T10:27:17Z</time>
      </trkpt>
      <trkpt lat="46.8494" lon="6.23788">
        <ele>983.3</ele>
        <time>2016-12-12T10:27:20Z</time>
      </trkpt>
      <trkpt lat="46.84937" lon="6.23784">
        <ele>983.4</ele>
        <time>2016-12-12T10:27:23Z</time>
      </trkpt>
      <trkpt lat="46.84936" lon="6.2378">
        <ele>983.1</ele>
        <time>2016-12-12T10:27:31Z</time>
      </trkpt>
      <trkpt lat="46.84934" lon="6.23777">
        <ele>983.2</ele>
        <time>2016-12-12T10:27:33Z</time>
      </trkpt>
      <trkpt lat="46.84932" lon="6.23773">
        <ele>983.1</ele>
        <time>2016-12-12T10:27:36Z</time>
      </trkpt>
      <trkpt lat="46.8493" lon="6.23769">
        <ele>983</ele>
        <time>2016-12-12T10:27:39Z</time>
      </trkpt>
      <trkpt lat="46.84928" lon="6.23766">
        <ele>983.2</ele>
        <time>2016-12-12T10:27:43Z</time>
      </trkpt>
      <trkpt lat="46.84925" lon="6.23763">
        <ele>983.6</ele>
        <time>2016-12-12T10:27:45Z</time>
      </trkpt>
      <trkpt lat="46.84923" lon="6.2376">
        <ele>983.9</ele>
        <time>2016-12-12T10:27:48Z</time>
      </trkpt>
      <trkpt lat="46.84921" lon="6.23756">
        <ele>984.2</ele>
        <time>2016-12-12T10:27:51Z</time>
      </trkpt>
      <trkpt lat="46.84919" lon="6.23754">
        <ele>984.6</ele>
        <time>2016-12-12T10:27:54Z</time>
      </trkpt>
      <trkpt lat="46.84917" lon="6.2375">
        <ele>984.8</ele>
        <time>2016-12-12T10:27:57Z</time>
      </trkpt>
      <trkpt lat="46.84914" lon="6.23747">
        <ele>985.2</ele>
        <time>2016-12-12T10:28:00Z</time>
      </trkpt>
      <trkpt lat="46.84912" lon="6.23743">
        <ele>985.6</ele>
        <time>2016-12-12T10:28:04Z</time>
      </trkpt>
      <trkpt lat="46.84909" lon="6.23742">
        <ele>986.6</ele>
        <time>2016-12-12T10:28:06Z</time>
      </trkpt>
      <trkpt lat="46.84907" lon="6.23739">
        <ele>987.1</ele>
        <time>2016-12-12T10:28:09Z</time>
      </trkpt>
      <trkpt lat="46.84904" lon="6.23736">
        <ele>987.8</ele>
        <time>2016-12-12T10:28:12Z</time>
      </trkpt>
      <trkpt lat="46.84901" lon="6.23734">
        <ele>988.8</ele>
        <time>2016-12-12T10:28:15Z</time>
      </trkpt>
      <trkpt lat="46.84899" lon="6.23731">
        <ele>989.3</ele>
        <time>2016-12-12T10:28:19Z</time>
      </trkpt>
      <trkpt lat="46.84897" lon="6.23727">
        <ele>989.3</ele>
        <time>2016-12-12T10:28:24Z</time>
      </trkpt>
      <trkpt lat="46.84895" lon="6.23724">
        <ele>989.9</ele>
        <time>2016-12-12T10:28:28Z</time>
      </trkpt>
      <trkpt lat="46.84892" lon="6.23719">
        <ele>990.5</ele>
        <time>2016-12-12T10:28:32Z</time>
      </trkpt>
      <trkpt lat="46.84889" lon="6.23717">
        <ele>991.2</ele>
        <time>2016-12-12T10:28:35Z</time>
      </trkpt>
      <trkpt lat="46.84887" lon="6.23714">
        <ele>991.9</ele>
        <time>2016-12-12T10:28:44Z</time>
      </trkpt>
      <trkpt lat="46.84884" lon="6.23714">
        <ele>993.3</ele>
        <time>2016-12-12T10:28:50Z</time>
      </trkpt>
      <trkpt lat="46.8488" lon="6.23713">
        <ele>995.4</ele>
        <time>2016-12-12T10:28:52Z</time>
      </trkpt>
      <trkpt lat="46.84877" lon="6.23712">
        <ele>996.5</ele>
        <time>2016-12-12T10:28:54Z</time>
      </trkpt>
      <trkpt lat="46.84875" lon="6.23708">
        <ele>996.8</ele>
        <time>2016-12-12T10:28:59Z</time>
      </trkpt>
      <trkpt lat="46.84872" lon="6.23705">
        <ele>996.4</ele>
        <time>2016-12-12T10:29:04Z</time>
      </trkpt>
      <trkpt lat="46.84868" lon="6.23705">
        <ele>997.2</ele>
        <time>2016-12-12T10:29:06Z</time>
      </trkpt>
      <trkpt lat="46.84865" lon="6.23706">
        <ele>998.1</ele>
        <time>2016-12-12T10:29:07Z</time>
      </trkpt>
      <trkpt lat="46.84862" lon="6.23703">
        <ele>997.8</ele>
        <time>2016-12-12T10:29:10Z</time>
      </trkpt>
      <trkpt lat="46.8486" lon="6.237">
        <ele>997.2</ele>
        <time>2016-12-12T10:29:12Z</time>
      </trkpt>
      <trkpt lat="46.84858" lon="6.23697">
        <ele>996.5</ele>
        <time>2016-12-12T10:29:14Z</time>
      </trkpt>
      <trkpt lat="46.84855" lon="6.23693">
        <ele>996</ele>
        <time>2016-12-12T10:29:17Z</time>
      </trkpt>
      <trkpt lat="46.84853" lon="6.2369">
        <ele>995.7</ele>
        <time>2016-12-12T10:29:21Z</time>
      </trkpt>
      <trkpt lat="46.84851" lon="6.23687">
        <ele>995.2</ele>
        <time>2016-12-12T10:29:24Z</time>
      </trkpt>
      <trkpt lat="46.84849" lon="6.23683">
        <ele>994.4</ele>
        <time>2016-12-12T10:29:28Z</time>
      </trkpt>
      <trkpt lat="46.84847" lon="6.23679">
        <ele>993.9</ele>
        <time>2016-12-12T10:29:31Z</time>
      </trkpt>
      <trkpt lat="46.84844" lon="6.23676">
        <ele>993.8</ele>
        <time>2016-12-12T10:29:35Z</time>
      </trkpt>
      <trkpt lat="46.84841" lon="6.23674">
        <ele>993.8</ele>
        <time>2016-12-12T10:29:38Z</time>
      </trkpt>
      <trkpt lat="46.84839" lon="6.23672">
        <ele>993.8</ele>
        <time>2016-12-12T10:29:40Z</time>
      </trkpt>
      <trkpt lat="46.84836" lon="6.23669">
        <ele>993.8</ele>
        <time>2016-12-12T10:29:42Z</time>
      </trkpt>
      <trkpt lat="46.84833" lon="6.23666">
        <ele>994</ele>
        <time>2016-12-12T10:29:45Z</time>
      </trkpt>
      <trkpt lat="46.8483" lon="6.23664">
        <ele>994.2</ele>
        <time>2016-12-12T10:29:47Z</time>
      </trkpt>
      <trkpt lat="46.84828" lon="6.23661">
        <ele>994</ele>
        <time>2016-12-12T10:29:50Z</time>
      </trkpt>
      <trkpt lat="46.84825" lon="6.23656">
        <ele>993.7</ele>
        <time>2016-12-12T10:29:53Z</time>
      </trkpt>
      <trkpt lat="46.84823" lon="6.23655">
        <ele>994.1</ele>
        <time>2016-12-12T10:29:56Z</time>
      </trkpt>
      <trkpt lat="46.8482" lon="6.23652">
        <ele>994.4</ele>
        <time>2016-12-12T10:29:58Z</time>
      </trkpt>
      <trkpt lat="46.84817" lon="6.2365">
        <ele>994.7</ele>
        <time>2016-12-12T10:30:00Z</time>
      </trkpt>
      <trkpt lat="46.84813" lon="6.23648">
        <ele>995.3</ele>
        <time>2016-12-12T10:30:03Z</time>
      </trkpt>
      <trkpt lat="46.84811" lon="6.23646">
        <ele>995.7</ele>
        <time>2016-12-12T10:30:05Z</time>
      </trkpt>
      <trkpt lat="46.84807" lon="6.23643">
        <ele>996.1</ele>
        <time>2016-12-12T10:30:08Z</time>
      </trkpt>
      <trkpt lat="46.84805" lon="6.23641">
        <ele>996.6</ele>
        <time>2016-12-12T10:30:13Z</time>
      </trkpt>
      <trkpt lat="46.84802" lon="6.23639">
        <ele>997.1</ele>
        <time>2016-12-12T10:30:16Z</time>
      </trkpt>
      <trkpt lat="46.84799" lon="6.23637">
        <ele>997.6</ele>
        <time>2016-12-12T10:30:18Z</time>
      </trkpt>
      <trkpt lat="46.84797" lon="6.23635">
        <ele>998.1</ele>
        <time>2016-12-12T10:30:20Z</time>
      </trkpt>
      <trkpt lat="46.84793" lon="6.23634">
        <ele>999</ele>
        <time>2016-12-12T10:30:22Z</time>
      </trkpt>
      <trkpt lat="46.8479" lon="6.23633">
        <ele>999.5</ele>
        <time>2016-12-12T10:30:25Z</time>
      </trkpt>
      <trkpt lat="46.84786" lon="6.2363">
        <ele>999.5</ele>
        <time>2016-12-12T10:30:28Z</time>
      </trkpt>
      <trkpt lat="46.84783" lon="6.23627">
        <ele>999.4</ele>
        <time>2016-12-12T10:30:31Z</time>
      </trkpt>
      <trkpt lat="46.84778" lon="6.23624">
        <ele>999.3</ele>
        <time>2016-12-12T10:30:33Z</time>
      </trkpt>
      <trkpt lat="46.84775" lon="6.23623">
        <ele>999.4</ele>
        <time>2016-12-12T10:30:35Z</time>
      </trkpt>
      <trkpt lat="46.84772" lon="6.23622">
        <ele>999.6</ele>
        <time>2016-12-12T10:30:38Z</time>
      </trkpt>
      <trkpt lat="46.84768" lon="6.23623">
        <ele>1000.1</ele>
        <time>2016-12-12T10:30:41Z</time>
      </trkpt>
      <trkpt lat="46.84765" lon="6.23622">
        <ele>1000.3</ele>
        <time>2016-12-12T10:30:43Z</time>
      </trkpt>
      <trkpt lat="46.84762" lon="6.23622">
        <ele>1000.7</ele>
        <time>2016-12-12T10:30:45Z</time>
      </trkpt>
      <trkpt lat="46.84759" lon="6.23624">
        <ele>1001.3</ele>
        <time>2016-12-12T10:30:50Z</time>
      </trkpt>
      <trkpt lat="46.84756" lon="6.23624">
        <ele>1001.6</ele>
        <time>2016-12-12T10:30:52Z</time>
      </trkpt>
      <trkpt lat="46.84753" lon="6.23623">
        <ele>1001.8</ele>
        <time>2016-12-12T10:30:56Z</time>
      </trkpt>
      <trkpt lat="46.84751" lon="6.23619">
        <ele>1001.3</ele>
        <time>2016-12-12T10:31:14Z</time>
      </trkpt>
      <trkpt lat="46.84748" lon="6.23617">
        <ele>1001.2</ele>
        <time>2016-12-12T10:31:17Z</time>
      </trkpt>
      <trkpt lat="46.84744" lon="6.23615">
        <ele>1001.4</ele>
        <time>2016-12-12T10:31:19Z</time>
      </trkpt>
      <trkpt lat="46.84741" lon="6.23618">
        <ele>1002.2</ele>
        <time>2016-12-12T10:31:22Z</time>
      </trkpt>
      <trkpt lat="46.8474" lon="6.23611">
        <ele>1001.2</ele>
        <time>2016-12-12T10:31:24Z</time>
      </trkpt>
      <trkpt lat="46.84738" lon="6.23607">
        <ele>1000.6</ele>
        <time>2016-12-12T10:31:25Z</time>
      </trkpt>
      <trkpt lat="46.84735" lon="6.23607">
        <ele>1001</ele>
        <time>2016-12-12T10:31:32Z</time>
      </trkpt>
      <trkpt lat="46.84732" lon="6.23608">
        <ele>1001.4</ele>
        <time>2016-12-12T10:31:34Z</time>
      </trkpt>
      <trkpt lat="46.84729" lon="6.23609">
        <ele>1002.1</ele>
        <time>2016-12-12T10:31:39Z</time>
      </trkpt>
      <trkpt lat="46.84726" lon="6.23613">
        <ele>1003</ele>
        <time>2016-12-12T10:31:40Z</time>
      </trkpt>
      <trkpt lat="46.84723" lon="6.23612">
        <ele>1003.2</ele>
        <time>2016-12-12T10:31:42Z</time>
      </trkpt>
      <trkpt lat="46.84722" lon="6.23616">
        <ele>1004.1</ele>
        <time>2016-12-12T10:31:47Z</time>
      </trkpt>
      <trkpt lat="46.84719" lon="6.23621">
        <ele>1005.1</ele>
        <time>2016-12-12T10:31:51Z</time>
      </trkpt>
      <trkpt lat="46.84717" lon="6.23624">
        <ele>1005.8</ele>
        <time>2016-12-12T10:31:53Z</time>
      </trkpt>
      <trkpt lat="46.8472" lon="6.23631">
        <ele>1006.6</ele>
        <time>2016-12-12T10:31:55Z</time>
      </trkpt>
      <trkpt lat="46.84717" lon="6.23633">
        <ele>1007.2</ele>
        <time>2016-12-12T10:31:58Z</time>
      </trkpt>
      <trkpt lat="46.84714" lon="6.23633">
        <ele>1007.6</ele>
        <time>2016-12-12T10:32:01Z</time>
      </trkpt>
      <trkpt lat="46.84711" lon="6.23633">
        <ele>1007.9</ele>
        <time>2016-12-12T10:32:03Z</time>
      </trkpt>
      <trkpt lat="46.84708" lon="6.23636">
        <ele>1008.6</ele>
        <time>2016-12-12T10:32:07Z</time>
      </trkpt>
      <trkpt lat="46.84707" lon="6.23641">
        <ele>1009.4</ele>
        <time>2016-12-12T10:32:11Z</time>
      </trkpt>
      <trkpt lat="46.84707" lon="6.23645">
        <ele>1010.1</ele>
        <time>2016-12-12T10:32:15Z</time>
      </trkpt>
      <trkpt lat="46.84704" lon="6.23649">
        <ele>1010.9</ele>
        <time>2016-12-12T10:32:20Z</time>
      </trkpt>
      <trkpt lat="46.84702" lon="6.23653">
        <ele>1011.6</ele>
        <time>2016-12-12T10:32:24Z</time>
      </trkpt>
      <trkpt lat="46.847" lon="6.23657">
        <ele>1012.3</ele>
        <time>2016-12-12T10:32:27Z</time>
      </trkpt>
      <trkpt lat="46.84698" lon="6.23662">
        <ele>1013.3</ele>
        <time>2016-12-12T10:32:30Z</time>
      </trkpt>
      <trkpt lat="46.84697" lon="6.23667">
        <ele>1014</ele>
        <time>2016-12-12T10:32:32Z</time>
      </trkpt>
      <trkpt lat="46.84696" lon="6.23671">
        <ele>1014.7</ele>
        <time>2016-12-12T10:32:36Z</time>
      </trkpt>
      <trkpt lat="46.84696" lon="6.23676">
        <ele>1015.4</ele>
        <time>2016-12-12T10:32:40Z</time>
      </trkpt>
      <trkpt lat="46.84695" lon="6.23682">
        <ele>1016.2</ele>
        <time>2016-12-12T10:32:43Z</time>
      </trkpt>
      <trkpt lat="46.84695" lon="6.23686">
        <ele>1016.8</ele>
        <time>2016-12-12T10:32:45Z</time>
      </trkpt>
      <trkpt lat="46.84695" lon="6.23691">
        <ele>1017.5</ele>
        <time>2016-12-12T10:32:48Z</time>
      </trkpt>
      <trkpt lat="46.84698" lon="6.23696">
        <ele>1018</ele>
        <time>2016-12-12T10:32:52Z</time>
      </trkpt>
      <trkpt lat="46.84699" lon="6.237">
        <ele>1018.5</ele>
        <time>2016-12-12T10:32:56Z</time>
      </trkpt>
      <trkpt lat="46.84702" lon="6.23704">
        <ele>1018.9</ele>
        <time>2016-12-12T10:32:59Z</time>
      </trkpt>
      <trkpt lat="46.84702" lon="6.2371">
        <ele>1019.6</ele>
        <time>2016-12-12T10:33:03Z</time>
      </trkpt>
      <trkpt lat="46.84702" lon="6.23714">
        <ele>1020.2</ele>
        <time>2016-12-12T10:33:05Z</time>
      </trkpt>
      <trkpt lat="46.84702" lon="6.23718">
        <ele>1020.6</ele>
        <time>2016-12-12T10:33:06Z</time>
      </trkpt>
      <trkpt lat="46.84702" lon="6.23725">
        <ele>1021.5</ele>
        <time>2016-12-12T10:33:08Z</time>
      </trkpt>
      <trkpt lat="46.84703" lon="6.2373">
        <ele>1021.9</ele>
        <time>2016-12-12T10:33:11Z</time>
      </trkpt>
      <trkpt lat="46.84705" lon="6.23734">
        <ele>1022.3</ele>
        <time>2016-12-12T10:33:14Z</time>
      </trkpt>
      <trkpt lat="46.84707" lon="6.23738">
        <ele>1022.6</ele>
        <time>2016-12-12T10:33:18Z</time>
      </trkpt>
      <trkpt lat="46.84709" lon="6.23741">
        <ele>1022.8</ele>
        <time>2016-12-12T10:33:21Z</time>
      </trkpt>
      <trkpt lat="46.8471" lon="6.23745">
        <ele>1023.2</ele>
        <time>2016-12-12T10:33:24Z</time>
      </trkpt>
      <trkpt lat="46.8471" lon="6.23749">
        <ele>1023.7</ele>
        <time>2016-12-12T10:33:26Z</time>
      </trkpt>
      <trkpt lat="46.8471" lon="6.23753">
        <ele>1024.2</ele>
        <time>2016-12-12T10:33:29Z</time>
      </trkpt>
      <trkpt lat="46.84708" lon="6.23756">
        <ele>1024.8</ele>
        <time>2016-12-12T10:33:34Z</time>
      </trkpt>
      <trkpt lat="46.84707" lon="6.23761">
        <ele>1025.4</ele>
        <time>2016-12-12T10:33:38Z</time>
      </trkpt>
      <trkpt lat="46.84708" lon="6.23768">
        <ele>1026.2</ele>
        <time>2016-12-12T10:33:41Z</time>
      </trkpt>
      <trkpt lat="46.84708" lon="6.23773">
        <ele>1026.8</ele>
        <time>2016-12-12T10:33:44Z</time>
      </trkpt>
      <trkpt lat="46.84708" lon="6.23778">
        <ele>1027.4</ele>
        <time>2016-12-12T10:33:47Z</time>
      </trkpt>
      <trkpt lat="46.84706" lon="6.23782">
        <ele>1027.9</ele>
        <time>2016-12-12T10:33:53Z</time>
      </trkpt>
      <trkpt lat="46.84706" lon="6.23787">
        <ele>1028.5</ele>
        <time>2016-12-12T10:33:56Z</time>
      </trkpt>
      <trkpt lat="46.84705" lon="6.23795">
        <ele>1029.3</ele>
        <time>2016-12-12T10:33:59Z</time>
      </trkpt>
      <trkpt lat="46.84705" lon="6.238">
        <ele>1029.7</ele>
        <time>2016-12-12T10:34:00Z</time>
      </trkpt>
      <trkpt lat="46.84703" lon="6.23807">
        <ele>1030.3</ele>
        <time>2016-12-12T10:34:02Z</time>
      </trkpt>
      <trkpt lat="46.84701" lon="6.23812">
        <ele>1030.7</ele>
        <time>2016-12-12T10:34:04Z</time>
      </trkpt>
      <trkpt lat="46.847" lon="6.23818">
        <ele>1031.1</ele>
        <time>2016-12-12T10:34:07Z</time>
      </trkpt>
      <trkpt lat="46.84699" lon="6.23823">
        <ele>1031.5</ele>
        <time>2016-12-12T10:34:09Z</time>
      </trkpt>
      <trkpt lat="46.84698" lon="6.23828">
        <ele>1031.9</ele>
        <time>2016-12-12T10:34:11Z</time>
      </trkpt>
      <trkpt lat="46.84698" lon="6.23832">
        <ele>1032.2</ele>
        <time>2016-12-12T10:34:13Z</time>
      </trkpt>
      <trkpt lat="46.84698" lon="6.23836">
        <ele>1032.5</ele>
        <time>2016-12-12T10:34:19Z</time>
      </trkpt>
      <trkpt lat="46.84697" lon="6.23841">
        <ele>1032.9</ele>
        <time>2016-12-12T10:34:22Z</time>
      </trkpt>
      <trkpt lat="46.84695" lon="6.23848">
        <ele>1033.5</ele>
        <time>2016-12-12T10:34:24Z</time>
      </trkpt>
      <trkpt lat="46.84694" lon="6.23853">
        <ele>1033.9</ele>
        <time>2016-12-12T10:34:26Z</time>
      </trkpt>
      <trkpt lat="46.84691" lon="6.23856">
        <ele>1034.2</ele>
        <time>2016-12-12T10:34:37Z</time>
      </trkpt>
      <trkpt lat="46.84689" lon="6.23859">
        <ele>1034.5</ele>
        <time>2016-12-12T10:34:38Z</time>
      </trkpt>
      <trkpt lat="46.84687" lon="6.23862">
        <ele>1034.8</ele>
        <time>2016-12-12T10:34:41Z</time>
      </trkpt>
      <trkpt lat="46.84684" lon="6.23867">
        <ele>1035.3</ele>
        <time>2016-12-12T10:34:44Z</time>
      </trkpt>
      <trkpt lat="46.84682" lon="6.2387">
        <ele>1035.6</ele>
        <time>2016-12-12T10:34:46Z</time>
      </trkpt>
      <trkpt lat="46.84677" lon="6.23872">
        <ele>1035.9</ele>
        <time>2016-12-12T10:34:50Z</time>
      </trkpt>
      <trkpt lat="46.84674" lon="6.23876">
        <ele>1036.3</ele>
        <time>2016-12-12T10:34:52Z</time>
      </trkpt>
      <trkpt lat="46.84672" lon="6.23879">
        <ele>1036.6</ele>
        <time>2016-12-12T10:34:54Z</time>
      </trkpt>
      <trkpt lat="46.84669" lon="6.23882">
        <ele>1036.8</ele>
        <time>2016-12-12T10:34:57Z</time>
      </trkpt>
      <trkpt lat="46.84667" lon="6.23886">
        <ele>1037.2</ele>
        <time>2016-12-12T10:35:00Z</time>
      </trkpt>
      <trkpt lat="46.84665" lon="6.23889">
        <ele>1037.4</ele>
        <time>2016-12-12T10:35:02Z</time>
      </trkpt>
      <trkpt lat="46.84663" lon="6.23892">
        <ele>1037.7</ele>
        <time>2016-12-12T10:35:04Z</time>
      </trkpt>
      <trkpt lat="46.8466" lon="6.23895">
        <ele>1037.9</ele>
        <time>2016-12-12T10:35:07Z</time>
      </trkpt>
      <trkpt lat="46.84657" lon="6.23898">
        <ele>1038.2</ele>
        <time>2016-12-12T10:35:11Z</time>
      </trkpt>
      <trkpt lat="46.84655" lon="6.23901">
        <ele>1038.5</ele>
        <time>2016-12-12T10:35:13Z</time>
      </trkpt>
      <trkpt lat="46.84652" lon="6.23903">
        <ele>1038.7</ele>
        <time>2016-12-12T10:35:17Z</time>
      </trkpt>
      <trkpt lat="46.8465" lon="6.23905">
        <ele>1038.9</ele>
        <time>2016-12-12T10:35:19Z</time>
      </trkpt>
      <trkpt lat="46.84646" lon="6.23907">
        <ele>1039.2</ele>
        <time>2016-12-12T10:35:23Z</time>
      </trkpt>
      <trkpt lat="46.84643" lon="6.23908">
        <ele>1039.3</ele>
        <time>2016-12-12T10:35:25Z</time>
      </trkpt>
      <trkpt lat="46.84641" lon="6.23909">
        <ele>1039.5</ele>
        <time>2016-12-12T10:35:28Z</time>
      </trkpt>
      <trkpt lat="46.84636" lon="6.2391">
        <ele>1039.7</ele>
        <time>2016-12-12T10:35:30Z</time>
      </trkpt>
      <trkpt lat="46.84633" lon="6.23912">
        <ele>1039.9</ele>
        <time>2016-12-12T10:35:32Z</time>
      </trkpt>
      <trkpt lat="46.8463" lon="6.23912">
        <ele>1040</ele>
        <time>2016-12-12T10:35:34Z</time>
      </trkpt>
      <trkpt lat="46.84627" lon="6.23911">
        <ele>1040.1</ele>
        <time>2016-12-12T10:35:38Z</time>
      </trkpt>
      <trkpt lat="46.84623" lon="6.2391">
        <ele>1040.3</ele>
        <time>2016-12-12T10:35:41Z</time>
      </trkpt>
      <trkpt lat="46.84621" lon="6.23908">
        <ele>1040.6</ele>
        <time>2016-12-12T10:35:43Z</time>
      </trkpt>
      <trkpt lat="46.84618" lon="6.23905">
        <ele>1040.9</ele>
        <time>2016-12-12T10:35:46Z</time>
      </trkpt>
      <trkpt lat="46.84615" lon="6.23904">
        <ele>1041.2</ele>
        <time>2016-12-12T10:35:50Z</time>
      </trkpt>
      <trkpt lat="46.84615" lon="6.23899">
        <ele>1040.9</ele>
        <time>2016-12-12T10:35:52Z</time>
      </trkpt>
      <trkpt lat="46.8461" lon="6.23896">
        <ele>1041.4</ele>
        <time>2016-12-12T10:35:57Z</time>
      </trkpt>
      <trkpt lat="46.84608" lon="6.23896">
        <ele>1041.8</ele>
        <time>2016-12-12T10:35:58Z</time>
      </trkpt>
      <trkpt lat="46.84605" lon="6.23895">
        <ele>1042.2</ele>
        <time>2016-12-12T10:36:00Z</time>
      </trkpt>
      <trkpt lat="46.84602" lon="6.23893">
        <ele>1042.5</ele>
        <time>2016-12-12T10:36:01Z</time>
      </trkpt>
      <trkpt lat="46.84599" lon="6.2389">
        <ele>1042.7</ele>
        <time>2016-12-12T10:36:03Z</time>
      </trkpt>
      <trkpt lat="46.84596" lon="6.23887">
        <ele>1043</ele>
        <time>2016-12-12T10:36:05Z</time>
      </trkpt>
      <trkpt lat="46.84593" lon="6.23884">
        <ele>1043.5</ele>
        <time>2016-12-12T10:36:07Z</time>
      </trkpt>
      <trkpt lat="46.84592" lon="6.23879">
        <ele>1043.4</ele>
        <time>2016-12-12T10:36:09Z</time>
      </trkpt>
      <trkpt lat="46.84589" lon="6.23877">
        <ele>1043.7</ele>
        <time>2016-12-12T10:36:12Z</time>
      </trkpt>
      <trkpt lat="46.84586" lon="6.23874">
        <ele>1044</ele>
        <time>2016-12-12T10:36:14Z</time>
      </trkpt>
      <trkpt lat="46.84583" lon="6.23872">
        <ele>1044.3</ele>
        <time>2016-12-12T10:36:16Z</time>
      </trkpt>
      <trkpt lat="46.84579" lon="6.23871">
        <ele>1044.8</ele>
        <time>2016-12-12T10:36:19Z</time>
      </trkpt>
      <trkpt lat="46.84577" lon="6.23869">
        <ele>1045.1</ele>
        <time>2016-12-12T10:36:21Z</time>
      </trkpt>
      <trkpt lat="46.84575" lon="6.23864">
        <ele>1044.9</ele>
        <time>2016-12-12T10:36:26Z</time>
      </trkpt>
      <trkpt lat="46.84575" lon="6.2386">
        <ele>1044.6</ele>
        <time>2016-12-12T10:36:30Z</time>
      </trkpt>
      <trkpt lat="46.8457" lon="6.23858">
        <ele>1045.3</ele>
        <time>2016-12-12T10:36:32Z</time>
      </trkpt>
      <trkpt lat="46.84566" lon="6.23858">
        <ele>1046</ele>
        <time>2016-12-12T10:36:34Z</time>
      </trkpt>
      <trkpt lat="46.84561" lon="6.23857">
        <ele>1046.6</ele>
        <time>2016-12-12T10:36:36Z</time>
      </trkpt>
      <trkpt lat="46.84558" lon="6.23855">
        <ele>1047</ele>
        <time>2016-12-12T10:36:38Z</time>
      </trkpt>
      <trkpt lat="46.84554" lon="6.23851">
        <ele>1047.4</ele>
        <time>2016-12-12T10:36:40Z</time>
      </trkpt>
      <trkpt lat="46.84551" lon="6.23851">
        <ele>1047.8</ele>
        <time>2016-12-12T10:36:43Z</time>
      </trkpt>
      <trkpt lat="46.84547" lon="6.2385">
        <ele>1048.3</ele>
        <time>2016-12-12T10:36:46Z</time>
      </trkpt>
      <trkpt lat="46.84544" lon="6.23852">
        <ele>1049</ele>
        <time>2016-12-12T10:36:48Z</time>
      </trkpt>
      <trkpt lat="46.8454" lon="6.23853">
        <ele>1049.7</ele>
        <time>2016-12-12T10:36:50Z</time>
      </trkpt>
      <trkpt lat="46.84537" lon="6.23855">
        <ele>1050.1</ele>
        <time>2016-12-12T10:36:56Z</time>
      </trkpt>
      <trkpt lat="46.84535" lon="6.23857">
        <ele>1050.5</ele>
        <time>2016-12-12T10:37:00Z</time>
      </trkpt>
      <trkpt lat="46.84531" lon="6.23858">
        <ele>1051.1</ele>
        <time>2016-12-12T10:37:04Z</time>
      </trkpt>
      <trkpt lat="46.84527" lon="6.23858">
        <ele>1051.6</ele>
        <time>2016-12-12T10:37:06Z</time>
      </trkpt>
      <trkpt lat="46.84523" lon="6.23859">
        <ele>1052.2</ele>
        <time>2016-12-12T10:37:08Z</time>
      </trkpt>
      <trkpt lat="46.84519" lon="6.23863">
        <ele>1052.9</ele>
        <time>2016-12-12T10:37:10Z</time>
      </trkpt>
      <trkpt lat="46.84516" lon="6.23865">
        <ele>1053.4</ele>
        <time>2016-12-12T10:37:12Z</time>
      </trkpt>
      <trkpt lat="46.84513" lon="6.23866">
        <ele>1053.9</ele>
        <time>2016-12-12T10:37:16Z</time>
      </trkpt>
      <trkpt lat="46.8451" lon="6.23866">
        <ele>1054.3</ele>
        <time>2016-12-12T10:37:19Z</time>
      </trkpt>
      <trkpt lat="46.84506" lon="6.23866">
        <ele>1054.8</ele>
        <time>2016-12-12T10:37:21Z</time>
      </trkpt>
      <trkpt lat="46.84502" lon="6.23867">
        <ele>1055.3</ele>
        <time>2016-12-12T10:37:23Z</time>
      </trkpt>
      <trkpt lat="46.84499" lon="6.23868">
        <ele>1055.7</ele>
        <time>2016-12-12T10:37:25Z</time>
      </trkpt>
      <trkpt lat="46.84495" lon="6.23868">
        <ele>1056.2</ele>
        <time>2016-12-12T10:37:30Z</time>
      </trkpt>
      <trkpt lat="46.84491" lon="6.2387">
        <ele>1056.8</ele>
        <time>2016-12-12T10:37:33Z</time>
      </trkpt>
      <trkpt lat="46.84488" lon="6.23872">
        <ele>1057.2</ele>
        <time>2016-12-12T10:37:35Z</time>
      </trkpt>
      <trkpt lat="46.84486" lon="6.23875">
        <ele>1057.7</ele>
        <time>2016-12-12T10:37:37Z</time>
      </trkpt>
      <trkpt lat="46.84482" lon="6.23877">
        <ele>1058.2</ele>
        <time>2016-12-12T10:37:39Z</time>
      </trkpt>
      <trkpt lat="46.84478" lon="6.23879">
        <ele>1058.7</ele>
        <time>2016-12-12T10:37:41Z</time>
      </trkpt>
      <trkpt lat="46.84474" lon="6.23882">
        <ele>1059.2</ele>
        <time>2016-12-12T10:37:44Z</time>
      </trkpt>
      <trkpt lat="46.84472" lon="6.23885">
        <ele>1059.4</ele>
        <time>2016-12-12T10:37:47Z</time>
      </trkpt>
      <trkpt lat="46.84469" lon="6.23887">
        <ele>1059.7</ele>
        <time>2016-12-12T10:37:50Z</time>
      </trkpt>
      <trkpt lat="46.84467" lon="6.23891">
        <ele>1060.1</ele>
        <time>2016-12-12T10:37:54Z</time>
      </trkpt>
      <trkpt lat="46.84465" lon="6.23895">
        <ele>1060.3</ele>
        <time>2016-12-12T10:37:57Z</time>
      </trkpt>
      <trkpt lat="46.84463" lon="6.23899">
        <ele>1060.5</ele>
        <time>2016-12-12T10:37:59Z</time>
      </trkpt>
      <trkpt lat="46.84461" lon="6.23903">
        <ele>1060.7</ele>
        <time>2016-12-12T10:38:01Z</time>
      </trkpt>
      <trkpt lat="46.8446" lon="6.23908">
        <ele>1060.8</ele>
        <time>2016-12-12T10:38:03Z</time>
      </trkpt>
      <trkpt lat="46.84458" lon="6.23912">
        <ele>1061</ele>
        <time>2016-12-12T10:38:06Z</time>
      </trkpt>
      <trkpt lat="46.84457" lon="6.23916">
        <ele>1061.1</ele>
        <time>2016-12-12T10:38:08Z</time>
      </trkpt>
      <trkpt lat="46.84456" lon="6.23921">
        <ele>1061.2</ele>
        <time>2016-12-12T10:38:10Z</time>
      </trkpt>
      <trkpt lat="46.84455" lon="6.23925">
        <ele>1061.2</ele>
        <time>2016-12-12T10:38:14Z</time>
      </trkpt>
      <trkpt lat="46.84454" lon="6.23928">
        <ele>1061.4</ele>
        <time>2016-12-12T10:38:16Z</time>
      </trkpt>
      <trkpt lat="46.84452" lon="6.23934">
        <ele>1061.5</ele>
        <time>2016-12-12T10:38:18Z</time>
      </trkpt>
      <trkpt lat="46.84448" lon="6.23939">
        <ele>1061.9</ele>
        <time>2016-12-12T10:38:20Z</time>
      </trkpt>
      <trkpt lat="46.84445" lon="6.23943">
        <ele>1062.3</ele>
        <time>2016-12-12T10:38:22Z</time>
      </trkpt>
      <trkpt lat="46.84443" lon="6.23947">
        <ele>1062.5</ele>
        <time>2016-12-12T10:38:24Z</time>
      </trkpt>
      <trkpt lat="46.84441" lon="6.2395">
        <ele>1062.8</ele>
        <time>2016-12-12T10:38:26Z</time>
      </trkpt>
      <trkpt lat="46.84438" lon="6.23952">
        <ele>1063.1</ele>
        <time>2016-12-12T10:38:30Z</time>
      </trkpt>
      <trkpt lat="46.84434" lon="6.23953">
        <ele>1063.5</ele>
        <time>2016-12-12T10:38:33Z</time>
      </trkpt>
      <trkpt lat="46.84433" lon="6.23956">
        <ele>1063.7</ele>
        <time>2016-12-12T10:38:34Z</time>
      </trkpt>
      <trkpt lat="46.84431" lon="6.23961">
        <ele>1064.3</ele>
        <time>2016-12-12T10:38:36Z</time>
      </trkpt>
      <trkpt lat="46.84429" lon="6.23964">
        <ele>1064.9</ele>
        <time>2016-12-12T10:38:38Z</time>
      </trkpt>
      <trkpt lat="46.84425" lon="6.23968">
        <ele>1065.9</ele>
        <time>2016-12-12T10:38:40Z</time>
      </trkpt>
      <trkpt lat="46.84422" lon="6.23971">
        <ele>1066.7</ele>
        <time>2016-12-12T10:38:42Z</time>
      </trkpt>
      <trkpt lat="46.84418" lon="6.23972">
        <ele>1067.4</ele>
        <time>2016-12-12T10:38:48Z</time>
      </trkpt>
      <trkpt lat="46.84414" lon="6.23972">
        <ele>1067.9</ele>
        <time>2016-12-12T10:38:50Z</time>
      </trkpt>
      <trkpt lat="46.84411" lon="6.23972">
        <ele>1068.3</ele>
        <time>2016-12-12T10:38:52Z</time>
      </trkpt>
      <trkpt lat="46.84408" lon="6.23972">
        <ele>1068.6</ele>
        <time>2016-12-12T10:38:54Z</time>
      </trkpt>
      <trkpt lat="46.84405" lon="6.23971">
        <ele>1068.8</ele>
        <time>2016-12-12T10:38:55Z</time>
      </trkpt>
      <trkpt lat="46.84402" lon="6.2397">
        <ele>1069</ele>
        <time>2016-12-12T10:38:57Z</time>
      </trkpt>
      <trkpt lat="46.84399" lon="6.23967">
        <ele>1068.9</ele>
        <time>2016-12-12T10:39:00Z</time>
      </trkpt>
      <trkpt lat="46.84396" lon="6.23963">
        <ele>1068.6</ele>
        <time>2016-12-12T10:39:02Z</time>
      </trkpt>
      <trkpt lat="46.84394" lon="6.23959">
        <ele>1068.2</ele>
        <time>2016-12-12T10:39:04Z</time>
      </trkpt>
      <trkpt lat="46.8439" lon="6.23955">
        <ele>1068.2</ele>
        <time>2016-12-12T10:39:07Z</time>
      </trkpt>
      <trkpt lat="46.84387" lon="6.23956">
        <ele>1068.6</ele>
        <time>2016-12-12T10:39:11Z</time>
      </trkpt>
      <trkpt lat="46.84384" lon="6.23958">
        <ele>1069</ele>
        <time>2016-12-12T10:39:13Z</time>
      </trkpt>
      <trkpt lat="46.8438" lon="6.23961">
        <ele>1069.8</ele>
        <time>2016-12-12T10:39:15Z</time>
      </trkpt>
      <trkpt lat="46.84377" lon="6.23961">
        <ele>1070.3</ele>
        <time>2016-12-12T10:39:18Z</time>
      </trkpt>
      <trkpt lat="46.84373" lon="6.23958">
        <ele>1070.4</ele>
        <time>2016-12-12T10:39:24Z</time>
      </trkpt>
      <trkpt lat="46.84369" lon="6.23956">
        <ele>1071.3</ele>
        <time>2016-12-12T10:39:26Z</time>
      </trkpt>
      <trkpt lat="46.84365" lon="6.23953">
        <ele>1071.9</ele>
        <time>2016-12-12T10:39:28Z</time>
      </trkpt>
      <trkpt lat="46.84362" lon="6.23951">
        <ele>1072.5</ele>
        <time>2016-12-12T10:39:30Z</time>
      </trkpt>
      <trkpt lat="46.84359" lon="6.23947">
        <ele>1072.7</ele>
        <time>2016-12-12T10:39:33Z</time>
      </trkpt>
      <trkpt lat="46.84357" lon="6.23945">
        <ele>1073</ele>
        <time>2016-12-12T10:39:35Z</time>
      </trkpt>
      <trkpt lat="46.84354" lon="6.2394">
        <ele>1073.1</ele>
        <time>2016-12-12T10:39:37Z</time>
      </trkpt>
      <trkpt lat="46.84351" lon="6.23937">
        <ele>1073.5</ele>
        <time>2016-12-12T10:39:40Z</time>
      </trkpt>
      <trkpt lat="46.84348" lon="6.23935">
        <ele>1073.8</ele>
        <time>2016-12-12T10:39:43Z</time>
      </trkpt>
      <trkpt lat="46.84346" lon="6.23935">
        <ele>1074.4</ele>
        <time>2016-12-12T10:39:45Z</time>
      </trkpt>
      <trkpt lat="46.84343" lon="6.23935">
        <ele>1075.1</ele>
        <time>2016-12-12T10:39:48Z</time>
      </trkpt>
      <trkpt lat="46.84339" lon="6.23936">
        <ele>1075.9</ele>
        <time>2016-12-12T10:39:53Z</time>
      </trkpt>
      <trkpt lat="46.84337" lon="6.23939">
        <ele>1076.7</ele>
        <time>2016-12-12T10:39:55Z</time>
      </trkpt>
      <trkpt lat="46.84334" lon="6.23937">
        <ele>1077.2</ele>
        <time>2016-12-12T10:39:57Z</time>
      </trkpt>
      <trkpt lat="46.84331" lon="6.23935">
        <ele>1077.5</ele>
        <time>2016-12-12T10:40:00Z</time>
      </trkpt>
      <trkpt lat="46.84328" lon="6.2393">
        <ele>1077.7</ele>
        <time>2016-12-12T10:40:02Z</time>
      </trkpt>
      <trkpt lat="46.84325" lon="6.23928">
        <ele>1077.8</ele>
        <time>2016-12-12T10:40:06Z</time>
      </trkpt>
      <trkpt lat="46.84323" lon="6.23925">
        <ele>1078</ele>
        <time>2016-12-12T10:40:08Z</time>
      </trkpt>
      <trkpt lat="46.8432" lon="6.23922">
        <ele>1078.2</ele>
        <time>2016-12-12T10:40:10Z</time>
      </trkpt>
      <trkpt lat="46.84318" lon="6.23918">
        <ele>1078.1</ele>
        <time>2016-12-12T10:40:12Z</time>
      </trkpt>
      <trkpt lat="46.84314" lon="6.23912">
        <ele>1078</ele>
        <time>2016-12-12T10:40:14Z</time>
      </trkpt>
      <trkpt lat="46.84311" lon="6.23909">
        <ele>1077.9</ele>
        <time>2016-12-12T10:40:15Z</time>
      </trkpt>
      <trkpt lat="46.84308" lon="6.23905">
        <ele>1077.9</ele>
        <time>2016-12-12T10:40:17Z</time>
      </trkpt>
      <trkpt lat="46.84306" lon="6.23902">
        <ele>1077.9</ele>
        <time>2016-12-12T10:40:18Z</time>
      </trkpt>
      <trkpt lat="46.84302" lon="6.23899">
        <ele>1078.2</ele>
        <time>2016-12-12T10:40:20Z</time>
      </trkpt>
      <trkpt lat="46.843" lon="6.23896">
        <ele>1078</ele>
        <time>2016-12-12T10:40:22Z</time>
      </trkpt>
      <trkpt lat="46.84298" lon="6.23892">
        <ele>1077.7</ele>
        <time>2016-12-12T10:40:24Z</time>
      </trkpt>
      <trkpt lat="46.84295" lon="6.23888">
        <ele>1077.6</ele>
        <time>2016-12-12T10:40:27Z</time>
      </trkpt>
      <trkpt lat="46.84293" lon="6.23885">
        <ele>1077.5</ele>
        <time>2016-12-12T10:40:29Z</time>
      </trkpt>
      <trkpt lat="46.84292" lon="6.2388">
        <ele>1076.9</ele>
        <time>2016-12-12T10:40:32Z</time>
      </trkpt>
      <trkpt lat="46.8429" lon="6.23873">
        <ele>1075.9</ele>
        <time>2016-12-12T10:40:34Z</time>
      </trkpt>
      <trkpt lat="46.8429" lon="6.23868">
        <ele>1075.1</ele>
        <time>2016-12-12T10:40:36Z</time>
      </trkpt>
      <trkpt lat="46.84287" lon="6.23866">
        <ele>1075.2</ele>
        <time>2016-12-12T10:40:41Z</time>
      </trkpt>
      <trkpt lat="46.84283" lon="6.23865">
        <ele>1075.4</ele>
        <time>2016-12-12T10:40:43Z</time>
      </trkpt>
      <trkpt lat="46.84281" lon="6.23864">
        <ele>1075.5</ele>
        <time>2016-12-12T10:40:44Z</time>
      </trkpt>
      <trkpt lat="46.84277" lon="6.23861">
        <ele>1075.5</ele>
        <time>2016-12-12T10:40:46Z</time>
      </trkpt>
      <trkpt lat="46.84273" lon="6.23859">
        <ele>1075.6</ele>
        <time>2016-12-12T10:40:47Z</time>
      </trkpt>
      <trkpt lat="46.8427" lon="6.23858">
        <ele>1075.9</ele>
        <time>2016-12-12T10:40:49Z</time>
      </trkpt>
      <trkpt lat="46.84267" lon="6.23856">
        <ele>1075.9</ele>
        <time>2016-12-12T10:40:52Z</time>
      </trkpt>
      <trkpt lat="46.84264" lon="6.23854">
        <ele>1076</ele>
        <time>2016-12-12T10:40:54Z</time>
      </trkpt>
      <trkpt lat="46.84262" lon="6.2385">
        <ele>1075.7</ele>
        <time>2016-12-12T10:40:56Z</time>
      </trkpt>
      <trkpt lat="46.8426" lon="6.23848">
        <ele>1075.6</ele>
        <time>2016-12-12T10:40:59Z</time>
      </trkpt>
      <trkpt lat="46.84257" lon="6.23846">
        <ele>1075.6</ele>
        <time>2016-12-12T10:41:02Z</time>
      </trkpt>
      <trkpt lat="46.84253" lon="6.23844">
        <ele>1075.7</ele>
        <time>2016-12-12T10:41:04Z</time>
      </trkpt>
      <trkpt lat="46.8425" lon="6.23843">
        <ele>1075.9</ele>
        <time>2016-12-12T10:41:06Z</time>
      </trkpt>
      <trkpt lat="46.84248" lon="6.23842">
        <ele>1076.1</ele>
        <time>2016-12-12T10:41:10Z</time>
      </trkpt>
      <trkpt lat="46.84245" lon="6.23842">
        <ele>1076.4</ele>
        <time>2016-12-12T10:41:13Z</time>
      </trkpt>
      <trkpt lat="46.8424" lon="6.23841">
        <ele>1076.9</ele>
        <time>2016-12-12T10:41:18Z</time>
      </trkpt>
      <trkpt lat="46.84235" lon="6.23841">
        <ele>1077.4</ele>
        <time>2016-12-12T10:41:20Z</time>
      </trkpt>
      <trkpt lat="46.84232" lon="6.23841">
        <ele>1077.8</ele>
        <time>2016-12-12T10:41:22Z</time>
      </trkpt>
      <trkpt lat="46.84229" lon="6.23841">
        <ele>1078.2</ele>
        <time>2016-12-12T10:41:25Z</time>
      </trkpt>
      <trkpt lat="46.84227" lon="6.23839">
        <ele>1078.2</ele>
        <time>2016-12-12T10:41:28Z</time>
      </trkpt>
      <trkpt lat="46.84223" lon="6.23837">
        <ele>1078.3</ele>
        <time>2016-12-12T10:41:31Z</time>
      </trkpt>
      <trkpt lat="46.8422" lon="6.23835">
        <ele>1078.5</ele>
        <time>2016-12-12T10:41:34Z</time>
      </trkpt>
      <trkpt lat="46.84216" lon="6.23835">
        <ele>1078.9</ele>
        <time>2016-12-12T10:41:39Z</time>
      </trkpt>
      <trkpt lat="46.84213" lon="6.23837">
        <ele>1079.4</ele>
        <time>2016-12-12T10:41:42Z</time>
      </trkpt>
      <trkpt lat="46.84208" lon="6.23836">
        <ele>1080</ele>
        <time>2016-12-12T10:41:44Z</time>
      </trkpt>
      <trkpt lat="46.84205" lon="6.23836">
        <ele>1080.4</ele>
        <time>2016-12-12T10:41:46Z</time>
      </trkpt>
      <trkpt lat="46.84202" lon="6.23837">
        <ele>1081</ele>
        <time>2016-12-12T10:41:48Z</time>
      </trkpt>
      <trkpt lat="46.84198" lon="6.23837">
        <ele>1081.6</ele>
        <time>2016-12-12T10:41:50Z</time>
      </trkpt>
      <trkpt lat="46.84195" lon="6.23838">
        <ele>1082.2</ele>
        <time>2016-12-12T10:41:53Z</time>
      </trkpt>
      <trkpt lat="46.84193" lon="6.23839">
        <ele>1082.8</ele>
        <time>2016-12-12T10:41:55Z</time>
      </trkpt>
      <trkpt lat="46.84189" lon="6.2384">
        <ele>1083.3</ele>
        <time>2016-12-12T10:41:58Z</time>
      </trkpt>
      <trkpt lat="46.84185" lon="6.23841">
        <ele>1084</ele>
        <time>2016-12-12T10:42:00Z</time>
      </trkpt>
      <trkpt lat="46.84183" lon="6.23846">
        <ele>1085.1</ele>
        <time>2016-12-12T10:42:05Z</time>
      </trkpt>
      <trkpt lat="46.84182" lon="6.2385">
        <ele>1085.9</ele>
        <time>2016-12-12T10:42:10Z</time>
      </trkpt>
      <trkpt lat="46.84179" lon="6.23855">
        <ele>1087</ele>
        <time>2016-12-12T10:42:12Z</time>
      </trkpt>
      <trkpt lat="46.84178" lon="6.23859">
        <ele>1087.8</ele>
        <time>2016-12-12T10:42:15Z</time>
      </trkpt>
      <trkpt lat="46.84176" lon="6.23861">
        <ele>1088.4</ele>
        <time>2016-12-12T10:42:21Z</time>
      </trkpt>
      <trkpt lat="46.84173" lon="6.23865">
        <ele>1089.3</ele>
        <time>2016-12-12T10:42:27Z</time>
      </trkpt>
      <trkpt lat="46.84171" lon="6.23867">
        <ele>1089.9</ele>
        <time>2016-12-12T10:42:30Z</time>
      </trkpt>
      <trkpt lat="46.84167" lon="6.23867">
        <ele>1090.3</ele>
        <time>2016-12-12T10:42:34Z</time>
      </trkpt>
      <trkpt lat="46.84164" lon="6.23866">
        <ele>1090.6</ele>
        <time>2016-12-12T10:42:36Z</time>
      </trkpt>
      <trkpt lat="46.84161" lon="6.23869">
        <ele>1091.3</ele>
        <time>2016-12-12T10:42:39Z</time>
      </trkpt>
      <trkpt lat="46.84158" lon="6.23869">
        <ele>1091.7</ele>
        <time>2016-12-12T10:42:41Z</time>
      </trkpt>
      <trkpt lat="46.84154" lon="6.23869">
        <ele>1092</ele>
        <time>2016-12-12T10:42:44Z</time>
      </trkpt>
      <trkpt lat="46.84151" lon="6.23868">
        <ele>1092.2</ele>
        <time>2016-12-12T10:42:46Z</time>
      </trkpt>
      <trkpt lat="46.84148" lon="6.23864">
        <ele>1092.2</ele>
        <time>2016-12-12T10:42:49Z</time>
      </trkpt>
      <trkpt lat="46.84145" lon="6.23866">
        <ele>1092.7</ele>
        <time>2016-12-12T10:42:50Z</time>
      </trkpt>
      <trkpt lat="46.84142" lon="6.23868">
        <ele>1093.3</ele>
        <time>2016-12-12T10:42:52Z</time>
      </trkpt>
      <trkpt lat="46.84139" lon="6.23869">
        <ele>1093.8</ele>
        <time>2016-12-12T10:42:56Z</time>
      </trkpt>
      <trkpt lat="46.84136" lon="6.23866">
        <ele>1093.7</ele>
        <time>2016-12-12T10:43:07Z</time>
      </trkpt>
      <trkpt lat="46.84133" lon="6.23866">
        <ele>1094.2</ele>
        <time>2016-12-12T10:43:09Z</time>
      </trkpt>
      <trkpt lat="46.8413" lon="6.23865">
        <ele>1094.3</ele>
        <time>2016-12-12T10:43:11Z</time>
      </trkpt>
      <trkpt lat="46.84127" lon="6.23864">
        <ele>1094.6</ele>
        <time>2016-12-12T10:43:15Z</time>
      </trkpt>
      <trkpt lat="46.84122" lon="6.23862">
        <ele>1094.4</ele>
        <time>2016-12-12T10:43:19Z</time>
      </trkpt>
      <trkpt lat="46.84119" lon="6.23866">
        <ele>1094.7</ele>
        <time>2016-12-12T10:43:22Z</time>
      </trkpt>
      <trkpt lat="46.84115" lon="6.23868">
        <ele>1094.7</ele>
        <time>2016-12-12T10:43:24Z</time>
      </trkpt>
      <trkpt lat="46.84111" lon="6.2387">
        <ele>1094.5</ele>
        <time>2016-12-12T10:43:26Z</time>
      </trkpt>
      <trkpt lat="46.84107" lon="6.23871">
        <ele>1094.4</ele>
        <time>2016-12-12T10:43:28Z</time>
      </trkpt>
      <trkpt lat="46.84105" lon="6.23873">
        <ele>1094.4</ele>
        <time>2016-12-12T10:43:34Z</time>
      </trkpt>
      <trkpt lat="46.84103" lon="6.23877">
        <ele>1094.4</ele>
        <time>2016-12-12T10:43:40Z</time>
      </trkpt>
      <trkpt lat="46.84098" lon="6.23882">
        <ele>1093.9</ele>
        <time>2016-12-12T10:43:43Z</time>
      </trkpt>
      <trkpt lat="46.84094" lon="6.23887">
        <ele>1093.5</ele>
        <time>2016-12-12T10:43:46Z</time>
      </trkpt>
      <trkpt lat="46.84091" lon="6.23891">
        <ele>1093.3</ele>
        <time>2016-12-12T10:43:51Z</time>
      </trkpt>
      <trkpt lat="46.84088" lon="6.23892">
        <ele>1093</ele>
        <time>2016-12-12T10:43:55Z</time>
      </trkpt>
      <trkpt lat="46.84086" lon="6.2389">
        <ele>1092.8</ele>
        <time>2016-12-12T10:43:58Z</time>
      </trkpt>
      <trkpt lat="46.84085" lon="6.23885">
        <ele>1092.9</ele>
        <time>2016-12-12T10:44:05Z</time>
      </trkpt>
      <trkpt lat="46.84087" lon="6.23883">
        <ele>1093.1</ele>
        <time>2016-12-12T10:44:14Z</time>
      </trkpt>
      <trkpt lat="46.84085" lon="6.23886">
        <ele>1092.9</ele>
        <time>2016-12-12T10:44:18Z</time>
      </trkpt>
      <trkpt lat="46.84083" lon="6.23889">
        <ele>1092.6</ele>
        <time>2016-12-12T10:44:19Z</time>
      </trkpt>
      <trkpt lat="46.84081" lon="6.23893">
        <ele>1092.4</ele>
        <time>2016-12-12T10:44:20Z</time>
      </trkpt>
      <trkpt lat="46.8408" lon="6.239">
        <ele>1092.1</ele>
        <time>2016-12-12T10:44:23Z</time>
      </trkpt>
      <trkpt lat="46.84077" lon="6.23905">
        <ele>1091.7</ele>
        <time>2016-12-12T10:44:25Z</time>
      </trkpt>
      <trkpt lat="46.84074" lon="6.2391">
        <ele>1091.3</ele>
        <time>2016-12-12T10:44:27Z</time>
      </trkpt>
      <trkpt lat="46.84071" lon="6.23912">
        <ele>1091</ele>
        <time>2016-12-12T10:44:29Z</time>
      </trkpt>
      <trkpt lat="46.84068" lon="6.23918">
        <ele>1090.5</ele>
        <time>2016-12-12T10:44:31Z</time>
      </trkpt>
      <trkpt lat="46.84065" lon="6.23922">
        <ele>1090</ele>
        <time>2016-12-12T10:44:33Z</time>
      </trkpt>
      <trkpt lat="46.84062" lon="6.23927">
        <ele>1089.5</ele>
        <time>2016-12-12T10:44:35Z</time>
      </trkpt>
      <trkpt lat="46.84059" lon="6.23931">
        <ele>1089.1</ele>
        <time>2016-12-12T10:44:37Z</time>
      </trkpt>
      <trkpt lat="46.84055" lon="6.23932">
        <ele>1088.7</ele>
        <time>2016-12-12T10:44:39Z</time>
      </trkpt>
      <trkpt lat="46.84051" lon="6.23932">
        <ele>1088.3</ele>
        <time>2016-12-12T10:44:41Z</time>
      </trkpt>
      <trkpt lat="46.84046" lon="6.23931">
        <ele>1087.8</ele>
        <time>2016-12-12T10:44:43Z</time>
      </trkpt>
      <trkpt lat="46.84044" lon="6.23929">
        <ele>1087.6</ele>
        <time>2016-12-12T10:44:45Z</time>
      </trkpt>
      <trkpt lat="46.84041" lon="6.23927">
        <ele>1087.4</ele>
        <time>2016-12-12T10:44:48Z</time>
      </trkpt>
      <trkpt lat="46.84039" lon="6.23923">
        <ele>1087.2</ele>
        <time>2016-12-12T10:44:49Z</time>
      </trkpt>
      <trkpt lat="46.84036" lon="6.2392">
        <ele>1086.9</ele>
        <time>2016-12-12T10:44:51Z</time>
      </trkpt>
      <trkpt lat="46.84032" lon="6.23918">
        <ele>1086.4</ele>
        <time>2016-12-12T10:44:53Z</time>
      </trkpt>
      <trkpt lat="46.84028" lon="6.23916">
        <ele>1085.8</ele>
        <time>2016-12-12T10:44:55Z</time>
      </trkpt>
      <trkpt lat="46.84024" lon="6.23913">
        <ele>1085.4</ele>
        <time>2016-12-12T10:44:57Z</time>
      </trkpt>
      <trkpt lat="46.84022" lon="6.2391">
        <ele>1085.1</ele>
        <time>2016-12-12T10:44:58Z</time>
      </trkpt>
      <trkpt lat="46.84017" lon="6.23906">
        <ele>1084.7</ele>
        <time>2016-12-12T10:45:00Z</time>
      </trkpt>
      <trkpt lat="46.84012" lon="6.23903">
        <ele>1084.1</ele>
        <time>2016-12-12T10:45:02Z</time>
      </trkpt>
      <trkpt lat="46.8401" lon="6.23899">
        <ele>1084</ele>
        <time>2016-12-12T10:45:03Z</time>
      </trkpt>
      <trkpt lat="46.84007" lon="6.23897">
        <ele>1083.6</ele>
        <time>2016-12-12T10:45:05Z</time>
      </trkpt>
      <trkpt lat="46.84002" lon="6.23897">
        <ele>1082.9</ele>
        <time>2016-12-12T10:45:11Z</time>
      </trkpt>
      <trkpt lat="46.83999" lon="6.23899">
        <ele>1082.3</ele>
        <time>2016-12-12T10:45:14Z</time>
      </trkpt>
      <trkpt lat="46.83997" lon="6.23902">
        <ele>1081.8</ele>
        <time>2016-12-12T10:45:16Z</time>
      </trkpt>
      <trkpt lat="46.83995" lon="6.23906">
        <ele>1081.1</ele>
        <time>2016-12-12T10:45:17Z</time>
      </trkpt>
      <trkpt lat="46.83992" lon="6.23908">
        <ele>1080.5</ele>
        <time>2016-12-12T10:45:18Z</time>
      </trkpt>
      <trkpt lat="46.83988" lon="6.23908">
        <ele>1079.9</ele>
        <time>2016-12-12T10:45:19Z</time>
      </trkpt>
      <trkpt lat="46.83981" lon="6.23911">
        <ele>1078.5</ele>
        <time>2016-12-12T10:45:22Z</time>
      </trkpt>
      <trkpt lat="46.83976" lon="6.23911">
        <ele>1077.8</ele>
        <time>2016-12-12T10:45:23Z</time>
      </trkpt>
      <trkpt lat="46.83973" lon="6.23913">
        <ele>1077.2</ele>
        <time>2016-12-12T10:45:26Z</time>
      </trkpt>
      <trkpt lat="46.83968" lon="6.23912">
        <ele>1076.4</ele>
        <time>2016-12-12T10:45:29Z</time>
      </trkpt>
      <trkpt lat="46.83964" lon="6.23917">
        <ele>1075.5</ele>
        <time>2016-12-12T10:45:32Z</time>
      </trkpt>
      <trkpt lat="46.83962" lon="6.23921">
        <ele>1074.8</ele>
        <time>2016-12-12T10:45:33Z</time>
      </trkpt>
      <trkpt lat="46.83958" lon="6.23929">
        <ele>1073.4</ele>
        <time>2016-12-12T10:45:35Z</time>
      </trkpt>
      <trkpt lat="46.83955" lon="6.23932">
        <ele>1073</ele>
        <time>2016-12-12T10:45:36Z</time>
      </trkpt>
      <trkpt lat="46.83954" lon="6.23935">
        <ele>1072.6</ele>
        <time>2016-12-12T10:45:37Z</time>
      </trkpt>
      <trkpt lat="46.83952" lon="6.23942">
        <ele>1071.9</ele>
        <time>2016-12-12T10:45:39Z</time>
      </trkpt>
      <trkpt lat="46.8395" lon="6.23947">
        <ele>1071.3</ele>
        <time>2016-12-12T10:45:42Z</time>
      </trkpt>
      <trkpt lat="46.83947" lon="6.23951">
        <ele>1070.8</ele>
        <time>2016-12-12T10:45:44Z</time>
      </trkpt>
      <trkpt lat="46.83945" lon="6.23954">
        <ele>1070.4</ele>
        <time>2016-12-12T10:45:46Z</time>
      </trkpt>
      <trkpt lat="46.83942" lon="6.23958">
        <ele>1069.9</ele>
        <time>2016-12-12T10:45:49Z</time>
      </trkpt>
      <trkpt lat="46.83939" lon="6.23961">
        <ele>1069.5</ele>
        <time>2016-12-12T10:45:51Z</time>
      </trkpt>
      <trkpt lat="46.83937" lon="6.23964">
        <ele>1069.2</ele>
        <time>2016-12-12T10:45:53Z</time>
      </trkpt>
      <trkpt lat="46.83935" lon="6.23968">
        <ele>1068.8</ele>
        <time>2016-12-12T10:45:56Z</time>
      </trkpt>
      <trkpt lat="46.83933" lon="6.23972">
        <ele>1068.5</ele>
        <time>2016-12-12T10:45:58Z</time>
      </trkpt>
      <trkpt lat="46.8393" lon="6.23976">
        <ele>1068.1</ele>
        <time>2016-12-12T10:46:00Z</time>
      </trkpt>
      <trkpt lat="46.83928" lon="6.23981">
        <ele>1067.7</ele>
        <time>2016-12-12T10:46:02Z</time>
      </trkpt>
      <trkpt lat="46.83926" lon="6.23985">
        <ele>1067.4</ele>
        <time>2016-12-12T10:46:04Z</time>
      </trkpt>
      <trkpt lat="46.83924" lon="6.23987">
        <ele>1067.1</ele>
        <time>2016-12-12T10:46:05Z</time>
      </trkpt>
      <trkpt lat="46.8392" lon="6.2399">
        <ele>1066.7</ele>
        <time>2016-12-12T10:46:07Z</time>
      </trkpt>
      <trkpt lat="46.83916" lon="6.23992">
        <ele>1066.3</ele>
        <time>2016-12-12T10:46:09Z</time>
      </trkpt>
      <trkpt lat="46.83916" lon="6.23996">
        <ele>1066.1</ele>
        <time>2016-12-12T10:46:13Z</time>
      </trkpt>
      <trkpt lat="46.83915" lon="6.24002">
        <ele>1065.7</ele>
        <time>2016-12-12T10:46:15Z</time>
      </trkpt>
      <trkpt lat="46.83912" lon="6.24008">
        <ele>1065.3</ele>
        <time>2016-12-12T10:46:17Z</time>
      </trkpt>
      <trkpt lat="46.8391" lon="6.24011">
        <ele>1065</ele>
        <time>2016-12-12T10:46:18Z</time>
      </trkpt>
      <trkpt lat="46.83908" lon="6.24017">
        <ele>1064.5</ele>
        <time>2016-12-12T10:46:20Z</time>
      </trkpt>
      <trkpt lat="46.83905" lon="6.24023">
        <ele>1064.1</ele>
        <time>2016-12-12T10:46:22Z</time>
      </trkpt>
      <trkpt lat="46.83903" lon="6.24026">
        <ele>1063.7</ele>
        <time>2016-12-12T10:46:24Z</time>
      </trkpt>
      <trkpt lat="46.83898" lon="6.24028">
        <ele>1063.3</ele>
        <time>2016-12-12T10:46:26Z</time>
      </trkpt>
      <trkpt lat="46.83895" lon="6.24031">
        <ele>1062.9</ele>
        <time>2016-12-12T10:46:28Z</time>
      </trkpt>
      <trkpt lat="46.83891" lon="6.24035">
        <ele>1062.5</ele>
        <time>2016-12-12T10:46:30Z</time>
      </trkpt>
      <trkpt lat="46.83889" lon="6.24038">
        <ele>1062.2</ele>
        <time>2016-12-12T10:46:32Z</time>
      </trkpt>
      <trkpt lat="46.83887" lon="6.24044">
        <ele>1061.8</ele>
        <time>2016-12-12T10:46:34Z</time>
      </trkpt>
      <trkpt lat="46.83885" lon="6.24049">
        <ele>1061.4</ele>
        <time>2016-12-12T10:46:36Z</time>
      </trkpt>
      <trkpt lat="46.83883" lon="6.24054">
        <ele>1061.1</ele>
        <time>2016-12-12T10:46:39Z</time>
      </trkpt>
      <trkpt lat="46.8388" lon="6.24054">
        <ele>1060.9</ele>
        <time>2016-12-12T10:46:41Z</time>
      </trkpt>
      <trkpt lat="46.83877" lon="6.24054">
        <ele>1060.7</ele>
        <time>2016-12-12T10:46:42Z</time>
      </trkpt>
      <trkpt lat="46.83874" lon="6.24056">
        <ele>1060.4</ele>
        <time>2016-12-12T10:46:44Z</time>
      </trkpt>
      <trkpt lat="46.8387" lon="6.24057">
        <ele>1060.2</ele>
        <time>2016-12-12T10:46:46Z</time>
      </trkpt>
      <trkpt lat="46.83868" lon="6.2406">
        <ele>1059.9</ele>
        <time>2016-12-12T10:46:48Z</time>
      </trkpt>
      <trkpt lat="46.83865" lon="6.24062">
        <ele>1059.6</ele>
        <time>2016-12-12T10:46:50Z</time>
      </trkpt>
      <trkpt lat="46.8386" lon="6.24064">
        <ele>1059.2</ele>
        <time>2016-12-12T10:46:53Z</time>
      </trkpt>
      <trkpt lat="46.83858" lon="6.24066">
        <ele>1059</ele>
        <time>2016-12-12T10:46:55Z</time>
      </trkpt>
      <trkpt lat="46.83854" lon="6.24069">
        <ele>1058.7</ele>
        <time>2016-12-12T10:46:57Z</time>
      </trkpt>
      <trkpt lat="46.83851" lon="6.24072">
        <ele>1058.4</ele>
        <time>2016-12-12T10:47:00Z</time>
      </trkpt>
      <trkpt lat="46.83849" lon="6.24073">
        <ele>1058.2</ele>
        <time>2016-12-12T10:47:02Z</time>
      </trkpt>
      <trkpt lat="46.83846" lon="6.24076">
        <ele>1057.9</ele>
        <time>2016-12-12T10:47:04Z</time>
      </trkpt>
      <trkpt lat="46.83843" lon="6.24079">
        <ele>1057.6</ele>
        <time>2016-12-12T10:47:05Z</time>
      </trkpt>
      <trkpt lat="46.83841" lon="6.24083">
        <ele>1057.3</ele>
        <time>2016-12-12T10:47:07Z</time>
      </trkpt>
      <trkpt lat="46.83839" lon="6.24086">
        <ele>1057</ele>
        <time>2016-12-12T10:47:09Z</time>
      </trkpt>
      <trkpt lat="46.83836" lon="6.24088">
        <ele>1056.7</ele>
        <time>2016-12-12T10:47:10Z</time>
      </trkpt>
      <trkpt lat="46.83834" lon="6.24092">
        <ele>1056.5</ele>
        <time>2016-12-12T10:47:11Z</time>
      </trkpt>
      <trkpt lat="46.8383" lon="6.24097">
        <ele>1056</ele>
        <time>2016-12-12T10:47:13Z</time>
      </trkpt>
      <trkpt lat="46.83829" lon="6.241">
        <ele>1055.7</ele>
        <time>2016-12-12T10:47:14Z</time>
      </trkpt>
      <trkpt lat="46.83827" lon="6.24103">
        <ele>1055.5</ele>
        <time>2016-12-12T10:47:16Z</time>
      </trkpt>
      <trkpt lat="46.83824" lon="6.24107">
        <ele>1055.1</ele>
        <time>2016-12-12T10:47:18Z</time>
      </trkpt>
      <trkpt lat="46.83822" lon="6.2411">
        <ele>1054.8</ele>
        <time>2016-12-12T10:47:20Z</time>
      </trkpt>
      <trkpt lat="46.83819" lon="6.24112">
        <ele>1054.5</ele>
        <time>2016-12-12T10:47:22Z</time>
      </trkpt>
      <trkpt lat="46.83815" lon="6.24113">
        <ele>1054.2</ele>
        <time>2016-12-12T10:47:25Z</time>
      </trkpt>
      <trkpt lat="46.83814" lon="6.24118">
        <ele>1053.9</ele>
        <time>2016-12-12T10:47:28Z</time>
      </trkpt>
      <trkpt lat="46.83814" lon="6.24123">
        <ele>1053.7</ele>
        <time>2016-12-12T10:47:31Z</time>
      </trkpt>
      <trkpt lat="46.83814" lon="6.24128">
        <ele>1053.3</ele>
        <time>2016-12-12T10:47:33Z</time>
      </trkpt>
      <trkpt lat="46.83815" lon="6.24134">
        <ele>1052.9</ele>
        <time>2016-12-12T10:47:35Z</time>
      </trkpt>
      <trkpt lat="46.83816" lon="6.24137">
        <ele>1052.6</ele>
        <time>2016-12-12T10:47:36Z</time>
      </trkpt>
      <trkpt lat="46.83818" lon="6.24142">
        <ele>1052.4</ele>
        <time>2016-12-12T10:47:38Z</time>
      </trkpt>
      <trkpt lat="46.83818" lon="6.24146">
        <ele>1051.9</ele>
        <time>2016-12-12T10:47:40Z</time>
      </trkpt>
      <trkpt lat="46.83817" lon="6.24151">
        <ele>1051.5</ele>
        <time>2016-12-12T10:47:41Z</time>
      </trkpt>
      <trkpt lat="46.83817" lon="6.24155">
        <ele>1051.1</ele>
        <time>2016-12-12T10:47:42Z</time>
      </trkpt>
      <trkpt lat="46.83816" lon="6.24159">
        <ele>1050.6</ele>
        <time>2016-12-12T10:47:43Z</time>
      </trkpt>
      <trkpt lat="46.83815" lon="6.24164">
        <ele>1050.1</ele>
        <time>2016-12-12T10:47:45Z</time>
      </trkpt>
      <trkpt lat="46.83816" lon="6.2417">
        <ele>1049.6</ele>
        <time>2016-12-12T10:47:47Z</time>
      </trkpt>
      <trkpt lat="46.83818" lon="6.24179">
        <ele>1048.9</ele>
        <time>2016-12-12T10:47:49Z</time>
      </trkpt>
      <trkpt lat="46.83821" lon="6.24187">
        <ele>1048.4</ele>
        <time>2016-12-12T10:47:51Z</time>
      </trkpt>
      <trkpt lat="46.83822" lon="6.24193">
        <ele>1048</ele>
        <time>2016-12-12T10:47:53Z</time>
      </trkpt>
      <trkpt lat="46.83823" lon="6.24198">
        <ele>1047.6</ele>
        <time>2016-12-12T10:47:55Z</time>
      </trkpt>
      <trkpt lat="46.83824" lon="6.24202">
        <ele>1047.2</ele>
        <time>2016-12-12T10:47:57Z</time>
      </trkpt>
      <trkpt lat="46.83823" lon="6.2421">
        <ele>1046.5</ele>
        <time>2016-12-12T10:48:00Z</time>
      </trkpt>
      <trkpt lat="46.83823" lon="6.24216">
        <ele>1046</ele>
        <time>2016-12-12T10:48:02Z</time>
      </trkpt>
      <trkpt lat="46.83823" lon="6.24221">
        <ele>1045.5</ele>
        <time>2016-12-12T10:48:04Z</time>
      </trkpt>
      <trkpt lat="46.83823" lon="6.24225">
        <ele>1045.1</ele>
        <time>2016-12-12T10:48:05Z</time>
      </trkpt>
      <trkpt lat="46.83823" lon="6.24231">
        <ele>1044.5</ele>
        <time>2016-12-12T10:48:07Z</time>
      </trkpt>
      <trkpt lat="46.83823" lon="6.24239">
        <ele>1043.8</ele>
        <time>2016-12-12T10:48:09Z</time>
      </trkpt>
      <trkpt lat="46.83823" lon="6.24243">
        <ele>1043.5</ele>
        <time>2016-12-12T10:48:13Z</time>
      </trkpt>
      <trkpt lat="46.83823" lon="6.24246">
        <ele>1043.1</ele>
        <time>2016-12-12T10:48:14Z</time>
      </trkpt>
      <trkpt lat="46.83822" lon="6.2425">
        <ele>1042.7</ele>
        <time>2016-12-12T10:48:15Z</time>
      </trkpt>
      <trkpt lat="46.8382" lon="6.24254">
        <ele>1042.1</ele>
        <time>2016-12-12T10:48:16Z</time>
      </trkpt>
      <trkpt lat="46.83818" lon="6.24259">
        <ele>1041.6</ele>
        <time>2016-12-12T10:48:17Z</time>
      </trkpt>
      <trkpt lat="46.83817" lon="6.24263">
        <ele>1041</ele>
        <time>2016-12-12T10:48:19Z</time>
      </trkpt>
      <trkpt lat="46.83814" lon="6.24269">
        <ele>1040.3</ele>
        <time>2016-12-12T10:48:22Z</time>
      </trkpt>
      <trkpt lat="46.83813" lon="6.24275">
        <ele>1039.6</ele>
        <time>2016-12-12T10:48:24Z</time>
      </trkpt>
      <trkpt lat="46.83812" lon="6.24279">
        <ele>1039.1</ele>
        <time>2016-12-12T10:48:26Z</time>
      </trkpt>
      <trkpt lat="46.8381" lon="6.24283">
        <ele>1038.6</ele>
        <time>2016-12-12T10:48:28Z</time>
      </trkpt>
      <trkpt lat="46.83807" lon="6.24287">
        <ele>1037.9</ele>
        <time>2016-12-12T10:48:30Z</time>
      </trkpt>
      <trkpt lat="46.83805" lon="6.24293">
        <ele>1037.2</ele>
        <time>2016-12-12T10:48:32Z</time>
      </trkpt>
      <trkpt lat="46.83804" lon="6.24297">
        <ele>1036.8</ele>
        <time>2016-12-12T10:48:34Z</time>
      </trkpt>
      <trkpt lat="46.83803" lon="6.24301">
        <ele>1036.5</ele>
        <time>2016-12-12T10:48:36Z</time>
      </trkpt>
      <trkpt lat="46.83801" lon="6.24305">
        <ele>1036.1</ele>
        <time>2016-12-12T10:48:39Z</time>
      </trkpt>
      <trkpt lat="46.838" lon="6.24311">
        <ele>1035.7</ele>
        <time>2016-12-12T10:48:42Z</time>
      </trkpt>
      <trkpt lat="46.83798" lon="6.24316">
        <ele>1035.2</ele>
        <time>2016-12-12T10:48:44Z</time>
      </trkpt>
      <trkpt lat="46.83796" lon="6.24322">
        <ele>1034.6</ele>
        <time>2016-12-12T10:48:46Z</time>
      </trkpt>
      <trkpt lat="46.83793" lon="6.24327">
        <ele>1034</ele>
        <time>2016-12-12T10:48:48Z</time>
      </trkpt>
      <trkpt lat="46.83791" lon="6.2433">
        <ele>1033.6</ele>
        <time>2016-12-12T10:48:49Z</time>
      </trkpt>
      <trkpt lat="46.83788" lon="6.24334">
        <ele>1033.2</ele>
        <time>2016-12-12T10:48:51Z</time>
      </trkpt>
      <trkpt lat="46.83786" lon="6.24337">
        <ele>1032.9</ele>
        <time>2016-12-12T10:48:53Z</time>
      </trkpt>
      <trkpt lat="46.83785" lon="6.24341">
        <ele>1032.5</ele>
        <time>2016-12-12T10:48:54Z</time>
      </trkpt>
      <trkpt lat="46.83782" lon="6.24346">
        <ele>1032</ele>
        <time>2016-12-12T10:48:56Z</time>
      </trkpt>
      <trkpt lat="46.8378" lon="6.2435">
        <ele>1031.6</ele>
        <time>2016-12-12T10:48:58Z</time>
      </trkpt>
      <trkpt lat="46.83777" lon="6.24353">
        <ele>1031.1</ele>
        <time>2016-12-12T10:49:00Z</time>
      </trkpt>
      <trkpt lat="46.83774" lon="6.24357">
        <ele>1030.5</ele>
        <time>2016-12-12T10:49:02Z</time>
      </trkpt>
      <trkpt lat="46.83771" lon="6.24362">
        <ele>1029.9</ele>
        <time>2016-12-12T10:49:04Z</time>
      </trkpt>
      <trkpt lat="46.8377" lon="6.24366">
        <ele>1029.5</ele>
        <time>2016-12-12T10:49:06Z</time>
      </trkpt>
      <trkpt lat="46.83769" lon="6.2437">
        <ele>1029.1</ele>
        <time>2016-12-12T10:49:08Z</time>
      </trkpt>
      <trkpt lat="46.83766" lon="6.24376">
        <ele>1028.5</ele>
        <time>2016-12-12T10:49:10Z</time>
      </trkpt>
      <trkpt lat="46.83763" lon="6.2438">
        <ele>1028.2</ele>
        <time>2016-12-12T10:49:12Z</time>
      </trkpt>
      <trkpt lat="46.83761" lon="6.24386">
        <ele>1027.9</ele>
        <time>2016-12-12T10:49:14Z</time>
      </trkpt>
      <trkpt lat="46.83759" lon="6.2439">
        <ele>1027.7</ele>
        <time>2016-12-12T10:49:17Z</time>
      </trkpt>
      <trkpt lat="46.83757" lon="6.24393">
        <ele>1027.5</ele>
        <time>2016-12-12T10:49:19Z</time>
      </trkpt>
      <trkpt lat="46.83754" lon="6.24398">
        <ele>1027.3</ele>
        <time>2016-12-12T10:49:21Z</time>
      </trkpt>
      <trkpt lat="46.83753" lon="6.24402">
        <ele>1027.1</ele>
        <time>2016-12-12T10:49:23Z</time>
      </trkpt>
      <trkpt lat="46.8375" lon="6.24406">
        <ele>1026.8</ele>
        <time>2016-12-12T10:49:25Z</time>
      </trkpt>
      <trkpt lat="46.83747" lon="6.24409">
        <ele>1026.5</ele>
        <time>2016-12-12T10:49:27Z</time>
      </trkpt>
      <trkpt lat="46.83745" lon="6.24412">
        <ele>1026.3</ele>
        <time>2016-12-12T10:49:28Z</time>
      </trkpt>
      <trkpt lat="46.83742" lon="6.24419">
        <ele>1026</ele>
        <time>2016-12-12T10:49:30Z</time>
      </trkpt>
      <trkpt lat="46.8374" lon="6.24422">
        <ele>1025.9</ele>
        <time>2016-12-12T10:49:32Z</time>
      </trkpt>
      <trkpt lat="46.83739" lon="6.24427">
        <ele>1025.7</ele>
        <time>2016-12-12T10:49:35Z</time>
      </trkpt>
      <trkpt lat="46.83737" lon="6.24433">
        <ele>1025.5</ele>
        <time>2016-12-12T10:49:38Z</time>
      </trkpt>
      <trkpt lat="46.83735" lon="6.24436">
        <ele>1025.3</ele>
        <time>2016-12-12T10:49:39Z</time>
      </trkpt>
      <trkpt lat="46.83733" lon="6.2444">
        <ele>1025.1</ele>
        <time>2016-12-12T10:49:40Z</time>
      </trkpt>
      <trkpt lat="46.83731" lon="6.24448">
        <ele>1024.9</ele>
        <time>2016-12-12T10:49:42Z</time>
      </trkpt>
      <trkpt lat="46.83731" lon="6.24452">
        <ele>1024.9</ele>
        <time>2016-12-12T10:49:43Z</time>
      </trkpt>
      <trkpt lat="46.8373" lon="6.24456">
        <ele>1024.8</ele>
        <time>2016-12-12T10:49:44Z</time>
      </trkpt>
      <trkpt lat="46.8373" lon="6.24462">
        <ele>1024.8</ele>
        <time>2016-12-12T10:49:46Z</time>
      </trkpt>
      <trkpt lat="46.83731" lon="6.24467">
        <ele>1024.9</ele>
        <time>2016-12-12T10:49:49Z</time>
      </trkpt>
      <trkpt lat="46.83732" lon="6.24472">
        <ele>1024.9</ele>
        <time>2016-12-12T10:49:51Z</time>
      </trkpt>
      <trkpt lat="46.83732" lon="6.24477">
        <ele>1024.8</ele>
        <time>2016-12-12T10:49:53Z</time>
      </trkpt>
      <trkpt lat="46.83735" lon="6.24483">
        <ele>1025</ele>
        <time>2016-12-12T10:49:55Z</time>
      </trkpt>
      <trkpt lat="46.83737" lon="6.24487">
        <ele>1025.2</ele>
        <time>2016-12-12T10:49:58Z</time>
      </trkpt>
      <trkpt lat="46.83736" lon="6.24492">
        <ele>1025.1</ele>
        <time>2016-12-12T10:49:59Z</time>
      </trkpt>
      <trkpt lat="46.83734" lon="6.24499">
        <ele>1024.9</ele>
        <time>2016-12-12T10:50:00Z</time>
      </trkpt>
      <trkpt lat="46.83734" lon="6.24503">
        <ele>1024.8</ele>
        <time>2016-12-12T10:50:01Z</time>
      </trkpt>
      <trkpt lat="46.83734" lon="6.2451">
        <ele>1024.8</ele>
        <time>2016-12-12T10:50:03Z</time>
      </trkpt>
      <trkpt lat="46.83736" lon="6.24514">
        <ele>1024.8</ele>
        <time>2016-12-12T10:50:05Z</time>
      </trkpt>
      <trkpt lat="46.83736" lon="6.2452">
        <ele>1024.8</ele>
        <time>2016-12-12T10:50:07Z</time>
      </trkpt>
      <trkpt lat="46.83738" lon="6.24525">
        <ele>1025</ele>
        <time>2016-12-12T10:50:09Z</time>
      </trkpt>
      <trkpt lat="46.83739" lon="6.2453">
        <ele>1025</ele>
        <time>2016-12-12T10:50:12Z</time>
      </trkpt>
      <trkpt lat="46.83739" lon="6.24536">
        <ele>1024.9</ele>
        <time>2016-12-12T10:50:15Z</time>
      </trkpt>
      <trkpt lat="46.83738" lon="6.24541">
        <ele>1024.8</ele>
        <time>2016-12-12T10:50:18Z</time>
      </trkpt>
      <trkpt lat="46.83739" lon="6.24546">
        <ele>1024.6</ele>
        <time>2016-12-12T10:50:20Z</time>
      </trkpt>
      <trkpt lat="46.8374" lon="6.24552">
        <ele>1024.4</ele>
        <time>2016-12-12T10:50:23Z</time>
      </trkpt>
      <trkpt lat="46.83741" lon="6.24558">
        <ele>1024.1</ele>
        <time>2016-12-12T10:50:25Z</time>
      </trkpt>
      <trkpt lat="46.83742" lon="6.24564">
        <ele>1023.8</ele>
        <time>2016-12-12T10:50:27Z</time>
      </trkpt>
      <trkpt lat="46.83743" lon="6.24569">
        <ele>1023.6</ele>
        <time>2016-12-12T10:50:29Z</time>
      </trkpt>
      <trkpt lat="46.83743" lon="6.24576">
        <ele>1023.3</ele>
        <time>2016-12-12T10:50:31Z</time>
      </trkpt>
      <trkpt lat="46.83744" lon="6.24581">
        <ele>1023</ele>
        <time>2016-12-12T10:50:33Z</time>
      </trkpt>
      <trkpt lat="46.83745" lon="6.24586">
        <ele>1022.9</ele>
        <time>2016-12-12T10:50:35Z</time>
      </trkpt>
      <trkpt lat="46.83743" lon="6.24592">
        <ele>1022.4</ele>
        <time>2016-12-12T10:50:39Z</time>
      </trkpt>
      <trkpt lat="46.83742" lon="6.24599">
        <ele>1022</ele>
        <time>2016-12-12T10:50:41Z</time>
      </trkpt>
      <trkpt lat="46.8374" lon="6.24604">
        <ele>1021.6</ele>
        <time>2016-12-12T10:50:43Z</time>
      </trkpt>
      <trkpt lat="46.83738" lon="6.2461">
        <ele>1021.2</ele>
        <time>2016-12-12T10:50:45Z</time>
      </trkpt>
      <trkpt lat="46.83737" lon="6.24614">
        <ele>1021</ele>
        <time>2016-12-12T10:50:47Z</time>
      </trkpt>
      <trkpt lat="46.83736" lon="6.24618">
        <ele>1020.7</ele>
        <time>2016-12-12T10:50:49Z</time>
      </trkpt>
      <trkpt lat="46.83734" lon="6.24624">
        <ele>1020.3</ele>
        <time>2016-12-12T10:50:52Z</time>
      </trkpt>
      <trkpt lat="46.83733" lon="6.24628">
        <ele>1020</ele>
        <time>2016-12-12T10:50:54Z</time>
      </trkpt>
      <trkpt lat="46.83734" lon="6.24633">
        <ele>1019.9</ele>
        <time>2016-12-12T10:50:56Z</time>
      </trkpt>
      <trkpt lat="46.83734" lon="6.24639">
        <ele>1019.6</ele>
        <time>2016-12-12T10:50:58Z</time>
      </trkpt>
      <trkpt lat="46.83732" lon="6.24644">
        <ele>1019.3</ele>
        <time>2016-12-12T10:51:00Z</time>
      </trkpt>
      <trkpt lat="46.8373" lon="6.24648">
        <ele>1019</ele>
        <time>2016-12-12T10:51:01Z</time>
      </trkpt>
      <trkpt lat="46.83728" lon="6.24652">
        <ele>1018.7</ele>
        <time>2016-12-12T10:51:03Z</time>
      </trkpt>
      <trkpt lat="46.83726" lon="6.24655">
        <ele>1018.4</ele>
        <time>2016-12-12T10:51:04Z</time>
      </trkpt>
      <trkpt lat="46.83723" lon="6.2466">
        <ele>1018</ele>
        <time>2016-12-12T10:51:06Z</time>
      </trkpt>
      <trkpt lat="46.83723" lon="6.24666">
        <ele>1017.7</ele>
        <time>2016-12-12T10:51:09Z</time>
      </trkpt>
      <trkpt lat="46.83724" lon="6.24674">
        <ele>1017.4</ele>
        <time>2016-12-12T10:51:11Z</time>
      </trkpt>
      <trkpt lat="46.83726" lon="6.24678">
        <ele>1017.4</ele>
        <time>2016-12-12T10:51:12Z</time>
      </trkpt>
      <trkpt lat="46.83728" lon="6.24682">
        <ele>1017.4</ele>
        <time>2016-12-12T10:51:14Z</time>
      </trkpt>
      <trkpt lat="46.8373" lon="6.24687">
        <ele>1017.3</ele>
        <time>2016-12-12T10:51:17Z</time>
      </trkpt>
      <trkpt lat="46.83728" lon="6.24694">
        <ele>1016.8</ele>
        <time>2016-12-12T10:51:22Z</time>
      </trkpt>
      <trkpt lat="46.83731" lon="6.24698">
        <ele>1016.8</ele>
        <time>2016-12-12T10:51:27Z</time>
      </trkpt>
      <trkpt lat="46.83735" lon="6.247">
        <ele>1017.2</ele>
        <time>2016-12-12T10:51:31Z</time>
      </trkpt>
      <trkpt lat="46.83739" lon="6.24701">
        <ele>1017.6</ele>
        <time>2016-12-12T10:51:32Z</time>
      </trkpt>
      <trkpt lat="46.83743" lon="6.24705">
        <ele>1017.9</ele>
        <time>2016-12-12T10:51:34Z</time>
      </trkpt>
      <trkpt lat="46.83745" lon="6.24709">
        <ele>1018</ele>
        <time>2016-12-12T10:51:36Z</time>
      </trkpt>
      <trkpt lat="46.83748" lon="6.24716">
        <ele>1018.3</ele>
        <time>2016-12-12T10:51:38Z</time>
      </trkpt>
      <trkpt lat="46.8375" lon="6.24723">
        <ele>1018.6</ele>
        <time>2016-12-12T10:51:40Z</time>
      </trkpt>
      <trkpt lat="46.83752" lon="6.24731">
        <ele>1018.9</ele>
        <time>2016-12-12T10:51:42Z</time>
      </trkpt>
      <trkpt lat="46.83753" lon="6.24736">
        <ele>1019</ele>
        <time>2016-12-12T10:51:44Z</time>
      </trkpt>
      <trkpt lat="46.83755" lon="6.2474">
        <ele>1019.2</ele>
        <time>2016-12-12T10:51:46Z</time>
      </trkpt>
      <trkpt lat="46.83756" lon="6.24747">
        <ele>1019.4</ele>
        <time>2016-12-12T10:51:48Z</time>
      </trkpt>
      <trkpt lat="46.83758" lon="6.24753">
        <ele>1019.7</ele>
        <time>2016-12-12T10:51:50Z</time>
      </trkpt>
      <trkpt lat="46.83759" lon="6.24756">
        <ele>1019.8</ele>
        <time>2016-12-12T10:51:51Z</time>
      </trkpt>
      <trkpt lat="46.83761" lon="6.2476">
        <ele>1020</ele>
        <time>2016-12-12T10:51:53Z</time>
      </trkpt>
      <trkpt lat="46.83763" lon="6.24766">
        <ele>1020.4</ele>
        <time>2016-12-12T10:51:55Z</time>
      </trkpt>
      <trkpt lat="46.83765" lon="6.24772">
        <ele>1020.6</ele>
        <time>2016-12-12T10:51:57Z</time>
      </trkpt>
      <trkpt lat="46.83766" lon="6.24776">
        <ele>1020.7</ele>
        <time>2016-12-12T10:51:59Z</time>
      </trkpt>
      <trkpt lat="46.83767" lon="6.24782">
        <ele>1021</ele>
        <time>2016-12-12T10:52:02Z</time>
      </trkpt>
      <trkpt lat="46.83768" lon="6.24786">
        <ele>1021.1</ele>
        <time>2016-12-12T10:52:04Z</time>
      </trkpt>
      <trkpt lat="46.83768" lon="6.24792">
        <ele>1021.2</ele>
        <time>2016-12-12T10:52:06Z</time>
      </trkpt>
      <trkpt lat="46.83769" lon="6.24798">
        <ele>1021</ele>
        <time>2016-12-12T10:52:08Z</time>
      </trkpt>
      <trkpt lat="46.83769" lon="6.24802">
        <ele>1020.9</ele>
        <time>2016-12-12T10:52:10Z</time>
      </trkpt>
      <trkpt lat="46.83769" lon="6.24807">
        <ele>1020.7</ele>
        <time>2016-12-12T10:52:12Z</time>
      </trkpt>
      <trkpt lat="46.83769" lon="6.24812">
        <ele>1020.5</ele>
        <time>2016-12-12T10:52:14Z</time>
      </trkpt>
      <trkpt lat="46.83769" lon="6.24818">
        <ele>1020.4</ele>
        <time>2016-12-12T10:52:16Z</time>
      </trkpt>
      <trkpt lat="46.83771" lon="6.24824">
        <ele>1020.3</ele>
        <time>2016-12-12T10:52:21Z</time>
      </trkpt>
      <trkpt lat="46.83772" lon="6.2483">
        <ele>1020.2</ele>
        <time>2016-12-12T10:52:23Z</time>
      </trkpt>
      <trkpt lat="46.83773" lon="6.24835">
        <ele>1020.1</ele>
        <time>2016-12-12T10:52:26Z</time>
      </trkpt>
      <trkpt lat="46.83774" lon="6.24839">
        <ele>1020.1</ele>
        <time>2016-12-12T10:52:28Z</time>
      </trkpt>
      <trkpt lat="46.83775" lon="6.24843">
        <ele>1020</ele>
        <time>2016-12-12T10:52:30Z</time>
      </trkpt>
      <trkpt lat="46.83775" lon="6.24849">
        <ele>1019.8</ele>
        <time>2016-12-12T10:52:33Z</time>
      </trkpt>
      <trkpt lat="46.83775" lon="6.24854">
        <ele>1019.6</ele>
        <time>2016-12-12T10:52:36Z</time>
      </trkpt>
      <trkpt lat="46.83776" lon="6.24859">
        <ele>1019.5</ele>
        <time>2016-12-12T10:52:38Z</time>
      </trkpt>
      <trkpt lat="46.83777" lon="6.24864">
        <ele>1019.3</ele>
        <time>2016-12-12T10:52:40Z</time>
      </trkpt>
      <trkpt lat="46.83779" lon="6.24869">
        <ele>1019.3</ele>
        <time>2016-12-12T10:52:43Z</time>
      </trkpt>
      <trkpt lat="46.83778" lon="6.24874">
        <ele>1019.1</ele>
        <time>2016-12-12T10:52:45Z</time>
      </trkpt>
      <trkpt lat="46.83778" lon="6.24881">
        <ele>1019.1</ele>
        <time>2016-12-12T10:52:47Z</time>
      </trkpt>
      <trkpt lat="46.83779" lon="6.24887">
        <ele>1019.3</ele>
        <time>2016-12-12T10:52:49Z</time>
      </trkpt>
      <trkpt lat="46.8378" lon="6.24894">
        <ele>1019.5</ele>
        <time>2016-12-12T10:52:51Z</time>
      </trkpt>
      <trkpt lat="46.83783" lon="6.249">
        <ele>1019.7</ele>
        <time>2016-12-12T10:52:53Z</time>
      </trkpt>
      <trkpt lat="46.83785" lon="6.24905">
        <ele>1019.9</ele>
        <time>2016-12-12T10:52:55Z</time>
      </trkpt>
      <trkpt lat="46.83785" lon="6.24909">
        <ele>1020</ele>
        <time>2016-12-12T10:52:57Z</time>
      </trkpt>
      <trkpt lat="46.83787" lon="6.24915">
        <ele>1020.2</ele>
        <time>2016-12-12T10:52:59Z</time>
      </trkpt>
      <trkpt lat="46.83789" lon="6.2492">
        <ele>1020.4</ele>
        <time>2016-12-12T10:53:01Z</time>
      </trkpt>
      <trkpt lat="46.83791" lon="6.24925">
        <ele>1020.6</ele>
        <time>2016-12-12T10:53:03Z</time>
      </trkpt>
      <trkpt lat="46.83792" lon="6.24931">
        <ele>1020.7</ele>
        <time>2016-12-12T10:53:05Z</time>
      </trkpt>
      <trkpt lat="46.83793" lon="6.24937">
        <ele>1020.9</ele>
        <time>2016-12-12T10:53:07Z</time>
      </trkpt>
      <trkpt lat="46.83793" lon="6.24943">
        <ele>1021</ele>
        <time>2016-12-12T10:53:09Z</time>
      </trkpt>
      <trkpt lat="46.83795" lon="6.2495">
        <ele>1021.1</ele>
        <time>2016-12-12T10:53:11Z</time>
      </trkpt>
      <trkpt lat="46.83795" lon="6.24955">
        <ele>1021.3</ele>
        <time>2016-12-12T10:53:13Z</time>
      </trkpt>
      <trkpt lat="46.83796" lon="6.2496">
        <ele>1021.3</ele>
        <time>2016-12-12T10:53:15Z</time>
      </trkpt>
      <trkpt lat="46.83796" lon="6.24966">
        <ele>1021.1</ele>
        <time>2016-12-12T10:53:17Z</time>
      </trkpt>
      <trkpt lat="46.83797" lon="6.24973">
        <ele>1020.9</ele>
        <time>2016-12-12T10:53:19Z</time>
      </trkpt>
      <trkpt lat="46.83797" lon="6.24979">
        <ele>1020.7</ele>
        <time>2016-12-12T10:53:21Z</time>
      </trkpt>
      <trkpt lat="46.83798" lon="6.24985">
        <ele>1020.5</ele>
        <time>2016-12-12T10:53:23Z</time>
      </trkpt>
      <trkpt lat="46.83799" lon="6.24991">
        <ele>1020.4</ele>
        <time>2016-12-12T10:53:25Z</time>
      </trkpt>
      <trkpt lat="46.83799" lon="6.24996">
        <ele>1020.3</ele>
        <time>2016-12-12T10:53:27Z</time>
      </trkpt>
      <trkpt lat="46.838" lon="6.25001">
        <ele>1020.1</ele>
        <time>2016-12-12T10:53:29Z</time>
      </trkpt>
      <trkpt lat="46.83801" lon="6.25006">
        <ele>1020</ele>
        <time>2016-12-12T10:53:31Z</time>
      </trkpt>
      <trkpt lat="46.83802" lon="6.25012">
        <ele>1019.9</ele>
        <time>2016-12-12T10:53:33Z</time>
      </trkpt>
      <trkpt lat="46.83802" lon="6.25018">
        <ele>1019.7</ele>
        <time>2016-12-12T10:53:35Z</time>
      </trkpt>
      <trkpt lat="46.83803" lon="6.25024">
        <ele>1019.6</ele>
        <time>2016-12-12T10:53:37Z</time>
      </trkpt>
      <trkpt lat="46.83803" lon="6.2503">
        <ele>1019.4</ele>
        <time>2016-12-12T10:53:39Z</time>
      </trkpt>
      <trkpt lat="46.83804" lon="6.25036">
        <ele>1019.2</ele>
        <time>2016-12-12T10:53:41Z</time>
      </trkpt>
      <trkpt lat="46.83804" lon="6.25041">
        <ele>1019.1</ele>
        <time>2016-12-12T10:53:43Z</time>
      </trkpt>
      <trkpt lat="46.83806" lon="6.25047">
        <ele>1018.9</ele>
        <time>2016-12-12T10:53:45Z</time>
      </trkpt>
      <trkpt lat="46.83807" lon="6.25053">
        <ele>1018.8</ele>
        <time>2016-12-12T10:53:47Z</time>
      </trkpt>
      <trkpt lat="46.83808" lon="6.25058">
        <ele>1018.7</ele>
        <time>2016-12-12T10:53:49Z</time>
      </trkpt>
      <trkpt lat="46.83809" lon="6.25063">
        <ele>1018.6</ele>
        <time>2016-12-12T10:53:51Z</time>
      </trkpt>
      <trkpt lat="46.83811" lon="6.25068">
        <ele>1018.5</ele>
        <time>2016-12-12T10:53:53Z</time>
      </trkpt>
      <trkpt lat="46.83812" lon="6.25074">
        <ele>1018.3</ele>
        <time>2016-12-12T10:53:55Z</time>
      </trkpt>
      <trkpt lat="46.83813" lon="6.25078">
        <ele>1018.3</ele>
        <time>2016-12-12T10:53:57Z</time>
      </trkpt>
      <trkpt lat="46.83814" lon="6.25084">
        <ele>1018.1</ele>
        <time>2016-12-12T10:53:59Z</time>
      </trkpt>
      <trkpt lat="46.83814" lon="6.2509">
        <ele>1017.9</ele>
        <time>2016-12-12T10:54:01Z</time>
      </trkpt>
      <trkpt lat="46.83815" lon="6.25097">
        <ele>1017.7</ele>
        <time>2016-12-12T10:54:03Z</time>
      </trkpt>
      <trkpt lat="46.83816" lon="6.25102">
        <ele>1017.5</ele>
        <time>2016-12-12T10:54:04Z</time>
      </trkpt>
      <trkpt lat="46.83816" lon="6.25107">
        <ele>1017.4</ele>
        <time>2016-12-12T10:54:05Z</time>
      </trkpt>
      <trkpt lat="46.83816" lon="6.25112">
        <ele>1017.2</ele>
        <time>2016-12-12T10:54:07Z</time>
      </trkpt>
      <trkpt lat="46.83816" lon="6.25119">
        <ele>1016.9</ele>
        <time>2016-12-12T10:54:09Z</time>
      </trkpt>
      <trkpt lat="46.83816" lon="6.25123">
        <ele>1016.7</ele>
        <time>2016-12-12T10:54:10Z</time>
      </trkpt>
      <trkpt lat="46.83817" lon="6.25127">
        <ele>1016.7</ele>
        <time>2016-12-12T10:54:12Z</time>
      </trkpt>
      <trkpt lat="46.83818" lon="6.25133">
        <ele>1016.7</ele>
        <time>2016-12-12T10:54:14Z</time>
      </trkpt>
      <trkpt lat="46.83819" lon="6.25137">
        <ele>1016.9</ele>
        <time>2016-12-12T10:54:16Z</time>
      </trkpt>
      <trkpt lat="46.83819" lon="6.25143">
        <ele>1016.8</ele>
        <time>2016-12-12T10:54:18Z</time>
      </trkpt>
      <trkpt lat="46.8382" lon="6.25147">
        <ele>1016.9</ele>
        <time>2016-12-12T10:54:22Z</time>
      </trkpt>
      <trkpt lat="46.83822" lon="6.25152">
        <ele>1017</ele>
        <time>2016-12-12T10:54:25Z</time>
      </trkpt>
      <trkpt lat="46.83822" lon="6.25156">
        <ele>1017</ele>
        <time>2016-12-12T10:54:27Z</time>
      </trkpt>
      <trkpt lat="46.83823" lon="6.25161">
        <ele>1017.1</ele>
        <time>2016-12-12T10:54:30Z</time>
      </trkpt>
      <trkpt lat="46.83824" lon="6.25167">
        <ele>1017.1</ele>
        <time>2016-12-12T10:54:32Z</time>
      </trkpt>
      <trkpt lat="46.83825" lon="6.25171">
        <ele>1017.1</ele>
        <time>2016-12-12T10:54:34Z</time>
      </trkpt>
      <trkpt lat="46.83825" lon="6.25175">
        <ele>1017.1</ele>
        <time>2016-12-12T10:54:37Z</time>
      </trkpt>
      <trkpt lat="46.83826" lon="6.25179">
        <ele>1017.2</ele>
        <time>2016-12-12T10:54:39Z</time>
      </trkpt>
      <trkpt lat="46.83828" lon="6.25185">
        <ele>1017.3</ele>
        <time>2016-12-12T10:54:41Z</time>
      </trkpt>
      <trkpt lat="46.83829" lon="6.2519">
        <ele>1017.3</ele>
        <time>2016-12-12T10:54:43Z</time>
      </trkpt>
      <trkpt lat="46.8383" lon="6.25195">
        <ele>1017.4</ele>
        <time>2016-12-12T10:54:45Z</time>
      </trkpt>
      <trkpt lat="46.83831" lon="6.25199">
        <ele>1017.4</ele>
        <time>2016-12-12T10:54:48Z</time>
      </trkpt>
      <trkpt lat="46.83832" lon="6.25204">
        <ele>1017.4</ele>
        <time>2016-12-12T10:54:50Z</time>
      </trkpt>
      <trkpt lat="46.83832" lon="6.25209">
        <ele>1017.4</ele>
        <time>2016-12-12T10:54:52Z</time>
      </trkpt>
      <trkpt lat="46.83833" lon="6.25213">
        <ele>1017.6</ele>
        <time>2016-12-12T10:54:54Z</time>
      </trkpt>
      <trkpt lat="46.83834" lon="6.25217">
        <ele>1017.8</ele>
        <time>2016-12-12T10:54:56Z</time>
      </trkpt>
      <trkpt lat="46.83835" lon="6.25222">
        <ele>1017.9</ele>
        <time>2016-12-12T10:54:59Z</time>
      </trkpt>
      <trkpt lat="46.83836" lon="6.25228">
        <ele>1018.1</ele>
        <time>2016-12-12T10:55:01Z</time>
      </trkpt>
      <trkpt lat="46.83837" lon="6.25233">
        <ele>1018.3</ele>
        <time>2016-12-12T10:55:04Z</time>
      </trkpt>
      <trkpt lat="46.83838" lon="6.25238">
        <ele>1018.5</ele>
        <time>2016-12-12T10:55:16Z</time>
      </trkpt>
      <trkpt lat="46.8384" lon="6.25242">
        <ele>1018.7</ele>
        <time>2016-12-12T10:55:18Z</time>
      </trkpt>
      <trkpt lat="46.83841" lon="6.25246">
        <ele>1018.8</ele>
        <time>2016-12-12T10:55:20Z</time>
      </trkpt>
      <trkpt lat="46.83843" lon="6.2525">
        <ele>1019</ele>
        <time>2016-12-12T10:55:23Z</time>
      </trkpt>
      <trkpt lat="46.83846" lon="6.25254">
        <ele>1019.1</ele>
        <time>2016-12-12T10:55:25Z</time>
      </trkpt>
      <trkpt lat="46.83848" lon="6.25258">
        <ele>1019.3</ele>
        <time>2016-12-12T10:55:28Z</time>
      </trkpt>
      <trkpt lat="46.83852" lon="6.25258">
        <ele>1019.4</ele>
        <time>2016-12-12T10:55:29Z</time>
      </trkpt>
      <trkpt lat="46.83855" lon="6.25261">
        <ele>1019.6</ele>
        <time>2016-12-12T10:55:34Z</time>
      </trkpt>
      <trkpt lat="46.83858" lon="6.25263">
        <ele>1019.7</ele>
        <time>2016-12-12T10:55:36Z</time>
      </trkpt>
      <trkpt lat="46.83861" lon="6.25268">
        <ele>1019.8</ele>
        <time>2016-12-12T10:55:39Z</time>
      </trkpt>
      <trkpt lat="46.83864" lon="6.25271">
        <ele>1019.9</ele>
        <time>2016-12-12T10:55:41Z</time>
      </trkpt>
      <trkpt lat="46.83867" lon="6.25274">
        <ele>1020</ele>
        <time>2016-12-12T10:55:43Z</time>
      </trkpt>
      <trkpt lat="46.83869" lon="6.25278">
        <ele>1020</ele>
        <time>2016-12-12T10:55:45Z</time>
      </trkpt>
      <trkpt lat="46.83871" lon="6.25282">
        <ele>1020</ele>
        <time>2016-12-12T10:55:48Z</time>
      </trkpt>
      <trkpt lat="46.83873" lon="6.25285">
        <ele>1020.1</ele>
        <time>2016-12-12T10:55:52Z</time>
      </trkpt>
      <trkpt lat="46.83876" lon="6.25287">
        <ele>1020.1</ele>
        <time>2016-12-12T10:55:55Z</time>
      </trkpt>
      <trkpt lat="46.83879" lon="6.25291">
        <ele>1020.4</ele>
        <time>2016-12-12T10:55:58Z</time>
      </trkpt>
      <trkpt lat="46.83881" lon="6.25294">
        <ele>1020.6</ele>
        <time>2016-12-12T10:56:00Z</time>
      </trkpt>
      <trkpt lat="46.83884" lon="6.25296">
        <ele>1021.1</ele>
        <time>2016-12-12T10:56:04Z</time>
      </trkpt>
      <trkpt lat="46.83888" lon="6.25299">
        <ele>1021.5</ele>
        <time>2016-12-12T10:56:07Z</time>
      </trkpt>
      <trkpt lat="46.8389" lon="6.25301">
        <ele>1021.8</ele>
        <time>2016-12-12T10:56:10Z</time>
      </trkpt>
      <trkpt lat="46.83893" lon="6.25303">
        <ele>1022.1</ele>
        <time>2016-12-12T10:56:12Z</time>
      </trkpt>
      <trkpt lat="46.83895" lon="6.25303">
        <ele>1022.3</ele>
        <time>2016-12-12T10:56:14Z</time>
      </trkpt>
      <trkpt lat="46.83898" lon="6.25304">
        <ele>1022.6</ele>
        <time>2016-12-12T10:56:16Z</time>
      </trkpt>
      <trkpt lat="46.83902" lon="6.25307">
        <ele>1023</ele>
        <time>2016-12-12T10:56:18Z</time>
      </trkpt>
      <trkpt lat="46.83906" lon="6.25309">
        <ele>1023.4</ele>
        <time>2016-12-12T10:56:20Z</time>
      </trkpt>
      <trkpt lat="46.83909" lon="6.25312">
        <ele>1023.7</ele>
        <time>2016-12-12T10:56:22Z</time>
      </trkpt>
      <trkpt lat="46.83913" lon="6.25314">
        <ele>1024.1</ele>
        <time>2016-12-12T10:56:25Z</time>
      </trkpt>
      <trkpt lat="46.83916" lon="6.25316">
        <ele>1024.4</ele>
        <time>2016-12-12T10:56:27Z</time>
      </trkpt>
      <trkpt lat="46.8392" lon="6.25317">
        <ele>1024.7</ele>
        <time>2016-12-12T10:56:29Z</time>
      </trkpt>
      <trkpt lat="46.83924" lon="6.25317">
        <ele>1025</ele>
        <time>2016-12-12T10:56:31Z</time>
      </trkpt>
      <trkpt lat="46.83928" lon="6.25319">
        <ele>1025.3</ele>
        <time>2016-12-12T10:56:33Z</time>
      </trkpt>
      <trkpt lat="46.83931" lon="6.25322">
        <ele>1025.6</ele>
        <time>2016-12-12T10:56:35Z</time>
      </trkpt>
      <trkpt lat="46.83934" lon="6.25324">
        <ele>1025.8</ele>
        <time>2016-12-12T10:56:37Z</time>
      </trkpt>
      <trkpt lat="46.83936" lon="6.25327">
        <ele>1026</ele>
        <time>2016-12-12T10:56:40Z</time>
      </trkpt>
      <trkpt lat="46.8394" lon="6.25327">
        <ele>1026.3</ele>
        <time>2016-12-12T10:56:44Z</time>
      </trkpt>
      <trkpt lat="46.83943" lon="6.25325">
        <ele>1026.5</ele>
        <time>2016-12-12T10:56:46Z</time>
      </trkpt>
      <trkpt lat="46.83945" lon="6.2532">
        <ele>1026.7</ele>
        <time>2016-12-12T10:56:49Z</time>
      </trkpt>
      <trkpt lat="46.83947" lon="6.25315">
        <ele>1026.8</ele>
        <time>2016-12-12T10:56:54Z</time>
      </trkpt>
      <trkpt lat="46.83949" lon="6.25312">
        <ele>1027</ele>
        <time>2016-12-12T10:56:56Z</time>
      </trkpt>
      <trkpt lat="46.83952" lon="6.25309">
        <ele>1027.2</ele>
        <time>2016-12-12T10:56:59Z</time>
      </trkpt>
      <trkpt lat="46.83954" lon="6.25306">
        <ele>1027.4</ele>
        <time>2016-12-12T10:57:01Z</time>
      </trkpt>
      <trkpt lat="46.83956" lon="6.25303">
        <ele>1027.6</ele>
        <time>2016-12-12T10:57:04Z</time>
      </trkpt>
      <trkpt lat="46.83958" lon="6.253">
        <ele>1027.9</ele>
        <time>2016-12-12T10:57:07Z</time>
      </trkpt>
      <trkpt lat="46.83961" lon="6.25297">
        <ele>1028.1</ele>
        <time>2016-12-12T10:57:09Z</time>
      </trkpt>
      <trkpt lat="46.83964" lon="6.25294">
        <ele>1028.4</ele>
        <time>2016-12-12T10:57:11Z</time>
      </trkpt>
      <trkpt lat="46.83967" lon="6.25289">
        <ele>1028.7</ele>
        <time>2016-12-12T10:57:13Z</time>
      </trkpt>
      <trkpt lat="46.83969" lon="6.25284">
        <ele>1029</ele>
        <time>2016-12-12T10:57:15Z</time>
      </trkpt>
      <trkpt lat="46.83972" lon="6.25281">
        <ele>1029.2</ele>
        <time>2016-12-12T10:57:18Z</time>
      </trkpt>
      <trkpt lat="46.83975" lon="6.25279">
        <ele>1029.5</ele>
        <time>2016-12-12T10:57:20Z</time>
      </trkpt>
      <trkpt lat="46.83978" lon="6.25278">
        <ele>1029.8</ele>
        <time>2016-12-12T10:57:21Z</time>
      </trkpt>
      <trkpt lat="46.83981" lon="6.25276">
        <ele>1030</ele>
        <time>2016-12-12T10:57:22Z</time>
      </trkpt>
      <trkpt lat="46.83981" lon="6.25271">
        <ele>1030.1</ele>
        <time>2016-12-12T10:57:25Z</time>
      </trkpt>
      <trkpt lat="46.83985" lon="6.25269">
        <ele>1030.4</ele>
        <time>2016-12-12T10:57:31Z</time>
      </trkpt>
      <trkpt lat="46.83988" lon="6.25269">
        <ele>1030.7</ele>
        <time>2016-12-12T10:57:33Z</time>
      </trkpt>
      <trkpt lat="46.83992" lon="6.25268">
        <ele>1031</ele>
        <time>2016-12-12T10:57:35Z</time>
      </trkpt>
      <trkpt lat="46.83996" lon="6.25265">
        <ele>1031.4</ele>
        <time>2016-12-12T10:57:37Z</time>
      </trkpt>
      <trkpt lat="46.83998" lon="6.25262">
        <ele>1031.5</ele>
        <time>2016-12-12T10:57:40Z</time>
      </trkpt>
      <trkpt lat="46.84001" lon="6.25258">
        <ele>1031.9</ele>
        <time>2016-12-12T10:57:43Z</time>
      </trkpt>
      <trkpt lat="46.84004" lon="6.25258">
        <ele>1032.1</ele>
        <time>2016-12-12T10:57:45Z</time>
      </trkpt>
      <trkpt lat="46.84007" lon="6.25259">
        <ele>1032.3</ele>
        <time>2016-12-12T10:57:48Z</time>
      </trkpt>
      <trkpt lat="46.84009" lon="6.25259">
        <ele>1032.5</ele>
        <time>2016-12-12T10:57:50Z</time>
      </trkpt>
      <trkpt lat="46.84012" lon="6.25258">
        <ele>1032.7</ele>
        <time>2016-12-12T10:57:54Z</time>
      </trkpt>
      <trkpt lat="46.84016" lon="6.25255">
        <ele>1033.1</ele>
        <time>2016-12-12T10:57:57Z</time>
      </trkpt>
      <trkpt lat="46.8402" lon="6.25253">
        <ele>1033.4</ele>
        <time>2016-12-12T10:57:59Z</time>
      </trkpt>
      <trkpt lat="46.84024" lon="6.25251">
        <ele>1033.7</ele>
        <time>2016-12-12T10:58:02Z</time>
      </trkpt>
      <trkpt lat="46.84027" lon="6.2525">
        <ele>1033.9</ele>
        <time>2016-12-12T10:58:06Z</time>
      </trkpt>
      <trkpt lat="46.84029" lon="6.25248">
        <ele>1034.2</ele>
        <time>2016-12-12T10:58:09Z</time>
      </trkpt>
      <trkpt lat="46.84032" lon="6.25245">
        <ele>1034.4</ele>
        <time>2016-12-12T10:58:11Z</time>
      </trkpt>
      <trkpt lat="46.84034" lon="6.25242">
        <ele>1034.6</ele>
        <time>2016-12-12T10:58:13Z</time>
      </trkpt>
      <trkpt lat="46.84036" lon="6.25239">
        <ele>1034.9</ele>
        <time>2016-12-12T10:58:15Z</time>
      </trkpt>
      <trkpt lat="46.84038" lon="6.25236">
        <ele>1035.1</ele>
        <time>2016-12-12T10:58:17Z</time>
      </trkpt>
      <trkpt lat="46.84042" lon="6.25231">
        <ele>1035.5</ele>
        <time>2016-12-12T10:58:19Z</time>
      </trkpt>
      <trkpt lat="46.84045" lon="6.25229">
        <ele>1035.7</ele>
        <time>2016-12-12T10:58:21Z</time>
      </trkpt>
      <trkpt lat="46.84047" lon="6.25227">
        <ele>1035.9</ele>
        <time>2016-12-12T10:58:23Z</time>
      </trkpt>
      <trkpt lat="46.8405" lon="6.25223">
        <ele>1036.1</ele>
        <time>2016-12-12T10:58:27Z</time>
      </trkpt>
      <trkpt lat="46.84052" lon="6.25222">
        <ele>1036.3</ele>
        <time>2016-12-12T10:58:32Z</time>
      </trkpt>
      <trkpt lat="46.84056" lon="6.2522">
        <ele>1036.5</ele>
        <time>2016-12-12T10:58:35Z</time>
      </trkpt>
      <trkpt lat="46.84059" lon="6.25218">
        <ele>1036.8</ele>
        <time>2016-12-12T10:58:37Z</time>
      </trkpt>
      <trkpt lat="46.84061" lon="6.25215">
        <ele>1037</ele>
        <time>2016-12-12T10:58:40Z</time>
      </trkpt>
      <trkpt lat="46.84065" lon="6.25209">
        <ele>1037.4</ele>
        <time>2016-12-12T10:58:44Z</time>
      </trkpt>
      <trkpt lat="46.84067" lon="6.25203">
        <ele>1037.6</ele>
        <time>2016-12-12T10:58:46Z</time>
      </trkpt>
      <trkpt lat="46.84068" lon="6.25198">
        <ele>1037.7</ele>
        <time>2016-12-12T10:58:49Z</time>
      </trkpt>
      <trkpt lat="46.84071" lon="6.25194">
        <ele>1037.9</ele>
        <time>2016-12-12T10:58:53Z</time>
      </trkpt>
      <trkpt lat="46.84074" lon="6.25191">
        <ele>1038.1</ele>
        <time>2016-12-12T10:58:56Z</time>
      </trkpt>
      <trkpt lat="46.84077" lon="6.25188">
        <ele>1038.3</ele>
        <time>2016-12-12T10:58:59Z</time>
      </trkpt>
      <trkpt lat="46.8408" lon="6.25184">
        <ele>1038.6</ele>
        <time>2016-12-12T10:59:01Z</time>
      </trkpt>
      <trkpt lat="46.84083" lon="6.25181">
        <ele>1038.8</ele>
        <time>2016-12-12T10:59:03Z</time>
      </trkpt>
      <trkpt lat="46.84086" lon="6.2518">
        <ele>1039</ele>
        <time>2016-12-12T10:59:05Z</time>
      </trkpt>
      <trkpt lat="46.84089" lon="6.25179">
        <ele>1039.2</ele>
        <time>2016-12-12T10:59:08Z</time>
      </trkpt>
      <trkpt lat="46.84092" lon="6.25178">
        <ele>1039.4</ele>
        <time>2016-12-12T10:59:10Z</time>
      </trkpt>
      <trkpt lat="46.84095" lon="6.25179">
        <ele>1039.5</ele>
        <time>2016-12-12T10:59:12Z</time>
      </trkpt>
      <trkpt lat="46.841" lon="6.25175">
        <ele>1039.9</ele>
        <time>2016-12-12T10:59:14Z</time>
      </trkpt>
      <trkpt lat="46.84105" lon="6.25173">
        <ele>1040.2</ele>
        <time>2016-12-12T10:59:16Z</time>
      </trkpt>
      <trkpt lat="46.84108" lon="6.25172">
        <ele>1040.4</ele>
        <time>2016-12-12T10:59:19Z</time>
      </trkpt>
      <trkpt lat="46.84109" lon="6.25168">
        <ele>1040.6</ele>
        <time>2016-12-12T10:59:24Z</time>
      </trkpt>
      <trkpt lat="46.8411" lon="6.2516">
        <ele>1040.7</ele>
        <time>2016-12-12T10:59:27Z</time>
      </trkpt>
      <trkpt lat="46.84111" lon="6.25154">
        <ele>1040.8</ele>
        <time>2016-12-12T10:59:29Z</time>
      </trkpt>
      <trkpt lat="46.84112" lon="6.2515">
        <ele>1040.9</ele>
        <time>2016-12-12T10:59:31Z</time>
      </trkpt>
      <trkpt lat="46.84113" lon="6.25146">
        <ele>1041</ele>
        <time>2016-12-12T10:59:33Z</time>
      </trkpt>
      <trkpt lat="46.84115" lon="6.25143">
        <ele>1041.2</ele>
        <time>2016-12-12T10:59:37Z</time>
      </trkpt>
      <trkpt lat="46.84119" lon="6.25138">
        <ele>1041.5</ele>
        <time>2016-12-12T10:59:40Z</time>
      </trkpt>
      <trkpt lat="46.84119" lon="6.25134">
        <ele>1041.5</ele>
        <time>2016-12-12T10:59:42Z</time>
      </trkpt>
      <trkpt lat="46.84121" lon="6.2513">
        <ele>1041.7</ele>
        <time>2016-12-12T10:59:43Z</time>
      </trkpt>
      <trkpt lat="46.84123" lon="6.25128">
        <ele>1041.9</ele>
        <time>2016-12-12T10:59:45Z</time>
      </trkpt>
      <trkpt lat="46.84121" lon="6.25125">
        <ele>1041.7</ele>
        <time>2016-12-12T10:59:55Z</time>
      </trkpt>
      <trkpt lat="46.84119" lon="6.25121">
        <ele>1041.8</ele>
        <time>2016-12-12T11:00:03Z</time>
      </trkpt>
      <trkpt lat="46.84117" lon="6.25118">
        <ele>1041.7</ele>
        <time>2016-12-12T11:00:11Z</time>
      </trkpt>
      <trkpt lat="46.84118" lon="6.25114">
        <ele>1041.9</ele>
        <time>2016-12-12T11:00:13Z</time>
      </trkpt>
      <trkpt lat="46.84119" lon="6.2511">
        <ele>1042.1</ele>
        <time>2016-12-12T11:00:16Z</time>
      </trkpt>
      <trkpt lat="46.84121" lon="6.25107">
        <ele>1042.4</ele>
        <time>2016-12-12T11:00:21Z</time>
      </trkpt>
      <trkpt lat="46.84123" lon="6.25105">
        <ele>1042.6</ele>
        <time>2016-12-12T11:00:23Z</time>
      </trkpt>
      <trkpt lat="46.84125" lon="6.25101">
        <ele>1042.9</ele>
        <time>2016-12-12T11:00:26Z</time>
      </trkpt>
      <trkpt lat="46.84131" lon="6.25097">
        <ele>1043.6</ele>
        <time>2016-12-12T11:00:29Z</time>
      </trkpt>
      <trkpt lat="46.84132" lon="6.25092">
        <ele>1043.9</ele>
        <time>2016-12-12T11:00:31Z</time>
      </trkpt>
      <trkpt lat="46.84134" lon="6.25089">
        <ele>1044.2</ele>
        <time>2016-12-12T11:00:35Z</time>
      </trkpt>
      <trkpt lat="46.84138" lon="6.25086">
        <ele>1044.7</ele>
        <time>2016-12-12T11:00:37Z</time>
      </trkpt>
      <trkpt lat="46.84141" lon="6.25082">
        <ele>1045.1</ele>
        <time>2016-12-12T11:00:39Z</time>
      </trkpt>
      <trkpt lat="46.84143" lon="6.25079">
        <ele>1045.5</ele>
        <time>2016-12-12T11:00:41Z</time>
      </trkpt>
      <trkpt lat="46.84145" lon="6.25074">
        <ele>1045.9</ele>
        <time>2016-12-12T11:00:44Z</time>
      </trkpt>
      <trkpt lat="46.84149" lon="6.2507">
        <ele>1046.4</ele>
        <time>2016-12-12T11:00:46Z</time>
      </trkpt>
      <trkpt lat="46.84152" lon="6.25072">
        <ele>1046.7</ele>
        <time>2016-12-12T11:00:50Z</time>
      </trkpt>
      <trkpt lat="46.84151" lon="6.25068">
        <ele>1046.8</ele>
        <time>2016-12-12T11:00:53Z</time>
      </trkpt>
      <trkpt lat="46.84155" lon="6.25064">
        <ele>1047.3</ele>
        <time>2016-12-12T11:00:54Z</time>
      </trkpt>
      <trkpt lat="46.84158" lon="6.25062">
        <ele>1047.7</ele>
        <time>2016-12-12T11:00:56Z</time>
      </trkpt>
      <trkpt lat="46.8416" lon="6.2506">
        <ele>1048</ele>
        <time>2016-12-12T11:00:58Z</time>
      </trkpt>
      <trkpt lat="46.84163" lon="6.25055">
        <ele>1048.5</ele>
        <time>2016-12-12T11:01:01Z</time>
      </trkpt>
      <trkpt lat="46.84164" lon="6.25051">
        <ele>1048.8</ele>
        <time>2016-12-12T11:01:03Z</time>
      </trkpt>
      <trkpt lat="46.84165" lon="6.25044">
        <ele>1049.2</ele>
        <time>2016-12-12T11:01:06Z</time>
      </trkpt>
      <trkpt lat="46.84166" lon="6.25038">
        <ele>1049.5</ele>
        <time>2016-12-12T11:01:08Z</time>
      </trkpt>
      <trkpt lat="46.84166" lon="6.25033">
        <ele>1049.7</ele>
        <time>2016-12-12T11:01:11Z</time>
      </trkpt>
      <trkpt lat="46.84165" lon="6.2503">
        <ele>1049.7</ele>
        <time>2016-12-12T11:01:13Z</time>
      </trkpt>
      <trkpt lat="46.84165" lon="6.25025">
        <ele>1049.9</ele>
        <time>2016-12-12T11:01:16Z</time>
      </trkpt>
      <trkpt lat="46.84166" lon="6.25022">
        <ele>1050.2</ele>
        <time>2016-12-12T11:01:19Z</time>
      </trkpt>
      <trkpt lat="46.84168" lon="6.25019">
        <ele>1050.5</ele>
        <time>2016-12-12T11:01:22Z</time>
      </trkpt>
      <trkpt lat="46.84172" lon="6.25013">
        <ele>1051</ele>
        <time>2016-12-12T11:01:25Z</time>
      </trkpt>
      <trkpt lat="46.84174" lon="6.25011">
        <ele>1051.3</ele>
        <time>2016-12-12T11:01:27Z</time>
      </trkpt>
      <trkpt lat="46.84176" lon="6.25008">
        <ele>1051.6</ele>
        <time>2016-12-12T11:01:29Z</time>
      </trkpt>
      <trkpt lat="46.84179" lon="6.25003">
        <ele>1052.1</ele>
        <time>2016-12-12T11:01:31Z</time>
      </trkpt>
      <trkpt lat="46.84183" lon="6.25005">
        <ele>1052.4</ele>
        <time>2016-12-12T11:01:35Z</time>
      </trkpt>
      <trkpt lat="46.84186" lon="6.25009">
        <ele>1052.6</ele>
        <time>2016-12-12T11:01:38Z</time>
      </trkpt>
      <trkpt lat="46.84189" lon="6.25014">
        <ele>1052.7</ele>
        <time>2016-12-12T11:01:40Z</time>
      </trkpt>
      <trkpt lat="46.84191" lon="6.25017">
        <ele>1052.8</ele>
        <time>2016-12-12T11:01:42Z</time>
      </trkpt>
      <trkpt lat="46.84194" lon="6.25021">
        <ele>1053</ele>
        <time>2016-12-12T11:01:44Z</time>
      </trkpt>
      <trkpt lat="46.84196" lon="6.25023">
        <ele>1053.2</ele>
        <time>2016-12-12T11:01:46Z</time>
      </trkpt>
      <trkpt lat="46.84199" lon="6.25026">
        <ele>1053.4</ele>
        <time>2016-12-12T11:01:48Z</time>
      </trkpt>
      <trkpt lat="46.84203" lon="6.25028">
        <ele>1053.7</ele>
        <time>2016-12-12T11:01:50Z</time>
      </trkpt>
      <trkpt lat="46.84206" lon="6.25029">
        <ele>1054.1</ele>
        <time>2016-12-12T11:01:52Z</time>
      </trkpt>
      <trkpt lat="46.84211" lon="6.25029">
        <ele>1054.3</ele>
        <time>2016-12-12T11:01:54Z</time>
      </trkpt>
      <trkpt lat="46.84214" lon="6.2503">
        <ele>1054.4</ele>
        <time>2016-12-12T11:01:56Z</time>
      </trkpt>
      <trkpt lat="46.84217" lon="6.25031">
        <ele>1054.4</ele>
        <time>2016-12-12T11:01:57Z</time>
      </trkpt>
      <trkpt lat="46.84221" lon="6.25029">
        <ele>1054.5</ele>
        <time>2016-12-12T11:01:59Z</time>
      </trkpt>
      <trkpt lat="46.84224" lon="6.25027">
        <ele>1054.6</ele>
        <time>2016-12-12T11:02:03Z</time>
      </trkpt>
      <trkpt lat="46.84226" lon="6.25025">
        <ele>1054.8</ele>
        <time>2016-12-12T11:02:05Z</time>
      </trkpt>
      <trkpt lat="46.84229" lon="6.25024">
        <ele>1054.8</ele>
        <time>2016-12-12T11:02:07Z</time>
      </trkpt>
      <trkpt lat="46.84236" lon="6.25021">
        <ele>1055.1</ele>
        <time>2016-12-12T11:02:09Z</time>
      </trkpt>
      <trkpt lat="46.84242" lon="6.25017">
        <ele>1055.3</ele>
        <time>2016-12-12T11:02:11Z</time>
      </trkpt>
      <trkpt lat="46.84245" lon="6.25015">
        <ele>1055.5</ele>
        <time>2016-12-12T11:02:14Z</time>
      </trkpt>
      <trkpt lat="46.84251" lon="6.25012">
        <ele>1055.8</ele>
        <time>2016-12-12T11:02:18Z</time>
      </trkpt>
      <trkpt lat="46.84253" lon="6.25008">
        <ele>1056</ele>
        <time>2016-12-12T11:02:19Z</time>
      </trkpt>
      <trkpt lat="46.84259" lon="6.25">
        <ele>1056.5</ele>
        <time>2016-12-12T11:02:21Z</time>
      </trkpt>
      <trkpt lat="46.84262" lon="6.24996">
        <ele>1056.8</ele>
        <time>2016-12-12T11:02:22Z</time>
      </trkpt>
      <trkpt lat="46.84266" lon="6.24992">
        <ele>1057.1</ele>
        <time>2016-12-12T11:02:24Z</time>
      </trkpt>
      <trkpt lat="46.84269" lon="6.24989">
        <ele>1057.4</ele>
        <time>2016-12-12T11:02:26Z</time>
      </trkpt>
      <trkpt lat="46.84272" lon="6.24987">
        <ele>1057.6</ele>
        <time>2016-12-12T11:02:28Z</time>
      </trkpt>
      <trkpt lat="46.84275" lon="6.24985">
        <ele>1057.8</ele>
        <time>2016-12-12T11:02:30Z</time>
      </trkpt>
      <trkpt lat="46.84279" lon="6.24983">
        <ele>1058</ele>
        <time>2016-12-12T11:02:32Z</time>
      </trkpt>
      <trkpt lat="46.84279" lon="6.24979">
        <ele>1058.3</ele>
        <time>2016-12-12T11:02:35Z</time>
      </trkpt>
      <trkpt lat="46.84283" lon="6.24975">
        <ele>1058.6</ele>
        <time>2016-12-12T11:02:37Z</time>
      </trkpt>
      <trkpt lat="46.84287" lon="6.24976">
        <ele>1058.7</ele>
        <time>2016-12-12T11:02:38Z</time>
      </trkpt>
      <trkpt lat="46.8429" lon="6.24977">
        <ele>1058.8</ele>
        <time>2016-12-12T11:02:41Z</time>
      </trkpt>
      <trkpt lat="46.84293" lon="6.24976">
        <ele>1058.9</ele>
        <time>2016-12-12T11:02:43Z</time>
      </trkpt>
      <trkpt lat="46.84297" lon="6.24977">
        <ele>1058.8</ele>
        <time>2016-12-12T11:02:45Z</time>
      </trkpt>
      <trkpt lat="46.84302" lon="6.24976">
        <ele>1058.6</ele>
        <time>2016-12-12T11:02:47Z</time>
      </trkpt>
      <trkpt lat="46.84305" lon="6.24977">
        <ele>1058.5</ele>
        <time>2016-12-12T11:02:48Z</time>
      </trkpt>
      <trkpt lat="46.84309" lon="6.2498">
        <ele>1058.2</ele>
        <time>2016-12-12T11:02:50Z</time>
      </trkpt>
      <trkpt lat="46.84315" lon="6.24983">
        <ele>1057.8</ele>
        <time>2016-12-12T11:02:52Z</time>
      </trkpt>
      <trkpt lat="46.84319" lon="6.24985">
        <ele>1057.6</ele>
        <time>2016-12-12T11:02:53Z</time>
      </trkpt>
      <trkpt lat="46.84321" lon="6.24987">
        <ele>1057.3</ele>
        <time>2016-12-12T11:02:54Z</time>
      </trkpt>
      <trkpt lat="46.84324" lon="6.24993">
        <ele>1056.9</ele>
        <time>2016-12-12T11:02:56Z</time>
      </trkpt>
      <trkpt lat="46.84326" lon="6.24995">
        <ele>1056.6</ele>
        <time>2016-12-12T11:02:57Z</time>
      </trkpt>
      <trkpt lat="46.8433" lon="6.25">
        <ele>1056.1</ele>
        <time>2016-12-12T11:02:59Z</time>
      </trkpt>
      <trkpt lat="46.84332" lon="6.25005">
        <ele>1055.7</ele>
        <time>2016-12-12T11:03:01Z</time>
      </trkpt>
      <trkpt lat="46.84335" lon="6.2501">
        <ele>1055.2</ele>
        <time>2016-12-12T11:03:03Z</time>
      </trkpt>
      <trkpt lat="46.84337" lon="6.25013">
        <ele>1054.9</ele>
        <time>2016-12-12T11:03:04Z</time>
      </trkpt>
      <trkpt lat="46.84341" lon="6.25017">
        <ele>1054.4</ele>
        <time>2016-12-12T11:03:06Z</time>
      </trkpt>
      <trkpt lat="46.84344" lon="6.25022">
        <ele>1053.9</ele>
        <time>2016-12-12T11:03:08Z</time>
      </trkpt>
      <trkpt lat="46.84349" lon="6.25025">
        <ele>1053.5</ele>
        <time>2016-12-12T11:03:10Z</time>
      </trkpt>
      <trkpt lat="46.84353" lon="6.25029">
        <ele>1053.1</ele>
        <time>2016-12-12T11:03:13Z</time>
      </trkpt>
      <trkpt lat="46.84356" lon="6.25033">
        <ele>1052.6</ele>
        <time>2016-12-12T11:03:15Z</time>
      </trkpt>
      <trkpt lat="46.84358" lon="6.25037">
        <ele>1052.2</ele>
        <time>2016-12-12T11:03:18Z</time>
      </trkpt>
      <trkpt lat="46.84361" lon="6.25041">
        <ele>1051.7</ele>
        <time>2016-12-12T11:03:20Z</time>
      </trkpt>
      <trkpt lat="46.84364" lon="6.25044">
        <ele>1051.4</ele>
        <time>2016-12-12T11:03:23Z</time>
      </trkpt>
      <trkpt lat="46.84366" lon="6.25047">
        <ele>1051.2</ele>
        <time>2016-12-12T11:03:25Z</time>
      </trkpt>
      <trkpt lat="46.84369" lon="6.2505">
        <ele>1050.9</ele>
        <time>2016-12-12T11:03:27Z</time>
      </trkpt>
      <trkpt lat="46.84373" lon="6.25056">
        <ele>1050.4</ele>
        <time>2016-12-12T11:03:29Z</time>
      </trkpt>
      <trkpt lat="46.84376" lon="6.25057">
        <ele>1050.3</ele>
        <time>2016-12-12T11:03:31Z</time>
      </trkpt>
      <trkpt lat="46.84379" lon="6.25059">
        <ele>1050.4</ele>
        <time>2016-12-12T11:03:33Z</time>
      </trkpt>
      <trkpt lat="46.84383" lon="6.2506">
        <ele>1050.5</ele>
        <time>2016-12-12T11:03:35Z</time>
      </trkpt>
      <trkpt lat="46.84387" lon="6.25061">
        <ele>1050.6</ele>
        <time>2016-12-12T11:03:37Z</time>
      </trkpt>
      <trkpt lat="46.8439" lon="6.25062">
        <ele>1050.7</ele>
        <time>2016-12-12T11:03:39Z</time>
      </trkpt>
      <trkpt lat="46.84393" lon="6.25063">
        <ele>1050.8</ele>
        <time>2016-12-12T11:03:41Z</time>
      </trkpt>
      <trkpt lat="46.84396" lon="6.25066">
        <ele>1050.8</ele>
        <time>2016-12-12T11:03:42Z</time>
      </trkpt>
      <trkpt lat="46.84398" lon="6.25068">
        <ele>1050.7</ele>
        <time>2016-12-12T11:03:43Z</time>
      </trkpt>
      <trkpt lat="46.84402" lon="6.25073">
        <ele>1050.7</ele>
        <time>2016-12-12T11:03:45Z</time>
      </trkpt>
      <trkpt lat="46.84404" lon="6.25076">
        <ele>1050.6</ele>
        <time>2016-12-12T11:03:46Z</time>
      </trkpt>
      <trkpt lat="46.84406" lon="6.25079">
        <ele>1050.5</ele>
        <time>2016-12-12T11:03:47Z</time>
      </trkpt>
      <trkpt lat="46.84409" lon="6.25081">
        <ele>1050.6</ele>
        <time>2016-12-12T11:03:49Z</time>
      </trkpt>
      <trkpt lat="46.84412" lon="6.25083">
        <ele>1050.6</ele>
        <time>2016-12-12T11:03:51Z</time>
      </trkpt>
      <trkpt lat="46.84414" lon="6.25086">
        <ele>1050.5</ele>
        <time>2016-12-12T11:03:54Z</time>
      </trkpt>
      <trkpt lat="46.84417" lon="6.25089">
        <ele>1050.5</ele>
        <time>2016-12-12T11:03:56Z</time>
      </trkpt>
      <trkpt lat="46.8442" lon="6.25091">
        <ele>1050.5</ele>
        <time>2016-12-12T11:03:58Z</time>
      </trkpt>
      <trkpt lat="46.84422" lon="6.25094">
        <ele>1050.4</ele>
        <time>2016-12-12T11:04:00Z</time>
      </trkpt>
      <trkpt lat="46.84427" lon="6.25099">
        <ele>1050.3</ele>
        <time>2016-12-12T11:04:03Z</time>
      </trkpt>
      <trkpt lat="46.84431" lon="6.25103">
        <ele>1050.3</ele>
        <time>2016-12-12T11:04:05Z</time>
      </trkpt>
      <trkpt lat="46.84434" lon="6.25106">
        <ele>1050.2</ele>
        <time>2016-12-12T11:04:07Z</time>
      </trkpt>
      <trkpt lat="46.84437" lon="6.25108">
        <ele>1050.2</ele>
        <time>2016-12-12T11:04:09Z</time>
      </trkpt>
      <trkpt lat="46.84441" lon="6.25111">
        <ele>1050.2</ele>
        <time>2016-12-12T11:04:11Z</time>
      </trkpt>
      <trkpt lat="46.84444" lon="6.25114">
        <ele>1050.1</ele>
        <time>2016-12-12T11:04:13Z</time>
      </trkpt>
      <trkpt lat="46.84447" lon="6.25119">
        <ele>1050</ele>
        <time>2016-12-12T11:04:15Z</time>
      </trkpt>
      <trkpt lat="46.8445" lon="6.25121">
        <ele>1049.9</ele>
        <time>2016-12-12T11:04:18Z</time>
      </trkpt>
      <trkpt lat="46.84454" lon="6.25124">
        <ele>1049.9</ele>
        <time>2016-12-12T11:04:20Z</time>
      </trkpt>
      <trkpt lat="46.84456" lon="6.25127">
        <ele>1049.9</ele>
        <time>2016-12-12T11:04:23Z</time>
      </trkpt>
      <trkpt lat="46.84458" lon="6.25131">
        <ele>1049.8</ele>
        <time>2016-12-12T11:04:25Z</time>
      </trkpt>
      <trkpt lat="46.8446" lon="6.25137">
        <ele>1049.7</ele>
        <time>2016-12-12T11:04:27Z</time>
      </trkpt>
      <trkpt lat="46.8446" lon="6.25142">
        <ele>1049.5</ele>
        <time>2016-12-12T11:04:28Z</time>
      </trkpt>
      <trkpt lat="46.84462" lon="6.25147">
        <ele>1049.5</ele>
        <time>2016-12-12T11:04:30Z</time>
      </trkpt>
      <trkpt lat="46.84463" lon="6.25151">
        <ele>1049.4</ele>
        <time>2016-12-12T11:04:32Z</time>
      </trkpt>
      <trkpt lat="46.84465" lon="6.25154">
        <ele>1049.4</ele>
        <time>2016-12-12T11:04:33Z</time>
      </trkpt>
      <trkpt lat="46.84467" lon="6.2516">
        <ele>1049.3</ele>
        <time>2016-12-12T11:04:35Z</time>
      </trkpt>
      <trkpt lat="46.84469" lon="6.25164">
        <ele>1049.3</ele>
        <time>2016-12-12T11:04:37Z</time>
      </trkpt>
      <trkpt lat="46.84473" lon="6.25169">
        <ele>1049.4</ele>
        <time>2016-12-12T11:04:40Z</time>
      </trkpt>
      <trkpt lat="46.84476" lon="6.25172">
        <ele>1049.4</ele>
        <time>2016-12-12T11:04:42Z</time>
      </trkpt>
      <trkpt lat="46.84479" lon="6.25175">
        <ele>1049.5</ele>
        <time>2016-12-12T11:04:44Z</time>
      </trkpt>
      <trkpt lat="46.84481" lon="6.2518">
        <ele>1049.4</ele>
        <time>2016-12-12T11:04:46Z</time>
      </trkpt>
      <trkpt lat="46.84483" lon="6.25185">
        <ele>1049.3</ele>
        <time>2016-12-12T11:04:48Z</time>
      </trkpt>
      <trkpt lat="46.84485" lon="6.2519">
        <ele>1049.1</ele>
        <time>2016-12-12T11:04:50Z</time>
      </trkpt>
      <trkpt lat="46.84487" lon="6.25195">
        <ele>1049</ele>
        <time>2016-12-12T11:04:52Z</time>
      </trkpt>
      <trkpt lat="46.84489" lon="6.252">
        <ele>1048.9</ele>
        <time>2016-12-12T11:04:54Z</time>
      </trkpt>
      <trkpt lat="46.84491" lon="6.25207">
        <ele>1048.7</ele>
        <time>2016-12-12T11:04:56Z</time>
      </trkpt>
      <trkpt lat="46.84495" lon="6.25211">
        <ele>1048.7</ele>
        <time>2016-12-12T11:04:58Z</time>
      </trkpt>
      <trkpt lat="46.84498" lon="6.25215">
        <ele>1048.8</ele>
        <time>2016-12-12T11:05:00Z</time>
      </trkpt>
      <trkpt lat="46.845" lon="6.25219">
        <ele>1048.8</ele>
        <time>2016-12-12T11:05:03Z</time>
      </trkpt>
      <trkpt lat="46.845" lon="6.25223">
        <ele>1048.8</ele>
        <time>2016-12-12T11:05:05Z</time>
      </trkpt>
      <trkpt lat="46.84502" lon="6.25226">
        <ele>1048.8</ele>
        <time>2016-12-12T11:05:08Z</time>
      </trkpt>
      <trkpt lat="46.84504" lon="6.25229">
        <ele>1048.9</ele>
        <time>2016-12-12T11:05:11Z</time>
      </trkpt>
      <trkpt lat="46.84508" lon="6.25232">
        <ele>1049.1</ele>
        <time>2016-12-12T11:05:13Z</time>
      </trkpt>
      <trkpt lat="46.84511" lon="6.25237">
        <ele>1049.1</ele>
        <time>2016-12-12T11:05:15Z</time>
      </trkpt>
      <trkpt lat="46.84512" lon="6.2524">
        <ele>1049.1</ele>
        <time>2016-12-12T11:05:16Z</time>
      </trkpt>
      <trkpt lat="46.84516" lon="6.25248">
        <ele>1049.3</ele>
        <time>2016-12-12T11:05:21Z</time>
      </trkpt>
      <trkpt lat="46.84514" lon="6.25253">
        <ele>1049.2</ele>
        <time>2016-12-12T11:05:23Z</time>
      </trkpt>
      <trkpt lat="46.84514" lon="6.25257">
        <ele>1049.1</ele>
        <time>2016-12-12T11:05:24Z</time>
      </trkpt>
      <trkpt lat="46.84518" lon="6.25261">
        <ele>1049.3</ele>
        <time>2016-12-12T11:05:28Z</time>
      </trkpt>
      <trkpt lat="46.84523" lon="6.25265">
        <ele>1049.6</ele>
        <time>2016-12-12T11:05:30Z</time>
      </trkpt>
      <trkpt lat="46.84524" lon="6.2527">
        <ele>1049.7</ele>
        <time>2016-12-12T11:05:34Z</time>
      </trkpt>
      <trkpt lat="46.84526" lon="6.25274">
        <ele>1049.8</ele>
        <time>2016-12-12T11:05:36Z</time>
      </trkpt>
      <trkpt lat="46.84527" lon="6.25279">
        <ele>1049.8</ele>
        <time>2016-12-12T11:05:38Z</time>
      </trkpt>
      <trkpt lat="46.84527" lon="6.25286">
        <ele>1049.8</ele>
        <time>2016-12-12T11:05:41Z</time>
      </trkpt>
      <trkpt lat="46.84529" lon="6.2529">
        <ele>1049.9</ele>
        <time>2016-12-12T11:05:44Z</time>
      </trkpt>
      <trkpt lat="46.84528" lon="6.25296">
        <ele>1049.8</ele>
        <time>2016-12-12T11:05:46Z</time>
      </trkpt>
      <trkpt lat="46.84528" lon="6.25302">
        <ele>1049.7</ele>
        <time>2016-12-12T11:05:48Z</time>
      </trkpt>
      <trkpt lat="46.84527" lon="6.25308">
        <ele>1049.6</ele>
        <time>2016-12-12T11:05:50Z</time>
      </trkpt>
      <trkpt lat="46.84526" lon="6.25312">
        <ele>1049.5</ele>
        <time>2016-12-12T11:05:52Z</time>
      </trkpt>
      <trkpt lat="46.84525" lon="6.25317">
        <ele>1049.3</ele>
        <time>2016-12-12T11:05:55Z</time>
      </trkpt>
      <trkpt lat="46.84523" lon="6.2532">
        <ele>1049.2</ele>
        <time>2016-12-12T11:06:00Z</time>
      </trkpt>
      <trkpt lat="46.84522" lon="6.25324">
        <ele>1049.1</ele>
        <time>2016-12-12T11:06:02Z</time>
      </trkpt>
      <trkpt lat="46.8452" lon="6.2533">
        <ele>1048.9</ele>
        <time>2016-12-12T11:06:04Z</time>
      </trkpt>
      <trkpt lat="46.84519" lon="6.25334">
        <ele>1048.7</ele>
        <time>2016-12-12T11:06:05Z</time>
      </trkpt>
      <trkpt lat="46.84517" lon="6.25341">
        <ele>1048.5</ele>
        <time>2016-12-12T11:06:07Z</time>
      </trkpt>
      <trkpt lat="46.84516" lon="6.25345">
        <ele>1048.4</ele>
        <time>2016-12-12T11:06:08Z</time>
      </trkpt>
      <trkpt lat="46.84514" lon="6.25354">
        <ele>1048.2</ele>
        <time>2016-12-12T11:06:10Z</time>
      </trkpt>
      <trkpt lat="46.84513" lon="6.25358">
        <ele>1048.1</ele>
        <time>2016-12-12T11:06:11Z</time>
      </trkpt>
      <trkpt lat="46.84513" lon="6.25363">
        <ele>1048</ele>
        <time>2016-12-12T11:06:13Z</time>
      </trkpt>
      <trkpt lat="46.84513" lon="6.25368">
        <ele>1048</ele>
        <time>2016-12-12T11:06:16Z</time>
      </trkpt>
      <trkpt lat="46.84514" lon="6.25374">
        <ele>1048</ele>
        <time>2016-12-12T11:06:18Z</time>
      </trkpt>
      <trkpt lat="46.84513" lon="6.25379">
        <ele>1048.1</ele>
        <time>2016-12-12T11:06:20Z</time>
      </trkpt>
      <trkpt lat="46.84514" lon="6.25386">
        <ele>1048.4</ele>
        <time>2016-12-12T11:06:22Z</time>
      </trkpt>
      <trkpt lat="46.84514" lon="6.25389">
        <ele>1048.5</ele>
        <time>2016-12-12T11:06:23Z</time>
      </trkpt>
      <trkpt lat="46.84514" lon="6.25396">
        <ele>1048.8</ele>
        <time>2016-12-12T11:06:25Z</time>
      </trkpt>
      <trkpt lat="46.84515" lon="6.25403">
        <ele>1049.1</ele>
        <time>2016-12-12T11:06:27Z</time>
      </trkpt>
      <trkpt lat="46.84515" lon="6.25407">
        <ele>1049.2</ele>
        <time>2016-12-12T11:06:29Z</time>
      </trkpt>
      <trkpt lat="46.84516" lon="6.25413">
        <ele>1049.5</ele>
        <time>2016-12-12T11:06:31Z</time>
      </trkpt>
      <trkpt lat="46.84517" lon="6.2542">
        <ele>1049.9</ele>
        <time>2016-12-12T11:06:33Z</time>
      </trkpt>
      <trkpt lat="46.84518" lon="6.25425">
        <ele>1050.2</ele>
        <time>2016-12-12T11:06:35Z</time>
      </trkpt>
      <trkpt lat="46.84517" lon="6.2543">
        <ele>1050.2</ele>
        <time>2016-12-12T11:06:37Z</time>
      </trkpt>
      <trkpt lat="46.84517" lon="6.25436">
        <ele>1050.5</ele>
        <time>2016-12-12T11:06:40Z</time>
      </trkpt>
      <trkpt lat="46.84519" lon="6.2544">
        <ele>1050.8</ele>
        <time>2016-12-12T11:06:43Z</time>
      </trkpt>
      <trkpt lat="46.8452" lon="6.25444">
        <ele>1051.1</ele>
        <time>2016-12-12T11:06:46Z</time>
      </trkpt>
      <trkpt lat="46.84524" lon="6.25447">
        <ele>1051.6</ele>
        <time>2016-12-12T11:06:48Z</time>
      </trkpt>
      <trkpt lat="46.84526" lon="6.25451">
        <ele>1052.1</ele>
        <time>2016-12-12T11:06:51Z</time>
      </trkpt>
      <trkpt lat="46.84528" lon="6.25455">
        <ele>1052.4</ele>
        <time>2016-12-12T11:06:53Z</time>
      </trkpt>
      <trkpt lat="46.8453" lon="6.2546">
        <ele>1052.8</ele>
        <time>2016-12-12T11:06:56Z</time>
      </trkpt>
      <trkpt lat="46.84534" lon="6.25463">
        <ele>1053.2</ele>
        <time>2016-12-12T11:06:59Z</time>
      </trkpt>
      <trkpt lat="46.84536" lon="6.25467">
        <ele>1053.5</ele>
        <time>2016-12-12T11:07:01Z</time>
      </trkpt>
      <trkpt lat="46.84539" lon="6.25471">
        <ele>1053.8</ele>
        <time>2016-12-12T11:07:03Z</time>
      </trkpt>
      <trkpt lat="46.84541" lon="6.25475">
        <ele>1054.1</ele>
        <time>2016-12-12T11:07:05Z</time>
      </trkpt>
      <trkpt lat="46.84542" lon="6.2548">
        <ele>1054.3</ele>
        <time>2016-12-12T11:07:07Z</time>
      </trkpt>
      <trkpt lat="46.84544" lon="6.25485">
        <ele>1054.5</ele>
        <time>2016-12-12T11:07:09Z</time>
      </trkpt>
      <trkpt lat="46.84545" lon="6.25489">
        <ele>1054.6</ele>
        <time>2016-12-12T11:07:11Z</time>
      </trkpt>
      <trkpt lat="46.84546" lon="6.25493">
        <ele>1054.8</ele>
        <time>2016-12-12T11:07:13Z</time>
      </trkpt>
      <trkpt lat="46.8455" lon="6.25496">
        <ele>1055.2</ele>
        <time>2016-12-12T11:07:18Z</time>
      </trkpt>
      <trkpt lat="46.84554" lon="6.25497">
        <ele>1055.6</ele>
        <time>2016-12-12T11:07:20Z</time>
      </trkpt>
      <trkpt lat="46.84559" lon="6.25498">
        <ele>1056</ele>
        <time>2016-12-12T11:07:22Z</time>
      </trkpt>
      <trkpt lat="46.84562" lon="6.25502">
        <ele>1056.4</ele>
        <time>2016-12-12T11:07:25Z</time>
      </trkpt>
      <trkpt lat="46.84565" lon="6.25503">
        <ele>1056.6</ele>
        <time>2016-12-12T11:07:27Z</time>
      </trkpt>
      <trkpt lat="46.84568" lon="6.25504">
        <ele>1056.9</ele>
        <time>2016-12-12T11:07:30Z</time>
      </trkpt>
      <trkpt lat="46.84571" lon="6.25504">
        <ele>1057.2</ele>
        <time>2016-12-12T11:07:32Z</time>
      </trkpt>
      <trkpt lat="46.84576" lon="6.25504">
        <ele>1057.7</ele>
        <time>2016-12-12T11:07:34Z</time>
      </trkpt>
      <trkpt lat="46.84579" lon="6.25503">
        <ele>1057.9</ele>
        <time>2016-12-12T11:07:35Z</time>
      </trkpt>
      <trkpt lat="46.84582" lon="6.25501">
        <ele>1058.2</ele>
        <time>2016-12-12T11:07:36Z</time>
      </trkpt>
      <trkpt lat="46.84585" lon="6.255">
        <ele>1058.4</ele>
        <time>2016-12-12T11:07:37Z</time>
      </trkpt>
      <trkpt lat="46.84589" lon="6.255">
        <ele>1058.7</ele>
        <time>2016-12-12T11:07:39Z</time>
      </trkpt>
      <trkpt lat="46.84593" lon="6.255">
        <ele>1059.1</ele>
        <time>2016-12-12T11:07:41Z</time>
      </trkpt>
      <trkpt lat="46.84596" lon="6.255">
        <ele>1059.4</ele>
        <time>2016-12-12T11:07:44Z</time>
      </trkpt>
      <trkpt lat="46.84599" lon="6.25497">
        <ele>1059.6</ele>
        <time>2016-12-12T11:07:46Z</time>
      </trkpt>
      <trkpt lat="46.84602" lon="6.25497">
        <ele>1059.9</ele>
        <time>2016-12-12T11:07:48Z</time>
      </trkpt>
      <trkpt lat="46.84606" lon="6.25497">
        <ele>1060.2</ele>
        <time>2016-12-12T11:07:50Z</time>
      </trkpt>
      <trkpt lat="46.84608" lon="6.25501">
        <ele>1060.5</ele>
        <time>2016-12-12T11:07:52Z</time>
      </trkpt>
      <trkpt lat="46.84613" lon="6.25505">
        <ele>1061</ele>
        <time>2016-12-12T11:07:54Z</time>
      </trkpt>
      <trkpt lat="46.84617" lon="6.2551">
        <ele>1061.5</ele>
        <time>2016-12-12T11:07:56Z</time>
      </trkpt>
      <trkpt lat="46.84619" lon="6.25513">
        <ele>1061.7</ele>
        <time>2016-12-12T11:07:57Z</time>
      </trkpt>
      <trkpt lat="46.84623" lon="6.25515">
        <ele>1062.2</ele>
        <time>2016-12-12T11:07:59Z</time>
      </trkpt>
      <trkpt lat="46.84626" lon="6.25518">
        <ele>1062.4</ele>
        <time>2016-12-12T11:08:01Z</time>
      </trkpt>
      <trkpt lat="46.84629" lon="6.25521">
        <ele>1062.4</ele>
        <time>2016-12-12T11:08:03Z</time>
      </trkpt>
      <trkpt lat="46.84632" lon="6.25525">
        <ele>1062.4</ele>
        <time>2016-12-12T11:08:05Z</time>
      </trkpt>
      <trkpt lat="46.84634" lon="6.25528">
        <ele>1062.4</ele>
        <time>2016-12-12T11:08:06Z</time>
      </trkpt>
      <trkpt lat="46.84635" lon="6.25532">
        <ele>1062.5</ele>
        <time>2016-12-12T11:08:07Z</time>
      </trkpt>
      <trkpt lat="46.84637" lon="6.25536">
        <ele>1062.5</ele>
        <time>2016-12-12T11:08:09Z</time>
      </trkpt>
      <trkpt lat="46.84636" lon="6.2554">
        <ele>1062.6</ele>
        <time>2016-12-12T11:08:12Z</time>
      </trkpt>
      <trkpt lat="46.84636" lon="6.25545">
        <ele>1062.5</ele>
        <time>2016-12-12T11:08:13Z</time>
      </trkpt>
      <trkpt lat="46.8464" lon="6.25552">
        <ele>1062</ele>
        <time>2016-12-12T11:08:16Z</time>
      </trkpt>
      <trkpt lat="46.84641" lon="6.25557">
        <ele>1061.7</ele>
        <time>2016-12-12T11:08:17Z</time>
      </trkpt>
      <trkpt lat="46.8464" lon="6.25563">
        <ele>1061.5</ele>
        <time>2016-12-12T11:08:19Z</time>
      </trkpt>
      <trkpt lat="46.84639" lon="6.2557">
        <ele>1061.2</ele>
        <time>2016-12-12T11:08:21Z</time>
      </trkpt>
      <trkpt lat="46.84639" lon="6.25575">
        <ele>1061</ele>
        <time>2016-12-12T11:08:23Z</time>
      </trkpt>
      <trkpt lat="46.84636" lon="6.25579">
        <ele>1060.9</ele>
        <time>2016-12-12T11:08:25Z</time>
      </trkpt>
      <trkpt lat="46.84635" lon="6.25586">
        <ele>1060.6</ele>
        <time>2016-12-12T11:08:27Z</time>
      </trkpt>
      <trkpt lat="46.84633" lon="6.25592">
        <ele>1060.4</ele>
        <time>2016-12-12T11:08:29Z</time>
      </trkpt>
      <trkpt lat="46.84631" lon="6.25596">
        <ele>1060.2</ele>
        <time>2016-12-12T11:08:31Z</time>
      </trkpt>
      <trkpt lat="46.84629" lon="6.25599">
        <ele>1060.1</ele>
        <time>2016-12-12T11:08:33Z</time>
      </trkpt>
      <trkpt lat="46.84627" lon="6.25603">
        <ele>1060</ele>
        <time>2016-12-12T11:08:35Z</time>
      </trkpt>
      <trkpt lat="46.84626" lon="6.25608">
        <ele>1059.8</ele>
        <time>2016-12-12T11:08:39Z</time>
      </trkpt>
      <trkpt lat="46.84624" lon="6.25613">
        <ele>1059.5</ele>
        <time>2016-12-12T11:08:42Z</time>
      </trkpt>
      <trkpt lat="46.84621" lon="6.25617">
        <ele>1059.1</ele>
        <time>2016-12-12T11:08:43Z</time>
      </trkpt>
      <trkpt lat="46.84618" lon="6.25621">
        <ele>1058.7</ele>
        <time>2016-12-12T11:08:44Z</time>
      </trkpt>
      <trkpt lat="46.84616" lon="6.25625">
        <ele>1058.3</ele>
        <time>2016-12-12T11:08:45Z</time>
      </trkpt>
      <trkpt lat="46.84614" lon="6.25629">
        <ele>1057.9</ele>
        <time>2016-12-12T11:08:47Z</time>
      </trkpt>
      <trkpt lat="46.84612" lon="6.25635">
        <ele>1057.4</ele>
        <time>2016-12-12T11:08:49Z</time>
      </trkpt>
      <trkpt lat="46.8461" lon="6.25639">
        <ele>1056.9</ele>
        <time>2016-12-12T11:08:51Z</time>
      </trkpt>
      <trkpt lat="46.8461" lon="6.25644">
        <ele>1056.6</ele>
        <time>2016-12-12T11:08:53Z</time>
      </trkpt>
      <trkpt lat="46.84609" lon="6.25649">
        <ele>1056.3</ele>
        <time>2016-12-12T11:08:55Z</time>
      </trkpt>
      <trkpt lat="46.84609" lon="6.25655">
        <ele>1055.8</ele>
        <time>2016-12-12T11:08:57Z</time>
      </trkpt>
      <trkpt lat="46.8461" lon="6.2566">
        <ele>1055.6</ele>
        <time>2016-12-12T11:08:59Z</time>
      </trkpt>
      <trkpt lat="46.84609" lon="6.25665">
        <ele>1055.2</ele>
        <time>2016-12-12T11:09:02Z</time>
      </trkpt>
      <trkpt lat="46.84611" lon="6.25669">
        <ele>1055</ele>
        <time>2016-12-12T11:09:03Z</time>
      </trkpt>
      <trkpt lat="46.84611" lon="6.25675">
        <ele>1054.6</ele>
        <time>2016-12-12T11:09:05Z</time>
      </trkpt>
      <trkpt lat="46.84612" lon="6.25682">
        <ele>1054.2</ele>
        <time>2016-12-12T11:09:07Z</time>
      </trkpt>
      <trkpt lat="46.84615" lon="6.25688">
        <ele>1053.9</ele>
        <time>2016-12-12T11:09:09Z</time>
      </trkpt>
      <trkpt lat="46.84617" lon="6.25694">
        <ele>1053.6</ele>
        <time>2016-12-12T11:09:11Z</time>
      </trkpt>
      <trkpt lat="46.84619" lon="6.25699">
        <ele>1053.4</ele>
        <time>2016-12-12T11:09:13Z</time>
      </trkpt>
      <trkpt lat="46.84622" lon="6.25703">
        <ele>1053.2</ele>
        <time>2016-12-12T11:09:16Z</time>
      </trkpt>
      <trkpt lat="46.84625" lon="6.25704">
        <ele>1053.3</ele>
        <time>2016-12-12T11:09:19Z</time>
      </trkpt>
      <trkpt lat="46.84627" lon="6.25707">
        <ele>1053.1</ele>
        <time>2016-12-12T11:09:21Z</time>
      </trkpt>
      <trkpt lat="46.84631" lon="6.25709">
        <ele>1052.9</ele>
        <time>2016-12-12T11:09:23Z</time>
      </trkpt>
      <trkpt lat="46.84635" lon="6.25712">
        <ele>1052.5</ele>
        <time>2016-12-12T11:09:27Z</time>
      </trkpt>
      <trkpt lat="46.84639" lon="6.25716">
        <ele>1052.2</ele>
        <time>2016-12-12T11:09:28Z</time>
      </trkpt>
      <trkpt lat="46.84643" lon="6.25718">
        <ele>1051.9</ele>
        <time>2016-12-12T11:09:30Z</time>
      </trkpt>
      <trkpt lat="46.84646" lon="6.2572">
        <ele>1051.7</ele>
        <time>2016-12-12T11:09:32Z</time>
      </trkpt>
      <trkpt lat="46.84651" lon="6.25726">
        <ele>1051.1</ele>
        <time>2016-12-12T11:09:34Z</time>
      </trkpt>
      <trkpt lat="46.84653" lon="6.25729">
        <ele>1050.8</ele>
        <time>2016-12-12T11:09:35Z</time>
      </trkpt>
      <trkpt lat="46.84657" lon="6.25733">
        <ele>1050.4</ele>
        <time>2016-12-12T11:09:37Z</time>
      </trkpt>
      <trkpt lat="46.84659" lon="6.25737">
        <ele>1049.9</ele>
        <time>2016-12-12T11:09:39Z</time>
      </trkpt>
      <trkpt lat="46.84661" lon="6.25741">
        <ele>1049.5</ele>
        <time>2016-12-12T11:09:41Z</time>
      </trkpt>
      <trkpt lat="46.84664" lon="6.25745">
        <ele>1049.1</ele>
        <time>2016-12-12T11:09:44Z</time>
      </trkpt>
      <trkpt lat="46.84665" lon="6.2575">
        <ele>1048.5</ele>
        <time>2016-12-12T11:09:46Z</time>
      </trkpt>
      <trkpt lat="46.84665" lon="6.25755">
        <ele>1048.1</ele>
        <time>2016-12-12T11:09:49Z</time>
      </trkpt>
      <trkpt lat="46.84664" lon="6.25759">
        <ele>1047.7</ele>
        <time>2016-12-12T11:09:50Z</time>
      </trkpt>
      <trkpt lat="46.84667" lon="6.25764">
        <ele>1047.2</ele>
        <time>2016-12-12T11:09:53Z</time>
      </trkpt>
      <trkpt lat="46.84666" lon="6.25769">
        <ele>1046.7</ele>
        <time>2016-12-12T11:09:55Z</time>
      </trkpt>
      <trkpt lat="46.84667" lon="6.25774">
        <ele>1046.2</ele>
        <time>2016-12-12T11:09:57Z</time>
      </trkpt>
      <trkpt lat="46.84671" lon="6.25779">
        <ele>1045.6</ele>
        <time>2016-12-12T11:09:58Z</time>
      </trkpt>
      <trkpt lat="46.84675" lon="6.25783">
        <ele>1045.1</ele>
        <time>2016-12-12T11:09:59Z</time>
      </trkpt>
      <trkpt lat="46.84678" lon="6.25786">
        <ele>1044.6</ele>
        <time>2016-12-12T11:10:01Z</time>
      </trkpt>
      <trkpt lat="46.84682" lon="6.2579">
        <ele>1044.1</ele>
        <time>2016-12-12T11:10:03Z</time>
      </trkpt>
      <trkpt lat="46.84687" lon="6.25791">
        <ele>1043.9</ele>
        <time>2016-12-12T11:10:05Z</time>
      </trkpt>
      <trkpt lat="46.84691" lon="6.25791">
        <ele>1043.7</ele>
        <time>2016-12-12T11:10:07Z</time>
      </trkpt>
      <trkpt lat="46.84695" lon="6.2579">
        <ele>1043.7</ele>
        <time>2016-12-12T11:10:09Z</time>
      </trkpt>
      <trkpt lat="46.84698" lon="6.25789">
        <ele>1043.7</ele>
        <time>2016-12-12T11:10:11Z</time>
      </trkpt>
      <trkpt lat="46.84701" lon="6.25788">
        <ele>1043.7</ele>
        <time>2016-12-12T11:10:18Z</time>
      </trkpt>
      <trkpt lat="46.84705" lon="6.25786">
        <ele>1043.8</ele>
        <time>2016-12-12T11:10:22Z</time>
      </trkpt>
      <trkpt lat="46.84709" lon="6.25784">
        <ele>1043.8</ele>
        <time>2016-12-12T11:10:23Z</time>
      </trkpt>
      <trkpt lat="46.84714" lon="6.25781">
        <ele>1043.8</ele>
        <time>2016-12-12T11:10:25Z</time>
      </trkpt>
      <trkpt lat="46.84717" lon="6.2578">
        <ele>1043.8</ele>
        <time>2016-12-12T11:10:26Z</time>
      </trkpt>
      <trkpt lat="46.84721" lon="6.25778">
        <ele>1043.8</ele>
        <time>2016-12-12T11:10:28Z</time>
      </trkpt>
      <trkpt lat="46.84725" lon="6.25776">
        <ele>1043.8</ele>
        <time>2016-12-12T11:10:30Z</time>
      </trkpt>
      <trkpt lat="46.84728" lon="6.25775">
        <ele>1043.8</ele>
        <time>2016-12-12T11:10:32Z</time>
      </trkpt>
      <trkpt lat="46.84732" lon="6.25775">
        <ele>1043.6</ele>
        <time>2016-12-12T11:10:33Z</time>
      </trkpt>
      <trkpt lat="46.84736" lon="6.25774">
        <ele>1043.5</ele>
        <time>2016-12-12T11:10:35Z</time>
      </trkpt>
      <trkpt lat="46.84738" lon="6.25777">
        <ele>1043</ele>
        <time>2016-12-12T11:10:37Z</time>
      </trkpt>
      <trkpt lat="46.84742" lon="6.25775">
        <ele>1043</ele>
        <time>2016-12-12T11:10:40Z</time>
      </trkpt>
      <trkpt lat="46.84747" lon="6.25775">
        <ele>1042.8</ele>
        <time>2016-12-12T11:10:42Z</time>
      </trkpt>
      <trkpt lat="46.8475" lon="6.25775">
        <ele>1042.6</ele>
        <time>2016-12-12T11:10:43Z</time>
      </trkpt>
      <trkpt lat="46.84753" lon="6.25774">
        <ele>1042.6</ele>
        <time>2016-12-12T11:10:44Z</time>
      </trkpt>
      <trkpt lat="46.84758" lon="6.25771">
        <ele>1042.8</ele>
        <time>2016-12-12T11:10:46Z</time>
      </trkpt>
      <trkpt lat="46.84761" lon="6.2577">
        <ele>1042.7</ele>
        <time>2016-12-12T11:10:48Z</time>
      </trkpt>
      <trkpt lat="46.84764" lon="6.25768">
        <ele>1042.8</ele>
        <time>2016-12-12T11:10:50Z</time>
      </trkpt>
      <trkpt lat="46.84767" lon="6.25766">
        <ele>1042.9</ele>
        <time>2016-12-12T11:10:52Z</time>
      </trkpt>
      <trkpt lat="46.84771" lon="6.25763">
        <ele>1043.1</ele>
        <time>2016-12-12T11:10:54Z</time>
      </trkpt>
      <trkpt lat="46.84774" lon="6.25759">
        <ele>1043.6</ele>
        <time>2016-12-12T11:10:55Z</time>
      </trkpt>
      <trkpt lat="46.84778" lon="6.25754">
        <ele>1044.1</ele>
        <time>2016-12-12T11:10:57Z</time>
      </trkpt>
      <trkpt lat="46.8478" lon="6.25751">
        <ele>1044.4</ele>
        <time>2016-12-12T11:10:58Z</time>
      </trkpt>
      <trkpt lat="46.84782" lon="6.25746">
        <ele>1044.9</ele>
        <time>2016-12-12T11:11:00Z</time>
      </trkpt>
      <trkpt lat="46.84784" lon="6.25742">
        <ele>1045.5</ele>
        <time>2016-12-12T11:11:02Z</time>
      </trkpt>
      <trkpt lat="46.84786" lon="6.25738">
        <ele>1045.9</ele>
        <time>2016-12-12T11:11:04Z</time>
      </trkpt>
      <trkpt lat="46.84789" lon="6.25733">
        <ele>1046.5</ele>
        <time>2016-12-12T11:11:06Z</time>
      </trkpt>
      <trkpt lat="46.84791" lon="6.2573">
        <ele>1047</ele>
        <time>2016-12-12T11:11:08Z</time>
      </trkpt>
      <trkpt lat="46.84794" lon="6.25727">
        <ele>1047.2</ele>
        <time>2016-12-12T11:11:13Z</time>
      </trkpt>
      <trkpt lat="46.84798" lon="6.2573">
        <ele>1046.6</ele>
        <time>2016-12-12T11:11:17Z</time>
      </trkpt>
      <trkpt lat="46.84795" lon="6.25729">
        <ele>1046.8</ele>
        <time>2016-12-12T11:11:32Z</time>
      </trkpt>
      <trkpt lat="46.84793" lon="6.25725">
        <ele>1047.5</ele>
        <time>2016-12-12T11:11:34Z</time>
      </trkpt>
      <trkpt lat="46.84797" lon="6.25725">
        <ele>1047.4</ele>
        <time>2016-12-12T11:11:43Z</time>
      </trkpt>
      <trkpt lat="46.84801" lon="6.25723">
        <ele>1047.4</ele>
        <time>2016-12-12T11:11:46Z</time>
      </trkpt>
      <trkpt lat="46.84806" lon="6.25721">
        <ele>1047.5</ele>
        <time>2016-12-12T11:11:48Z</time>
      </trkpt>
      <trkpt lat="46.84808" lon="6.25719">
        <ele>1047.7</ele>
        <time>2016-12-12T11:11:49Z</time>
      </trkpt>
      <trkpt lat="46.84811" lon="6.25717">
        <ele>1047.9</ele>
        <time>2016-12-12T11:11:51Z</time>
      </trkpt>
      <trkpt lat="46.84814" lon="6.25716">
        <ele>1047.9</ele>
        <time>2016-12-12T11:11:53Z</time>
      </trkpt>
      <trkpt lat="46.84819" lon="6.25714">
        <ele>1047.9</ele>
        <time>2016-12-12T11:11:55Z</time>
      </trkpt>
      <trkpt lat="46.84823" lon="6.25713">
        <ele>1047.8</ele>
        <time>2016-12-12T11:11:57Z</time>
      </trkpt>
      <trkpt lat="46.84827" lon="6.25712">
        <ele>1047.8</ele>
        <time>2016-12-12T11:11:59Z</time>
      </trkpt>
      <trkpt lat="46.84833" lon="6.25711">
        <ele>1047.7</ele>
        <time>2016-12-12T11:12:01Z</time>
      </trkpt>
      <trkpt lat="46.84837" lon="6.25711">
        <ele>1047.4</ele>
        <time>2016-12-12T11:12:02Z</time>
      </trkpt>
      <trkpt lat="46.84841" lon="6.25714">
        <ele>1046.9</ele>
        <time>2016-12-12T11:12:03Z</time>
      </trkpt>
      <trkpt lat="46.84845" lon="6.25716">
        <ele>1046.4</ele>
        <time>2016-12-12T11:12:05Z</time>
      </trkpt>
      <trkpt lat="46.84847" lon="6.25718">
        <ele>1046.1</ele>
        <time>2016-12-12T11:12:06Z</time>
      </trkpt>
      <trkpt lat="46.84852" lon="6.25719">
        <ele>1045.7</ele>
        <time>2016-12-12T11:12:08Z</time>
      </trkpt>
      <trkpt lat="46.84854" lon="6.25721">
        <ele>1045.3</ele>
        <time>2016-12-12T11:12:09Z</time>
      </trkpt>
      <trkpt lat="46.84858" lon="6.25724">
        <ele>1044.7</ele>
        <time>2016-12-12T11:12:11Z</time>
      </trkpt>
      <trkpt lat="46.84862" lon="6.25727">
        <ele>1044.1</ele>
        <time>2016-12-12T11:12:13Z</time>
      </trkpt>
      <trkpt lat="46.84865" lon="6.2573">
        <ele>1043.5</ele>
        <time>2016-12-12T11:12:15Z</time>
      </trkpt>
      <trkpt lat="46.84869" lon="6.25737">
        <ele>1042.5</ele>
        <time>2016-12-12T11:12:17Z</time>
      </trkpt>
      <trkpt lat="46.84871" lon="6.25741">
        <ele>1041.9</ele>
        <time>2016-12-12T11:12:19Z</time>
      </trkpt>
      <trkpt lat="46.84872" lon="6.25744">
        <ele>1041.4</ele>
        <time>2016-12-12T11:12:21Z</time>
      </trkpt>
      <trkpt lat="46.84876" lon="6.2575">
        <ele>1040.4</ele>
        <time>2016-12-12T11:12:23Z</time>
      </trkpt>
      <trkpt lat="46.84877" lon="6.25753">
        <ele>1040</ele>
        <time>2016-12-12T11:12:24Z</time>
      </trkpt>
      <trkpt lat="46.8488" lon="6.2576">
        <ele>1039.1</ele>
        <time>2016-12-12T11:12:26Z</time>
      </trkpt>
      <trkpt lat="46.84882" lon="6.25765">
        <ele>1038.4</ele>
        <time>2016-12-12T11:12:28Z</time>
      </trkpt>
      <trkpt lat="46.84885" lon="6.2577">
        <ele>1037.7</ele>
        <time>2016-12-12T11:12:30Z</time>
      </trkpt>
      <trkpt lat="46.84886" lon="6.25775">
        <ele>1037</ele>
        <time>2016-12-12T11:12:32Z</time>
      </trkpt>
      <trkpt lat="46.84886" lon="6.25782">
        <ele>1036.3</ele>
        <time>2016-12-12T11:12:34Z</time>
      </trkpt>
      <trkpt lat="46.84885" lon="6.25785">
        <ele>1035.8</ele>
        <time>2016-12-12T11:12:35Z</time>
      </trkpt>
      <trkpt lat="46.84883" lon="6.25792">
        <ele>1035</ele>
        <time>2016-12-12T11:12:37Z</time>
      </trkpt>
      <trkpt lat="46.84883" lon="6.25798">
        <ele>1034.7</ele>
        <time>2016-12-12T11:12:39Z</time>
      </trkpt>
      <trkpt lat="46.84882" lon="6.25804">
        <ele>1034.4</ele>
        <time>2016-12-12T11:12:41Z</time>
      </trkpt>
      <trkpt lat="46.84881" lon="6.25809">
        <ele>1034.1</ele>
        <time>2016-12-12T11:12:43Z</time>
      </trkpt>
      <trkpt lat="46.84879" lon="6.25815">
        <ele>1033.9</ele>
        <time>2016-12-12T11:12:46Z</time>
      </trkpt>
      <trkpt lat="46.84877" lon="6.25821">
        <ele>1033.6</ele>
        <time>2016-12-12T11:12:48Z</time>
      </trkpt>
      <trkpt lat="46.84878" lon="6.25826">
        <ele>1033.3</ele>
        <time>2016-12-12T11:12:50Z</time>
      </trkpt>
      <trkpt lat="46.84879" lon="6.2583">
        <ele>1033.1</ele>
        <time>2016-12-12T11:12:52Z</time>
      </trkpt>
      <trkpt lat="46.84879" lon="6.25835">
        <ele>1032.9</ele>
        <time>2016-12-12T11:12:54Z</time>
      </trkpt>
      <trkpt lat="46.84879" lon="6.25843">
        <ele>1032.5</ele>
        <time>2016-12-12T11:12:56Z</time>
      </trkpt>
      <trkpt lat="46.84878" lon="6.2585">
        <ele>1032.2</ele>
        <time>2016-12-12T11:12:58Z</time>
      </trkpt>
      <trkpt lat="46.84878" lon="6.25857">
        <ele>1031.8</ele>
        <time>2016-12-12T11:13:00Z</time>
      </trkpt>
      <trkpt lat="46.84878" lon="6.25864">
        <ele>1031.5</ele>
        <time>2016-12-12T11:13:02Z</time>
      </trkpt>
      <trkpt lat="46.84878" lon="6.25868">
        <ele>1031.3</ele>
        <time>2016-12-12T11:13:04Z</time>
      </trkpt>
      <trkpt lat="46.84878" lon="6.25872">
        <ele>1031.1</ele>
        <time>2016-12-12T11:13:05Z</time>
      </trkpt>
      <trkpt lat="46.84879" lon="6.25876">
        <ele>1030.8</ele>
        <time>2016-12-12T11:13:06Z</time>
      </trkpt>
      <trkpt lat="46.84881" lon="6.25879">
        <ele>1030.5</ele>
        <time>2016-12-12T11:13:07Z</time>
      </trkpt>
      <trkpt lat="46.84884" lon="6.25881">
        <ele>1030.3</ele>
        <time>2016-12-12T11:13:08Z</time>
      </trkpt>
      <trkpt lat="46.84887" lon="6.25884">
        <ele>1030</ele>
        <time>2016-12-12T11:13:10Z</time>
      </trkpt>
      <trkpt lat="46.84888" lon="6.2589">
        <ele>1029.5</ele>
        <time>2016-12-12T11:13:12Z</time>
      </trkpt>
      <trkpt lat="46.84891" lon="6.25895">
        <ele>1029</ele>
        <time>2016-12-12T11:13:14Z</time>
      </trkpt>
      <trkpt lat="46.84893" lon="6.25898">
        <ele>1028.6</ele>
        <time>2016-12-12T11:13:16Z</time>
      </trkpt>
      <trkpt lat="46.84896" lon="6.25903">
        <ele>1028.2</ele>
        <time>2016-12-12T11:13:18Z</time>
      </trkpt>
      <trkpt lat="46.849" lon="6.25905">
        <ele>1027.8</ele>
        <time>2016-12-12T11:13:22Z</time>
      </trkpt>
      <trkpt lat="46.84904" lon="6.25909">
        <ele>1027.3</ele>
        <time>2016-12-12T11:13:24Z</time>
      </trkpt>
      <trkpt lat="46.84907" lon="6.25911">
        <ele>1027</ele>
        <time>2016-12-12T11:13:25Z</time>
      </trkpt>
      <trkpt lat="46.84909" lon="6.25915">
        <ele>1026.5</ele>
        <time>2016-12-12T11:13:26Z</time>
      </trkpt>
      <trkpt lat="46.84913" lon="6.25916">
        <ele>1026.2</ele>
        <time>2016-12-12T11:13:28Z</time>
      </trkpt>
      <trkpt lat="46.84917" lon="6.25915">
        <ele>1026.2</ele>
        <time>2016-12-12T11:13:30Z</time>
      </trkpt>
      <trkpt lat="46.84921" lon="6.25916">
        <ele>1025.9</ele>
        <time>2016-12-12T11:13:32Z</time>
      </trkpt>
      <trkpt lat="46.84924" lon="6.25916">
        <ele>1025.7</ele>
        <time>2016-12-12T11:13:34Z</time>
      </trkpt>
      <trkpt lat="46.84927" lon="6.25918">
        <ele>1025.4</ele>
        <time>2016-12-12T11:13:37Z</time>
      </trkpt>
      <trkpt lat="46.8493" lon="6.25918">
        <ele>1025.2</ele>
        <time>2016-12-12T11:13:39Z</time>
      </trkpt>
      <trkpt lat="46.84933" lon="6.25918">
        <ele>1025.1</ele>
        <time>2016-12-12T11:13:41Z</time>
      </trkpt>
      <trkpt lat="46.84936" lon="6.25916">
        <ele>1025.2</ele>
        <time>2016-12-12T11:13:44Z</time>
      </trkpt>
      <trkpt lat="46.84938" lon="6.25914">
        <ele>1025.2</ele>
        <time>2016-12-12T11:13:47Z</time>
      </trkpt>
      <trkpt lat="46.84943" lon="6.25913">
        <ele>1025.1</ele>
        <time>2016-12-12T11:13:49Z</time>
      </trkpt>
      <trkpt lat="46.84946" lon="6.25912">
        <ele>1025.1</ele>
        <time>2016-12-12T11:13:51Z</time>
      </trkpt>
      <trkpt lat="46.8495" lon="6.25912">
        <ele>1024.9</ele>
        <time>2016-12-12T11:13:53Z</time>
      </trkpt>
      <trkpt lat="46.84954" lon="6.25913">
        <ele>1024.6</ele>
        <time>2016-12-12T11:13:55Z</time>
      </trkpt>
      <trkpt lat="46.84958" lon="6.25912">
        <ele>1024.5</ele>
        <time>2016-12-12T11:13:57Z</time>
      </trkpt>
      <trkpt lat="46.84961" lon="6.25912">
        <ele>1024.4</ele>
        <time>2016-12-12T11:13:59Z</time>
      </trkpt>
      <trkpt lat="46.84965" lon="6.25914">
        <ele>1023.9</ele>
        <time>2016-12-12T11:14:01Z</time>
      </trkpt>
      <trkpt lat="46.84969" lon="6.25914">
        <ele>1023.6</ele>
        <time>2016-12-12T11:14:04Z</time>
      </trkpt>
      <trkpt lat="46.84972" lon="6.25915">
        <ele>1023.3</ele>
        <time>2016-12-12T11:14:07Z</time>
      </trkpt>
      <trkpt lat="46.84976" lon="6.25917">
        <ele>1022.7</ele>
        <time>2016-12-12T11:14:09Z</time>
      </trkpt>
      <trkpt lat="46.84978" lon="6.25919">
        <ele>1022.3</ele>
        <time>2016-12-12T11:14:10Z</time>
      </trkpt>
      <trkpt lat="46.84981" lon="6.25921">
        <ele>1021.8</ele>
        <time>2016-12-12T11:14:11Z</time>
      </trkpt>
      <trkpt lat="46.84983" lon="6.25923">
        <ele>1021.3</ele>
        <time>2016-12-12T11:14:12Z</time>
      </trkpt>
      <trkpt lat="46.84987" lon="6.25927">
        <ele>1020.4</ele>
        <time>2016-12-12T11:14:14Z</time>
      </trkpt>
      <trkpt lat="46.84991" lon="6.25932">
        <ele>1019.3</ele>
        <time>2016-12-12T11:14:16Z</time>
      </trkpt>
      <trkpt lat="46.84993" lon="6.25935">
        <ele>1018.6</ele>
        <time>2016-12-12T11:14:18Z</time>
      </trkpt>
      <trkpt lat="46.84996" lon="6.25938">
        <ele>1017.9</ele>
        <time>2016-12-12T11:14:20Z</time>
      </trkpt>
      <trkpt lat="46.84999" lon="6.2594">
        <ele>1017.2</ele>
        <time>2016-12-12T11:14:22Z</time>
      </trkpt>
      <trkpt lat="46.85002" lon="6.2594">
        <ele>1016.9</ele>
        <time>2016-12-12T11:14:23Z</time>
      </trkpt>
      <trkpt lat="46.85007" lon="6.25942">
        <ele>1016</ele>
        <time>2016-12-12T11:14:25Z</time>
      </trkpt>
      <trkpt lat="46.85009" lon="6.25945">
        <ele>1015.3</ele>
        <time>2016-12-12T11:14:26Z</time>
      </trkpt>
      <trkpt lat="46.85012" lon="6.25949">
        <ele>1014.4</ele>
        <time>2016-12-12T11:14:28Z</time>
      </trkpt>
      <trkpt lat="46.85014" lon="6.25951">
        <ele>1013.7</ele>
        <time>2016-12-12T11:14:30Z</time>
      </trkpt>
      <trkpt lat="46.85017" lon="6.25953">
        <ele>1013</ele>
        <time>2016-12-12T11:14:33Z</time>
      </trkpt>
      <trkpt lat="46.85019" lon="6.25956">
        <ele>1012.1</ele>
        <time>2016-12-12T11:14:35Z</time>
      </trkpt>
      <trkpt lat="46.85022" lon="6.25959">
        <ele>1011.3</ele>
        <time>2016-12-12T11:14:37Z</time>
      </trkpt>
      <trkpt lat="46.85026" lon="6.25962">
        <ele>1010.5</ele>
        <time>2016-12-12T11:14:40Z</time>
      </trkpt>
      <trkpt lat="46.85034" lon="6.25961">
        <ele>1009.6</ele>
        <time>2016-12-12T11:14:42Z</time>
      </trkpt>
      <trkpt lat="46.85035" lon="6.25965">
        <ele>1009</ele>
        <time>2016-12-12T11:14:44Z</time>
      </trkpt>
      <trkpt lat="46.85037" lon="6.25969">
        <ele>1008.3</ele>
        <time>2016-12-12T11:14:47Z</time>
      </trkpt>
      <trkpt lat="46.8504" lon="6.25972">
        <ele>1007.5</ele>
        <time>2016-12-12T11:14:49Z</time>
      </trkpt>
      <trkpt lat="46.85044" lon="6.25978">
        <ele>1006.4</ele>
        <time>2016-12-12T11:14:51Z</time>
      </trkpt>
      <trkpt lat="46.85046" lon="6.25982">
        <ele>1005.6</ele>
        <time>2016-12-12T11:14:53Z</time>
      </trkpt>
      <trkpt lat="46.85047" lon="6.25987">
        <ele>1005</ele>
        <time>2016-12-12T11:14:55Z</time>
      </trkpt>
      <trkpt lat="46.85048" lon="6.25991">
        <ele>1004.5</ele>
        <time>2016-12-12T11:14:57Z</time>
      </trkpt>
      <trkpt lat="46.8505" lon="6.25994">
        <ele>1003.9</ele>
        <time>2016-12-12T11:14:59Z</time>
      </trkpt>
      <trkpt lat="46.85052" lon="6.25996">
        <ele>1003.4</ele>
        <time>2016-12-12T11:15:01Z</time>
      </trkpt>
      <trkpt lat="46.85056" lon="6.25998">
        <ele>1002.8</ele>
        <time>2016-12-12T11:15:03Z</time>
      </trkpt>
      <trkpt lat="46.8506" lon="6.26001">
        <ele>1002.1</ele>
        <time>2016-12-12T11:15:05Z</time>
      </trkpt>
      <trkpt lat="46.85064" lon="6.26003">
        <ele>1001.6</ele>
        <time>2016-12-12T11:15:07Z</time>
      </trkpt>
      <trkpt lat="46.85068" lon="6.26006">
        <ele>1000.9</ele>
        <time>2016-12-12T11:15:09Z</time>
      </trkpt>
      <trkpt lat="46.85071" lon="6.26009">
        <ele>1000.3</ele>
        <time>2016-12-12T11:15:11Z</time>
      </trkpt>
      <trkpt lat="46.85075" lon="6.26011">
        <ele>999.7</ele>
        <time>2016-12-12T11:15:13Z</time>
      </trkpt>
      <trkpt lat="46.85078" lon="6.26014">
        <ele>999.1</ele>
        <time>2016-12-12T11:15:15Z</time>
      </trkpt>
      <trkpt lat="46.85082" lon="6.26017">
        <ele>998.6</ele>
        <time>2016-12-12T11:15:17Z</time>
      </trkpt>
      <trkpt lat="46.85085" lon="6.26018">
        <ele>998.1</ele>
        <time>2016-12-12T11:15:19Z</time>
      </trkpt>
      <trkpt lat="46.85088" lon="6.26019">
        <ele>997.8</ele>
        <time>2016-12-12T11:15:21Z</time>
      </trkpt>
      <trkpt lat="46.85091" lon="6.2602">
        <ele>997.4</ele>
        <time>2016-12-12T11:15:24Z</time>
      </trkpt>
      <trkpt lat="46.85095" lon="6.2602">
        <ele>997.1</ele>
        <time>2016-12-12T11:15:27Z</time>
      </trkpt>
      <trkpt lat="46.85098" lon="6.26019">
        <ele>996.9</ele>
        <time>2016-12-12T11:15:29Z</time>
      </trkpt>
      <trkpt lat="46.85101" lon="6.26018">
        <ele>996.7</ele>
        <time>2016-12-12T11:15:31Z</time>
      </trkpt>
      <trkpt lat="46.85105" lon="6.26018">
        <ele>996.5</ele>
        <time>2016-12-12T11:15:33Z</time>
      </trkpt>
      <trkpt lat="46.8511" lon="6.26017">
        <ele>996.1</ele>
        <time>2016-12-12T11:15:35Z</time>
      </trkpt>
      <trkpt lat="46.85114" lon="6.26016">
        <ele>995.8</ele>
        <time>2016-12-12T11:15:37Z</time>
      </trkpt>
      <trkpt lat="46.85117" lon="6.26015">
        <ele>995.6</ele>
        <time>2016-12-12T11:15:40Z</time>
      </trkpt>
      <trkpt lat="46.85121" lon="6.26013">
        <ele>995.5</ele>
        <time>2016-12-12T11:15:42Z</time>
      </trkpt>
      <trkpt lat="46.85123" lon="6.26011">
        <ele>995.4</ele>
        <time>2016-12-12T11:15:44Z</time>
      </trkpt>
      <trkpt lat="46.85128" lon="6.26011">
        <ele>995</ele>
        <time>2016-12-12T11:15:47Z</time>
      </trkpt>
      <trkpt lat="46.85132" lon="6.26008">
        <ele>995</ele>
        <time>2016-12-12T11:15:49Z</time>
      </trkpt>
      <trkpt lat="46.85134" lon="6.26003">
        <ele>995.2</ele>
        <time>2016-12-12T11:15:51Z</time>
      </trkpt>
      <trkpt lat="46.85137" lon="6.26001">
        <ele>995.3</ele>
        <time>2016-12-12T11:15:54Z</time>
      </trkpt>
      <trkpt lat="46.85143" lon="6.26">
        <ele>995</ele>
        <time>2016-12-12T11:15:56Z</time>
      </trkpt>
      <trkpt lat="46.85147" lon="6.26">
        <ele>994.6</ele>
        <time>2016-12-12T11:15:58Z</time>
      </trkpt>
      <trkpt lat="46.85151" lon="6.26001">
        <ele>994.4</ele>
        <time>2016-12-12T11:16:00Z</time>
      </trkpt>
      <trkpt lat="46.85155" lon="6.26001">
        <ele>994.1</ele>
        <time>2016-12-12T11:16:02Z</time>
      </trkpt>
      <trkpt lat="46.85159" lon="6.26001">
        <ele>993.9</ele>
        <time>2016-12-12T11:16:05Z</time>
      </trkpt>
      <trkpt lat="46.85162" lon="6.26003">
        <ele>993.6</ele>
        <time>2016-12-12T11:16:08Z</time>
      </trkpt>
      <trkpt lat="46.85165" lon="6.26003">
        <ele>993.3</ele>
        <time>2016-12-12T11:16:11Z</time>
      </trkpt>
      <trkpt lat="46.8517" lon="6.26005">
        <ele>992.9</ele>
        <time>2016-12-12T11:16:13Z</time>
      </trkpt>
      <trkpt lat="46.85175" lon="6.26006">
        <ele>992.5</ele>
        <time>2016-12-12T11:16:15Z</time>
      </trkpt>
      <trkpt lat="46.85179" lon="6.26006">
        <ele>992.3</ele>
        <time>2016-12-12T11:16:17Z</time>
      </trkpt>
      <trkpt lat="46.85184" lon="6.26007">
        <ele>991.9</ele>
        <time>2016-12-12T11:16:19Z</time>
      </trkpt>
      <trkpt lat="46.85187" lon="6.26008">
        <ele>991.6</ele>
        <time>2016-12-12T11:16:21Z</time>
      </trkpt>
      <trkpt lat="46.8519" lon="6.26008">
        <ele>991.4</ele>
        <time>2016-12-12T11:16:23Z</time>
      </trkpt>
      <trkpt lat="46.85194" lon="6.26011">
        <ele>990.9</ele>
        <time>2016-12-12T11:16:25Z</time>
      </trkpt>
      <trkpt lat="46.85199" lon="6.26012">
        <ele>990.4</ele>
        <time>2016-12-12T11:16:27Z</time>
      </trkpt>
      <trkpt lat="46.85203" lon="6.26011">
        <ele>990.2</ele>
        <time>2016-12-12T11:16:29Z</time>
      </trkpt>
      <trkpt lat="46.85208" lon="6.26011">
        <ele>989.9</ele>
        <time>2016-12-12T11:16:31Z</time>
      </trkpt>
      <trkpt lat="46.85213" lon="6.26008">
        <ele>990</ele>
        <time>2016-12-12T11:16:33Z</time>
      </trkpt>
      <trkpt lat="46.85216" lon="6.26007">
        <ele>989.8</ele>
        <time>2016-12-12T11:16:34Z</time>
      </trkpt>
      <trkpt lat="46.8522" lon="6.26006">
        <ele>989.6</ele>
        <time>2016-12-12T11:16:36Z</time>
      </trkpt>
      <trkpt lat="46.85223" lon="6.26006">
        <ele>989.5</ele>
        <time>2016-12-12T11:16:37Z</time>
      </trkpt>
      <trkpt lat="46.85226" lon="6.26004">
        <ele>989.4</ele>
        <time>2016-12-12T11:16:39Z</time>
      </trkpt>
      <trkpt lat="46.8523" lon="6.26">
        <ele>989.5</ele>
        <time>2016-12-12T11:16:43Z</time>
      </trkpt>
      <trkpt lat="46.85233" lon="6.25997">
        <ele>989.7</ele>
        <time>2016-12-12T11:16:45Z</time>
      </trkpt>
      <trkpt lat="46.85236" lon="6.25993">
        <ele>989.8</ele>
        <time>2016-12-12T11:16:49Z</time>
      </trkpt>
      <trkpt lat="46.85239" lon="6.2599">
        <ele>989.9</ele>
        <time>2016-12-12T11:16:51Z</time>
      </trkpt>
      <trkpt lat="46.85242" lon="6.25989">
        <ele>989.8</ele>
        <time>2016-12-12T11:16:53Z</time>
      </trkpt>
      <trkpt lat="46.85247" lon="6.25987">
        <ele>989.6</ele>
        <time>2016-12-12T11:16:55Z</time>
      </trkpt>
      <trkpt lat="46.85252" lon="6.25987">
        <ele>989.3</ele>
        <time>2016-12-12T11:16:57Z</time>
      </trkpt>
      <trkpt lat="46.85257" lon="6.25988">
        <ele>988.9</ele>
        <time>2016-12-12T11:16:59Z</time>
      </trkpt>
      <trkpt lat="46.8526" lon="6.25988">
        <ele>988.6</ele>
        <time>2016-12-12T11:17:00Z</time>
      </trkpt>
      <trkpt lat="46.85264" lon="6.25989">
        <ele>988.3</ele>
        <time>2016-12-12T11:17:02Z</time>
      </trkpt>
      <trkpt lat="46.85268" lon="6.25989">
        <ele>988</ele>
        <time>2016-12-12T11:17:05Z</time>
      </trkpt>
      <trkpt lat="46.85273" lon="6.25989">
        <ele>987.7</ele>
        <time>2016-12-12T11:17:07Z</time>
      </trkpt>
      <trkpt lat="46.85277" lon="6.2599">
        <ele>987.4</ele>
        <time>2016-12-12T11:17:08Z</time>
      </trkpt>
      <trkpt lat="46.85279" lon="6.25991">
        <ele>987.1</ele>
        <time>2016-12-12T11:17:09Z</time>
      </trkpt>
      <trkpt lat="46.85283" lon="6.25992">
        <ele>986.8</ele>
        <time>2016-12-12T11:17:11Z</time>
      </trkpt>
      <trkpt lat="46.85287" lon="6.25993">
        <ele>986.4</ele>
        <time>2016-12-12T11:17:13Z</time>
      </trkpt>
      <trkpt lat="46.85292" lon="6.25994">
        <ele>986</ele>
        <time>2016-12-12T11:17:15Z</time>
      </trkpt>
      <trkpt lat="46.85296" lon="6.25995">
        <ele>985.6</ele>
        <time>2016-12-12T11:17:17Z</time>
      </trkpt>
      <trkpt lat="46.85299" lon="6.25997">
        <ele>985.3</ele>
        <time>2016-12-12T11:17:18Z</time>
      </trkpt>
      <trkpt lat="46.85303" lon="6.26">
        <ele>984.8</ele>
        <time>2016-12-12T11:17:20Z</time>
      </trkpt>
      <trkpt lat="46.85306" lon="6.26002">
        <ele>984.5</ele>
        <time>2016-12-12T11:17:22Z</time>
      </trkpt>
      <trkpt lat="46.8531" lon="6.26006">
        <ele>984</ele>
        <time>2016-12-12T11:17:24Z</time>
      </trkpt>
      <trkpt lat="46.85314" lon="6.26009">
        <ele>983.5</ele>
        <time>2016-12-12T11:17:26Z</time>
      </trkpt>
      <trkpt lat="46.85318" lon="6.26011">
        <ele>983.1</ele>
        <time>2016-12-12T11:17:28Z</time>
      </trkpt>
      <trkpt lat="46.85322" lon="6.26012">
        <ele>982.9</ele>
        <time>2016-12-12T11:17:30Z</time>
      </trkpt>
      <trkpt lat="46.85327" lon="6.26013">
        <ele>982.6</ele>
        <time>2016-12-12T11:17:32Z</time>
      </trkpt>
      <trkpt lat="46.85331" lon="6.26015">
        <ele>982.3</ele>
        <time>2016-12-12T11:17:34Z</time>
      </trkpt>
      <trkpt lat="46.85335" lon="6.26014">
        <ele>982.1</ele>
        <time>2016-12-12T11:17:36Z</time>
      </trkpt>
      <trkpt lat="46.85338" lon="6.26014">
        <ele>981.9</ele>
        <time>2016-12-12T11:17:39Z</time>
      </trkpt>
      <trkpt lat="46.85342" lon="6.26018">
        <ele>981.5</ele>
        <time>2016-12-12T11:17:41Z</time>
      </trkpt>
      <trkpt lat="46.85344" lon="6.2602">
        <ele>981.3</ele>
        <time>2016-12-12T11:17:42Z</time>
      </trkpt>
      <trkpt lat="46.85349" lon="6.26023">
        <ele>980.9</ele>
        <time>2016-12-12T11:17:44Z</time>
      </trkpt>
      <trkpt lat="46.85352" lon="6.26025">
        <ele>980.6</ele>
        <time>2016-12-12T11:17:46Z</time>
      </trkpt>
      <trkpt lat="46.85355" lon="6.26024">
        <ele>980.5</ele>
        <time>2016-12-12T11:17:49Z</time>
      </trkpt>
      <trkpt lat="46.8536" lon="6.26026">
        <ele>980.2</ele>
        <time>2016-12-12T11:17:51Z</time>
      </trkpt>
      <trkpt lat="46.85365" lon="6.26026">
        <ele>980</ele>
        <time>2016-12-12T11:17:53Z</time>
      </trkpt>
      <trkpt lat="46.8537" lon="6.26027">
        <ele>979.7</ele>
        <time>2016-12-12T11:17:55Z</time>
      </trkpt>
      <trkpt lat="46.85374" lon="6.26027">
        <ele>979.6</ele>
        <time>2016-12-12T11:17:57Z</time>
      </trkpt>
      <trkpt lat="46.85379" lon="6.26025">
        <ele>979.4</ele>
        <time>2016-12-12T11:17:59Z</time>
      </trkpt>
      <trkpt lat="46.85385" lon="6.26026">
        <ele>979.1</ele>
        <time>2016-12-12T11:18:01Z</time>
      </trkpt>
      <trkpt lat="46.85389" lon="6.26026">
        <ele>978.9</ele>
        <time>2016-12-12T11:18:03Z</time>
      </trkpt>
      <trkpt lat="46.85393" lon="6.26025">
        <ele>978.8</ele>
        <time>2016-12-12T11:18:05Z</time>
      </trkpt>
      <trkpt lat="46.85395" lon="6.2602">
        <ele>978.8</ele>
        <time>2016-12-12T11:18:08Z</time>
      </trkpt>
      <trkpt lat="46.85398" lon="6.26021">
        <ele>978.6</ele>
        <time>2016-12-12T11:18:11Z</time>
      </trkpt>
      <trkpt lat="46.85401" lon="6.26018">
        <ele>978.5</ele>
        <time>2016-12-12T11:18:13Z</time>
      </trkpt>
      <trkpt lat="46.85406" lon="6.26018">
        <ele>978.2</ele>
        <time>2016-12-12T11:18:15Z</time>
      </trkpt>
      <trkpt lat="46.85408" lon="6.26014">
        <ele>978.2</ele>
        <time>2016-12-12T11:18:17Z</time>
      </trkpt>
      <trkpt lat="46.8541" lon="6.26012">
        <ele>978.1</ele>
        <time>2016-12-12T11:18:18Z</time>
      </trkpt>
      <trkpt lat="46.85415" lon="6.2601">
        <ele>977.8</ele>
        <time>2016-12-12T11:18:20Z</time>
      </trkpt>
      <trkpt lat="46.85419" lon="6.26011">
        <ele>977.5</ele>
        <time>2016-12-12T11:18:22Z</time>
      </trkpt>
      <trkpt lat="46.85423" lon="6.26008">
        <ele>977.3</ele>
        <time>2016-12-12T11:18:24Z</time>
      </trkpt>
      <trkpt lat="46.85426" lon="6.26006">
        <ele>977.1</ele>
        <time>2016-12-12T11:18:25Z</time>
      </trkpt>
      <trkpt lat="46.8543" lon="6.26003">
        <ele>976.9</ele>
        <time>2016-12-12T11:18:26Z</time>
      </trkpt>
      <trkpt lat="46.85433" lon="6.26">
        <ele>976.7</ele>
        <time>2016-12-12T11:18:27Z</time>
      </trkpt>
      <trkpt lat="46.85438" lon="6.25997">
        <ele>976.3</ele>
        <time>2016-12-12T11:18:29Z</time>
      </trkpt>
      <trkpt lat="46.85442" lon="6.25993">
        <ele>976</ele>
        <time>2016-12-12T11:18:31Z</time>
      </trkpt>
      <trkpt lat="46.85446" lon="6.25992">
        <ele>975.7</ele>
        <time>2016-12-12T11:18:34Z</time>
      </trkpt>
      <trkpt lat="46.85449" lon="6.25989">
        <ele>975.4</ele>
        <time>2016-12-12T11:18:36Z</time>
      </trkpt>
      <trkpt lat="46.85452" lon="6.25988">
        <ele>975.2</ele>
        <time>2016-12-12T11:18:38Z</time>
      </trkpt>
      <trkpt lat="46.85455" lon="6.25987">
        <ele>974.9</ele>
        <time>2016-12-12T11:18:41Z</time>
      </trkpt>
      <trkpt lat="46.8546" lon="6.25986">
        <ele>974.6</ele>
        <time>2016-12-12T11:18:43Z</time>
      </trkpt>
      <trkpt lat="46.85464" lon="6.25985">
        <ele>974.3</ele>
        <time>2016-12-12T11:18:45Z</time>
      </trkpt>
      <trkpt lat="46.85468" lon="6.25983">
        <ele>974</ele>
        <time>2016-12-12T11:18:47Z</time>
      </trkpt>
      <trkpt lat="46.85471" lon="6.25983">
        <ele>973.8</ele>
        <time>2016-12-12T11:18:49Z</time>
      </trkpt>
      <trkpt lat="46.85475" lon="6.25981">
        <ele>973.5</ele>
        <time>2016-12-12T11:18:51Z</time>
      </trkpt>
      <trkpt lat="46.8548" lon="6.2598">
        <ele>973.1</ele>
        <time>2016-12-12T11:18:53Z</time>
      </trkpt>
      <trkpt lat="46.85483" lon="6.25978">
        <ele>972.9</ele>
        <time>2016-12-12T11:18:55Z</time>
      </trkpt>
      <trkpt lat="46.85487" lon="6.25976">
        <ele>972.5</ele>
        <time>2016-12-12T11:18:57Z</time>
      </trkpt>
      <trkpt lat="46.8549" lon="6.25974">
        <ele>972.2</ele>
        <time>2016-12-12T11:18:59Z</time>
      </trkpt>
      <trkpt lat="46.85493" lon="6.25972">
        <ele>972</ele>
        <time>2016-12-12T11:19:01Z</time>
      </trkpt>
      <trkpt lat="46.85496" lon="6.2597">
        <ele>971.7</ele>
        <time>2016-12-12T11:19:03Z</time>
      </trkpt>
      <trkpt lat="46.85499" lon="6.25968">
        <ele>971.4</ele>
        <time>2016-12-12T11:19:05Z</time>
      </trkpt>
      <trkpt lat="46.85504" lon="6.25967">
        <ele>971.1</ele>
        <time>2016-12-12T11:19:08Z</time>
      </trkpt>
      <trkpt lat="46.85506" lon="6.25965">
        <ele>970.8</ele>
        <time>2016-12-12T11:19:10Z</time>
      </trkpt>
      <trkpt lat="46.8551" lon="6.25964">
        <ele>970.5</ele>
        <time>2016-12-12T11:19:13Z</time>
      </trkpt>
      <trkpt lat="46.85513" lon="6.25961">
        <ele>970.2</ele>
        <time>2016-12-12T11:19:15Z</time>
      </trkpt>
      <trkpt lat="46.85518" lon="6.2596">
        <ele>969.8</ele>
        <time>2016-12-12T11:19:17Z</time>
      </trkpt>
      <trkpt lat="46.85522" lon="6.25958">
        <ele>969.4</ele>
        <time>2016-12-12T11:19:18Z</time>
      </trkpt>
      <trkpt lat="46.85526" lon="6.25956">
        <ele>969.2</ele>
        <time>2016-12-12T11:19:20Z</time>
      </trkpt>
      <trkpt lat="46.8553" lon="6.25955">
        <ele>968.8</ele>
        <time>2016-12-12T11:19:22Z</time>
      </trkpt>
      <trkpt lat="46.85536" lon="6.25953">
        <ele>968.5</ele>
        <time>2016-12-12T11:19:24Z</time>
      </trkpt>
      <trkpt lat="46.85539" lon="6.25952">
        <ele>968.3</ele>
        <time>2016-12-12T11:19:26Z</time>
      </trkpt>
      <trkpt lat="46.85542" lon="6.2595">
        <ele>968.1</ele>
        <time>2016-12-12T11:19:29Z</time>
      </trkpt>
      <trkpt lat="46.85545" lon="6.25949">
        <ele>968.1</ele>
        <time>2016-12-12T11:19:31Z</time>
      </trkpt>
      <trkpt lat="46.85551" lon="6.25949">
        <ele>968.1</ele>
        <time>2016-12-12T11:19:33Z</time>
      </trkpt>
      <trkpt lat="46.85554" lon="6.25949">
        <ele>968</ele>
        <time>2016-12-12T11:19:34Z</time>
      </trkpt>
      <trkpt lat="46.85558" lon="6.2595">
        <ele>968</ele>
        <time>2016-12-12T11:19:35Z</time>
      </trkpt>
      <trkpt lat="46.8556" lon="6.25952">
        <ele>968</ele>
        <time>2016-12-12T11:19:38Z</time>
      </trkpt>
      <trkpt lat="46.85564" lon="6.25952">
        <ele>968</ele>
        <time>2016-12-12T11:19:39Z</time>
      </trkpt>
      <trkpt lat="46.85569" lon="6.25951">
        <ele>968</ele>
        <time>2016-12-12T11:19:40Z</time>
      </trkpt>
      <trkpt lat="46.85573" lon="6.2595">
        <ele>967.9</ele>
        <time>2016-12-12T11:19:42Z</time>
      </trkpt>
      <trkpt lat="46.85575" lon="6.25948">
        <ele>967.9</ele>
        <time>2016-12-12T11:19:46Z</time>
      </trkpt>
      <trkpt lat="46.85578" lon="6.25949">
        <ele>967.9</ele>
        <time>2016-12-12T11:19:48Z</time>
      </trkpt>
      <trkpt lat="46.85582" lon="6.25951">
        <ele>967.9</ele>
        <time>2016-12-12T11:19:49Z</time>
      </trkpt>
      <trkpt lat="46.85586" lon="6.2595">
        <ele>967.9</ele>
        <time>2016-12-12T11:19:51Z</time>
      </trkpt>
      <trkpt lat="46.8559" lon="6.2595">
        <ele>967.9</ele>
        <time>2016-12-12T11:19:52Z</time>
      </trkpt>
      <trkpt lat="46.85593" lon="6.2595">
        <ele>967.9</ele>
        <time>2016-12-12T11:19:53Z</time>
      </trkpt>
      <trkpt lat="46.85597" lon="6.25951">
        <ele>967.8</ele>
        <time>2016-12-12T11:19:55Z</time>
      </trkpt>
      <trkpt lat="46.856" lon="6.25951">
        <ele>967.8</ele>
        <time>2016-12-12T11:19:56Z</time>
      </trkpt>
      <trkpt lat="46.85604" lon="6.25953">
        <ele>967.9</ele>
        <time>2016-12-12T11:19:58Z</time>
      </trkpt>
      <trkpt lat="46.85606" lon="6.25954">
        <ele>967.9</ele>
        <time>2016-12-12T11:19:59Z</time>
      </trkpt>
      <trkpt lat="46.85611" lon="6.25955">
        <ele>967.9</ele>
        <time>2016-12-12T11:20:01Z</time>
      </trkpt>
      <trkpt lat="46.85615" lon="6.25958">
        <ele>968</ele>
        <time>2016-12-12T11:20:03Z</time>
      </trkpt>
      <trkpt lat="46.85618" lon="6.2596">
        <ele>967.9</ele>
        <time>2016-12-12T11:20:04Z</time>
      </trkpt>
      <trkpt lat="46.8562" lon="6.25962">
        <ele>967.9</ele>
        <time>2016-12-12T11:20:05Z</time>
      </trkpt>
      <trkpt lat="46.85624" lon="6.25964">
        <ele>967.8</ele>
        <time>2016-12-12T11:20:07Z</time>
      </trkpt>
      <trkpt lat="46.85628" lon="6.25966">
        <ele>967.6</ele>
        <time>2016-12-12T11:20:09Z</time>
      </trkpt>
      <trkpt lat="46.85632" lon="6.25968">
        <ele>967.4</ele>
        <time>2016-12-12T11:20:11Z</time>
      </trkpt>
      <trkpt lat="46.85636" lon="6.25969">
        <ele>967.2</ele>
        <time>2016-12-12T11:20:13Z</time>
      </trkpt>
      <trkpt lat="46.8564" lon="6.25971">
        <ele>967</ele>
        <time>2016-12-12T11:20:15Z</time>
      </trkpt>
      <trkpt lat="46.85644" lon="6.25973">
        <ele>966.9</ele>
        <time>2016-12-12T11:20:17Z</time>
      </trkpt>
      <trkpt lat="46.85647" lon="6.25974">
        <ele>966.7</ele>
        <time>2016-12-12T11:20:19Z</time>
      </trkpt>
      <trkpt lat="46.8565" lon="6.25977">
        <ele>966.6</ele>
        <time>2016-12-12T11:20:22Z</time>
      </trkpt>
      <trkpt lat="46.85654" lon="6.25978">
        <ele>966.4</ele>
        <time>2016-12-12T11:20:24Z</time>
      </trkpt>
      <trkpt lat="46.85657" lon="6.25979">
        <ele>966.3</ele>
        <time>2016-12-12T11:20:26Z</time>
      </trkpt>
      <trkpt lat="46.8566" lon="6.2598">
        <ele>966.2</ele>
        <time>2016-12-12T11:20:28Z</time>
      </trkpt>
      <trkpt lat="46.85663" lon="6.25981">
        <ele>966.1</ele>
        <time>2016-12-12T11:20:30Z</time>
      </trkpt>
      <trkpt lat="46.85666" lon="6.25982">
        <ele>966</ele>
        <time>2016-12-12T11:20:31Z</time>
      </trkpt>
      <trkpt lat="46.85669" lon="6.25984">
        <ele>965.8</ele>
        <time>2016-12-12T11:20:32Z</time>
      </trkpt>
      <trkpt lat="46.85672" lon="6.25985">
        <ele>965.7</ele>
        <time>2016-12-12T11:20:34Z</time>
      </trkpt>
      <trkpt lat="46.85676" lon="6.25987">
        <ele>965.6</ele>
        <time>2016-12-12T11:20:36Z</time>
      </trkpt>
      <trkpt lat="46.8568" lon="6.25989">
        <ele>965.4</ele>
        <time>2016-12-12T11:20:38Z</time>
      </trkpt>
      <trkpt lat="46.85684" lon="6.25989">
        <ele>965.3</ele>
        <time>2016-12-12T11:20:40Z</time>
      </trkpt>
      <trkpt lat="46.85688" lon="6.25989">
        <ele>965.2</ele>
        <time>2016-12-12T11:20:42Z</time>
      </trkpt>
      <trkpt lat="46.85691" lon="6.25991">
        <ele>965.1</ele>
        <time>2016-12-12T11:20:43Z</time>
      </trkpt>
      <trkpt lat="46.85694" lon="6.25995">
        <ele>964.9</ele>
        <time>2016-12-12T11:20:44Z</time>
      </trkpt>
      <trkpt lat="46.85699" lon="6.25997">
        <ele>964.8</ele>
        <time>2016-12-12T11:20:48Z</time>
      </trkpt>
      <trkpt lat="46.85702" lon="6.25997">
        <ele>964.7</ele>
        <time>2016-12-12T11:20:49Z</time>
      </trkpt>
      <trkpt lat="46.85705" lon="6.25997">
        <ele>964.6</ele>
        <time>2016-12-12T11:20:50Z</time>
      </trkpt>
      <trkpt lat="46.85712" lon="6.25992">
        <ele>964.4</ele>
        <time>2016-12-12T11:20:52Z</time>
      </trkpt>
      <trkpt lat="46.85715" lon="6.25991">
        <ele>964.3</ele>
        <time>2016-12-12T11:20:54Z</time>
      </trkpt>
      <trkpt lat="46.85719" lon="6.2599">
        <ele>964.1</ele>
        <time>2016-12-12T11:20:58Z</time>
      </trkpt>
      <trkpt lat="46.85724" lon="6.25987">
        <ele>963.9</ele>
        <time>2016-12-12T11:21:00Z</time>
      </trkpt>
      <trkpt lat="46.85728" lon="6.25984">
        <ele>963.6</ele>
        <time>2016-12-12T11:21:02Z</time>
      </trkpt>
      <trkpt lat="46.85731" lon="6.25981">
        <ele>963.4</ele>
        <time>2016-12-12T11:21:04Z</time>
      </trkpt>
      <trkpt lat="46.85734" lon="6.25977">
        <ele>963.3</ele>
        <time>2016-12-12T11:21:05Z</time>
      </trkpt>
      <trkpt lat="46.85737" lon="6.25973">
        <ele>963</ele>
        <time>2016-12-12T11:21:07Z</time>
      </trkpt>
      <trkpt lat="46.85741" lon="6.25969">
        <ele>962.8</ele>
        <time>2016-12-12T11:21:09Z</time>
      </trkpt>
      <trkpt lat="46.85744" lon="6.25966">
        <ele>962.5</ele>
        <time>2016-12-12T11:21:11Z</time>
      </trkpt>
      <trkpt lat="46.85747" lon="6.25962">
        <ele>962.3</ele>
        <time>2016-12-12T11:21:13Z</time>
      </trkpt>
      <trkpt lat="46.8575" lon="6.2596">
        <ele>962</ele>
        <time>2016-12-12T11:21:17Z</time>
      </trkpt>
      <trkpt lat="46.85753" lon="6.25961">
        <ele>961.8</ele>
        <time>2016-12-12T11:21:18Z</time>
      </trkpt>
      <trkpt lat="46.85757" lon="6.25961">
        <ele>961.6</ele>
        <time>2016-12-12T11:21:20Z</time>
      </trkpt>
      <trkpt lat="46.85761" lon="6.2596">
        <ele>961.3</ele>
        <time>2016-12-12T11:21:22Z</time>
      </trkpt>
      <trkpt lat="46.85765" lon="6.2596">
        <ele>961</ele>
        <time>2016-12-12T11:21:24Z</time>
      </trkpt>
      <trkpt lat="46.85767" lon="6.25961">
        <ele>960.8</ele>
        <time>2016-12-12T11:21:25Z</time>
      </trkpt>
      <trkpt lat="46.85771" lon="6.25966">
        <ele>960.7</ele>
        <time>2016-12-12T11:21:26Z</time>
      </trkpt>
      <trkpt lat="46.85775" lon="6.25967">
        <ele>960.5</ele>
        <time>2016-12-12T11:21:28Z</time>
      </trkpt>
      <trkpt lat="46.85779" lon="6.25969">
        <ele>960.3</ele>
        <time>2016-12-12T11:21:30Z</time>
      </trkpt>
      <trkpt lat="46.85782" lon="6.2597">
        <ele>960.2</ele>
        <time>2016-12-12T11:21:31Z</time>
      </trkpt>
      <trkpt lat="46.85785" lon="6.25972">
        <ele>960.1</ele>
        <time>2016-12-12T11:21:32Z</time>
      </trkpt>
      <trkpt lat="46.85788" lon="6.25973">
        <ele>959.9</ele>
        <time>2016-12-12T11:21:34Z</time>
      </trkpt>
      <trkpt lat="46.85792" lon="6.25973">
        <ele>959.7</ele>
        <time>2016-12-12T11:21:38Z</time>
      </trkpt>
      <trkpt lat="46.85796" lon="6.25973">
        <ele>959.5</ele>
        <time>2016-12-12T11:21:40Z</time>
      </trkpt>
      <trkpt lat="46.858" lon="6.25972">
        <ele>959.4</ele>
        <time>2016-12-12T11:21:42Z</time>
      </trkpt>
      <trkpt lat="46.85803" lon="6.25973">
        <ele>959.3</ele>
        <time>2016-12-12T11:21:43Z</time>
      </trkpt>
      <trkpt lat="46.85808" lon="6.25976">
        <ele>959.3</ele>
        <time>2016-12-12T11:21:45Z</time>
      </trkpt>
      <trkpt lat="46.85814" lon="6.25974">
        <ele>958.9</ele>
        <time>2016-12-12T11:21:47Z</time>
      </trkpt>
      <trkpt lat="46.85817" lon="6.25973">
        <ele>958.8</ele>
        <time>2016-12-12T11:21:49Z</time>
      </trkpt>
      <trkpt lat="46.8582" lon="6.25971">
        <ele>958.6</ele>
        <time>2016-12-12T11:21:51Z</time>
      </trkpt>
      <trkpt lat="46.85823" lon="6.25971">
        <ele>958.5</ele>
        <time>2016-12-12T11:21:56Z</time>
      </trkpt>
      <trkpt lat="46.85828" lon="6.2597">
        <ele>958.3</ele>
        <time>2016-12-12T11:21:59Z</time>
      </trkpt>
      <trkpt lat="46.85833" lon="6.25969">
        <ele>958</ele>
        <time>2016-12-12T11:22:01Z</time>
      </trkpt>
      <trkpt lat="46.85836" lon="6.25969">
        <ele>957.9</ele>
        <time>2016-12-12T11:22:02Z</time>
      </trkpt>
      <trkpt lat="46.8584" lon="6.25965">
        <ele>957.6</ele>
        <time>2016-12-12T11:22:04Z</time>
      </trkpt>
      <trkpt lat="46.85844" lon="6.25964">
        <ele>957.4</ele>
        <time>2016-12-12T11:22:06Z</time>
      </trkpt>
      <trkpt lat="46.85848" lon="6.25961">
        <ele>957.1</ele>
        <time>2016-12-12T11:22:09Z</time>
      </trkpt>
      <trkpt lat="46.85851" lon="6.2596">
        <ele>957</ele>
        <time>2016-12-12T11:22:10Z</time>
      </trkpt>
      <trkpt lat="46.85856" lon="6.25958">
        <ele>956.7</ele>
        <time>2016-12-12T11:22:12Z</time>
      </trkpt>
      <trkpt lat="46.85859" lon="6.25956">
        <ele>956.5</ele>
        <time>2016-12-12T11:22:13Z</time>
      </trkpt>
      <trkpt lat="46.85864" lon="6.25954">
        <ele>956.2</ele>
        <time>2016-12-12T11:22:14Z</time>
      </trkpt>
      <trkpt lat="46.85866" lon="6.25951">
        <ele>956</ele>
        <time>2016-12-12T11:22:15Z</time>
      </trkpt>
      <trkpt lat="46.85872" lon="6.25947">
        <ele>955.6</ele>
        <time>2016-12-12T11:22:17Z</time>
      </trkpt>
      <trkpt lat="46.85876" lon="6.25944">
        <ele>955.3</ele>
        <time>2016-12-12T11:22:20Z</time>
      </trkpt>
      <trkpt lat="46.85879" lon="6.2594">
        <ele>954.9</ele>
        <time>2016-12-12T11:22:22Z</time>
      </trkpt>
      <trkpt lat="46.85881" lon="6.25935">
        <ele>954.6</ele>
        <time>2016-12-12T11:22:24Z</time>
      </trkpt>
      <trkpt lat="46.85883" lon="6.25931">
        <ele>954.2</ele>
        <time>2016-12-12T11:22:26Z</time>
      </trkpt>
      <trkpt lat="46.85887" lon="6.25925">
        <ele>953.8</ele>
        <time>2016-12-12T11:22:28Z</time>
      </trkpt>
      <trkpt lat="46.85889" lon="6.25923">
        <ele>953.6</ele>
        <time>2016-12-12T11:22:29Z</time>
      </trkpt>
      <trkpt lat="46.8589" lon="6.25919">
        <ele>953.4</ele>
        <time>2016-12-12T11:22:30Z</time>
      </trkpt>
      <trkpt lat="46.85893" lon="6.25914">
        <ele>953.1</ele>
        <time>2016-12-12T11:22:32Z</time>
      </trkpt>
      <trkpt lat="46.85895" lon="6.25909">
        <ele>952.9</ele>
        <time>2016-12-12T11:22:34Z</time>
      </trkpt>
      <trkpt lat="46.85898" lon="6.25905">
        <ele>952.7</ele>
        <time>2016-12-12T11:22:36Z</time>
      </trkpt>
      <trkpt lat="46.85901" lon="6.25904">
        <ele>952.5</ele>
        <time>2016-12-12T11:22:38Z</time>
      </trkpt>
      <trkpt lat="46.85902" lon="6.25898">
        <ele>952.3</ele>
        <time>2016-12-12T11:22:41Z</time>
      </trkpt>
      <trkpt lat="46.85902" lon="6.25894">
        <ele>952.2</ele>
        <time>2016-12-12T11:22:43Z</time>
      </trkpt>
      <trkpt lat="46.859" lon="6.25887">
        <ele>952.1</ele>
        <time>2016-12-12T11:22:45Z</time>
      </trkpt>
      <trkpt lat="46.85898" lon="6.25882">
        <ele>951.9</ele>
        <time>2016-12-12T11:22:47Z</time>
      </trkpt>
      <trkpt lat="46.85894" lon="6.25877">
        <ele>951.8</ele>
        <time>2016-12-12T11:22:49Z</time>
      </trkpt>
      <trkpt lat="46.8589" lon="6.25873">
        <ele>951.8</ele>
        <time>2016-12-12T11:22:51Z</time>
      </trkpt>
      <trkpt lat="46.85888" lon="6.25868">
        <ele>952</ele>
        <time>2016-12-12T11:22:53Z</time>
      </trkpt>
      <trkpt lat="46.85885" lon="6.25864">
        <ele>952.1</ele>
        <time>2016-12-12T11:22:55Z</time>
      </trkpt>
      <trkpt lat="46.85882" lon="6.25861">
        <ele>952.1</ele>
        <time>2016-12-12T11:22:57Z</time>
      </trkpt>
      <trkpt lat="46.85879" lon="6.25859">
        <ele>952.2</ele>
        <time>2016-12-12T11:22:59Z</time>
      </trkpt>
      <trkpt lat="46.85875" lon="6.25858">
        <ele>952.2</ele>
        <time>2016-12-12T11:23:02Z</time>
      </trkpt>
      <trkpt lat="46.85872" lon="6.25856">
        <ele>952.4</ele>
        <time>2016-12-12T11:23:04Z</time>
      </trkpt>
      <trkpt lat="46.85867" lon="6.25855">
        <ele>952.6</ele>
        <time>2016-12-12T11:23:06Z</time>
      </trkpt>
      <trkpt lat="46.85862" lon="6.25852">
        <ele>952.9</ele>
        <time>2016-12-12T11:23:08Z</time>
      </trkpt>
      <trkpt lat="46.85861" lon="6.25847">
        <ele>953.1</ele>
        <time>2016-12-12T11:23:10Z</time>
      </trkpt>
      <trkpt lat="46.85858" lon="6.25842">
        <ele>953.3</ele>
        <time>2016-12-12T11:23:12Z</time>
      </trkpt>
      <trkpt lat="46.85855" lon="6.25837">
        <ele>953.5</ele>
        <time>2016-12-12T11:23:14Z</time>
      </trkpt>
      <trkpt lat="46.85853" lon="6.25831">
        <ele>953.7</ele>
        <time>2016-12-12T11:23:16Z</time>
      </trkpt>
      <trkpt lat="46.85851" lon="6.25826">
        <ele>953.9</ele>
        <time>2016-12-12T11:23:18Z</time>
      </trkpt>
      <trkpt lat="46.85849" lon="6.25822">
        <ele>954.1</ele>
        <time>2016-12-12T11:23:19Z</time>
      </trkpt>
      <trkpt lat="46.85848" lon="6.25818">
        <ele>954.2</ele>
        <time>2016-12-12T11:23:20Z</time>
      </trkpt>
      <trkpt lat="46.85847" lon="6.25814">
        <ele>954.3</ele>
        <time>2016-12-12T11:23:22Z</time>
      </trkpt>
      <trkpt lat="46.85844" lon="6.2581">
        <ele>954.5</ele>
        <time>2016-12-12T11:23:24Z</time>
      </trkpt>
      <trkpt lat="46.85842" lon="6.25805">
        <ele>954.7</ele>
        <time>2016-12-12T11:23:26Z</time>
      </trkpt>
      <trkpt lat="46.85839" lon="6.25802">
        <ele>955</ele>
        <time>2016-12-12T11:23:28Z</time>
      </trkpt>
      <trkpt lat="46.85837" lon="6.258">
        <ele>955.2</ele>
        <time>2016-12-12T11:23:30Z</time>
      </trkpt>
      <trkpt lat="46.85832" lon="6.25797">
        <ele>955.5</ele>
        <time>2016-12-12T11:23:32Z</time>
      </trkpt>
      <trkpt lat="46.85828" lon="6.25794">
        <ele>955.8</ele>
        <time>2016-12-12T11:23:34Z</time>
      </trkpt>
      <trkpt lat="46.85824" lon="6.25793">
        <ele>956</ele>
        <time>2016-12-12T11:23:36Z</time>
      </trkpt>
      <trkpt lat="46.8582" lon="6.25791">
        <ele>956.3</ele>
        <time>2016-12-12T11:23:38Z</time>
      </trkpt>
      <trkpt lat="46.85816" lon="6.2579">
        <ele>956.6</ele>
        <time>2016-12-12T11:23:40Z</time>
      </trkpt>
      <trkpt lat="46.85812" lon="6.25789">
        <ele>956.9</ele>
        <time>2016-12-12T11:23:42Z</time>
      </trkpt>
      <trkpt lat="46.85809" lon="6.25789">
        <ele>957.1</ele>
        <time>2016-12-12T11:23:45Z</time>
      </trkpt>
      <trkpt lat="46.85805" lon="6.25786">
        <ele>957.5</ele>
        <time>2016-12-12T11:23:48Z</time>
      </trkpt>
      <trkpt lat="46.85802" lon="6.25785">
        <ele>957.7</ele>
        <time>2016-12-12T11:23:49Z</time>
      </trkpt>
      <trkpt lat="46.85799" lon="6.25784">
        <ele>957.9</ele>
        <time>2016-12-12T11:23:50Z</time>
      </trkpt>
      <trkpt lat="46.85795" lon="6.25783">
        <ele>958.2</ele>
        <time>2016-12-12T11:23:52Z</time>
      </trkpt>
      <trkpt lat="46.8579" lon="6.2578">
        <ele>958.6</ele>
        <time>2016-12-12T11:23:54Z</time>
      </trkpt>
      <trkpt lat="46.85786" lon="6.25778">
        <ele>958.8</ele>
        <time>2016-12-12T11:23:56Z</time>
      </trkpt>
      <trkpt lat="46.85782" lon="6.25777">
        <ele>958.9</ele>
        <time>2016-12-12T11:23:58Z</time>
      </trkpt>
      <trkpt lat="46.8578" lon="6.25776">
        <ele>959</ele>
        <time>2016-12-12T11:24:00Z</time>
      </trkpt>
      <trkpt lat="46.85776" lon="6.25775">
        <ele>959.2</ele>
        <time>2016-12-12T11:24:03Z</time>
      </trkpt>
      <trkpt lat="46.85772" lon="6.25775">
        <ele>959.3</ele>
        <time>2016-12-12T11:24:05Z</time>
      </trkpt>
      <trkpt lat="46.85769" lon="6.25774">
        <ele>959.4</ele>
        <time>2016-12-12T11:24:08Z</time>
      </trkpt>
      <trkpt lat="46.85766" lon="6.25772">
        <ele>959.6</ele>
        <time>2016-12-12T11:24:10Z</time>
      </trkpt>
      <trkpt lat="46.85764" lon="6.25769">
        <ele>959.8</ele>
        <time>2016-12-12T11:24:13Z</time>
      </trkpt>
      <trkpt lat="46.85763" lon="6.25765">
        <ele>960</ele>
        <time>2016-12-12T11:24:16Z</time>
      </trkpt>
      <trkpt lat="46.85761" lon="6.25765">
        <ele>960</ele>
        <time>2016-12-12T11:24:19Z</time>
      </trkpt>
      <trkpt lat="46.85757" lon="6.25765">
        <ele>960.1</ele>
        <time>2016-12-12T11:24:21Z</time>
      </trkpt>
      <trkpt lat="46.85754" lon="6.25766">
        <ele>960.1</ele>
        <time>2016-12-12T11:24:22Z</time>
      </trkpt>
      <trkpt lat="46.8575" lon="6.25764">
        <ele>960.3</ele>
        <time>2016-12-12T11:24:24Z</time>
      </trkpt>
      <trkpt lat="46.85747" lon="6.25761">
        <ele>960.5</ele>
        <time>2016-12-12T11:24:26Z</time>
      </trkpt>
      <trkpt lat="46.85745" lon="6.25758">
        <ele>960.7</ele>
        <time>2016-12-12T11:24:29Z</time>
      </trkpt>
      <trkpt lat="46.85741" lon="6.25758">
        <ele>960.9</ele>
        <time>2016-12-12T11:24:32Z</time>
      </trkpt>
      <trkpt lat="46.85738" lon="6.25756">
        <ele>961</ele>
        <time>2016-12-12T11:24:34Z</time>
      </trkpt>
      <trkpt lat="46.85735" lon="6.25754">
        <ele>961.2</ele>
        <time>2016-12-12T11:24:36Z</time>
      </trkpt>
      <trkpt lat="46.85731" lon="6.25752">
        <ele>961.3</ele>
        <time>2016-12-12T11:24:38Z</time>
      </trkpt>
      <trkpt lat="46.85728" lon="6.25751">
        <ele>961.5</ele>
        <time>2016-12-12T11:24:40Z</time>
      </trkpt>
      <trkpt lat="46.85724" lon="6.2575">
        <ele>961.6</ele>
        <time>2016-12-12T11:24:42Z</time>
      </trkpt>
      <trkpt lat="46.8572" lon="6.25751">
        <ele>961.7</ele>
        <time>2016-12-12T11:24:45Z</time>
      </trkpt>
      <trkpt lat="46.85716" lon="6.25752">
        <ele>961.7</ele>
        <time>2016-12-12T11:24:48Z</time>
      </trkpt>
      <trkpt lat="46.85713" lon="6.25751">
        <ele>961.9</ele>
        <time>2016-12-12T11:24:50Z</time>
      </trkpt>
      <trkpt lat="46.85709" lon="6.25749">
        <ele>962</ele>
        <time>2016-12-12T11:24:53Z</time>
      </trkpt>
      <trkpt lat="46.85706" lon="6.25747">
        <ele>962.2</ele>
        <time>2016-12-12T11:24:56Z</time>
      </trkpt>
      <trkpt lat="46.85702" lon="6.25745">
        <ele>962.4</ele>
        <time>2016-12-12T11:24:58Z</time>
      </trkpt>
      <trkpt lat="46.85699" lon="6.25743">
        <ele>962.6</ele>
        <time>2016-12-12T11:25:00Z</time>
      </trkpt>
      <trkpt lat="46.85697" lon="6.2574">
        <ele>962.8</ele>
        <time>2016-12-12T11:25:05Z</time>
      </trkpt>
      <trkpt lat="46.85694" lon="6.25737">
        <ele>963</ele>
        <time>2016-12-12T11:25:08Z</time>
      </trkpt>
      <trkpt lat="46.85691" lon="6.25735">
        <ele>963.1</ele>
        <time>2016-12-12T11:25:11Z</time>
      </trkpt>
      <trkpt lat="46.85687" lon="6.25735">
        <ele>963.2</ele>
        <time>2016-12-12T11:25:12Z</time>
      </trkpt>
      <trkpt lat="46.85684" lon="6.25736">
        <ele>963.3</ele>
        <time>2016-12-12T11:25:13Z</time>
      </trkpt>
      <trkpt lat="46.85682" lon="6.25737">
        <ele>963.3</ele>
        <time>2016-12-12T11:25:14Z</time>
      </trkpt>
      <trkpt lat="46.85678" lon="6.25735">
        <ele>963.5</ele>
        <time>2016-12-12T11:25:16Z</time>
      </trkpt>
      <trkpt lat="46.85674" lon="6.25731">
        <ele>963.7</ele>
        <time>2016-12-12T11:25:17Z</time>
      </trkpt>
      <trkpt lat="46.85671" lon="6.25727">
        <ele>963.9</ele>
        <time>2016-12-12T11:25:19Z</time>
      </trkpt>
      <trkpt lat="46.85668" lon="6.25724">
        <ele>964</ele>
        <time>2016-12-12T11:25:23Z</time>
      </trkpt>
      <trkpt lat="46.85666" lon="6.25721">
        <ele>964.1</ele>
        <time>2016-12-12T11:25:27Z</time>
      </trkpt>
      <trkpt lat="46.85664" lon="6.25717">
        <ele>964.3</ele>
        <time>2016-12-12T11:25:30Z</time>
      </trkpt>
      <trkpt lat="46.85661" lon="6.25713">
        <ele>964.4</ele>
        <time>2016-12-12T11:25:33Z</time>
      </trkpt>
      <trkpt lat="46.85657" lon="6.2571">
        <ele>964.6</ele>
        <time>2016-12-12T11:25:35Z</time>
      </trkpt>
      <trkpt lat="46.85653" lon="6.25707">
        <ele>964.8</ele>
        <time>2016-12-12T11:25:37Z</time>
      </trkpt>
      <trkpt lat="46.8565" lon="6.25702">
        <ele>965.1</ele>
        <time>2016-12-12T11:25:39Z</time>
      </trkpt>
      <trkpt lat="46.85647" lon="6.257">
        <ele>965.3</ele>
        <time>2016-12-12T11:25:41Z</time>
      </trkpt>
      <trkpt lat="46.85644" lon="6.257">
        <ele>965.3</ele>
        <time>2016-12-12T11:25:44Z</time>
      </trkpt>
      <trkpt lat="46.85647" lon="6.257">
        <ele>965.3</ele>
        <time>2016-12-12T11:25:46Z</time>
      </trkpt>
      <trkpt lat="46.85644" lon="6.25696">
        <ele>965.6</ele>
        <time>2016-12-12T11:25:49Z</time>
      </trkpt>
      <trkpt lat="46.85641" lon="6.25695">
        <ele>965.7</ele>
        <time>2016-12-12T11:25:50Z</time>
      </trkpt>
      <trkpt lat="46.85636" lon="6.2569">
        <ele>966.1</ele>
        <time>2016-12-12T11:25:52Z</time>
      </trkpt>
      <trkpt lat="46.85634" lon="6.25684">
        <ele>966.6</ele>
        <time>2016-12-12T11:25:54Z</time>
      </trkpt>
      <trkpt lat="46.85631" lon="6.25683">
        <ele>966.7</ele>
        <time>2016-12-12T11:25:59Z</time>
      </trkpt>
      <trkpt lat="46.85625" lon="6.25682">
        <ele>966.9</ele>
        <time>2016-12-12T11:26:02Z</time>
      </trkpt>
      <trkpt lat="46.85622" lon="6.2568">
        <ele>967.1</ele>
        <time>2016-12-12T11:26:04Z</time>
      </trkpt>
      <trkpt lat="46.85617" lon="6.25682">
        <ele>966.9</ele>
        <time>2016-12-12T11:26:06Z</time>
      </trkpt>
      <trkpt lat="46.85616" lon="6.25686">
        <ele>966.7</ele>
        <time>2016-12-12T11:26:07Z</time>
      </trkpt>
      <trkpt lat="46.85612" lon="6.25686">
        <ele>966.7</ele>
        <time>2016-12-12T11:26:08Z</time>
      </trkpt>
      <trkpt lat="46.85609" lon="6.25685">
        <ele>966.8</ele>
        <time>2016-12-12T11:26:09Z</time>
      </trkpt>
      <trkpt lat="46.85605" lon="6.25683">
        <ele>966.9</ele>
        <time>2016-12-12T11:26:11Z</time>
      </trkpt>
      <trkpt lat="46.85602" lon="6.25681">
        <ele>967.1</ele>
        <time>2016-12-12T11:26:13Z</time>
      </trkpt>
      <trkpt lat="46.856" lon="6.25677">
        <ele>967.3</ele>
        <time>2016-12-12T11:26:15Z</time>
      </trkpt>
      <trkpt lat="46.85601" lon="6.25672">
        <ele>967.6</ele>
        <time>2016-12-12T11:26:18Z</time>
      </trkpt>
      <trkpt lat="46.85602" lon="6.25668">
        <ele>967.8</ele>
        <time>2016-12-12T11:26:20Z</time>
      </trkpt>
      <trkpt lat="46.85602" lon="6.25663">
        <ele>968.1</ele>
        <time>2016-12-12T11:26:23Z</time>
      </trkpt>
      <trkpt lat="46.85601" lon="6.25659">
        <ele>968.3</ele>
        <time>2016-12-12T11:26:26Z</time>
      </trkpt>
      <trkpt lat="46.85599" lon="6.25656">
        <ele>968.4</ele>
        <time>2016-12-12T11:26:28Z</time>
      </trkpt>
      <trkpt lat="46.85596" lon="6.25653">
        <ele>968.5</ele>
        <time>2016-12-12T11:26:31Z</time>
      </trkpt>
      <trkpt lat="46.85592" lon="6.25651">
        <ele>968.6</ele>
        <time>2016-12-12T11:26:32Z</time>
      </trkpt>
      <trkpt lat="46.85591" lon="6.25647">
        <ele>968.7</ele>
        <time>2016-12-12T11:26:34Z</time>
      </trkpt>
      <trkpt lat="46.85588" lon="6.25644">
        <ele>968.8</ele>
        <time>2016-12-12T11:26:38Z</time>
      </trkpt>
      <trkpt lat="46.85584" lon="6.25641">
        <ele>968.8</ele>
        <time>2016-12-12T11:26:39Z</time>
      </trkpt>
      <trkpt lat="46.85581" lon="6.2564">
        <ele>968.8</ele>
        <time>2016-12-12T11:26:41Z</time>
      </trkpt>
      <trkpt lat="46.85577" lon="6.25637">
        <ele>968.8</ele>
        <time>2016-12-12T11:26:43Z</time>
      </trkpt>
      <trkpt lat="46.85576" lon="6.25633">
        <ele>968.9</ele>
        <time>2016-12-12T11:26:46Z</time>
      </trkpt>
      <trkpt lat="46.85573" lon="6.25632">
        <ele>968.9</ele>
        <time>2016-12-12T11:26:48Z</time>
      </trkpt>
      <trkpt lat="46.85571" lon="6.25629">
        <ele>968.9</ele>
        <time>2016-12-12T11:26:50Z</time>
      </trkpt>
      <trkpt lat="46.85569" lon="6.25625">
        <ele>969</ele>
        <time>2016-12-12T11:26:53Z</time>
      </trkpt>
      <trkpt lat="46.85565" lon="6.25624">
        <ele>968.9</ele>
        <time>2016-12-12T11:26:55Z</time>
      </trkpt>
      <trkpt lat="46.85561" lon="6.25622">
        <ele>968.8</ele>
        <time>2016-12-12T11:26:56Z</time>
      </trkpt>
      <trkpt lat="46.85557" lon="6.25621">
        <ele>968.7</ele>
        <time>2016-12-12T11:26:59Z</time>
      </trkpt>
      <trkpt lat="46.85554" lon="6.2562">
        <ele>968.6</ele>
        <time>2016-12-12T11:27:01Z</time>
      </trkpt>
      <trkpt lat="46.8555" lon="6.25617">
        <ele>968.5</ele>
        <time>2016-12-12T11:27:05Z</time>
      </trkpt>
      <trkpt lat="46.85548" lon="6.25613">
        <ele>968.5</ele>
        <time>2016-12-12T11:27:06Z</time>
      </trkpt>
      <trkpt lat="46.85544" lon="6.25608">
        <ele>968.5</ele>
        <time>2016-12-12T11:27:08Z</time>
      </trkpt>
      <trkpt lat="46.85538" lon="6.25605">
        <ele>968.6</ele>
        <time>2016-12-12T11:27:10Z</time>
      </trkpt>
      <trkpt lat="46.85535" lon="6.25604">
        <ele>968.7</ele>
        <time>2016-12-12T11:27:13Z</time>
      </trkpt>
      <trkpt lat="46.85531" lon="6.25606">
        <ele>968.8</ele>
        <time>2016-12-12T11:27:16Z</time>
      </trkpt>
      <trkpt lat="46.85528" lon="6.25604">
        <ele>968.9</ele>
        <time>2016-12-12T11:27:18Z</time>
      </trkpt>
      <trkpt lat="46.85524" lon="6.25601">
        <ele>969</ele>
        <time>2016-12-12T11:27:20Z</time>
      </trkpt>
      <trkpt lat="46.8552" lon="6.25599">
        <ele>969.2</ele>
        <time>2016-12-12T11:27:23Z</time>
      </trkpt>
      <trkpt lat="46.85517" lon="6.25596">
        <ele>969.3</ele>
        <time>2016-12-12T11:27:25Z</time>
      </trkpt>
      <trkpt lat="46.85513" lon="6.25595">
        <ele>969.4</ele>
        <time>2016-12-12T11:27:27Z</time>
      </trkpt>
      <trkpt lat="46.8551" lon="6.25592">
        <ele>969.5</ele>
        <time>2016-12-12T11:27:29Z</time>
      </trkpt>
      <trkpt lat="46.85507" lon="6.25589">
        <ele>969.6</ele>
        <time>2016-12-12T11:27:32Z</time>
      </trkpt>
      <trkpt lat="46.85504" lon="6.25586">
        <ele>969.6</ele>
        <time>2016-12-12T11:27:35Z</time>
      </trkpt>
      <trkpt lat="46.85502" lon="6.25583">
        <ele>969.7</ele>
        <time>2016-12-12T11:27:40Z</time>
      </trkpt>
      <trkpt lat="46.85498" lon="6.25582">
        <ele>969.8</ele>
        <time>2016-12-12T11:27:43Z</time>
      </trkpt>
      <trkpt lat="46.85495" lon="6.25578">
        <ele>969.9</ele>
        <time>2016-12-12T11:27:45Z</time>
      </trkpt>
      <trkpt lat="46.85492" lon="6.25577">
        <ele>969.9</ele>
        <time>2016-12-12T11:27:46Z</time>
      </trkpt>
      <trkpt lat="46.85489" lon="6.25574">
        <ele>970</ele>
        <time>2016-12-12T11:27:48Z</time>
      </trkpt>
      <trkpt lat="46.85489" lon="6.2557">
        <ele>970</ele>
        <time>2016-12-12T11:27:51Z</time>
      </trkpt>
      <trkpt lat="46.85485" lon="6.25567">
        <ele>970</ele>
        <time>2016-12-12T11:27:57Z</time>
      </trkpt>
      <trkpt lat="46.85482" lon="6.25566">
        <ele>970</ele>
        <time>2016-12-12T11:27:59Z</time>
      </trkpt>
      <trkpt lat="46.85478" lon="6.25564">
        <ele>970.1</ele>
        <time>2016-12-12T11:28:00Z</time>
      </trkpt>
      <trkpt lat="46.85474" lon="6.25561">
        <ele>970.1</ele>
        <time>2016-12-12T11:28:02Z</time>
      </trkpt>
      <trkpt lat="46.85475" lon="6.25555">
        <ele>970.1</ele>
        <time>2016-12-12T11:28:03Z</time>
      </trkpt>
      <trkpt lat="46.85473" lon="6.25551">
        <ele>970.1</ele>
        <time>2016-12-12T11:28:06Z</time>
      </trkpt>
      <trkpt lat="46.85472" lon="6.25547">
        <ele>970</ele>
        <time>2016-12-12T11:28:08Z</time>
      </trkpt>
      <trkpt lat="46.85468" lon="6.25544">
        <ele>970</ele>
        <time>2016-12-12T11:28:11Z</time>
      </trkpt>
      <trkpt lat="46.85462" lon="6.25544">
        <ele>970</ele>
        <time>2016-12-12T11:28:13Z</time>
      </trkpt>
      <trkpt lat="46.85456" lon="6.2554">
        <ele>970.1</ele>
        <time>2016-12-12T11:28:16Z</time>
      </trkpt>
      <trkpt lat="46.85454" lon="6.25536">
        <ele>970.3</ele>
        <time>2016-12-12T11:28:17Z</time>
      </trkpt>
      <trkpt lat="46.85452" lon="6.25533">
        <ele>970.4</ele>
        <time>2016-12-12T11:28:18Z</time>
      </trkpt>
      <trkpt lat="46.8545" lon="6.25528">
        <ele>970.6</ele>
        <time>2016-12-12T11:28:20Z</time>
      </trkpt>
      <trkpt lat="46.85451" lon="6.25522">
        <ele>970.6</ele>
        <time>2016-12-12T11:28:23Z</time>
      </trkpt>
      <trkpt lat="46.85452" lon="6.25515">
        <ele>970.6</ele>
        <time>2016-12-12T11:28:25Z</time>
      </trkpt>
      <trkpt lat="46.85451" lon="6.25511">
        <ele>970.6</ele>
        <time>2016-12-12T11:28:27Z</time>
      </trkpt>
      <trkpt lat="46.85449" lon="6.25506">
        <ele>970.8</ele>
        <time>2016-12-12T11:28:29Z</time>
      </trkpt>
      <trkpt lat="46.85448" lon="6.25501">
        <ele>971</ele>
        <time>2016-12-12T11:28:30Z</time>
      </trkpt>
      <trkpt lat="46.8545" lon="6.25496">
        <ele>970.9</ele>
        <time>2016-12-12T11:28:31Z</time>
      </trkpt>
      <trkpt lat="46.85451" lon="6.25489">
        <ele>970.8</ele>
        <time>2016-12-12T11:28:33Z</time>
      </trkpt>
      <trkpt lat="46.85452" lon="6.25485">
        <ele>970.7</ele>
        <time>2016-12-12T11:28:34Z</time>
      </trkpt>
      <trkpt lat="46.85453" lon="6.2548">
        <ele>970.7</ele>
        <time>2016-12-12T11:28:36Z</time>
      </trkpt>
      <trkpt lat="46.85454" lon="6.25473">
        <ele>970.5</ele>
        <time>2016-12-12T11:28:38Z</time>
      </trkpt>
      <trkpt lat="46.85451" lon="6.2547">
        <ele>970.9</ele>
        <time>2016-12-12T11:28:40Z</time>
      </trkpt>
      <trkpt lat="46.8545" lon="6.25463">
        <ele>971.1</ele>
        <time>2016-12-12T11:28:42Z</time>
      </trkpt>
      <trkpt lat="46.8545" lon="6.25459">
        <ele>971</ele>
        <time>2016-12-12T11:28:43Z</time>
      </trkpt>
      <trkpt lat="46.8545" lon="6.25454">
        <ele>971.1</ele>
        <time>2016-12-12T11:28:45Z</time>
      </trkpt>
      <trkpt lat="46.8545" lon="6.25449">
        <ele>971.2</ele>
        <time>2016-12-12T11:28:47Z</time>
      </trkpt>
      <trkpt lat="46.85453" lon="6.25442">
        <ele>971</ele>
        <time>2016-12-12T11:28:49Z</time>
      </trkpt>
      <trkpt lat="46.85454" lon="6.25437">
        <ele>970.9</ele>
        <time>2016-12-12T11:28:51Z</time>
      </trkpt>
      <trkpt lat="46.85454" lon="6.25433">
        <ele>970.9</ele>
        <time>2016-12-12T11:28:52Z</time>
      </trkpt>
      <trkpt lat="46.85451" lon="6.25427">
        <ele>971.3</ele>
        <time>2016-12-12T11:28:54Z</time>
      </trkpt>
      <trkpt lat="46.8545" lon="6.25423">
        <ele>971.5</ele>
        <time>2016-12-12T11:28:56Z</time>
      </trkpt>
      <trkpt lat="46.8545" lon="6.25419">
        <ele>971.5</ele>
        <time>2016-12-12T11:28:59Z</time>
      </trkpt>
      <trkpt lat="46.85453" lon="6.25412">
        <ele>971.3</ele>
        <time>2016-12-12T11:29:01Z</time>
      </trkpt>
      <trkpt lat="46.85456" lon="6.25407">
        <ele>971</ele>
        <time>2016-12-12T11:29:03Z</time>
      </trkpt>
      <trkpt lat="46.85456" lon="6.25402">
        <ele>971</ele>
        <time>2016-12-12T11:29:04Z</time>
      </trkpt>
      <trkpt lat="46.85457" lon="6.25398">
        <ele>970.9</ele>
        <time>2016-12-12T11:29:05Z</time>
      </trkpt>
      <trkpt lat="46.85458" lon="6.25394">
        <ele>970.9</ele>
        <time>2016-12-12T11:29:06Z</time>
      </trkpt>
      <trkpt lat="46.85459" lon="6.25391">
        <ele>970.8</ele>
        <time>2016-12-12T11:29:08Z</time>
      </trkpt>
      <trkpt lat="46.85459" lon="6.25386">
        <ele>970.8</ele>
        <time>2016-12-12T11:29:10Z</time>
      </trkpt>
      <trkpt lat="46.8546" lon="6.25381">
        <ele>970.8</ele>
        <time>2016-12-12T11:29:11Z</time>
      </trkpt>
      <trkpt lat="46.85462" lon="6.25376">
        <ele>970.7</ele>
        <time>2016-12-12T11:29:13Z</time>
      </trkpt>
      <trkpt lat="46.85464" lon="6.25374">
        <ele>970.4</ele>
        <time>2016-12-12T11:29:15Z</time>
      </trkpt>
      <trkpt lat="46.85466" lon="6.25371">
        <ele>970.3</ele>
        <time>2016-12-12T11:29:17Z</time>
      </trkpt>
      <trkpt lat="46.85466" lon="6.25366">
        <ele>970.2</ele>
        <time>2016-12-12T11:29:19Z</time>
      </trkpt>
      <trkpt lat="46.85469" lon="6.25363">
        <ele>969.9</ele>
        <time>2016-12-12T11:29:21Z</time>
      </trkpt>
      <trkpt lat="46.85472" lon="6.25358">
        <ele>969.4</ele>
        <time>2016-12-12T11:29:23Z</time>
      </trkpt>
      <trkpt lat="46.85476" lon="6.25358">
        <ele>969</ele>
        <time>2016-12-12T11:29:33Z</time>
      </trkpt>
      <trkpt lat="46.8548" lon="6.25356">
        <ele>968.5</ele>
        <time>2016-12-12T11:29:37Z</time>
      </trkpt>
      <trkpt lat="46.85483" lon="6.25354">
        <ele>968.1</ele>
        <time>2016-12-12T11:29:39Z</time>
      </trkpt>
      <trkpt lat="46.85486" lon="6.25352">
        <ele>967.7</ele>
        <time>2016-12-12T11:29:41Z</time>
      </trkpt>
      <trkpt lat="46.8549" lon="6.25349">
        <ele>967.1</ele>
        <time>2016-12-12T11:29:43Z</time>
      </trkpt>
      <trkpt lat="46.85493" lon="6.25347">
        <ele>966.7</ele>
        <time>2016-12-12T11:29:45Z</time>
      </trkpt>
      <trkpt lat="46.85496" lon="6.25346">
        <ele>966.3</ele>
        <time>2016-12-12T11:29:47Z</time>
      </trkpt>
      <trkpt lat="46.855" lon="6.25343">
        <ele>965.7</ele>
        <time>2016-12-12T11:29:49Z</time>
      </trkpt>
      <trkpt lat="46.85503" lon="6.25342">
        <ele>965.3</ele>
        <time>2016-12-12T11:29:52Z</time>
      </trkpt>
      <trkpt lat="46.85505" lon="6.25338">
        <ele>964.8</ele>
        <time>2016-12-12T11:29:54Z</time>
      </trkpt>
      <trkpt lat="46.85507" lon="6.25334">
        <ele>964.3</ele>
        <time>2016-12-12T11:29:56Z</time>
      </trkpt>
      <trkpt lat="46.85508" lon="6.2533">
        <ele>964</ele>
        <time>2016-12-12T11:30:02Z</time>
      </trkpt>
      <trkpt lat="46.85511" lon="6.25325">
        <ele>963.3</ele>
        <time>2016-12-12T11:30:05Z</time>
      </trkpt>
      <trkpt lat="46.85515" lon="6.25318">
        <ele>962.4</ele>
        <time>2016-12-12T11:30:07Z</time>
      </trkpt>
      <trkpt lat="46.85518" lon="6.25317">
        <ele>961.8</ele>
        <time>2016-12-12T11:30:09Z</time>
      </trkpt>
      <trkpt lat="46.8552" lon="6.25314">
        <ele>961.3</ele>
        <time>2016-12-12T11:30:12Z</time>
      </trkpt>
      <trkpt lat="46.85523" lon="6.25312">
        <ele>960.7</ele>
        <time>2016-12-12T11:30:14Z</time>
      </trkpt>
      <trkpt lat="46.85526" lon="6.25311">
        <ele>960.2</ele>
        <time>2016-12-12T11:30:15Z</time>
      </trkpt>
      <trkpt lat="46.85529" lon="6.25309">
        <ele>959.5</ele>
        <time>2016-12-12T11:30:17Z</time>
      </trkpt>
      <trkpt lat="46.85532" lon="6.25308">
        <ele>959</ele>
        <time>2016-12-12T11:30:19Z</time>
      </trkpt>
      <trkpt lat="46.85536" lon="6.25305">
        <ele>958.1</ele>
        <time>2016-12-12T11:30:21Z</time>
      </trkpt>
      <trkpt lat="46.8554" lon="6.25302">
        <ele>957.3</ele>
        <time>2016-12-12T11:30:23Z</time>
      </trkpt>
      <trkpt lat="46.85542" lon="6.25299">
        <ele>956.6</ele>
        <time>2016-12-12T11:30:25Z</time>
      </trkpt>
      <trkpt lat="46.85545" lon="6.25295">
        <ele>956</ele>
        <time>2016-12-12T11:30:29Z</time>
      </trkpt>
      <trkpt lat="46.85546" lon="6.25289">
        <ele>955.4</ele>
        <time>2016-12-12T11:30:31Z</time>
      </trkpt>
      <trkpt lat="46.85549" lon="6.25284">
        <ele>954.6</ele>
        <time>2016-12-12T11:30:33Z</time>
      </trkpt>
      <trkpt lat="46.85552" lon="6.2528">
        <ele>954</ele>
        <time>2016-12-12T11:30:35Z</time>
      </trkpt>
      <trkpt lat="46.85555" lon="6.25279">
        <ele>953.5</ele>
        <time>2016-12-12T11:30:38Z</time>
      </trkpt>
      <trkpt lat="46.85557" lon="6.25277">
        <ele>953</ele>
        <time>2016-12-12T11:30:40Z</time>
      </trkpt>
      <trkpt lat="46.8556" lon="6.25275">
        <ele>952.4</ele>
        <time>2016-12-12T11:30:42Z</time>
      </trkpt>
      <trkpt lat="46.85564" lon="6.25272">
        <ele>951.5</ele>
        <time>2016-12-12T11:30:44Z</time>
      </trkpt>
      <trkpt lat="46.85567" lon="6.25268">
        <ele>950.5</ele>
        <time>2016-12-12T11:30:46Z</time>
      </trkpt>
      <trkpt lat="46.8557" lon="6.25266">
        <ele>949.9</ele>
        <time>2016-12-12T11:30:47Z</time>
      </trkpt>
      <trkpt lat="46.85573" lon="6.25264">
        <ele>949.2</ele>
        <time>2016-12-12T11:30:49Z</time>
      </trkpt>
      <trkpt lat="46.85576" lon="6.25264">
        <ele>948.7</ele>
        <time>2016-12-12T11:30:54Z</time>
      </trkpt>
      <trkpt lat="46.8558" lon="6.25262">
        <ele>947.7</ele>
        <time>2016-12-12T11:30:56Z</time>
      </trkpt>
      <trkpt lat="46.85584" lon="6.25257">
        <ele>946.3</ele>
        <time>2016-12-12T11:30:58Z</time>
      </trkpt>
      <trkpt lat="46.85587" lon="6.25254">
        <ele>945.2</ele>
        <time>2016-12-12T11:31:00Z</time>
      </trkpt>
      <trkpt lat="46.8559" lon="6.25253">
        <ele>944.5</ele>
        <time>2016-12-12T11:31:02Z</time>
      </trkpt>
      <trkpt lat="46.85592" lon="6.25251">
        <ele>943.8</ele>
        <time>2016-12-12T11:31:04Z</time>
      </trkpt>
      <trkpt lat="46.85597" lon="6.25247">
        <ele>942.2</ele>
        <time>2016-12-12T11:31:06Z</time>
      </trkpt>
      <trkpt lat="46.856" lon="6.25244">
        <ele>941</ele>
        <time>2016-12-12T11:31:09Z</time>
      </trkpt>
      <trkpt lat="46.85604" lon="6.25244">
        <ele>940.2</ele>
        <time>2016-12-12T11:31:11Z</time>
      </trkpt>
      <trkpt lat="46.85607" lon="6.25244">
        <ele>939.6</ele>
        <time>2016-12-12T11:31:12Z</time>
      </trkpt>
      <trkpt lat="46.8561" lon="6.25244">
        <ele>939</ele>
        <time>2016-12-12T11:31:13Z</time>
      </trkpt>
      <trkpt lat="46.85615" lon="6.25244">
        <ele>937.9</ele>
        <time>2016-12-12T11:31:15Z</time>
      </trkpt>
      <trkpt lat="46.85619" lon="6.25244">
        <ele>937.2</ele>
        <time>2016-12-12T11:31:17Z</time>
      </trkpt>
      <trkpt lat="46.85624" lon="6.25244">
        <ele>936.3</ele>
        <time>2016-12-12T11:31:19Z</time>
      </trkpt>
      <trkpt lat="46.85627" lon="6.25245">
        <ele>935.8</ele>
        <time>2016-12-12T11:31:21Z</time>
      </trkpt>
      <trkpt lat="46.8563" lon="6.25246">
        <ele>935.5</ele>
        <time>2016-12-12T11:31:25Z</time>
      </trkpt>
      <trkpt lat="46.85633" lon="6.25246">
        <ele>934.7</ele>
        <time>2016-12-12T11:31:27Z</time>
      </trkpt>
      <trkpt lat="46.85635" lon="6.25244">
        <ele>933.6</ele>
        <time>2016-12-12T11:31:29Z</time>
      </trkpt>
      <trkpt lat="46.85638" lon="6.25242">
        <ele>932.6</ele>
        <time>2016-12-12T11:31:32Z</time>
      </trkpt>
      <trkpt lat="46.85641" lon="6.25241">
        <ele>931.4</ele>
        <time>2016-12-12T11:31:34Z</time>
      </trkpt>
      <trkpt lat="46.85647" lon="6.25245">
        <ele>931.1</ele>
        <time>2016-12-12T11:31:38Z</time>
      </trkpt>
      <trkpt lat="46.85649" lon="6.25248">
        <ele>931.3</ele>
        <time>2016-12-12T11:31:42Z</time>
      </trkpt>
      <trkpt lat="46.85652" lon="6.25251">
        <ele>931.6</ele>
        <time>2016-12-12T11:31:43Z</time>
      </trkpt>
      <trkpt lat="46.85655" lon="6.2525">
        <ele>930.9</ele>
        <time>2016-12-12T11:31:47Z</time>
      </trkpt>
      <trkpt lat="46.85658" lon="6.25249">
        <ele>929.8</ele>
        <time>2016-12-12T11:31:49Z</time>
      </trkpt>
      <trkpt lat="46.85662" lon="6.25248">
        <ele>928.7</ele>
        <time>2016-12-12T11:31:51Z</time>
      </trkpt>
      <trkpt lat="46.85666" lon="6.25247">
        <ele>927.2</ele>
        <time>2016-12-12T11:31:53Z</time>
      </trkpt>
      <trkpt lat="46.8567" lon="6.25244">
        <ele>925.5</ele>
        <time>2016-12-12T11:31:55Z</time>
      </trkpt>
      <trkpt lat="46.85674" lon="6.25242">
        <ele>923.9</ele>
        <time>2016-12-12T11:31:57Z</time>
      </trkpt>
      <trkpt lat="46.85677" lon="6.25239">
        <ele>922.2</ele>
        <time>2016-12-12T11:31:59Z</time>
      </trkpt>
      <trkpt lat="46.8568" lon="6.2524">
        <ele>921.7</ele>
        <time>2016-12-12T11:32:00Z</time>
      </trkpt>
      <trkpt lat="46.85685" lon="6.25241">
        <ele>921</ele>
        <time>2016-12-12T11:32:02Z</time>
      </trkpt>
      <trkpt lat="46.85691" lon="6.25243">
        <ele>920.3</ele>
        <time>2016-12-12T11:32:04Z</time>
      </trkpt>
      <trkpt lat="46.85694" lon="6.25245">
        <ele>920.2</ele>
        <time>2016-12-12T11:32:06Z</time>
      </trkpt>
      <trkpt lat="46.85697" lon="6.25245">
        <ele>919.6</ele>
        <time>2016-12-12T11:32:08Z</time>
      </trkpt>
      <trkpt lat="46.85701" lon="6.25246">
        <ele>919.1</ele>
        <time>2016-12-12T11:32:11Z</time>
      </trkpt>
      <trkpt lat="46.85704" lon="6.25248">
        <ele>919.2</ele>
        <time>2016-12-12T11:32:13Z</time>
      </trkpt>
      <trkpt lat="46.85708" lon="6.25251">
        <ele>919.7</ele>
        <time>2016-12-12T11:32:15Z</time>
      </trkpt>
      <trkpt lat="46.85711" lon="6.25253">
        <ele>919.6</ele>
        <time>2016-12-12T11:32:17Z</time>
      </trkpt>
      <trkpt lat="46.85713" lon="6.25256">
        <ele>919.7</ele>
        <time>2016-12-12T11:32:20Z</time>
      </trkpt>
      <trkpt lat="46.85716" lon="6.25257">
        <ele>919.2</ele>
        <time>2016-12-12T11:32:22Z</time>
      </trkpt>
      <trkpt lat="46.85719" lon="6.25259">
        <ele>919.1</ele>
        <time>2016-12-12T11:32:23Z</time>
      </trkpt>
      <trkpt lat="46.85721" lon="6.25262">
        <ele>919.5</ele>
        <time>2016-12-12T11:32:25Z</time>
      </trkpt>
      <trkpt lat="46.85724" lon="6.25269">
        <ele>921</ele>
        <time>2016-12-12T11:32:27Z</time>
      </trkpt>
      <trkpt lat="46.85725" lon="6.25273">
        <ele>922.2</ele>
        <time>2016-12-12T11:32:28Z</time>
      </trkpt>
      <trkpt lat="46.85728" lon="6.25276">
        <ele>922.7</ele>
        <time>2016-12-12T11:32:30Z</time>
      </trkpt>
      <trkpt lat="46.8573" lon="6.2528">
        <ele>923.5</ele>
        <time>2016-12-12T11:32:34Z</time>
      </trkpt>
      <trkpt lat="46.85733" lon="6.25283">
        <ele>923.4</ele>
        <time>2016-12-12T11:32:37Z</time>
      </trkpt>
      <trkpt lat="46.85736" lon="6.25286">
        <ele>923</ele>
        <time>2016-12-12T11:32:39Z</time>
      </trkpt>
      <trkpt lat="46.8574" lon="6.25289">
        <ele>922.9</ele>
        <time>2016-12-12T11:32:43Z</time>
      </trkpt>
      <trkpt lat="46.85744" lon="6.2529">
        <ele>921.8</ele>
        <time>2016-12-12T11:32:45Z</time>
      </trkpt>
      <trkpt lat="46.85747" lon="6.2529">
        <ele>920.4</ele>
        <time>2016-12-12T11:32:47Z</time>
      </trkpt>
      <trkpt lat="46.85751" lon="6.2529">
        <ele>919.1</ele>
        <time>2016-12-12T11:32:49Z</time>
      </trkpt>
      <trkpt lat="46.85755" lon="6.25291">
        <ele>917.9</ele>
        <time>2016-12-12T11:32:51Z</time>
      </trkpt>
      <trkpt lat="46.85759" lon="6.2529">
        <ele>916</ele>
        <time>2016-12-12T11:32:53Z</time>
      </trkpt>
      <trkpt lat="46.85762" lon="6.2529">
        <ele>914.6</ele>
        <time>2016-12-12T11:32:54Z</time>
      </trkpt>
      <trkpt lat="46.85765" lon="6.25292">
        <ele>914.1</ele>
        <time>2016-12-12T11:32:55Z</time>
      </trkpt>
      <trkpt lat="46.8577" lon="6.25293">
        <ele>912.6</ele>
        <time>2016-12-12T11:32:56Z</time>
      </trkpt>
      <trkpt lat="46.85774" lon="6.25292">
        <ele>911</ele>
        <time>2016-12-12T11:32:58Z</time>
      </trkpt>
      <trkpt lat="46.85779" lon="6.25293">
        <ele>909.4</ele>
        <time>2016-12-12T11:33:00Z</time>
      </trkpt>
      <trkpt lat="46.85784" lon="6.25297">
        <ele>908.6</ele>
        <time>2016-12-12T11:33:02Z</time>
      </trkpt>
      <trkpt lat="46.85787" lon="6.253">
        <ele>908.3</ele>
        <time>2016-12-12T11:33:04Z</time>
      </trkpt>
      <trkpt lat="46.85785" lon="6.25304">
        <ele>910.2</ele>
        <time>2016-12-12T11:33:08Z</time>
      </trkpt>
      <trkpt lat="46.85788" lon="6.25307">
        <ele>909.8</ele>
        <time>2016-12-12T11:33:15Z</time>
      </trkpt>
      <trkpt lat="46.85792" lon="6.25306">
        <ele>908.3</ele>
        <time>2016-12-12T11:33:17Z</time>
      </trkpt>
      <trkpt lat="46.85797" lon="6.25306">
        <ele>907.1</ele>
        <time>2016-12-12T11:33:19Z</time>
      </trkpt>
      <trkpt lat="46.85801" lon="6.25305">
        <ele>906</ele>
        <time>2016-12-12T11:33:21Z</time>
      </trkpt>
      <trkpt lat="46.85806" lon="6.25304">
        <ele>904.3</ele>
        <time>2016-12-12T11:33:24Z</time>
      </trkpt>
      <trkpt lat="46.85811" lon="6.25298">
        <ele>901.5</ele>
        <time>2016-12-12T11:33:26Z</time>
      </trkpt>
      <trkpt lat="46.85814" lon="6.25297">
        <ele>900.3</ele>
        <time>2016-12-12T11:33:31Z</time>
      </trkpt>
      <trkpt lat="46.85817" lon="6.25295">
        <ele>899</ele>
        <time>2016-12-12T11:33:33Z</time>
      </trkpt>
      <trkpt lat="46.85821" lon="6.25294">
        <ele>897.9</ele>
        <time>2016-12-12T11:33:35Z</time>
      </trkpt>
      <trkpt lat="46.85825" lon="6.25293">
        <ele>896.5</ele>
        <time>2016-12-12T11:33:38Z</time>
      </trkpt>
      <trkpt lat="46.85829" lon="6.25293">
        <ele>895.6</ele>
        <time>2016-12-12T11:33:41Z</time>
      </trkpt>
      <trkpt lat="46.85833" lon="6.25292">
        <ele>894.2</ele>
        <time>2016-12-12T11:33:43Z</time>
      </trkpt>
      <trkpt lat="46.85837" lon="6.25291">
        <ele>892.9</ele>
        <time>2016-12-12T11:33:44Z</time>
      </trkpt>
      <trkpt lat="46.85841" lon="6.25289">
        <ele>891.5</ele>
        <time>2016-12-12T11:33:47Z</time>
      </trkpt>
      <trkpt lat="46.85845" lon="6.25288">
        <ele>890.3</ele>
        <time>2016-12-12T11:33:49Z</time>
      </trkpt>
      <trkpt lat="46.85849" lon="6.25287">
        <ele>889</ele>
        <time>2016-12-12T11:33:51Z</time>
      </trkpt>
      <trkpt lat="46.85854" lon="6.25285">
        <ele>887.4</ele>
        <time>2016-12-12T11:33:53Z</time>
      </trkpt>
      <trkpt lat="46.85857" lon="6.25284">
        <ele>886.4</ele>
        <time>2016-12-12T11:33:54Z</time>
      </trkpt>
      <trkpt lat="46.85862" lon="6.25281">
        <ele>884.7</ele>
        <time>2016-12-12T11:33:56Z</time>
      </trkpt>
      <trkpt lat="46.85865" lon="6.2528">
        <ele>883.6</ele>
        <time>2016-12-12T11:33:58Z</time>
      </trkpt>
      <trkpt lat="46.85869" lon="6.25279">
        <ele>882.6</ele>
        <time>2016-12-12T11:34:00Z</time>
      </trkpt>
      <trkpt lat="46.85873" lon="6.25277">
        <ele>881.2</ele>
        <time>2016-12-12T11:34:12Z</time>
      </trkpt>
      <trkpt lat="46.85877" lon="6.25276">
        <ele>880.2</ele>
        <time>2016-12-12T11:34:14Z</time>
      </trkpt>
      <trkpt lat="46.85881" lon="6.25276">
        <ele>880</ele>
        <time>2016-12-12T11:34:16Z</time>
      </trkpt>
      <trkpt lat="46.85885" lon="6.25275">
        <ele>879.5</ele>
        <time>2016-12-12T11:34:18Z</time>
      </trkpt>
      <trkpt lat="46.85887" lon="6.25274">
        <ele>879.1</ele>
        <time>2016-12-12T11:34:19Z</time>
      </trkpt>
      <trkpt lat="46.85891" lon="6.25272">
        <ele>878.6</ele>
        <time>2016-12-12T11:34:20Z</time>
      </trkpt>
      <trkpt lat="46.85894" lon="6.25271">
        <ele>878.2</ele>
        <time>2016-12-12T11:34:21Z</time>
      </trkpt>
      <trkpt lat="46.85896" lon="6.25271">
        <ele>877.9</ele>
        <time>2016-12-12T11:34:22Z</time>
      </trkpt>
      <trkpt lat="46.85899" lon="6.2527">
        <ele>877.6</ele>
        <time>2016-12-12T11:34:24Z</time>
      </trkpt>
      <trkpt lat="46.85902" lon="6.2527">
        <ele>877.3</ele>
        <time>2016-12-12T11:34:26Z</time>
      </trkpt>
      <trkpt lat="46.85906" lon="6.25268">
        <ele>876.6</ele>
        <time>2016-12-12T11:34:29Z</time>
      </trkpt>
      <trkpt lat="46.85911" lon="6.25268">
        <ele>876.3</ele>
        <time>2016-12-12T11:34:30Z</time>
      </trkpt>
      <trkpt lat="46.85916" lon="6.25268">
        <ele>876.1</ele>
        <time>2016-12-12T11:34:32Z</time>
      </trkpt>
      <trkpt lat="46.85919" lon="6.25268">
        <ele>875.9</ele>
        <time>2016-12-12T11:34:34Z</time>
      </trkpt>
      <trkpt lat="46.85922" lon="6.25268">
        <ele>875.7</ele>
        <time>2016-12-12T11:34:38Z</time>
      </trkpt>
      <trkpt lat="46.85926" lon="6.25269">
        <ele>875.6</ele>
        <time>2016-12-12T11:34:41Z</time>
      </trkpt>
      <trkpt lat="46.85929" lon="6.25271">
        <ele>875.8</ele>
        <time>2016-12-12T11:34:45Z</time>
      </trkpt>
      <trkpt lat="46.85933" lon="6.2527">
        <ele>875.5</ele>
        <time>2016-12-12T11:34:48Z</time>
      </trkpt>
      <trkpt lat="46.85937" lon="6.25271">
        <ele>875.4</ele>
        <time>2016-12-12T11:34:53Z</time>
      </trkpt>
      <trkpt lat="46.8594" lon="6.25272">
        <ele>875.3</ele>
        <time>2016-12-12T11:34:54Z</time>
      </trkpt>
      <trkpt lat="46.85944" lon="6.25273">
        <ele>875.3</ele>
        <time>2016-12-12T11:34:55Z</time>
      </trkpt>
      <trkpt lat="46.85946" lon="6.25279">
        <ele>876.3</ele>
        <time>2016-12-12T11:35:00Z</time>
      </trkpt>
      <trkpt lat="46.85949" lon="6.2528">
        <ele>876.4</ele>
        <time>2016-12-12T11:35:03Z</time>
      </trkpt>
      <trkpt lat="46.85955" lon="6.25281">
        <ele>876.1</ele>
        <time>2016-12-12T11:35:06Z</time>
      </trkpt>
      <trkpt lat="46.85959" lon="6.25283">
        <ele>876.3</ele>
        <time>2016-12-12T11:35:07Z</time>
      </trkpt>
      <trkpt lat="46.85963" lon="6.25284">
        <ele>875.7</ele>
        <time>2016-12-12T11:35:10Z</time>
      </trkpt>
      <trkpt lat="46.85966" lon="6.25284">
        <ele>875.1</ele>
        <time>2016-12-12T11:35:13Z</time>
      </trkpt>
      <trkpt lat="46.8597" lon="6.25284">
        <ele>874.4</ele>
        <time>2016-12-12T11:35:15Z</time>
      </trkpt>
      <trkpt lat="46.85973" lon="6.25284">
        <ele>873.8</ele>
        <time>2016-12-12T11:35:17Z</time>
      </trkpt>
      <trkpt lat="46.85976" lon="6.25284">
        <ele>873.2</ele>
        <time>2016-12-12T11:35:20Z</time>
      </trkpt>
      <trkpt lat="46.85979" lon="6.25282">
        <ele>872.4</ele>
        <time>2016-12-12T11:35:26Z</time>
      </trkpt>
      <trkpt lat="46.85982" lon="6.25279">
        <ele>871.5</ele>
        <time>2016-12-12T11:35:32Z</time>
      </trkpt>
      <trkpt lat="46.85984" lon="6.25275">
        <ele>870.4</ele>
        <time>2016-12-12T11:35:35Z</time>
      </trkpt>
      <trkpt lat="46.85987" lon="6.25272">
        <ele>869.4</ele>
        <time>2016-12-12T11:35:37Z</time>
      </trkpt>
      <trkpt lat="46.85989" lon="6.25268">
        <ele>868.5</ele>
        <time>2016-12-12T11:35:41Z</time>
      </trkpt>
      <trkpt lat="46.85992" lon="6.25265">
        <ele>867.7</ele>
        <time>2016-12-12T11:35:43Z</time>
      </trkpt>
      <trkpt lat="46.85993" lon="6.25261">
        <ele>866.9</ele>
        <time>2016-12-12T11:35:45Z</time>
      </trkpt>
      <trkpt lat="46.85997" lon="6.25257">
        <ele>865.7</ele>
        <time>2016-12-12T11:35:47Z</time>
      </trkpt>
      <trkpt lat="46.86" lon="6.25254">
        <ele>864.9</ele>
        <time>2016-12-12T11:35:49Z</time>
      </trkpt>
      <trkpt lat="46.86004" lon="6.25251">
        <ele>863.7</ele>
        <time>2016-12-12T11:35:51Z</time>
      </trkpt>
      <trkpt lat="46.86009" lon="6.25248">
        <ele>862.8</ele>
        <time>2016-12-12T11:35:53Z</time>
      </trkpt>
      <trkpt lat="46.86012" lon="6.25245">
        <ele>862</ele>
        <time>2016-12-12T11:35:55Z</time>
      </trkpt>
      <trkpt lat="46.86014" lon="6.25243">
        <ele>861.4</ele>
        <time>2016-12-12T11:35:58Z</time>
      </trkpt>
      <trkpt lat="46.86016" lon="6.25239">
        <ele>860.7</ele>
        <time>2016-12-12T11:36:02Z</time>
      </trkpt>
      <trkpt lat="46.86018" lon="6.25236">
        <ele>860.1</ele>
        <time>2016-12-12T11:36:03Z</time>
      </trkpt>
      <trkpt lat="46.86021" lon="6.25232">
        <ele>859.4</ele>
        <time>2016-12-12T11:36:05Z</time>
      </trkpt>
      <trkpt lat="46.86023" lon="6.25227">
        <ele>858.6</ele>
        <time>2016-12-12T11:36:07Z</time>
      </trkpt>
      <trkpt lat="46.86025" lon="6.25223">
        <ele>857.9</ele>
        <time>2016-12-12T11:36:09Z</time>
      </trkpt>
      <trkpt lat="46.86028" lon="6.25222">
        <ele>857.5</ele>
        <time>2016-12-12T11:36:11Z</time>
      </trkpt>
      <trkpt lat="46.86031" lon="6.25218">
        <ele>856.8</ele>
        <time>2016-12-12T11:36:12Z</time>
      </trkpt>
      <trkpt lat="46.86036" lon="6.25214">
        <ele>856.1</ele>
        <time>2016-12-12T11:36:13Z</time>
      </trkpt>
      <trkpt lat="46.86039" lon="6.2521">
        <ele>855.4</ele>
        <time>2016-12-12T11:36:15Z</time>
      </trkpt>
      <trkpt lat="46.86042" lon="6.25208">
        <ele>854.9</ele>
        <time>2016-12-12T11:36:19Z</time>
      </trkpt>
      <trkpt lat="46.86045" lon="6.25206">
        <ele>854.7</ele>
        <time>2016-12-12T11:36:21Z</time>
      </trkpt>
      <trkpt lat="46.86048" lon="6.25203">
        <ele>854.5</ele>
        <time>2016-12-12T11:36:23Z</time>
      </trkpt>
      <trkpt lat="46.86052" lon="6.25199">
        <ele>854.2</ele>
        <time>2016-12-12T11:36:26Z</time>
      </trkpt>
      <trkpt lat="46.86054" lon="6.25195">
        <ele>854</ele>
        <time>2016-12-12T11:36:29Z</time>
      </trkpt>
      <trkpt lat="46.86055" lon="6.25192">
        <ele>853.8</ele>
        <time>2016-12-12T11:36:31Z</time>
      </trkpt>
      <trkpt lat="46.86058" lon="6.25189">
        <ele>853.6</ele>
        <time>2016-12-12T11:36:33Z</time>
      </trkpt>
      <trkpt lat="46.8606" lon="6.25185">
        <ele>853.4</ele>
        <time>2016-12-12T11:36:36Z</time>
      </trkpt>
      <trkpt lat="46.86063" lon="6.2518">
        <ele>853.2</ele>
        <time>2016-12-12T11:36:40Z</time>
      </trkpt>
      <trkpt lat="46.86065" lon="6.25175">
        <ele>852.9</ele>
        <time>2016-12-12T11:36:42Z</time>
      </trkpt>
      <trkpt lat="46.86068" lon="6.25172">
        <ele>852.7</ele>
        <time>2016-12-12T11:36:44Z</time>
      </trkpt>
      <trkpt lat="46.86071" lon="6.25168">
        <ele>852.4</ele>
        <time>2016-12-12T11:36:46Z</time>
      </trkpt>
      <trkpt lat="46.86075" lon="6.25163">
        <ele>852.1</ele>
        <time>2016-12-12T11:36:50Z</time>
      </trkpt>
      <trkpt lat="46.86078" lon="6.2516">
        <ele>851.8</ele>
        <time>2016-12-12T11:36:53Z</time>
      </trkpt>
      <trkpt lat="46.8608" lon="6.25156">
        <ele>851.6</ele>
        <time>2016-12-12T11:36:59Z</time>
      </trkpt>
      <trkpt lat="46.86083" lon="6.25153">
        <ele>851.4</ele>
        <time>2016-12-12T11:37:01Z</time>
      </trkpt>
      <trkpt lat="46.86085" lon="6.2515">
        <ele>851.2</ele>
        <time>2016-12-12T11:37:03Z</time>
      </trkpt>
      <trkpt lat="46.86088" lon="6.25146">
        <ele>850.9</ele>
        <time>2016-12-12T11:37:05Z</time>
      </trkpt>
      <trkpt lat="46.86089" lon="6.2514">
        <ele>850.8</ele>
        <time>2016-12-12T11:37:08Z</time>
      </trkpt>
      <trkpt lat="46.8609" lon="6.25136">
        <ele>850.7</ele>
        <time>2016-12-12T11:37:10Z</time>
      </trkpt>
      <trkpt lat="46.8609" lon="6.25132">
        <ele>850.6</ele>
        <time>2016-12-12T11:37:12Z</time>
      </trkpt>
      <trkpt lat="46.86091" lon="6.25126">
        <ele>850.5</ele>
        <time>2016-12-12T11:37:15Z</time>
      </trkpt>
      <trkpt lat="46.86093" lon="6.2512">
        <ele>850.3</ele>
        <time>2016-12-12T11:37:17Z</time>
      </trkpt>
      <trkpt lat="46.86095" lon="6.25115">
        <ele>850.1</ele>
        <time>2016-12-12T11:37:20Z</time>
      </trkpt>
      <trkpt lat="46.86097" lon="6.25111">
        <ele>850</ele>
        <time>2016-12-12T11:37:22Z</time>
      </trkpt>
      <trkpt lat="46.86098" lon="6.25107">
        <ele>849.9</ele>
        <time>2016-12-12T11:37:24Z</time>
      </trkpt>
      <trkpt lat="46.861" lon="6.25104">
        <ele>849.7</ele>
        <time>2016-12-12T11:37:25Z</time>
      </trkpt>
      <trkpt lat="46.86102" lon="6.25099">
        <ele>849.6</ele>
        <time>2016-12-12T11:37:30Z</time>
      </trkpt>
      <trkpt lat="46.86103" lon="6.25094">
        <ele>849.5</ele>
        <time>2016-12-12T11:37:32Z</time>
      </trkpt>
      <trkpt lat="46.86104" lon="6.25087">
        <ele>849.4</ele>
        <time>2016-12-12T11:37:34Z</time>
      </trkpt>
      <trkpt lat="46.86105" lon="6.25083">
        <ele>849.3</ele>
        <time>2016-12-12T11:37:36Z</time>
      </trkpt>
      <trkpt lat="46.86106" lon="6.25078">
        <ele>849.2</ele>
        <time>2016-12-12T11:37:42Z</time>
      </trkpt>
      <trkpt lat="46.86108" lon="6.25071">
        <ele>849.1</ele>
        <time>2016-12-12T11:37:45Z</time>
      </trkpt>
      <trkpt lat="46.86109" lon="6.25066">
        <ele>849</ele>
        <time>2016-12-12T11:37:46Z</time>
      </trkpt>
      <trkpt lat="46.86108" lon="6.2506">
        <ele>849.1</ele>
        <time>2016-12-12T11:37:48Z</time>
      </trkpt>
      <trkpt lat="46.86107" lon="6.25054">
        <ele>849.1</ele>
        <time>2016-12-12T11:37:51Z</time>
      </trkpt>
      <trkpt lat="46.86106" lon="6.25048">
        <ele>849.2</ele>
        <time>2016-12-12T11:37:54Z</time>
      </trkpt>
      <trkpt lat="46.86105" lon="6.25044">
        <ele>849.2</ele>
        <time>2016-12-12T11:37:55Z</time>
      </trkpt>
      <trkpt lat="46.86104" lon="6.25038">
        <ele>849.4</ele>
        <time>2016-12-12T11:37:57Z</time>
      </trkpt>
      <trkpt lat="46.86103" lon="6.25031">
        <ele>849.6</ele>
        <time>2016-12-12T11:37:59Z</time>
      </trkpt>
      <trkpt lat="46.86103" lon="6.25025">
        <ele>849.8</ele>
        <time>2016-12-12T11:38:01Z</time>
      </trkpt>
      <trkpt lat="46.86103" lon="6.25019">
        <ele>850</ele>
        <time>2016-12-12T11:38:03Z</time>
      </trkpt>
      <trkpt lat="46.86103" lon="6.25012">
        <ele>850.1</ele>
        <time>2016-12-12T11:38:05Z</time>
      </trkpt>
      <trkpt lat="46.86102" lon="6.25006">
        <ele>850.3</ele>
        <time>2016-12-12T11:38:07Z</time>
      </trkpt>
      <trkpt lat="46.86102" lon="6.25">
        <ele>850.5</ele>
        <time>2016-12-12T11:38:09Z</time>
      </trkpt>
      <trkpt lat="46.86101" lon="6.24994">
        <ele>850.7</ele>
        <time>2016-12-12T11:38:11Z</time>
      </trkpt>
      <trkpt lat="46.861" lon="6.24988">
        <ele>850.8</ele>
        <time>2016-12-12T11:38:13Z</time>
      </trkpt>
      <trkpt lat="46.861" lon="6.24982">
        <ele>851</ele>
        <time>2016-12-12T11:38:15Z</time>
      </trkpt>
      <trkpt lat="46.86099" lon="6.24976">
        <ele>851.2</ele>
        <time>2016-12-12T11:38:17Z</time>
      </trkpt>
      <trkpt lat="46.86099" lon="6.2497">
        <ele>851.3</ele>
        <time>2016-12-12T11:38:19Z</time>
      </trkpt>
      <trkpt lat="46.86098" lon="6.24965">
        <ele>851.5</ele>
        <time>2016-12-12T11:38:21Z</time>
      </trkpt>
      <trkpt lat="46.86097" lon="6.24959">
        <ele>851.7</ele>
        <time>2016-12-12T11:38:23Z</time>
      </trkpt>
      <trkpt lat="46.86097" lon="6.24954">
        <ele>851.9</ele>
        <time>2016-12-12T11:38:27Z</time>
      </trkpt>
      <trkpt lat="46.86097" lon="6.24949">
        <ele>852</ele>
        <time>2016-12-12T11:38:29Z</time>
      </trkpt>
      <trkpt lat="46.86097" lon="6.24944">
        <ele>852.2</ele>
        <time>2016-12-12T11:38:31Z</time>
      </trkpt>
      <trkpt lat="46.86098" lon="6.24938">
        <ele>852.4</ele>
        <time>2016-12-12T11:38:34Z</time>
      </trkpt>
      <trkpt lat="46.86101" lon="6.24933">
        <ele>852.5</ele>
        <time>2016-12-12T11:38:36Z</time>
      </trkpt>
      <trkpt lat="46.86103" lon="6.24928">
        <ele>852.7</ele>
        <time>2016-12-12T11:38:38Z</time>
      </trkpt>
      <trkpt lat="46.86104" lon="6.24924">
        <ele>852.8</ele>
        <time>2016-12-12T11:38:40Z</time>
      </trkpt>
      <trkpt lat="46.86106" lon="6.24919">
        <ele>853</ele>
        <time>2016-12-12T11:38:42Z</time>
      </trkpt>
      <trkpt lat="46.86107" lon="6.24915">
        <ele>853.2</ele>
        <time>2016-12-12T11:38:44Z</time>
      </trkpt>
      <trkpt lat="46.86108" lon="6.24911">
        <ele>853.4</ele>
        <time>2016-12-12T11:38:47Z</time>
      </trkpt>
      <trkpt lat="46.8611" lon="6.24906">
        <ele>853.5</ele>
        <time>2016-12-12T11:38:50Z</time>
      </trkpt>
      <trkpt lat="46.86112" lon="6.249">
        <ele>853.8</ele>
        <time>2016-12-12T11:38:53Z</time>
      </trkpt>
      <trkpt lat="46.86115" lon="6.24898">
        <ele>853.9</ele>
        <time>2016-12-12T11:38:55Z</time>
      </trkpt>
      <trkpt lat="46.86118" lon="6.24894">
        <ele>854</ele>
        <time>2016-12-12T11:38:57Z</time>
      </trkpt>
      <trkpt lat="46.86123" lon="6.2489">
        <ele>854.3</ele>
        <time>2016-12-12T11:38:59Z</time>
      </trkpt>
      <trkpt lat="46.86126" lon="6.24887">
        <ele>854.4</ele>
        <time>2016-12-12T11:39:01Z</time>
      </trkpt>
      <trkpt lat="46.86131" lon="6.24884">
        <ele>854.5</ele>
        <time>2016-12-12T11:39:05Z</time>
      </trkpt>
      <trkpt lat="46.86135" lon="6.2488">
        <ele>854.6</ele>
        <time>2016-12-12T11:39:07Z</time>
      </trkpt>
      <trkpt lat="46.86138" lon="6.24878">
        <ele>854.6</ele>
        <time>2016-12-12T11:39:08Z</time>
      </trkpt>
      <trkpt lat="46.86143" lon="6.24875">
        <ele>854.6</ele>
        <time>2016-12-12T11:39:10Z</time>
      </trkpt>
      <trkpt lat="46.86148" lon="6.24873">
        <ele>854.6</ele>
        <time>2016-12-12T11:39:11Z</time>
      </trkpt>
      <trkpt lat="46.86152" lon="6.2487">
        <ele>854.8</ele>
        <time>2016-12-12T11:39:12Z</time>
      </trkpt>
      <trkpt lat="46.86154" lon="6.24868">
        <ele>854.9</ele>
        <time>2016-12-12T11:39:13Z</time>
      </trkpt>
      <trkpt lat="46.86157" lon="6.24866">
        <ele>855</ele>
        <time>2016-12-12T11:39:15Z</time>
      </trkpt>
      <trkpt lat="46.86161" lon="6.24864">
        <ele>855.1</ele>
        <time>2016-12-12T11:39:17Z</time>
      </trkpt>
      <trkpt lat="46.86164" lon="6.24861">
        <ele>855.3</ele>
        <time>2016-12-12T11:39:18Z</time>
      </trkpt>
      <trkpt lat="46.86168" lon="6.24859">
        <ele>855.3</ele>
        <time>2016-12-12T11:39:20Z</time>
      </trkpt>
      <trkpt lat="46.86171" lon="6.24857">
        <ele>855.4</ele>
        <time>2016-12-12T11:39:22Z</time>
      </trkpt>
      <trkpt lat="46.86176" lon="6.24855">
        <ele>855.4</ele>
        <time>2016-12-12T11:39:26Z</time>
      </trkpt>
      <trkpt lat="46.86179" lon="6.24853">
        <ele>855.5</ele>
        <time>2016-12-12T11:39:27Z</time>
      </trkpt>
      <trkpt lat="46.86183" lon="6.2485">
        <ele>855.6</ele>
        <time>2016-12-12T11:39:29Z</time>
      </trkpt>
      <trkpt lat="46.86187" lon="6.24847">
        <ele>855.7</ele>
        <time>2016-12-12T11:39:31Z</time>
      </trkpt>
      <trkpt lat="46.86191" lon="6.24845">
        <ele>855.8</ele>
        <time>2016-12-12T11:39:33Z</time>
      </trkpt>
      <trkpt lat="46.86194" lon="6.24843">
        <ele>855.8</ele>
        <time>2016-12-12T11:39:35Z</time>
      </trkpt>
      <trkpt lat="46.86199" lon="6.24839">
        <ele>855.9</ele>
        <time>2016-12-12T11:39:37Z</time>
      </trkpt>
      <trkpt lat="46.86202" lon="6.24838">
        <ele>855.9</ele>
        <time>2016-12-12T11:39:38Z</time>
      </trkpt>
      <trkpt lat="46.86206" lon="6.24836">
        <ele>855.9</ele>
        <time>2016-12-12T11:39:39Z</time>
      </trkpt>
      <trkpt lat="46.86208" lon="6.24834">
        <ele>856</ele>
        <time>2016-12-12T11:39:40Z</time>
      </trkpt>
      <trkpt lat="46.86213" lon="6.24831">
        <ele>855.5</ele>
        <time>2016-12-12T11:39:42Z</time>
      </trkpt>
      <trkpt lat="46.86217" lon="6.2483">
        <ele>855.2</ele>
        <time>2016-12-12T11:39:43Z</time>
      </trkpt>
      <trkpt lat="46.86219" lon="6.24829">
        <ele>854.9</ele>
        <time>2016-12-12T11:39:44Z</time>
      </trkpt>
      <trkpt lat="46.86224" lon="6.24825">
        <ele>854.5</ele>
        <time>2016-12-12T11:39:46Z</time>
      </trkpt>
      <trkpt lat="46.86229" lon="6.24824">
        <ele>853.9</ele>
        <time>2016-12-12T11:39:48Z</time>
      </trkpt>
      <trkpt lat="46.86232" lon="6.24823">
        <ele>853.6</ele>
        <time>2016-12-12T11:39:50Z</time>
      </trkpt>
      <trkpt lat="46.86234" lon="6.24821">
        <ele>853.3</ele>
        <time>2016-12-12T11:39:53Z</time>
      </trkpt>
      <trkpt lat="46.86234" lon="6.24814">
        <ele>853.7</ele>
        <time>2016-12-12T11:39:55Z</time>
      </trkpt>
      <trkpt lat="46.86236" lon="6.24811">
        <ele>853.5</ele>
        <time>2016-12-12T11:39:58Z</time>
      </trkpt>
      <trkpt lat="46.86238" lon="6.24807">
        <ele>853.5</ele>
        <time>2016-12-12T11:40:02Z</time>
      </trkpt>
      <trkpt lat="46.86241" lon="6.24805">
        <ele>853</ele>
        <time>2016-12-12T11:40:04Z</time>
      </trkpt>
      <trkpt lat="46.86244" lon="6.24804">
        <ele>852.6</ele>
        <time>2016-12-12T11:40:06Z</time>
      </trkpt>
      <trkpt lat="46.86248" lon="6.24801">
        <ele>852.1</ele>
        <time>2016-12-12T11:40:08Z</time>
      </trkpt>
      <trkpt lat="46.8625" lon="6.24797">
        <ele>851.9</ele>
        <time>2016-12-12T11:40:10Z</time>
      </trkpt>
      <trkpt lat="46.86253" lon="6.24797">
        <ele>851.3</ele>
        <time>2016-12-12T11:40:15Z</time>
      </trkpt>
      <trkpt lat="46.86257" lon="6.24798">
        <ele>850.7</ele>
        <time>2016-12-12T11:40:17Z</time>
      </trkpt>
      <trkpt lat="46.86262" lon="6.24797">
        <ele>849.9</ele>
        <time>2016-12-12T11:40:19Z</time>
      </trkpt>
      <trkpt lat="46.86264" lon="6.24795">
        <ele>849.6</ele>
        <time>2016-12-12T11:40:27Z</time>
      </trkpt>
      <trkpt lat="46.86267" lon="6.24792">
        <ele>849.2</ele>
        <time>2016-12-12T11:40:30Z</time>
      </trkpt>
      <trkpt lat="46.8627" lon="6.24789">
        <ele>848.7</ele>
        <time>2016-12-12T11:40:33Z</time>
      </trkpt>
      <trkpt lat="46.86273" lon="6.24786">
        <ele>848.2</ele>
        <time>2016-12-12T11:40:35Z</time>
      </trkpt>
      <trkpt lat="46.86277" lon="6.24782">
        <ele>847.6</ele>
        <time>2016-12-12T11:40:37Z</time>
      </trkpt>
      <trkpt lat="46.8628" lon="6.24778">
        <ele>847.1</ele>
        <time>2016-12-12T11:40:39Z</time>
      </trkpt>
      <trkpt lat="46.86284" lon="6.24774">
        <ele>846.5</ele>
        <time>2016-12-12T11:40:42Z</time>
      </trkpt>
      <trkpt lat="46.86286" lon="6.24771">
        <ele>846.2</ele>
        <time>2016-12-12T11:40:44Z</time>
      </trkpt>
      <trkpt lat="46.86289" lon="6.24768">
        <ele>845.8</ele>
        <time>2016-12-12T11:40:47Z</time>
      </trkpt>
      <trkpt lat="46.86291" lon="6.24764">
        <ele>845.4</ele>
        <time>2016-12-12T11:40:50Z</time>
      </trkpt>
      <trkpt lat="46.86294" lon="6.2476">
        <ele>845.2</ele>
        <time>2016-12-12T11:40:52Z</time>
      </trkpt>
      <trkpt lat="46.86296" lon="6.24757">
        <ele>845.1</ele>
        <time>2016-12-12T11:40:54Z</time>
      </trkpt>
      <trkpt lat="46.86299" lon="6.24753">
        <ele>845</ele>
        <time>2016-12-12T11:40:56Z</time>
      </trkpt>
      <trkpt lat="46.863" lon="6.24749">
        <ele>844.9</ele>
        <time>2016-12-12T11:40:58Z</time>
      </trkpt>
      <trkpt lat="46.86303" lon="6.24746">
        <ele>844.7</ele>
        <time>2016-12-12T11:41:01Z</time>
      </trkpt>
      <trkpt lat="46.86306" lon="6.24743">
        <ele>844.5</ele>
        <time>2016-12-12T11:41:03Z</time>
      </trkpt>
      <trkpt lat="46.86309" lon="6.24739">
        <ele>844.3</ele>
        <time>2016-12-12T11:41:05Z</time>
      </trkpt>
      <trkpt lat="46.86311" lon="6.24736">
        <ele>844.2</ele>
        <time>2016-12-12T11:41:07Z</time>
      </trkpt>
      <trkpt lat="46.86313" lon="6.24733">
        <ele>844</ele>
        <time>2016-12-12T11:41:09Z</time>
      </trkpt>
      <trkpt lat="46.86316" lon="6.24729">
        <ele>843.9</ele>
        <time>2016-12-12T11:41:12Z</time>
      </trkpt>
      <trkpt lat="46.86318" lon="6.24725">
        <ele>843.7</ele>
        <time>2016-12-12T11:41:16Z</time>
      </trkpt>
      <trkpt lat="46.86321" lon="6.24721">
        <ele>843.5</ele>
        <time>2016-12-12T11:41:19Z</time>
      </trkpt>
      <trkpt lat="46.86323" lon="6.24717">
        <ele>843.3</ele>
        <time>2016-12-12T11:41:21Z</time>
      </trkpt>
      <trkpt lat="46.86326" lon="6.24713">
        <ele>843.1</ele>
        <time>2016-12-12T11:41:23Z</time>
      </trkpt>
      <trkpt lat="46.86328" lon="6.2471">
        <ele>842.9</ele>
        <time>2016-12-12T11:41:25Z</time>
      </trkpt>
      <trkpt lat="46.8633" lon="6.24706">
        <ele>842.7</ele>
        <time>2016-12-12T11:41:28Z</time>
      </trkpt>
      <trkpt lat="46.86332" lon="6.24703">
        <ele>842.5</ele>
        <time>2016-12-12T11:41:31Z</time>
      </trkpt>
      <trkpt lat="46.86335" lon="6.24699">
        <ele>842.2</ele>
        <time>2016-12-12T11:41:33Z</time>
      </trkpt>
      <trkpt lat="46.86337" lon="6.24696">
        <ele>841.9</ele>
        <time>2016-12-12T11:41:36Z</time>
      </trkpt>
      <trkpt lat="46.8634" lon="6.24693">
        <ele>841.7</ele>
        <time>2016-12-12T11:41:38Z</time>
      </trkpt>
      <trkpt lat="46.86343" lon="6.2469">
        <ele>841.5</ele>
        <time>2016-12-12T11:41:40Z</time>
      </trkpt>
      <trkpt lat="46.86345" lon="6.24687">
        <ele>841.2</ele>
        <time>2016-12-12T11:41:43Z</time>
      </trkpt>
      <trkpt lat="46.86348" lon="6.24683">
        <ele>841</ele>
        <time>2016-12-12T11:41:46Z</time>
      </trkpt>
      <trkpt lat="46.86349" lon="6.24678">
        <ele>840.8</ele>
        <time>2016-12-12T11:41:48Z</time>
      </trkpt>
      <trkpt lat="46.86351" lon="6.24673">
        <ele>840.6</ele>
        <time>2016-12-12T11:41:50Z</time>
      </trkpt>
      <trkpt lat="46.86353" lon="6.24667">
        <ele>840.4</ele>
        <time>2016-12-12T11:41:52Z</time>
      </trkpt>
      <trkpt lat="46.86355" lon="6.24664">
        <ele>840.3</ele>
        <time>2016-12-12T11:41:54Z</time>
      </trkpt>
      <trkpt lat="46.86357" lon="6.24661">
        <ele>840.2</ele>
        <time>2016-12-12T11:41:57Z</time>
      </trkpt>
      <trkpt lat="46.8636" lon="6.24657">
        <ele>839.9</ele>
        <time>2016-12-12T11:42:00Z</time>
      </trkpt>
      <trkpt lat="46.86362" lon="6.24651">
        <ele>839.8</ele>
        <time>2016-12-12T11:42:03Z</time>
      </trkpt>
      <trkpt lat="46.86365" lon="6.24647">
        <ele>839.6</ele>
        <time>2016-12-12T11:42:06Z</time>
      </trkpt>
      <trkpt lat="46.86367" lon="6.24644">
        <ele>839.5</ele>
        <time>2016-12-12T11:42:08Z</time>
      </trkpt>
      <trkpt lat="46.86368" lon="6.24639">
        <ele>839.4</ele>
        <time>2016-12-12T11:42:11Z</time>
      </trkpt>
      <trkpt lat="46.8637" lon="6.24633">
        <ele>839.3</ele>
        <time>2016-12-12T11:42:13Z</time>
      </trkpt>
      <trkpt lat="46.86371" lon="6.2463">
        <ele>839.2</ele>
        <time>2016-12-12T11:42:14Z</time>
      </trkpt>
      <trkpt lat="46.86372" lon="6.24626">
        <ele>839.1</ele>
        <time>2016-12-12T11:42:16Z</time>
      </trkpt>
      <trkpt lat="46.86374" lon="6.24622">
        <ele>839.1</ele>
        <time>2016-12-12T11:42:18Z</time>
      </trkpt>
      <trkpt lat="46.86375" lon="6.24618">
        <ele>839.2</ele>
        <time>2016-12-12T11:42:21Z</time>
      </trkpt>
      <trkpt lat="46.86377" lon="6.24614">
        <ele>839.2</ele>
        <time>2016-12-12T11:42:23Z</time>
      </trkpt>
      <trkpt lat="46.86378" lon="6.2461">
        <ele>839.3</ele>
        <time>2016-12-12T11:42:26Z</time>
      </trkpt>
      <trkpt lat="46.8638" lon="6.24606">
        <ele>839.3</ele>
        <time>2016-12-12T11:42:29Z</time>
      </trkpt>
      <trkpt lat="46.86382" lon="6.24601">
        <ele>839.4</ele>
        <time>2016-12-12T11:42:32Z</time>
      </trkpt>
      <trkpt lat="46.86384" lon="6.24595">
        <ele>839.4</ele>
        <time>2016-12-12T11:42:34Z</time>
      </trkpt>
      <trkpt lat="46.86386" lon="6.24591">
        <ele>839.5</ele>
        <time>2016-12-12T11:42:36Z</time>
      </trkpt>
      <trkpt lat="46.86388" lon="6.24587">
        <ele>839.5</ele>
        <time>2016-12-12T11:42:38Z</time>
      </trkpt>
      <trkpt lat="46.8639" lon="6.24584">
        <ele>839.4</ele>
        <time>2016-12-12T11:42:40Z</time>
      </trkpt>
      <trkpt lat="46.86393" lon="6.24581">
        <ele>839.4</ele>
        <time>2016-12-12T11:42:42Z</time>
      </trkpt>
      <trkpt lat="46.86396" lon="6.24579">
        <ele>839.3</ele>
        <time>2016-12-12T11:42:44Z</time>
      </trkpt>
      <trkpt lat="46.86398" lon="6.24576">
        <ele>839.3</ele>
        <time>2016-12-12T11:42:47Z</time>
      </trkpt>
      <trkpt lat="46.86401" lon="6.24573">
        <ele>839.2</ele>
        <time>2016-12-12T11:42:49Z</time>
      </trkpt>
      <trkpt lat="46.86403" lon="6.24568">
        <ele>839.2</ele>
        <time>2016-12-12T11:42:52Z</time>
      </trkpt>
      <trkpt lat="46.86404" lon="6.24565">
        <ele>839.2</ele>
        <time>2016-12-12T11:42:53Z</time>
      </trkpt>
      <trkpt lat="46.86407" lon="6.2456">
        <ele>839.2</ele>
        <time>2016-12-12T11:42:55Z</time>
      </trkpt>
      <trkpt lat="46.86409" lon="6.24557">
        <ele>839.2</ele>
        <time>2016-12-12T11:42:57Z</time>
      </trkpt>
      <trkpt lat="46.86411" lon="6.24554">
        <ele>839.1</ele>
        <time>2016-12-12T11:42:59Z</time>
      </trkpt>
      <trkpt lat="46.86413" lon="6.24551">
        <ele>839.1</ele>
        <time>2016-12-12T11:43:01Z</time>
      </trkpt>
      <trkpt lat="46.86416" lon="6.24548">
        <ele>839</ele>
        <time>2016-12-12T11:43:03Z</time>
      </trkpt>
      <trkpt lat="46.86418" lon="6.24545">
        <ele>838.9</ele>
        <time>2016-12-12T11:43:05Z</time>
      </trkpt>
      <trkpt lat="46.8642" lon="6.24543">
        <ele>838.8</ele>
        <time>2016-12-12T11:43:07Z</time>
      </trkpt>
      <trkpt lat="46.86423" lon="6.24539">
        <ele>838.8</ele>
        <time>2016-12-12T11:43:09Z</time>
      </trkpt>
      <trkpt lat="46.86426" lon="6.24536">
        <ele>838.7</ele>
        <time>2016-12-12T11:43:12Z</time>
      </trkpt>
      <trkpt lat="46.86429" lon="6.24534">
        <ele>838.7</ele>
        <time>2016-12-12T11:43:14Z</time>
      </trkpt>
      <trkpt lat="46.86432" lon="6.24531">
        <ele>838.6</ele>
        <time>2016-12-12T11:43:16Z</time>
      </trkpt>
      <trkpt lat="46.86436" lon="6.24528">
        <ele>838.5</ele>
        <time>2016-12-12T11:43:18Z</time>
      </trkpt>
      <trkpt lat="46.86439" lon="6.24526">
        <ele>838.5</ele>
        <time>2016-12-12T11:43:19Z</time>
      </trkpt>
      <trkpt lat="46.86443" lon="6.24523">
        <ele>838.4</ele>
        <time>2016-12-12T11:43:21Z</time>
      </trkpt>
      <trkpt lat="46.86447" lon="6.2452">
        <ele>838.3</ele>
        <time>2016-12-12T11:43:23Z</time>
      </trkpt>
      <trkpt lat="46.8645" lon="6.24518">
        <ele>838.2</ele>
        <time>2016-12-12T11:43:26Z</time>
      </trkpt>
      <trkpt lat="46.86452" lon="6.24515">
        <ele>838.2</ele>
        <time>2016-12-12T11:43:29Z</time>
      </trkpt>
      <trkpt lat="46.86455" lon="6.24513">
        <ele>838.2</ele>
        <time>2016-12-12T11:43:33Z</time>
      </trkpt>
      <trkpt lat="46.86457" lon="6.2451">
        <ele>838.2</ele>
        <time>2016-12-12T11:43:35Z</time>
      </trkpt>
      <trkpt lat="46.86461" lon="6.24509">
        <ele>838.1</ele>
        <time>2016-12-12T11:43:37Z</time>
      </trkpt>
      <trkpt lat="46.86464" lon="6.24506">
        <ele>838</ele>
        <time>2016-12-12T11:43:39Z</time>
      </trkpt>
      <trkpt lat="46.86467" lon="6.24504">
        <ele>838</ele>
        <time>2016-12-12T11:43:41Z</time>
      </trkpt>
      <trkpt lat="46.8647" lon="6.24501">
        <ele>838</ele>
        <time>2016-12-12T11:43:43Z</time>
      </trkpt>
      <trkpt lat="46.86473" lon="6.24498">
        <ele>838</ele>
        <time>2016-12-12T11:43:45Z</time>
      </trkpt>
      <trkpt lat="46.86475" lon="6.24494">
        <ele>838</ele>
        <time>2016-12-12T11:43:48Z</time>
      </trkpt>
      <trkpt lat="46.86477" lon="6.2449">
        <ele>838.1</ele>
        <time>2016-12-12T11:43:51Z</time>
      </trkpt>
      <trkpt lat="46.8648" lon="6.24485">
        <ele>838.1</ele>
        <time>2016-12-12T11:43:53Z</time>
      </trkpt>
      <trkpt lat="46.86485" lon="6.24481">
        <ele>838</ele>
        <time>2016-12-12T11:43:55Z</time>
      </trkpt>
      <trkpt lat="46.86488" lon="6.24477">
        <ele>838</ele>
        <time>2016-12-12T11:43:57Z</time>
      </trkpt>
      <trkpt lat="46.86491" lon="6.24475">
        <ele>837.9</ele>
        <time>2016-12-12T11:43:59Z</time>
      </trkpt>
      <trkpt lat="46.86494" lon="6.24473">
        <ele>837.9</ele>
        <time>2016-12-12T11:44:01Z</time>
      </trkpt>
      <trkpt lat="46.86498" lon="6.2447">
        <ele>837.8</ele>
        <time>2016-12-12T11:44:03Z</time>
      </trkpt>
      <trkpt lat="46.86501" lon="6.24467">
        <ele>837.7</ele>
        <time>2016-12-12T11:44:05Z</time>
      </trkpt>
      <trkpt lat="46.86504" lon="6.24466">
        <ele>837.6</ele>
        <time>2016-12-12T11:44:07Z</time>
      </trkpt>
      <trkpt lat="46.86507" lon="6.24464">
        <ele>837.5</ele>
        <time>2016-12-12T11:44:10Z</time>
      </trkpt>
      <trkpt lat="46.86509" lon="6.24461">
        <ele>837.5</ele>
        <time>2016-12-12T11:44:13Z</time>
      </trkpt>
      <trkpt lat="46.86512" lon="6.24458">
        <ele>837.4</ele>
        <time>2016-12-12T11:44:16Z</time>
      </trkpt>
      <trkpt lat="46.86516" lon="6.24454">
        <ele>837.3</ele>
        <time>2016-12-12T11:44:18Z</time>
      </trkpt>
      <trkpt lat="46.86519" lon="6.2445">
        <ele>837.1</ele>
        <time>2016-12-12T11:44:20Z</time>
      </trkpt>
      <trkpt lat="46.86522" lon="6.24447">
        <ele>836.9</ele>
        <time>2016-12-12T11:44:23Z</time>
      </trkpt>
      <trkpt lat="46.86524" lon="6.24445">
        <ele>836.8</ele>
        <time>2016-12-12T11:44:27Z</time>
      </trkpt>
      <trkpt lat="46.86527" lon="6.24442">
        <ele>836.7</ele>
        <time>2016-12-12T11:44:30Z</time>
      </trkpt>
      <trkpt lat="46.8653" lon="6.24439">
        <ele>836.6</ele>
        <time>2016-12-12T11:44:32Z</time>
      </trkpt>
      <trkpt lat="46.86533" lon="6.24437">
        <ele>836.4</ele>
        <time>2016-12-12T11:44:34Z</time>
      </trkpt>
      <trkpt lat="46.86535" lon="6.24434">
        <ele>836.3</ele>
        <time>2016-12-12T11:44:39Z</time>
      </trkpt>
      <trkpt lat="46.86538" lon="6.24431">
        <ele>836.2</ele>
        <time>2016-12-12T11:44:41Z</time>
      </trkpt>
      <trkpt lat="46.8654" lon="6.24428">
        <ele>836.1</ele>
        <time>2016-12-12T11:44:43Z</time>
      </trkpt>
      <trkpt lat="46.86542" lon="6.24424">
        <ele>836</ele>
        <time>2016-12-12T11:44:45Z</time>
      </trkpt>
      <trkpt lat="46.86545" lon="6.24421">
        <ele>835.9</ele>
        <time>2016-12-12T11:44:47Z</time>
      </trkpt>
      <trkpt lat="46.86546" lon="6.24418">
        <ele>835.8</ele>
        <time>2016-12-12T11:44:49Z</time>
      </trkpt>
      <trkpt lat="46.86548" lon="6.24414">
        <ele>835.7</ele>
        <time>2016-12-12T11:44:53Z</time>
      </trkpt>
    </trkseg>
  </trk>
</gpx>